# Wetter Temperatur Luftdruck Luftfeuchtigkeit Sichtweite Windgeschwindigkeit Windrichtung Zeit
1 Snow -2 985 86 2200 10 190 11:21 08.04.2020
2 Snow -1 983 92 2800 9 180 10:56 08.04.2020
3 Snow -1 983 92 2800 9 180 10:56 08.04.2020
4 Snow -1 983 92 2800 9 180 10:37 08.04.2020
5 Snow -1 983 92 2800 9 180 10:18 08.04.2020
6 Snow 0 982 96 7000 8 170 09:55 08.04.2020
7 Snow 0 982 97 1500 6 170 09:36 08.04.2020
8 Snow 0 982 97 1500 6 170 09:18 08.04.2020
9 Snow 0 981 97 10000 7 170 08:42 08.04.2020
10 Snow 0 981 97 10000 7 170 08:22 08.04.2020
11 Snow 0 981 97 5000 8 150 07:44 08.04.2020
12 Snow 0 981 97 5000 8 150 07:25 08.04.2020
13 Snow 0 981 97 9000 6 150 06:55 08.04.2020
14 Snow 0 981 94 3300 5 160 05:56 08.04.2020
15 Clouds 2 981 100 10000 6 130 03:49 08.04.2020
16 Clouds 2 982 100 10000 5 120 02:49 08.04.2020
17 Clouds 2 982 100 10000 5 120 02:19 08.04.2020
18 Rain 3 983 93 10000 4 140 01:43 08.04.2020
19 Rain 3 983 93 10000 4 140 01:22 08.04.2020
20 Rain 3 983 100 10000 10 110 00:41 08.04.2020
21 Rain 3 983 100 10000 10 110 00:21 08.04.2020
22 Rain 3 985 100 7000 11 110 23:39 07.04.2020
23 Rain 3 985 100 7000 11 110 23:20 07.04.2020
24 Rain 3 985 100 9000 11 100 22:57 07.04.2020
25 Rain 3 985 100 9000 11 100 22:57 07.04.2020
26 Rain 3 986 100 8000 11 100 22:39 07.04.2020
27 Rain 3 986 100 8000 11 100 22:19 07.04.2020
28 Rain 3 988 100 7000 10 110 21:56 07.04.2020
29 Rain 3 988 100 8000 11 100 21:38 07.04.2020
30 Rain 3 988 100 8000 11 100 21:19 07.04.2020
31 Rain 3 991 100 8000 10 90 20:55 07.04.2020
32 Rain 3 991 100 8000 10 90 20:55 07.04.2020
33 Rain 3 991 100 8000 10 90 20:36 07.04.2020
34 Rain 3 992 100 10000 9 90 20:18 07.04.2020
35 Rain 3 992 100 10000 9 90 20:18 07.04.2020
36 Rain 2 994 100 9000 8 80 19:55 07.04.2020
37 Rain 3 995 100 9000 7 90 19:36 07.04.2020
38 Rain 3 995 100 9000 7 90 19:18 07.04.2020
39 Rain 3 995 100 9000 7 90 19:18 07.04.2020
40 Rain 3 996 100 10000 6 90 18:41 07.04.2020
41 Rain 3 996 100 10000 6 90 18:21 07.04.2020
42 Rain 3 997 93 10000 4 110 17:59 07.04.2020
43 Clouds 3 997 93 10000 5 110 17:40 07.04.2020
44 Clouds 3 997 93 10000 5 110 17:20 07.04.2020
45 Rain 3 998 100 10000 5 60 16:45 07.04.2020
46 Rain 3 998 100 10000 5 60 16:26 07.04.2020
47 Clouds 2 1000 100 10000 6 40 15:47 07.04.2020
48 Clouds 3 1000 100 8000 5 40 15:27 07.04.2020
49 Clouds 3 1000 100 8000 5 40 14:58 07.04.2020
50 Rain 2 1001 100 9000 3 30 14:39 07.04.2020
51 Rain 2 1001 100 9000 3 30 14:20 07.04.2020
52 Clouds 3 1002 100 10000 3 20 13:43 07.04.2020
53 Clouds 3 1002 100 10000 3 20 13:20 07.04.2020
54 Clouds 3 1002 100 10000 3.55 71 12:58 07.04.2020
55 Rain 2 1003 100 10000 1 0 12:39 07.04.2020
56 Rain 2 1003 100 10000 1 0 12:21 07.04.2020
57 Rain 3 1003 100 10000 2 190 11:58 07.04.2020
58 Rain 3 1003 100 10000 3 200 11:40 07.04.2020
59 Rain 3 1003 100 10000 3 200 11:21 07.04.2020
60 Rain 3 1003 100 9000 3 210 10:54 07.04.2020
61 Rain 3 1003 100 10000 3 210 10:36 07.04.2020
62 Rain 3 1003 100 9000 4 200 10:18 07.04.2020
63 Rain 3 1003 100 9000 4 190 09:40 07.04.2020
64 Rain 3 1003 100 9000 4 190 09:18 07.04.2020
65 Rain 3 1003 100 9000 4 180 08:40 07.04.2020
66 Rain 3 1003 100 9000 4 180 08:22 07.04.2020
67 Rain 3 1003 100 9000 4 180 07:55 07.04.2020
68 Rain 3 1002 100 6000 4 170 07:37 07.04.2020
69 Rain 3 1003 100 9000 5 190 07:18 07.04.2020
70 Rain 2 1003 100 7000 4 180 06:39 07.04.2020
71 Rain 2 1002 100 8000 3 170 06:18 07.04.2020
72 Rain 2 1002 100 9000 4 180 05:26 07.04.2020
73 Rain 2 1002 100 10000 5 170 04:31 07.04.2020
74 Rain 3 1003 93 10000 4 160 03:23 07.04.2020
75 Clouds 2 1003 100 10000 5 130 02:47 07.04.2020
76 Clouds 3 1004 100 10000 3 170 01:43 07.04.2020
77 Clouds 3 1004 100 10000 3 170 01:22 07.04.2020
78 Clouds 3 1005 100 10000 4 170 00:26 07.04.2020
79 Rain 3 1005 100 10000 5 160 23:44 06.04.2020
80 Rain 3 1005 100 10000 5 160 23:23 06.04.2020
81 Rain 3 1005 100 10000 5 160 22:56 06.04.2020
82 Clouds 3 1005 100 10000 5 150 22:37 06.04.2020
83 Clouds 3 1005 100 10000 5 150 22:19 06.04.2020
84 Clouds 2 1006 100 10000 5 150 21:56 06.04.2020
85 Clouds 2 1006 100 9000 5 150 21:37 06.04.2020
86 Clouds 2 1006 100 9000 5 150 21:18 06.04.2020
87 Clouds 2 1006 100 10000 6 120 20:41 06.04.2020
88 Clouds 2 1006 100 10000 6 120 20:21 06.04.2020
89 Clouds 2 1007 100 10000 6 140 19:58 06.04.2020
90 Clouds 2 1007 100 10000 6 140 19:39 06.04.2020
91 Clouds 2 1008 100 10000 6 150 19:20 06.04.2020
92 Clouds 2 1008 100 10000 6 150 18:45 06.04.2020
93 Clouds 2 1008 100 10000 5 140 18:24 06.04.2020
94 Clouds 2 1008 100 10000 5 140 17:59 06.04.2020
95 Clouds 1 1008 100 10000 4 110 17:41 06.04.2020
96 Clouds 1 1008 100 10000 4 110 17:19 06.04.2020
97 Clouds 2 1009 100 10000 4 130 16:49 06.04.2020
98 Clouds 2 1009 100 10000 4 140 16:30 06.04.2020
99 Clouds 1 1009 100 10000 3 180 15:00 06.04.2020
100 Clouds 1 1009 100 10000 1 0 13:45 06.04.2020
101 Clouds 1 1009 100 10000 1 0 13:45 06.04.2020
102 Clouds 1 1008 100 10000 2 200 13:23 06.04.2020
103 Clouds 1 1008 100 10000 2 240 12:48 06.04.2020
104 Clouds 1 1008 100 10000 2 240 12:47 06.04.2020
105 Clouds 1 1008 100 10000 2 240 12:47 06.04.2020
106 Clouds 1 1008 100 10000 2 240 12:47 06.04.2020
107 Clouds 1 1008 100 10000 2 240 12:47 06.04.2020
108 Clouds 2 1008 100 10000 3 220 12:20 06.04.2020
109 -273 0 0 0 0 0 11:50 06.04.2020
110 Clouds 1 1008 100 10000 3 280 11:50 06.04.2020
111 Clouds 1 1008 100 10000 3 280 11:50 06.04.2020
112 Clouds 1 1008 100 10000 3 280 11:48 06.04.2020
113 Clouds 2 1008 100 10000 3 250 11:28 06.04.2020
114 Clouds 2 1008 100 10000 3 250 11:28 06.04.2020
115 Clouds 2 1008 100 10000 3 250 11:28 06.04.2020
116 Clouds 2 1008 100 10000 3 250 11:28 06.04.2020
117 Clouds 2 1008 100 10000 3 250 11:28 06.04.2020
118 Clouds 2 1007 100 10000 4 260 10:46 06.04.2020
119 Clouds 2 1007 100 10000 4 260 10:46 06.04.2020
120 Clouds 2 1007 100 10000 4 260 10:46 06.04.2020
121 Clouds 2 1007 100 10000 4 260 10:46 06.04.2020
122 Clouds 2 1007 100 10000 4 260 10:46 06.04.2020
123 Clouds 1 1007 100 10000 4 270 10:21 06.04.2020
124 Clouds 1 1007 100 10000 4 270 10:21 06.04.2020
125 Clouds 1 1007 100 10000 4 270 10:21 06.04.2020
126 Clouds 1 1006 100 10000 4 280 09:42 06.04.2020
127 Clouds 1 1006 100 10000 4 280 09:42 06.04.2020
128 Clouds 1 1006 100 10000 4 280 09:42 06.04.2020
129 Clouds 1 1006 100 10000 4 280 09:42 06.04.2020
130 Clouds 1 1006 100 10000 4 280 09:42 06.04.2020
131 Clouds 1 1006 100 10000 5 280 09:20 06.04.2020
132 Clouds 1 1006 100 10000 6 280 08:49 06.04.2020
133 Clouds 1 1005 100 10000 6 280 08:29 06.04.2020
134 Clouds 1 1005 100 10000 6 280 08:29 06.04.2020
135 Clouds 1 1005 100 10000 6 280 08:29 06.04.2020
136 Clouds 1 1005 100 10000 5 290 07:24 06.04.2020
137 Clouds 1 1005 100 10000 5 290 07:24 06.04.2020
138 Clouds 1 1004 100 10000 5 280 06:28 06.04.2020
139 Clouds 1 1003 100 10000 5 280 05:57 06.04.2020
140 Clouds 1 1003 100 10000 5 280 05:57 06.04.2020
141 Clouds 1 1003 100 10000 5 280 05:57 06.04.2020
142 Snow 1 1003 100 2000 2 240 04:18 06.04.2020
143 Clouds 1 1003 100 4500 2 200 02:54 06.04.2020
144 Clouds 1 1003 100 10000 3 190 01:56 06.04.2020
145 Clouds 2 1003 100 10000 4 190 00:58 06.04.2020
146 Clouds 2 1003 100 10000 3 180 00:28 06.04.2020
147 Clouds 2 1003 100 9000 3 190 23:55 05.04.2020
148 Rain 3 1004 93 9000 4 190 23:37 05.04.2020
149 Rain 3 1004 93 9000 4 190 23:19 05.04.2020
150 Clouds 3 1004 100 10000 2 160 22:54 05.04.2020
151 Clouds 2 1004 100 10000 2 100 22:36 05.04.2020
152 Clouds 2 1004 100 10000 2 100 22:18 05.04.2020
153 Clouds 3 1004 100 10000 2 150 21:41 05.04.2020
154 Clouds 3 1005 100 10000 2 170 21:23 05.04.2020
155 Clouds 3 1006 100 10000 3 210 20:24 05.04.2020
156 Clouds 3 1006 100 10000 3 210 20:24 05.04.2020
157 Clouds 3 1006 100 10000 4 230 19:43 05.04.2020
158 Rain 2 1007 100 7000 6 220 19:24 05.04.2020
159 Clouds 6 1006 48 10000 6 210 18:48 05.04.2020
160 Clouds 6 1006 48 10000 4 170 18:18 05.04.2020
161 Clouds 6 1006 48 10000 4 170 18:18 05.04.2020
162 Clouds 6 1006 48 10000 5 160 17:47 05.04.2020
163 Clouds 6 1006 48 10000 5 160 17:47 05.04.2020
164 Clouds 6 1006 48 10000 5 160 17:47 05.04.2020
165 Clouds 6 1006 48 10000 5 160 17:47 05.04.2020
166 Clouds 6 1007 48 10000 5 160 17:22 05.04.2020
167 Clouds 7 1007 45 10000 5 160 16:47 05.04.2020
168 Clouds 7 1008 42 10000 5 160 16:19 05.04.2020
169 Clouds 7 1008 42 10000 5 160 16:19 05.04.2020
170 Clouds 7 1008 42 10000 5 160 15:45 05.04.2020
171 Clouds 7 1008 45 10000 5 170 15:26 05.04.2020
172 Clouds 7 1008 45 10000 5 170 15:26 05.04.2020
173 Rain 8 1008 42 10000 5 170 14:48 05.04.2020
174 Rain 8 1008 42 10000 5 170 14:48 05.04.2020
175 Rain 8 1008 42 10000 5 170 14:48 05.04.2020
176 Rain 8 1008 42 10000 5 170 14:48 05.04.2020
177 Rain 8 1009 45 10000 5 160 13:59 05.04.2020
178 Rain 8 1009 45 10000 5 160 13:40 05.04.2020
179 Rain 8 1009 45 10000 5 160 13:40 05.04.2020
180 Rain 8 1009 45 10000 5 160 13:40 05.04.2020
181 Rain 8 1009 45 10000 5 160 13:40 05.04.2020
182 Rain 8 1009 45 10000 5 160 13:40 05.04.2020
183 Rain 8 1010 45 10000 6 160 12:20 05.04.2020
184 Rain 8 1010 45 10000 6 160 12:20 05.04.2020
185 Rain 8 1010 45 10000 6 160 12:20 05.04.2020
186 Rain 8 1010 45 10000 6 160 12:20 05.04.2020
187 Rain 8 1010 45 10000 6 160 11:39 05.04.2020
188 Rain 8 1010 45 10000 6 160 11:19 05.04.2020
189 Rain 8 1010 45 10000 6 160 10:47 05.04.2020
190 Rain 8 1011 45 10000 6 160 10:23 05.04.2020
191 Rain 8 1011 45 10000 7 160 09:53 05.04.2020
192 Rain 7 1012 45 10000 7 160 09:27 05.04.2020
193 Rain 7 1012 45 10000 7 160 09:27 05.04.2020
194 Rain 7 1012 45 10000 7 160 09:27 05.04.2020
195 Clouds 5 1013 52 10000 7 160 08:31 05.04.2020
196 Clouds 5 1013 52 10000 7 160 08:31 05.04.2020
197 Clouds 5 1013 52 10000 7 160 08:31 05.04.2020
198 Clouds 5 1013 52 10000 7 160 08:31 05.04.2020
199 Clouds 5 1013 52 10000 7 160 08:31 05.04.2020
200 Clouds 3 1015 69 10000 6 150 07:02 05.04.2020
201 Clouds 3 1015 69 10000 6 150 07:01 05.04.2020
202 Clouds 3 1015 69 10000 6 150 07:00 05.04.2020
203 Clouds 3 1015 69 10000 6 150 07:00 05.04.2020
204 Clouds 3 1015 69 10000 6 150 06:59 05.04.2020
205 Clouds 1 1018 100 10000 4 150 04:31 05.04.2020
206 Rain 1 1018 100 9000 4 150 03:28 05.04.2020
207 Rain 2 1019 100 5000 5 180 02:19 05.04.2020
208 Rain 2 1019 93 8000 4 180 01:42 05.04.2020
209 Rain 3 1019 74 10000 5 180 01:22 05.04.2020
210 Clouds 4 1019 60 10000 6 180 00:37 05.04.2020
211 Clouds 4 1019 60 10000 6 180 00:18 05.04.2020
212 Clouds 4 1020 60 10000 6 170 23:41 04.04.2020
213 Clouds 4 1020 60 10000 6 180 23:22 04.04.2020
214 Clouds 4 1020 60 10000 5 180 22:57 04.04.2020
215 Clouds 4 1020 60 10000 5 180 22:39 04.04.2020
216 Clouds 4 1021 60 10000 5 180 22:20 04.04.2020
217 Clouds 5 1021 52 10000 6 190 21:57 04.04.2020
218 Clouds 5 1021 52 10000 6 190 21:39 04.04.2020
219 Clouds 4 1021 55 10000 6 180 21:19 04.04.2020
220 Clouds 4 1021 55 10000 6 180 20:55 04.04.2020
221 Clouds 5 1022 48 10000 6 180 20:36 04.04.2020
222 Clouds 5 1022 48 10000 6 180 20:18 04.04.2020
223 Clouds 5 1022 48 10000 6 180 19:42 04.04.2020
224 Clouds 5 1022 48 10000 5 180 19:21 04.04.2020
225 Clouds 5 1023 48 10000 5 180 18:59 04.04.2020
226 Clouds 5 1023 48 10000 6 190 18:39 04.04.2020
227 Clouds 5 1023 48 10000 6 190 18:21 04.04.2020
228 Clouds 5 1023 48 10000 6 190 18:21 04.04.2020
229 Clouds 6 1023 45 10000 6 190 17:58 04.04.2020
230 Clouds 6 1023 45 10000 6 190 17:39 04.04.2020
231 Clouds 6 1023 45 10000 6 190 17:19 04.04.2020
232 Clouds 6 1023 48 10000 5 190 16:45 04.04.2020
233 Clouds 6 1024 48 10000 5 190 16:27 04.04.2020
234 Clouds 7 1023 45 10000 6 190 15:59 04.04.2020
235 Clouds 7 1023 45 10000 6 190 15:39 04.04.2020
236 Clear 7 1023 45 10000 5 190 15:19 04.04.2020
237 Clear 7 1024 45 10000 6 190 14:55 04.04.2020
238 Clear 8 1024 39 10000 5 190 14:37 04.04.2020
239 Clear 8 1024 39 10000 5 190 14:18 04.04.2020
240 Clear 8 1024 42 10000 5 200 13:42 04.04.2020
241 Clear 8 1024 39 10000 5 200 13:22 04.04.2020
242 Clear 8 1024 39 10000 6 200 12:58 04.04.2020
243 Clear 8 1025 39 10000 7 210 12:40 04.04.2020
244 Clear 8 1025 39 10000 7 210 12:21 04.04.2020
245 Clear 8 1025 39 10000 7 210 11:42 04.04.2020
246 Clear 8 1025 36 10000 7 210 11:23 04.04.2020
247 Clear 8 1025 39 10000 6 210 10:59 04.04.2020
248 Clear 8 1025 39 10000 6 210 10:41 04.04.2020
249 Clear 8 1025 39 10000 8 210 10:23 04.04.2020
250 Clear 8 1025 39 10000 8 210 09:57 04.04.2020
251 Clear 8 1025 39 10000 8 210 09:39 04.04.2020
252 Clear 7 1026 42 10000 8 210 09:21 04.04.2020
253 Clear 7 1026 42 10000 6 210 08:45 04.04.2020
254 Clear 7 1026 42 10000 7 200 08:25 04.04.2020
255 Clear 6 1026 48 10000 5 200 07:59 04.04.2020
256 Clear 6 1026 45 10000 5 200 07:40 04.04.2020
257 Clear 6 1026 45 10000 5 200 07:21 04.04.2020
258 Clear 4 1026 51 10000 5 200 06:40 04.04.2020
259 Clear 3 1026 55 10000 4 210 05:52 04.04.2020
260 Clear 3 1026 55 10000 4 210 05:52 04.04.2020
261 Clear 2 1026 59 10000 5 220 05:33 04.04.2020
262 Clear 1 1025 64 10000 4 210 04:34 04.04.2020
263 Clear 0 1025 94 10000 4 200 03:57 04.04.2020
264 Clear 0 1025 94 10000 4 200 03:37 04.04.2020
265 Clear -1 1024 74 10000 4 200 02:48 04.04.2020
266 Clear -1 1024 74 10000 4 200 02:29 04.04.2020
267 Clear -1 1024 74 10000 4 200 01:46 04.04.2020
268 Clear 0 1023 97 10000 5 210 01:20 04.04.2020
269 Clear 0 1023 97 10000 5 210 00:43 04.04.2020
270 Clear 0 1023 97 10000 4 210 00:23 04.04.2020
271 Clear 0 1023 97 10000 4 210 23:38 03.04.2020
272 Clear 0 1023 97 10000 4 210 23:19 03.04.2020
273 Clear 0 1022 97 10000 4 210 22:41 03.04.2020
274 Clear 0 1022 97 10000 4 210 22:20 03.04.2020
275 Clear 0 1022 97 10000 4 210 21:59 03.04.2020
276 Clear 0 1022 97 10000 4 210 21:40 03.04.2020
277 Clouds 1 1021 64 10000 4 210 21:21 03.04.2020
278 Clouds 1 1021 69 10000 4 220 20:56 03.04.2020
279 Clouds 1 1021 69 10000 4 220 20:36 03.04.2020
280 Clouds 1 1021 69 10000 4 220 20:36 03.04.2020
281 Clouds 1 1021 69 10000 4 220 20:18 03.04.2020
282 Clouds 2 1020 64 10000 4 220 19:56 03.04.2020
283 Clouds 2 1020 64 10000 4 210 19:37 03.04.2020
284 Clouds 2 1020 64 10000 4 210 19:19 03.04.2020
285 Clouds 2 1020 64 10000 4 210 18:57 03.04.2020
286 Clouds 2 1019 64 10000 4 210 18:39 03.04.2020
287 Clouds 2 1019 64 10000 4 210 18:21 03.04.2020
288 Snow 2 1019 64 10000 3 210 17:42 03.04.2020
289 Snow 2 1019 64 10000 3 230 17:20 03.04.2020
290 Snow 2 1018 64 10000 4 230 16:56 03.04.2020
291 Snow 3 1018 59 10000 4 240 16:37 03.04.2020
292 Snow 3 1018 59 10000 4 240 16:19 03.04.2020
293 Snow 3 1017 55 10000 5 250 15:56 03.04.2020
294 Snow 4 1017 51 10000 5 250 15:37 03.04.2020
295 Snow 4 1016 51 10000 8 250 15:19 03.04.2020
296 Snow 1 1018 88 0 5.64 235 14:40 03.04.2020
297 Clouds 4 1015 51 10000 9 250 14:22 03.04.2020
298 Clouds 4 1015 51 10000 9 250 13:54 03.04.2020
299 Clouds 4 1015 51 10000 9 250 13:36 03.04.2020
300 Clouds 4 1015 51 10000 9 250 13:18 03.04.2020
301 Clouds 4 1014 51 10000 8 240 12:42 03.04.2020
302 Clouds 4 1014 51 10000 8 240 12:20 03.04.2020
303 Clouds 3 1013 55 10000 9 250 11:56 03.04.2020
304 Clouds 3 1013 55 10000 8 240 11:37 03.04.2020
305 Clouds 3 1013 55 10000 8 240 11:18 03.04.2020
306 Clouds 3 1012 55 10000 9 240 10:57 03.04.2020
307 Clouds 2 1012 59 10000 8 250 10:38 03.04.2020
308 Clouds 2 1012 59 10000 8 250 10:20 03.04.2020
309 Clouds 2 1012 59 10000 8 250 10:20 03.04.2020
310 Clouds 2 1011 59 10000 8 240 09:57 03.04.2020
311 Clouds 2 1011 59 10000 8 240 09:38 03.04.2020
312 Clouds 1 1011 64 10000 7 250 09:20 03.04.2020
313 Clouds 1 1010 64 10000 6 240 08:45 03.04.2020
314 Clouds 1 1010 64 10000 7 240 08:25 03.04.2020
315 Clouds 0 1009 95 10000 9 240 07:59 03.04.2020
316 Clouds 0 1009 95 10000 9 240 07:40 03.04.2020
317 Clouds 0 1009 95 10000 9 240 07:22 03.04.2020
318 Clouds -1 1007 68 10000 8 240 06:29 03.04.2020
319 Clouds -1 1007 68 10000 7 240 05:43 03.04.2020
320 Clouds -2 1005 74 10000 6 240 04:30 03.04.2020
321 Clouds -3 1004 79 10000 5 240 03:35 03.04.2020
322 Clouds -3 1003 79 10000 5 240 02:40 03.04.2020
323 Clouds -3 1002 79 10000 6 240 01:25 03.04.2020
324 Clouds -3 1001 86 10000 7 250 00:52 03.04.2020
325 Snow -3 1000 86 6000 9 270 00:33 03.04.2020
326 Clouds -3 999 86 10000 10 260 23:55 02.04.2020
327 Clouds -2 999 79 10000 9 270 23:37 02.04.2020
328 Clouds -2 999 79 10000 9 270 23:18 02.04.2020
329 Clouds -2 999 79 10000 9 270 23:18 02.04.2020
330 Snow -2 998 79 9000 8 260 22:41 02.04.2020
331 Snow -2 997 86 7000 9 250 22:22 02.04.2020
332 Snow -2 996 92 750 9 250 21:58 02.04.2020
333 Clouds -1 995 86 10000 8 250 21:37 02.04.2020
334 Clouds -1 995 86 10000 8 250 21:18 02.04.2020
335 Snow -1 995 86 9000 10 270 20:45 02.04.2020
336 Snow 0 994 97 2200 9 260 20:25 02.04.2020
337 Snow 0 994 97 2500 8 250 19:57 02.04.2020
338 Snow 1 993 100 8000 9 250 19:39 02.04.2020
339 Snow 1 993 100 8000 9 250 19:20 02.04.2020
340 Snow 1 992 100 10000 9 250 18:55 02.04.2020
341 Snow 1 992 100 9000 6 240 18:36 02.04.2020
342 Snow 1 992 100 9000 6 240 18:18 02.04.2020
343 Snow 1 992 100 9000 6 240 18:18 02.04.2020
344 Snow 2 991 100 10000 8 240 17:42 02.04.2020
345 Snow 2 991 100 10000 7 230 17:24 02.04.2020
346 Clouds 2 990 100 10000 6 230 16:58 02.04.2020
347 Clouds 2 990 100 10000 6 230 16:39 02.04.2020
348 Clouds 2 990 100 10000 7 230 16:21 02.04.2020
349 Rain 2 989 100 10000 5 220 15:56 02.04.2020
350 Rain 3 989 100 9000 6 220 15:38 02.04.2020
351 Rain 3 989 100 9000 6 220 15:18 02.04.2020
352 Rain 3 989 100 10000 5 200 14:55 02.04.2020
353 Rain 3 989 100 10000 5 200 14:37 02.04.2020
354 Rain 4 989 93 10000 6 200 14:18 02.04.2020
355 Rain 4 989 93 9000 6 220 13:40 02.04.2020
356 Clouds 4 989 86 10000 3 230 13:21 02.04.2020
357 Rain 4 989 86 10000 3 230 12:59 02.04.2020
358 Rain 4 989 86 9000 3 200 12:41 02.04.2020
359 Rain 4 989 86 9000 3 200 12:19 02.04.2020
360 Rain 5 989 75 9000 3 190 11:57 02.04.2020
361 Rain 5 989 75 9000 3 190 11:38 02.04.2020
362 Rain 7 989 56 10000 3 180 11:19 02.04.2020
363 Rain 7 990 56 10000 4 190 10:55 02.04.2020
364 Rain 7 990 52 10000 5 180 10:37 02.04.2020
365 Rain 7 990 52 10000 5 180 10:19 02.04.2020
366 Rain 6 991 56 10000 5 190 09:56 02.04.2020
367 Rain 6 991 56 10000 5 190 09:38 02.04.2020
368 Snow 6 991 56 10000 5 170 09:19 02.04.2020
369 Snow 5 991 60 10000 4 170 08:46 02.04.2020
370 Snow 5 992 60 10000 5 160 08:26 02.04.2020
371 Snow 4 992 64 10000 5 150 07:45 02.04.2020
372 Snow 4 992 64 10000 4 150 07:21 02.04.2020
373 Snow 4 993 64 10000 4 150 06:58 02.04.2020
374 Snow 3 994 69 10000 5 150 06:22 02.04.2020
375 Clouds 3 994 69 10000 5 150 05:45 02.04.2020
376 Clouds 3 995 69 10000 5 150 04:46 02.04.2020
377 Clouds 3 998 64 10000 5 150 01:54 02.04.2020
378 Clouds 3 999 59 10000 4 160 00:51 02.04.2020
379 Clouds 4 999 55 10000 5 160 00:29 02.04.2020
380 Clouds 4 1000 55 10000 4 150 23:57 01.04.2020
381 Clouds 4 1000 55 10000 5 150 23:37 01.04.2020
382 Clouds 4 1000 55 10000 5 150 23:37 01.04.2020
383 Clouds 4 1000 55 10000 5 150 23:18 01.04.2020
384 Clouds 4 1001 55 10000 4 160 22:41 01.04.2020
385 Clouds 4 1001 55 10000 4 150 22:22 01.04.2020
386 Clouds 4 1001 60 10000 4 150 21:57 01.04.2020
387 Clouds 4 1001 60 10000 4 150 21:39 01.04.2020
388 Clouds 4 1002 60 10000 4 150 21:18 01.04.2020
389 Clouds 5 1002 52 10000 4 150 20:55 01.04.2020
390 Clouds 5 1002 52 10000 4 150 20:55 01.04.2020
391 Clouds 5 1002 52 10000 4 150 20:37 01.04.2020
392 Clouds 5 1003 52 10000 4 150 20:18 01.04.2020
393 Clouds 5 1003 52 10000 4 150 20:18 01.04.2020
394 Clouds 5 1003 52 10000 3 150 19:43 01.04.2020
395 Clouds 5 1004 52 10000 3 150 19:22 01.04.2020
396 Clouds 5 1004 52 10000 3 140 18:59 01.04.2020
397 Clouds 5 1004 52 10000 3 140 18:59 01.04.2020
398 Clouds 5 1004 52 10000 3 140 18:59 01.04.2020
399 Clouds 5 1005 56 10000 3 150 18:40 01.04.2020
400 Clouds 5 1005 56 10000 3 150 18:21 01.04.2020
401 Clouds 5 1005 56 10000 2 150 17:56 01.04.2020
402 Clouds 5 1005 56 10000 2 150 17:56 01.04.2020
403 Clouds 5 1005 56 10000 3 150 17:36 01.04.2020
404 Clouds 5 1005 56 10000 3 150 17:18 01.04.2020
405 Clouds 5 1006 60 10000 3 150 16:43 01.04.2020
406 Clouds 5 1006 60 10000 3 150 16:43 01.04.2020
407 Clouds 6 1006 56 10000 2 150 16:25 01.04.2020
408 Clouds 7 1006 52 10000 3 180 15:59 01.04.2020
409 Clouds 7 1006 52 10000 3 180 15:41 01.04.2020
410 Clouds 7 1006 56 10000 3 180 15:22 01.04.2020
411 Clouds 7 1006 56 10000 3 180 14:58 01.04.2020
412 Clouds 7 1006 56 10000 3 180 14:39 01.04.2020
413 Clouds 8 1007 52 10000 4 190 14:20 01.04.2020
414 Clouds 8 1007 52 10000 4 190 13:58 01.04.2020
415 Clouds 8 1007 52 10000 4 200 13:38 01.04.2020
416 Clouds 8 1007 52 10000 4 200 13:38 01.04.2020
417 Clouds 8 1007 52 10000 4 200 13:19 01.04.2020
418 Clouds 8 1007 52 10000 4 180 12:56 01.04.2020
419 Clouds 8 1007 52 10000 4 190 12:37 01.04.2020
420 Clouds 8 1007 52 10000 4 190 12:18 01.04.2020
421 Clouds 8 1007 52 10000 4 190 11:54 01.04.2020
422 Clouds 8 1007 52 10000 4 190 11:36 01.04.2020
423 Clouds 8 1007 52 10000 4 190 11:18 01.04.2020
424 Clouds 7 1007 56 10000 4 180 10:38 01.04.2020
425 Clouds 7 1007 56 10000 4 180 10:20 01.04.2020
426 Clouds 6 1007 60 10000 3 180 09:57 01.04.2020
427 Clouds 6 1007 60 10000 3 180 09:39 01.04.2020
428 Clouds 6 1007 60 10000 4 200 09:19 01.04.2020
429 Clouds 5 1007 60 10000 4 200 08:42 01.04.2020
430 Clouds 5 1007 60 10000 4 220 08:18 01.04.2020
431 Clouds 4 1007 64 10000 3 220 07:46 01.04.2020
432 Clouds 4 1007 64 10000 4 230 07:21 01.04.2020
433 Clouds 4 1007 69 10000 4 230 06:52 01.04.2020
434 Clouds 3 1007 69 10000 3 240 06:27 01.04.2020
435 Clouds 2 1007 74 10000 3 240 05:59 01.04.2020
436 Clouds 0 1006 95 10000 2 220 04:36 01.04.2020
437 Clouds 0 1006 95 10000 1 0 03:33 01.04.2020
438 Clouds -1 1006 92 10000 2 220 02:57 01.04.2020
439 Clouds -3 1006 100 10000 2 170 01:59 01.04.2020
440 Clouds -3 1006 100 10000 2 170 01:40 01.04.2020
441 Clouds -3 1007 100 10000 2 150 01:20 01.04.2020
442 Clouds -3 1007 92 10000 2 120 00:46 01.04.2020
443 Clouds -2 1007 86 10000 2 120 00:21 01.04.2020
444 Clouds -2 1007 86 10000 3 100 23:48 31.03.2020
445 Clouds -2 1008 86 10000 3 130 23:28 31.03.2020
446 Clouds -2 1008 86 10000 4 130 22:59 31.03.2020
447 Clouds -2 1009 86 10000 4 130 22:37 31.03.2020
448 Clouds -2 1009 86 10000 4 120 22:19 31.03.2020
449 Clouds -2 1009 86 10000 4 120 21:57 31.03.2020
450 Clouds -2 1009 86 10000 3 120 21:39 31.03.2020
451 Rain -2 1009 86 10000 3 120 21:20 31.03.2020
452 Rain -2 1010 86 10000 5 100 20:55 31.03.2020
453 Rain -2 1010 86 10000 5 100 20:36 31.03.2020
454 Rain -2 1010 86 10000 5 100 20:36 31.03.2020
455 Rain -2 1010 86 10000 5 100 20:36 31.03.2020
456 Rain -2 1010 86 10000 5 100 20:18 31.03.2020
457 Rain -2 1011 86 10000 4 90 19:42 31.03.2020
458 Rain -2 1011 86 10000 4 90 19:24 31.03.2020
459 Rain -2 1012 86 10000 5 80 18:59 31.03.2020
460 Rain -2 1012 86 10000 5 80 18:59 31.03.2020
461 Rain -2 1012 86 10000 4 90 18:40 31.03.2020
462 Rain -2 1012 86 10000 4 90 18:19 31.03.2020
463 Rain -2 1012 86 10000 4 90 17:55 31.03.2020
464 Rain -2 1012 86 10000 4 90 17:37 31.03.2020
465 Rain -2 1012 86 10000 4 90 17:19 31.03.2020
466 Clouds -1 1012 86 10000 4 80 16:41 31.03.2020
467 Clouds -1 1013 86 10000 5 70 16:20 31.03.2020
468 Clouds -1 1013 80 10000 4 70 15:58 31.03.2020
469 Clouds -1 1013 80 10000 4 70 15:40 31.03.2020
470 Rain -1 1013 80 10000 3 70 15:22 31.03.2020
471 Snow -1 1013 80 10000 3 60 14:58 31.03.2020
472 Snow -1 1013 80 10000 3 60 14:58 31.03.2020
473 Snow -1 1013 80 10000 3 60 14:39 31.03.2020
474 Clouds -1 1013 80 10000 4 70 14:21 31.03.2020
475 Clouds -1 1014 74 10000 4 40 13:43 31.03.2020
476 Clouds -1 1014 74 10000 4 50 13:20 31.03.2020
477 Clouds -1 1014 74 10000 3 60 12:59 31.03.2020
478 Clouds -1 1014 74 10000 2 10 12:40 31.03.2020
479 Clouds -1 1014 74 10000 2 10 12:19 31.03.2020
480 Clouds -1 1014 74 10000 2 10 12:19 31.03.2020
481 Clouds -1 1014 74 10000 3 10 11:41 31.03.2020
482 Clouds -1 1014 74 10000 4 360 11:20 31.03.2020
483 Snow 0 1014 96 10000 4 350 10:59 31.03.2020
484 Snow 0 1014 96 10000 4 350 10:41 31.03.2020
485 Snow 0 1014 96 10000 3 10 10:22 31.03.2020
486 Snow 0 1013 96 10000 3 360 09:59 31.03.2020
487 Snow 0 1013 96 10000 3 360 09:41 31.03.2020
488 Snow 0 1013 98 10000 4 360 09:22 31.03.2020
489 Snow 0 1013 97 10000 4 340 08:57 31.03.2020
490 Snow 0 1013 97 10000 4 340 08:38 31.03.2020
491 Clouds 0 1013 97 10000 4 310 08:19 31.03.2020
492 Clouds 0 1013 97 10000 4 310 08:19 31.03.2020
493 Clouds 0 1013 97 10000 4 330 07:56 31.03.2020
494 Clouds 0 1012 97 10000 4 290 07:37 31.03.2020
495 Clouds 0 1012 97 10000 4 290 07:18 31.03.2020
496 Clouds 0 1012 97 10000 4 320 06:45 31.03.2020
497 Clouds 0 1011 97 10000 4 330 06:18 31.03.2020
498 Clouds 0 1011 97 10000 5 330 05:39 31.03.2020
499 Clouds 2 1008 93 10000 7 310 03:34 31.03.2020
500 Clouds 2 1007 94 10000 4 270 01:54 31.03.2020
501 Clouds 3 1007 94 10000 3 240 01:34 31.03.2020
502 Clouds 3 1007 94 10000 3 230 00:47 31.03.2020
503 Clouds 4 1006 94 10000 3 240 00:25 31.03.2020
504 Clouds 4 1007 95 10000 4 240 23:42 30.03.2020
505 Clouds 4 1006 95 10000 4 240 23:20 30.03.2020
506 Clouds 4 1007 95 10000 5 230 22:58 30.03.2020
507 Clouds 4 1007 95 10000 5 230 22:39 30.03.2020
508 Clouds 4 1007 95 10000 5 230 22:21 30.03.2020
509 Clouds 4 1006 95 10000 4 220 21:58 30.03.2020
510 Clouds 4 1006 95 10000 4 220 21:39 30.03.2020
511 Clouds 4 1007 93 10000 4 220 21:21 30.03.2020
512 Rain 4 1007 80 10000 5 230 20:59 30.03.2020
513 Rain 4 1007 80 10000 5 230 20:39 30.03.2020
514 Rain 4 1007 94 10000 3 200 20:20 30.03.2020
515 Rain 4 1007 94 10000 4 220 19:57 30.03.2020
516 Rain 4 1007 94 10000 4 220 19:39 30.03.2020
517 Clouds 4 1008 69 10000 4 210 19:20 30.03.2020
518 Clouds 4 1007 94 10000 3 180 18:44 30.03.2020
519 Clouds 4 1008 94 10000 2 200 18:26 30.03.2020
520 Clouds 3 1008 93 10000 2 190 17:58 30.03.2020
521 Clouds 3 1008 93 10000 2 190 17:58 30.03.2020
522 Clouds 3 1008 93 10000 2 200 17:40 30.03.2020
523 Clouds 3 1008 93 10000 2 200 17:22 30.03.2020
524 Clouds 4 1008 93 10000 3 250 16:59 30.03.2020
525 Clouds 4 1008 93 10000 3 250 16:40 30.03.2020
526 Clouds 4 1009 93 10000 2 230 16:21 30.03.2020
527 Clouds 4 1008 93 10000 3 260 15:56 30.03.2020
528 Clouds 4 1008 93 10000 3 260 15:56 30.03.2020
529 Clouds 4 1008 93 10000 3 260 15:38 30.03.2020
530 Clouds 4 1008 94 10000 3 280 15:20 30.03.2020
531 Clouds 4 1008 94 10000 4 270 14:56 30.03.2020
532 Clouds 4 1008 94 10000 5 280 14:37 30.03.2020
533 Clouds 4 1008 94 10000 5 280 14:18 30.03.2020
534 Clouds 4 1008 94 10000 5 280 14:18 30.03.2020
535 Clouds 4 1008 94 10000 5 270 13:56 30.03.2020
536 Clouds 4 1008 94 10000 4 280 13:37 30.03.2020
537 Clouds 4 1008 94 10000 4 280 13:19 30.03.2020
538 Clouds 5 1008 94 10000 6 250 12:44 30.03.2020
539 Clouds 4 1008 94 10000 5 270 12:21 30.03.2020
540 Clouds 4 1007 95 10000 6 280 11:58 30.03.2020
541 Clouds 4 1007 95 10000 6 280 11:39 30.03.2020
542 Clouds 6 1007 95 10000 5 250 11:21 30.03.2020
543 Clouds 6 1007 95 10000 6 250 10:42 30.03.2020
544 Clouds 6 1007 95 10000 5 240 10:23 30.03.2020
545 Clouds 6 1007 95 10000 6 240 09:59 30.03.2020
546 Clouds 6 1007 95 10000 6 240 09:40 30.03.2020
547 Clouds 6 1007 97 10000 6 240 09:19 30.03.2020
548 Clouds 5 1007 96 10000 8 250 08:54 30.03.2020
549 Rain 5 1006 96 10000 6 240 08:36 30.03.2020
550 Rain 5 1006 96 10000 6 240 08:18 30.03.2020
551 Rain 5 1006 96 10000 7 250 07:41 30.03.2020
552 Rain 5 1006 96 10000 5 240 07:20 30.03.2020
553 Rain 4 1006 96 10000 4 230 06:42 30.03.2020
554 Rain 4 1006 96 10000 4 230 06:23 30.03.2020
555 Rain 4 1006 97 10000 5 230 05:39 30.03.2020
556 Rain 3 1006 74 10000 4 220 04:29 30.03.2020
557 Rain 3 1006 74 10000 4 220 03:53 30.03.2020
558 Rain 2 1006 80 10000 4 210 02:44 30.03.2020
559 Rain 2 1006 80 10000 3 240 01:55 30.03.2020
560 Rain 2 1006 80 10000 3 230 00:57 30.03.2020
561 Rain 2 1006 80 10000 3 230 00:27 30.03.2020
562 Clouds 3 1006 69 10000 3 230 23:55 29.03.2020
563 Clouds 3 1006 69 10000 4 240 23:36 29.03.2020
564 Clouds 3 1006 69 10000 4 240 23:18 29.03.2020
565 Clouds 3 1006 69 10000 4 230 22:40 29.03.2020
566 Clouds 3 1006 69 10000 3 220 22:20 29.03.2020
567 Clouds 3 1006 69 10000 3 240 21:59 29.03.2020
568 Clouds 3 1006 69 10000 3 240 21:38 29.03.2020
569 Clouds 3 1006 69 10000 4 240 21:20 29.03.2020
570 Clouds 3 1006 69 10000 4 240 20:55 29.03.2020
571 Clouds 3 1006 69 10000 4 240 20:55 29.03.2020
572 Clouds 4 1006 64 10000 5 240 20:37 29.03.2020
573 Clouds 4 1006 64 10000 5 240 20:18 29.03.2020
574 Clouds 4 1006 64 10000 4 240 19:56 29.03.2020
575 Clouds 4 1006 64 10000 5 240 19:38 29.03.2020
576 Clouds 4 1006 64 10000 5 240 19:19 29.03.2020
577 Clouds 4 1006 64 10000 5 240 18:55 29.03.2020
578 Clouds 4 1006 64 10000 5 240 18:55 29.03.2020
579 Clouds 5 1006 60 10000 5 240 18:37 29.03.2020
580 Clouds 5 1005 60 10000 6 240 18:18 29.03.2020
581 Clouds 5 1005 60 10000 6 240 17:55 29.03.2020
582 Clouds 5 1005 60 10000 5 240 17:36 29.03.2020
583 Clouds 5 1005 60 10000 5 240 17:18 29.03.2020
584 Clouds 5 1005 60 10000 5 240 16:55 29.03.2020
585 Clouds 5 1005 60 10000 6 240 16:36 29.03.2020
586 Clouds 5 1005 60 10000 6 240 16:36 29.03.2020
587 Clouds 5 1005 60 10000 6 240 16:36 29.03.2020
588 Clouds 5 1005 60 10000 6 240 16:18 29.03.2020
589 Clouds 6 1005 56 10000 6 240 15:41 29.03.2020
590 Clouds 7 1004 52 10000 5 240 15:22 29.03.2020
591 Rain 6 1004 56 10000 5 230 14:57 29.03.2020
592 Rain 6 1004 56 10000 5 230 14:39 29.03.2020
593 Rain 7 1005 52 10000 6 230 14:19 29.03.2020
594 Rain 7 1005 52 10000 6 230 13:56 29.03.2020
595 Rain 7 1005 48 10000 6 220 13:38 29.03.2020
596 Rain 7 1005 48 10000 6 230 13:19 29.03.2020
597 Rain 7 1005 48 10000 6 230 12:55 29.03.2020
598 Rain 7 1005 48 10000 7 230 12:37 29.03.2020
599 Clouds 7 1005 48 10000 7 230 12:18 29.03.2020
600 Clouds 7 1005 48 10000 7 230 12:18 29.03.2020
601 Clouds 6 1006 52 10000 7 220 11:39 29.03.2020
602 Clouds 6 1006 52 10000 7 220 11:21 29.03.2020
603 Clouds 5 1007 56 10000 6 220 10:59 29.03.2020
604 Clouds 5 1007 56 10000 7 220 10:37 29.03.2020
605 Clouds 5 1007 56 10000 7 220 10:18 29.03.2020
606 Clouds 5 1007 56 10000 6 220 09:40 29.03.2020
607 Snow 4 1008 55 10000 5 220 09:19 29.03.2020
608 Snow 4 1008 55 10000 6 230 08:53 29.03.2020
609 Snow 3 1008 59 10000 7 240 08:28 29.03.2020
610 Snow 3 1008 59 10000 7 240 08:28 29.03.2020
611 Snow 3 1008 59 10000 6 230 07:58 29.03.2020
612 Snow 3 1008 59 10000 6 230 07:58 29.03.2020
613 Snow 2 1009 64 10000 6 220 07:39 29.03.2020
614 Snow 2 1009 64 10000 6 220 07:20 29.03.2020
615 Snow -2 1009 74 10000 4 210 04:59 29.03.2020
616 Snow -2 1009 74 10000 4 210 04:59 29.03.2020
617 Snow -3 1010 79 10000 3 230 03:55 29.03.2020
618 Snow -3 1010 79 10000 3 220 03:26 29.03.2020
619 Clouds -4 1010 85 10000 3 240 01:51 29.03.2020
620 Clouds -4 1010 85 10000 3 250 01:23 29.03.2020
621 Clouds -4 1010 85 10000 3 240 00:55 29.03.2020
622 Clouds -4 1010 85 10000 2 240 00:31 29.03.2020
623 Clouds -3 1010 79 10000 3 250 23:43 28.03.2020
624 Clouds -3 1010 79 10000 3 250 23:23 28.03.2020
625 Clouds -5 1010 85 10000 3 250 22:58 28.03.2020
626 Clouds -3 1010 73 10000 4 250 22:38 28.03.2020
627 Clouds -3 1010 73 10000 4 250 22:20 28.03.2020
628 Clouds -2 1010 74 10000 4 250 21:43 28.03.2020
629 Clouds -2 1010 74 10000 3 250 21:24 28.03.2020
630 Clouds -2 1010 74 10000 3 250 20:59 28.03.2020
631 Clouds -2 1010 74 10000 3 250 20:41 28.03.2020
632 Clouds -1 1010 74 10000 4 240 20:23 28.03.2020
633 Snow -1 1010 74 10000 4 250 19:57 28.03.2020
634 Snow 0 1011 97 10000 4 250 19:38 28.03.2020
635 Snow 0 1011 97 10000 4 250 19:20 28.03.2020
636 Snow 0 1011 97 10000 4 250 18:56 28.03.2020
637 Snow 0 1011 97 10000 4 250 18:38 28.03.2020
638 Snow 0 1011 97 10000 4 250 18:38 28.03.2020
639 Snow 1 1011 64 10000 4 240 18:19 28.03.2020
640 Snow 1 1011 64 10000 4 250 17:38 28.03.2020
641 Snow 0 1011 97 10000 3 240 17:20 28.03.2020
642 Snow 1 1011 64 10000 4 250 16:42 28.03.2020
643 Snow 1 1011 64 10000 4 250 16:20 28.03.2020
644 Snow 1 1011 64 10000 4 250 15:56 28.03.2020
645 Snow 1 1011 69 10000 4 250 15:38 28.03.2020
646 Snow 1 1011 69 10000 4 250 15:19 28.03.2020
647 Snow 2 1010 59 10000 4 250 14:43 28.03.2020
648 Snow 2 1010 64 10000 4 230 14:23 28.03.2020
649 Clouds 2 1010 64 10000 6 270 13:59 28.03.2020
650 Clouds 2 1010 64 10000 6 260 13:38 28.03.2020
651 Clouds 2 1010 64 10000 6 260 13:19 28.03.2020
652 Snow 2 1010 64 10000 8 280 12:39 28.03.2020
653 Snow 2 1010 64 10000 8 280 12:21 28.03.2020
654 Snow 2 1010 59 10000 9 260 11:42 28.03.2020
655 Snow 2 1010 59 10000 9 260 11:21 28.03.2020
656 Clouds 2 1010 59 10000 9 260 10:56 28.03.2020
657 Clouds 2 1009 59 10000 9 270 10:37 28.03.2020
658 Clouds 2 1009 59 10000 9 270 10:18 28.03.2020
659 Clouds 2 1009 59 10000 7 240 09:41 28.03.2020
660 Clouds 1 1010 64 10000 7 240 09:22 28.03.2020
661 Clouds 1 1010 64 10000 6 230 08:45 28.03.2020
662 Clouds 1 1010 64 10000 6 240 08:27 28.03.2020
663 Clouds 0 1010 97 10000 6 240 07:59 28.03.2020
664 Clouds 0 1010 97 10000 6 230 07:41 28.03.2020
665 Clouds 1 1010 64 10000 5 270 06:55 28.03.2020
666 Clouds 0 1010 97 10000 6 270 06:32 28.03.2020
667 Clouds -1 1010 68 10000 7 280 05:39 28.03.2020
668 Clouds -2 1010 74 10000 6 280 05:19 28.03.2020
669 Clouds -2 1010 74 10000 7 280 04:39 28.03.2020
670 Clouds -5 1010 79 10000 4 280 02:55 28.03.2020
671 Clouds -4 1009 73 10000 6 280 01:48 28.03.2020
672 Clear -3 1009 73 10000 6 280 01:24 28.03.2020
673 Clear -4 1009 73 10000 5 280 00:52 28.03.2020
674 Clear -3 1009 68 10000 5 290 00:33 28.03.2020
675 Clear -2 1009 63 10000 6 290 23:45 27.03.2020
676 Clear -2 1009 63 10000 6 290 23:26 27.03.2020
677 Clouds -2 1009 63 10000 6 290 22:58 27.03.2020
678 Clouds -3 1009 68 10000 7 290 22:39 27.03.2020
679 Clouds -3 1009 68 10000 7 290 22:21 27.03.2020
680 Clouds -3 1008 68 10000 7 290 21:59 27.03.2020
681 Clouds -3 1008 68 10000 7 290 21:40 27.03.2020
682 Clouds -3 1008 68 10000 7 300 21:22 27.03.2020
683 Clouds -2 1008 68 10000 7 290 20:57 27.03.2020
684 Clouds -1 1008 63 10000 7 300 20:39 27.03.2020
685 Clouds -1 1008 63 10000 7 300 20:19 27.03.2020
686 Clouds -1 1008 63 10000 7 300 20:19 27.03.2020
687 Clouds -1 1008 68 10000 6 300 19:55 27.03.2020
688 Clouds -1 1008 68 10000 6 300 19:55 27.03.2020
689 Clouds -1 1008 68 10000 8 310 19:36 27.03.2020
690 Clouds -1 1008 68 10000 8 310 19:18 27.03.2020
691 Clouds 0 1007 95 10000 8 290 18:42 27.03.2020
692 Clouds 0 1007 95 10000 8 290 18:22 27.03.2020
693 Clouds 0 1007 95 10000 7 290 17:54 27.03.2020
694 Clouds 1 1007 69 10000 8 300 17:36 27.03.2020
695 Snow 1 1007 69 10000 8 290 17:18 27.03.2020
696 Snow 1 1006 69 10000 7 280 16:41 27.03.2020
697 Snow 1 1006 69 10000 7 280 16:23 27.03.2020
698 Snow 1 1006 69 10000 8 280 15:43 27.03.2020
699 Snow 0 1006 97 10000 7 280 15:25 27.03.2020
700 Clouds 1 1006 74 10000 7 280 14:48 27.03.2020
701 Clouds 1 1006 74 10000 7 280 14:27 27.03.2020
702 Snow 1 1006 74 10000 7 280 13:58 27.03.2020
703 Snow 1 1006 74 10000 7 280 13:40 27.03.2020
704 Clouds 1 1005 74 10000 9 290 13:21 27.03.2020
705 Clouds 1 1005 74 10000 10 290 12:57 27.03.2020
706 Snow 1 1005 74 9000 9 290 12:39 27.03.2020
707 Clouds 1 1005 74 10000 8 280 12:19 27.03.2020
708 Snow 0 1005 97 5000 8 290 11:41 27.03.2020
709 Snow 0 1005 97 5000 8 290 11:23 27.03.2020
710 Clouds 1 1005 69 10000 8 290 10:55 27.03.2020
711 Clouds 0 1004 97 10000 10 290 10:37 27.03.2020
712 Clouds 0 1004 97 10000 10 290 10:19 27.03.2020
713 Clouds 0 1004 97 10000 8 290 09:57 27.03.2020
714 Clouds 0 1004 97 10000 8 290 09:37 27.03.2020
715 Clouds 0 1004 97 10000 8 290 09:18 27.03.2020
716 Clouds 0 1003 97 10000 9 290 08:56 27.03.2020
717 Clouds 0 1003 97 10000 9 280 08:38 27.03.2020
718 Clouds 0 1003 96 10000 9 280 08:20 27.03.2020
719 Clouds 0 1003 96 10000 9 290 07:50 27.03.2020
720 Clouds 0 1003 96 10000 9 290 07:24 27.03.2020
721 Clouds 0 1003 96 10000 9 290 06:53 27.03.2020
722 Clouds 0 1002 96 10000 8 280 06:35 27.03.2020
723 Snow -1 1002 92 10000 7 270 04:24 27.03.2020
724 Snow -1 1002 100 1700 6 280 02:36 27.03.2020
725 Clouds -1 1001 100 10000 7 280 01:23 27.03.2020
726 Clouds -1 1001 100 10000 6 270 00:50 27.03.2020
727 Clouds -1 1001 100 10000 6 280 00:24 27.03.2020
728 Clouds -1 1001 100 10000 6 270 23:44 26.03.2020
729 Clouds 0 1000 97 10000 6 270 23:22 26.03.2020
730 Clouds 0 1000 98 10000 6 270 22:59 26.03.2020
731 Snow 0 1000 98 10000 6 280 22:38 26.03.2020
732 Snow 0 1000 98 10000 6 280 22:19 26.03.2020
733 Snow 0 1000 98 8000 6 280 21:56 26.03.2020
734 Snow -1 1000 100 2400 6 280 21:37 26.03.2020
735 Snow -1 1000 100 2400 6 280 21:18 26.03.2020
736 Snow -1 1000 100 2400 5 280 20:56 26.03.2020
737 Snow -1 1000 100 2100 5 270 20:37 26.03.2020
738 Snow -1 1000 100 2100 5 270 20:19 26.03.2020
739 Snow -1 1000 100 2400 6 260 19:54 26.03.2020
740 Snow -1 1000 100 2100 5 250 19:36 26.03.2020
741 Snow -1 1000 100 2100 5 250 19:18 26.03.2020
742 Snow -1 1000 100 1500 6 250 18:41 26.03.2020
743 Snow -1 1000 100 1500 6 250 18:23 26.03.2020
744 Snow -1 1001 100 1500 6 240 17:55 26.03.2020
745 Snow -1 1001 100 1800 6 230 17:37 26.03.2020
746 Snow -1 1001 100 1100 6 230 17:18 26.03.2020
747 Snow -1 1001 100 1300 6 230 16:39 26.03.2020
748 Snow -1 1001 100 1300 6 230 16:21 26.03.2020
749 Snow -1 1002 100 1100 6 230 15:57 26.03.2020
750 Snow -1 1002 100 1100 7 230 15:38 26.03.2020
751 Snow -1 1002 100 1100 7 230 15:38 26.03.2020
752 Snow -1 1002 100 1100 7 230 15:20 26.03.2020
753 Snow -1 1002 100 1100 6 230 14:44 26.03.2020
754 Snow -1 1003 100 800 6 230 14:26 26.03.2020
755 Snow 0 1003 98 900 7 220 13:59 26.03.2020
756 Snow 0 1003 98 900 7 220 13:40 26.03.2020
757 Snow -1 1003 100 1100 7 210 13:21 26.03.2020
758 Snow -1 1004 100 1300 7 210 12:54 26.03.2020
759 Snow -1 1004 100 1300 7 210 12:36 26.03.2020
760 Snow 0 1005 98 2500 8 220 12:18 26.03.2020
761 Snow 0 1005 98 1800 8 210 11:43 26.03.2020
762 Snow 0 1005 95 1800 8 210 11:19 26.03.2020
763 Snow 0 1006 95 3300 8 220 10:42 26.03.2020
764 Snow 0 1006 95 3300 8 220 10:42 26.03.2020
765 Snow 0 1006 95 3300 8 220 10:20 26.03.2020
766 Snow 1 1006 74 4500 10 220 09:55 26.03.2020
767 Snow 1 1006 74 4500 10 220 09:55 26.03.2020
768 Snow 0 1006 95 10000 8 220 09:37 26.03.2020
769 Snow 0 1006 95 10000 8 220 09:19 26.03.2020
770 Snow 0 1007 95 10000 8 220 08:42 26.03.2020
771 Snow 0 1008 95 7000 7 220 08:24 26.03.2020
772 Snow 0 1008 96 6000 7 230 07:56 26.03.2020
773 Snow 0 1008 96 7000 8 220 07:38 26.03.2020
774 Snow 0 1008 96 7000 8 220 07:38 26.03.2020
775 Snow 0 1008 96 7000 8 220 07:19 26.03.2020
776 Clouds 0 1009 96 10000 8 210 06:33 26.03.2020
777 Snow 0 1010 96 8000 7 220 05:48 26.03.2020
778 Snow 0 1012 97 8000 7 220 03:46 26.03.2020
779 Snow 0 1013 97 3800 7 220 02:58 26.03.2020
780 Snow 0 1014 95 2000 7 220 01:51 26.03.2020
781 Snow 0 1014 95 3200 5 210 01:18 26.03.2020
782 Snow 1 1015 86 5000 6 220 00:32 26.03.2020
783 Clouds 2 1016 74 10000 6 220 23:44 25.03.2020
784 Clouds 2 1016 74 10000 6 220 23:24 25.03.2020
785 Snow 2 1016 80 10000 7 230 22:54 25.03.2020
786 Clouds 2 1016 74 10000 7 230 22:36 25.03.2020
787 Clouds 2 1016 74 10000 7 230 22:18 25.03.2020
788 Clouds 2 1017 74 10000 7 210 21:42 25.03.2020
789 Clouds 2 1017 74 10000 6 210 21:23 25.03.2020
790 Clouds 2 1018 80 10000 6 210 20:58 25.03.2020
791 Clouds 2 1018 95 10000 6 220 20:38 25.03.2020
792 Clouds 2 1018 95 10000 6 220 20:19 25.03.2020
793 Snow 2 1019 80 10000 6 240 19:55 25.03.2020
794 Snow 2 1019 74 10000 6 230 19:36 25.03.2020
795 Snow 2 1019 74 10000 6 230 19:18 25.03.2020
796 Snow 2 1020 74 10000 6 220 18:42 25.03.2020
797 Snow 3 1020 69 10000 6 220 18:24 25.03.2020
798 Snow 3 1020 69 10000 6 220 17:58 25.03.2020
799 Snow 3 1020 69 10000 6 220 17:58 25.03.2020
800 Snow 3 1021 69 10000 6 210 17:40 25.03.2020
801 Snow 3 1021 64 10000 5 210 17:21 25.03.2020
802 Clouds 3 1021 64 10000 5 210 16:56 25.03.2020
803 Clouds 3 1021 64 10000 6 230 16:38 25.03.2020
804 Clouds 3 1021 64 10000 6 230 16:20 25.03.2020
805 Clouds 3 1022 64 10000 6 230 15:42 25.03.2020
806 Clouds 3 1022 64 10000 6 220 15:20 25.03.2020
807 Clouds 3 1022 64 10000 6 220 14:56 25.03.2020
808 Clouds 3 1022 64 10000 6 220 14:37 25.03.2020
809 Clouds 3 1022 64 10000 6 220 14:19 25.03.2020
810 Clouds 3 1023 64 10000 6 210 13:44 25.03.2020
811 Clouds 3 1023 64 10000 6 220 13:22 25.03.2020
812 Clouds 3 1024 59 10000 6 220 12:39 25.03.2020
813 Clouds 3 1024 59 10000 6 220 12:20 25.03.2020
814 Clouds 4 1024 55 10000 6 230 11:57 25.03.2020
815 Clouds 4 1024 51 10000 7 230 11:39 25.03.2020
816 Clouds 4 1024 51 10000 7 230 11:20 25.03.2020
817 Clouds 3 1024 51 10000 6 240 10:57 25.03.2020
818 Clouds 3 1025 47 10000 8 250 10:39 25.03.2020
819 Clouds 3 1025 47 10000 8 250 10:18 25.03.2020
820 Clouds 2 1025 47 10000 6 240 09:43 25.03.2020
821 Clouds 2 1025 47 10000 6 240 09:25 25.03.2020
822 Clouds 1 1026 47 10000 6 230 08:58 25.03.2020
823 Clouds 1 1026 47 10000 6 230 08:39 25.03.2020
824 Clouds 1 1026 47 10000 6 230 08:20 25.03.2020
825 Clouds -1 1026 50 10000 7 240 07:44 25.03.2020
826 Clouds -1 1026 50 10000 7 240 07:24 25.03.2020
827 Clouds -2 1027 50 10000 8 250 06:57 25.03.2020
828 Clouds -2 1027 50 10000 6 240 06:37 25.03.2020
829 Clouds -2 1027 50 10000 5 240 06:19 25.03.2020
830 Clouds -3 1027 53 10000 5 240 05:42 25.03.2020
831 Clouds -4 1027 58 10000 5 240 04:41 25.03.2020
832 Clouds -5 1027 62 10000 5 250 03:53 25.03.2020
833 Clouds -5 1027 62 10000 5 250 03:29 25.03.2020
834 Clouds -5 1027 67 10000 5 250 01:39 25.03.2020
835 Clouds -4 1027 62 10000 5 250 00:50 25.03.2020
836 Clouds -4 1027 68 10000 5 250 00:26 25.03.2020
837 Clouds -4 1027 62 10000 6 250 23:53 24.03.2020
838 Clouds -3 1027 58 10000 6 250 23:28 24.03.2020
839 Clouds -3 1027 63 10000 6 260 22:58 24.03.2020
840 Clouds -4 1027 68 10000 7 260 22:38 24.03.2020
841 Clouds -4 1027 68 10000 7 260 22:20 24.03.2020
842 Clouds -4 1027 68 10000 7 260 22:20 24.03.2020
843 Clouds -3 1027 63 10000 6 260 21:57 24.03.2020
844 Clouds -3 1027 63 10000 6 260 21:39 24.03.2020
845 Clouds -3 1028 63 10000 6 260 21:18 24.03.2020
846 Clouds -3 1028 63 10000 6 260 20:57 24.03.2020
847 Clouds -3 1028 63 10000 5 250 20:39 24.03.2020
848 Clouds -3 1028 63 10000 5 250 20:21 24.03.2020
849 Clouds -3 1028 63 10000 5 250 19:45 24.03.2020
850 Clouds -3 1028 63 10000 5 250 19:20 24.03.2020
851 Clouds -3 1028 63 10000 5 250 18:56 24.03.2020
852 Clouds -3 1029 63 10000 5 260 18:37 24.03.2020
853 Clouds -3 1029 63 10000 5 250 18:19 24.03.2020
854 Clouds -3 1029 63 10000 5 250 17:56 24.03.2020
855 Clouds -3 1029 63 10000 6 260 17:37 24.03.2020
856 Clouds -2 1029 58 10000 6 250 17:19 24.03.2020
857 Clouds -2 1029 58 10000 6 250 16:54 24.03.2020
858 Clouds -2 1029 58 10000 7 260 16:36 24.03.2020
859 Clouds -2 1029 58 10000 7 260 16:36 24.03.2020
860 Clouds -2 1029 58 10000 7 260 16:18 24.03.2020
861 Clouds -2 1029 58 10000 7 260 15:42 24.03.2020
862 Clouds -2 1029 58 10000 7 250 15:23 24.03.2020
863 Clouds -2 1029 58 10000 7 250 14:44 24.03.2020
864 Snow -1 1028 54 10000 7 250 14:22 24.03.2020
865 Snow -1 1029 54 10000 7 250 13:58 24.03.2020
866 Snow -1 1029 54 10000 8 260 13:40 24.03.2020
867 Clouds -1 1029 54 10000 8 260 13:21 24.03.2020
868 Clouds -1 1029 54 10000 9 270 12:42 24.03.2020
869 Clouds -1 1029 54 10000 9 270 12:24 24.03.2020
870 Clouds -1 1028 54 10000 9 260 11:41 24.03.2020
871 Clouds -1 1028 54 10000 9 260 11:21 24.03.2020
872 Snow -1 1028 54 10000 8 250 10:59 24.03.2020
873 Snow -2 1028 58 10000 9 260 10:40 24.03.2020
874 Snow -2 1028 58 10000 9 260 10:18 24.03.2020
875 Snow -2 1028 58 10000 9 260 10:18 24.03.2020
876 Snow -2 1028 58 10000 8 250 09:46 24.03.2020
877 Snow -2 1028 54 10000 8 250 09:26 24.03.2020
878 Snow -3 1028 58 10000 8 250 08:57 24.03.2020
879 Snow -3 1028 58 10000 7 250 08:37 24.03.2020
880 Snow -3 1028 58 10000 7 250 08:18 24.03.2020
881 Snow -3 1028 58 10000 7 250 07:44 24.03.2020
882 Snow -3 1028 58 10000 7 260 07:22 24.03.2020
883 Snow -3 1028 58 10000 7 260 07:22 24.03.2020
884 Snow -4 1029 58 10000 8 260 06:40 24.03.2020
885 Snow -5 1029 62 10000 6 250 06:18 24.03.2020
886 Clouds -6 1029 62 10000 7 250 04:52 24.03.2020
887 Clouds -7 1028 67 10000 5 240 03:32 24.03.2020
888 Clouds -8 1029 72 10000 5 240 02:43 24.03.2020
889 Clouds -8 1029 67 10000 5 240 00:57 24.03.2020
890 Clouds -8 1029 67 10000 5 240 00:28 24.03.2020
891 Clouds -8 1030 67 10000 5 240 23:58 23.03.2020
892 Clouds -8 1030 67 10000 5 240 23:38 23.03.2020
893 Clouds -8 1030 67 10000 5 240 23:19 23.03.2020
894 Clouds -8 1030 67 10000 5 250 22:44 23.03.2020
895 Clouds -9 1030 66 10000 4 240 22:23 23.03.2020
896 Clouds -9 1030 66 10000 4 240 21:55 23.03.2020
897 Clouds -9 1030 66 10000 4 240 21:37 23.03.2020
898 Clouds -9 1030 66 10000 4 240 21:18 23.03.2020
899 Clouds -9 1030 66 10000 4 240 21:18 23.03.2020
900 Clouds -9 1031 66 10000 4 240 20:44 23.03.2020
901 Clouds -9 1031 72 10000 4 240 20:26 23.03.2020
902 Clouds -9 1031 72 10000 4 230 19:59 23.03.2020
903 Clouds -9 1031 72 10000 4 230 19:41 23.03.2020
904 Clouds -9 1031 72 10000 4 230 19:22 23.03.2020
905 Clouds -9 1031 72 10000 3 220 18:54 23.03.2020
906 Clouds -9 1032 72 10000 3 220 18:36 23.03.2020
907 Clouds -9 1032 72 10000 3 220 18:18 23.03.2020
908 Clouds -8 1032 72 10000 3 220 17:41 23.03.2020
909 Clouds -8 1032 67 10000 3 230 17:20 23.03.2020
910 Clouds -8 1032 67 10000 3 230 16:44 23.03.2020
911 Clouds -8 1032 67 10000 3 230 16:26 23.03.2020
912 Clouds -9 1032 66 10000 2 220 15:59 23.03.2020
913 Clouds -8 1032 61 10000 3 240 15:39 23.03.2020
914 Clouds -8 1032 61 10000 3 240 15:19 23.03.2020
915 Clouds -7 1032 62 10000 4 240 14:37 23.03.2020
916 Clouds -7 1032 62 10000 4 240 14:19 23.03.2020
917 Clouds -7 1032 62 10000 5 250 13:57 23.03.2020
918 Clouds -7 1032 57 10000 4 270 13:38 23.03.2020
919 Clouds -7 1032 57 10000 4 270 13:38 23.03.2020
920 Clouds -7 1032 57 10000 4 270 13:20 23.03.2020
921 Clouds -7 1032 57 10000 5 290 12:43 23.03.2020
922 Clouds -7 1032 57 10000 5 290 12:43 23.03.2020
923 Clouds -7 1032 57 10000 5 290 12:23 23.03.2020
924 Clouds -7 1032 57 10000 4 290 11:56 23.03.2020
925 Clouds -8 1032 61 10000 4 290 11:37 23.03.2020
926 Clouds -8 1031 61 10000 3 280 11:19 23.03.2020
927 Clouds -8 1031 61 10000 3 280 10:56 23.03.2020
928 Clouds -7 1031 57 10000 4 270 10:36 23.03.2020
929 Clouds -7 1031 57 10000 4 270 10:18 23.03.2020
930 Clouds -7 1031 52 10000 2 270 09:42 23.03.2020
931 Clouds -8 1031 57 10000 2 290 09:20 23.03.2020
932 Clouds -8 1031 52 10000 1 0 08:38 23.03.2020
933 Clouds -8 1031 52 10000 1 0 08:20 23.03.2020
934 Clouds -9 1030 56 10000 2 350 07:54 23.03.2020
935 Clouds -10 1030 61 10000 2 330 07:34 23.03.2020
936 Clouds -10 1030 56 10000 3 310 06:58 23.03.2020
937 Clouds -10 1029 56 10000 3 320 06:40 23.03.2020
938 Clouds -13 1029 78 10000 2 270 05:45 23.03.2020
939 Clouds -15 1028 84 10000 2 300 04:41 23.03.2020
940 Clouds -18 1027 84 10000 2 280 03:23 23.03.2020
941 Clouds -18 1026 84 10000 1 300 01:50 23.03.2020
942 Clouds -17 1026 84 10000 1 300 00:50 23.03.2020
943 Clouds -17 1025 84 10000 3 280 00:31 23.03.2020
944 Clouds -16 1024 84 10000 2 290 23:45 22.03.2020
945 Clouds -16 1024 84 10000 2 290 23:25 22.03.2020
946 Clouds -16 1024 77 10000 2 310 22:44 22.03.2020
947 Clouds -16 1024 77 10000 2 310 22:22 22.03.2020
948 Clouds -16 1023 77 10000 3 310 21:55 22.03.2020
949 Clouds -15 1023 77 9000 3 320 21:36 22.03.2020
950 Clouds -15 1023 77 9000 3 320 21:18 22.03.2020
951 Clouds -15 1022 71 10000 3 320 20:45 22.03.2020
952 Clouds -15 1022 71 10000 3 300 20:25 22.03.2020
953 Clouds -16 1022 77 10000 3 290 19:58 22.03.2020
954 Clouds -16 1022 77 10000 3 290 19:39 22.03.2020
955 Clouds -15 1022 71 10000 3 290 19:20 22.03.2020
956 Clouds -15 1021 71 10000 3 290 18:58 22.03.2020
957 Clouds -14 1021 71 10000 4 290 18:40 22.03.2020
958 Clouds -14 1021 71 10000 4 290 18:21 22.03.2020
959 Clouds -14 1020 71 10000 4 300 17:57 22.03.2020
960 Clouds -14 1020 71 10000 4 290 17:38 22.03.2020
961 Clouds -14 1020 71 10000 4 290 17:20 22.03.2020
962 Clouds -13 1020 71 10000 4 290 16:57 22.03.2020
963 Clouds -12 1019 66 10000 4 310 16:39 22.03.2020
964 Clouds -12 1019 66 10000 4 310 16:20 22.03.2020
965 -273 0 0 0 0 0 16:20 22.03.2020
966 Clouds -12 1018 66 10000 4 320 15:40 22.03.2020
967 Clouds -11 1018 66 10000 5 320 15:21 22.03.2020
968 Clouds -11 1017 72 10000 5 330 14:46 22.03.2020
969 Snow -10 1017 72 8000 6 320 14:19 22.03.2020
970 Snow -10 1016 78 6000 4 330 13:44 22.03.2020
971 Snow -9 1016 66 9000 5 330 13:20 22.03.2020
972 Clouds -9 1015 61 10000 6 310 12:59 22.03.2020
973 Clouds -9 1014 61 10000 6 330 12:41 22.03.2020
974 Clouds -9 1014 61 10000 6 330 12:19 22.03.2020
975 Clouds -9 1014 61 10000 8 300 11:43 22.03.2020
976 Clouds -9 1014 61 10000 8 300 11:43 22.03.2020
977 Clouds -9 1014 61 10000 8 300 11:25 22.03.2020
978 Clouds -9 1013 61 10000 6 300 10:58 22.03.2020
979 Clouds -9 1013 56 10000 6 300 10:40 22.03.2020
980 Clouds -9 1013 56 10000 6 300 10:22 22.03.2020
981 Clouds -9 1013 56 10000 6 300 10:22 22.03.2020
982 Clouds -10 1012 61 10000 6 320 09:46 22.03.2020
983 Clouds -10 1012 61 10000 6 320 09:46 22.03.2020
984 Clouds -10 1012 61 10000 6 320 09:27 22.03.2020
985 Clouds -11 1012 61 10000 6 330 08:48 22.03.2020
986 Clouds -11 1012 61 10000 6 330 08:48 22.03.2020
987 Clouds -11 1011 61 10000 5 350 08:30 22.03.2020
988 Clear -11 1011 61 10000 7 330 07:55 22.03.2020
989 Clear -11 1011 56 10000 5 350 07:37 22.03.2020
990 Clear -13 1010 65 10000 5 340 06:48 22.03.2020
991 Clear -13 1010 71 10000 5 340 05:52 22.03.2020
992 Clouds -15 1008 84 10000 5 340 04:39 22.03.2020
993 Clouds -16 1007 84 10000 5 340 01:47 22.03.2020
994 Clouds -15 1006 84 10000 4 350 00:50 22.03.2020
995 Clouds -14 1006 77 10000 4 350 00:31 22.03.2020
996 Clouds -14 1005 84 10000 4 360 23:46 21.03.2020
997 Clouds -14 1005 84 10000 3 10 23:22 21.03.2020
998 Clouds -14 1005 84 10000 3 360 22:58 21.03.2020
999 Clouds -13 1005 78 10000 3 360 22:38 21.03.2020
1000 Clouds -13 1005 78 10000 3 360 22:19 21.03.2020
1001 Clouds -13 1005 78 10000 3 360 21:57 21.03.2020
1002 Clouds -13 1005 78 10000 3 360 21:38 21.03.2020
1003 Clouds -12 1005 78 10000 3 360 21:19 21.03.2020
1004 Clouds -12 1005 78 10000 4 10 20:42 21.03.2020
1005 Clouds -12 1005 78 10000 4 360 20:22 21.03.2020
1006 Clouds -11 1005 72 10000 4 360 19:55 21.03.2020
1007 Clouds -11 1005 72 10000 4 360 19:36 21.03.2020
1008 Clouds -11 1005 72 10000 4 360 19:18 21.03.2020
1009 Clouds -11 1005 72 10000 4 360 19:18 21.03.2020
1010 Clouds -11 1005 72 10000 4 350 18:41 21.03.2020
1011 Clouds -11 1005 72 10000 4 350 18:20 21.03.2020
1012 Clouds -11 1005 78 10000 4 350 17:58 21.03.2020
1013 Clouds -10 1005 66 10000 3 360 17:40 21.03.2020
1014 Clouds -10 1005 66 10000 3 360 17:22 21.03.2020
1015 Clouds -9 1004 66 10000 3 360 16:42 21.03.2020
1016 Clouds -9 1004 66 10000 3 360 16:23 21.03.2020
1017 Clouds -9 1004 66 10000 4 360 15:58 21.03.2020
1018 Clouds -9 1004 66 10000 4 360 15:40 21.03.2020
1019 Clouds -8 1004 61 10000 4 10 15:21 21.03.2020
1020 Clouds -8 1004 61 10000 4 10 14:56 21.03.2020
1021 Clouds -7 1004 57 10000 4 10 14:37 21.03.2020
1022 Clouds -7 1004 57 10000 4 10 14:19 21.03.2020
1023 Clouds -6 1004 53 10000 5 30 13:57 21.03.2020
1024 Clouds -6 1004 53 10000 5 30 13:57 21.03.2020
1025 Clouds -6 1004 53 10000 5 10 13:38 21.03.2020
1026 Clouds -6 1004 53 10000 5 10 13:38 21.03.2020
1027 Clouds -6 1004 53 10000 5 10 13:20 21.03.2020
1028 Clear -6 1003 57 10000 5 10 12:41 21.03.2020
1029 Clear -6 1003 57 10000 5 10 12:21 21.03.2020
1030 Clear -6 1003 57 10000 6 10 11:59 21.03.2020
1031 Clear -6 1002 57 10000 7 10 11:39 21.03.2020
1032 Clear -6 1002 57 10000 6 350 11:20 21.03.2020
1033 Clear -6 1002 57 10000 6 350 10:58 21.03.2020
1034 Clear -6 1002 57 10000 6 350 10:58 21.03.2020
1035 Clear -6 1002 57 10000 7 350 10:40 21.03.2020
1036 Clear -6 1002 57 10000 7 350 10:22 21.03.2020
1037 Clear -6 1002 62 10000 6 350 09:59 21.03.2020
1038 Clear -6 1002 67 10000 6 350 09:39 21.03.2020
1039 Clear -6 1002 67 10000 6 350 09:20 21.03.2020
1040 Clouds -5 1001 67 10000 6 350 08:55 21.03.2020
1041 Clouds -6 1001 73 10000 6 340 08:37 21.03.2020
1042 Clouds -6 1001 73 10000 6 340 08:19 21.03.2020
1043 Snow -5 1001 85 9000 6 340 07:37 21.03.2020
1044 Snow -5 1001 85 9000 6 340 07:19 21.03.2020
1045 Clouds -5 1000 92 10000 5 350 06:44 21.03.2020
1046 Clouds -5 1000 92 10000 5 350 06:24 21.03.2020
1047 Snow -3 999 92 9000 4 360 05:40 21.03.2020
1048 Snow -3 998 100 7000 5 330 03:49 21.03.2020
1049 Clouds -2 997 100 10000 4 340 02:37 21.03.2020
1050 Clouds -2 997 100 10000 4 330 01:44 21.03.2020
1051 Clouds -2 996 100 10000 3 340 01:23 21.03.2020
1052 Clouds -1 995 100 10000 3 340 00:39 21.03.2020
1053 Clouds -1 995 100 10000 3 340 00:21 21.03.2020
1054 Mist -2 995 100 1800 3 350 23:42 20.03.2020
1055 Mist -2 995 100 1800 3 350 23:22 20.03.2020
1056 Mist -2 995 100 2000 4 340 22:44 20.03.2020
1057 Fog -1 994 100 550 3 330 22:25 20.03.2020
1058 Fog -1 994 100 1000 2 330 21:58 20.03.2020
1059 Fog -1 994 100 1000 2 330 21:40 20.03.2020
1060 Fog -1 994 100 1100 2 340 21:20 20.03.2020
1061 Fog -1 994 100 800 2 330 20:58 20.03.2020
1062 Fog -1 994 100 350 2 340 20:40 20.03.2020
1063 Fog -1 994 100 350 2 340 20:20 20.03.2020
1064 Fog -1 994 100 900 2 340 19:48 20.03.2020
1065 Mist 0 993 98 4100 2 360 19:21 20.03.2020
1066 Fog 0 993 98 3800 2 340 18:58 20.03.2020
1067 Clouds 0 993 98 6000 2 340 18:38 20.03.2020
1068 Clouds 0 993 98 6000 2 340 18:20 20.03.2020
1069 Clouds 0 993 98 10000 3 340 17:56 20.03.2020
1070 Clouds 0 993 98 8000 2 350 17:37 20.03.2020
1071 Clouds 0 993 98 8000 2 360 17:18 20.03.2020
1072 Clouds 0 993 98 9000 2 360 16:41 20.03.2020
1073 Clouds 0 993 98 9000 2 360 16:21 20.03.2020
1074 Clouds 0 993 98 10000 2 350 15:45 20.03.2020
1075 Clouds 0 992 98 8000 1 10 15:23 20.03.2020
1076 Clouds 0 992 98 8000 2 30 14:59 20.03.2020
1077 Clouds 0 992 98 8000 2 30 14:59 20.03.2020
1078 Clouds 0 992 98 8000 2 30 14:41 20.03.2020
1079 Snow 0 992 98 5000 2 30 14:21 20.03.2020
1080 Snow 0 992 98 5000 2 30 14:20 20.03.2020
1081 Snow 1 992 100 3500 2 50 13:48 20.03.2020
1082 Snow 1 992 100 4000 2 50 13:24 20.03.2020
1083 Snow 1 992 100 4000 2 50 13:24 20.03.2020
1084 Snow 1 992 100 2300 2 40 12:58 20.03.2020
1085 Snow 1 992 100 3100 2 60 12:38 20.03.2020
1086 Snow 1 992 100 3100 2 60 12:19 20.03.2020
1087 Snow 1 992 100 6000 2 90 11:39 20.03.2020
1088 Snow 1 992 100 5000 2 100 11:20 20.03.2020
1089 Snow 1 992 100 5000 2 100 10:55 20.03.2020
1090 Snow 1 992 100 2400 2 110 10:37 20.03.2020
1091 Snow 1 992 100 2400 2 110 10:18 20.03.2020
1092 Snow 1 992 100 2400 2 110 10:18 20.03.2020
1093 Snow 1 992 100 2400 2 110 10:18 20.03.2020
1094 Snow 1 992 100 3000 2 110 09:45 20.03.2020
1095 Snow 1 992 100 3700 2 140 09:21 20.03.2020
1096 Snow 1 992 100 5000 2 150 08:57 20.03.2020
1097 Snow 1 992 100 5000 1.14 138 08:38 20.03.2020
1098 Snow 1 992 100 5000 1.6 140 08:18 20.03.2020
1099 Snow 2 993 100 10000 1.6 140 07:39 20.03.2020
1100 Snow 2 993 100 10000 1.6 140 07:21 20.03.2020
1101 Clouds 1 993 100 10000 2 260 06:42 20.03.2020
1102 Clouds 1 993 100 10000 2 230 06:18 20.03.2020
1103 Snow 0 993 97 3200 2 200 04:38 20.03.2020
1104 Mist 0 994 97 3200 1 200 02:51 20.03.2020
1105 Snow 0 994 98 5000 1 0 01:50 20.03.2020
1106 Snow 0 994 98 9000 2 200 00:45 20.03.2020
1107 Snow 0 994 98 9000 2 200 00:23 20.03.2020
1108 Snow 0 995 98 9000 2 210 23:42 19.03.2020
1109 Snow 0 995 98 9000 2 210 23:23 19.03.2020
1110 Snow 0 995 98 4300 2 230 22:41 19.03.2020
1111 Snow 0 995 98 4300 2 230 22:23 19.03.2020
1112 Snow 0 995 98 7000 3 230 21:58 19.03.2020
1113 Clouds 0 995 98 10000 3 240 21:38 19.03.2020
1114 Clouds 0 995 98 10000 3 240 21:19 19.03.2020
1115 Clouds 0 996 98 10000 3 230 20:44 19.03.2020
1116 Snow 0 996 97 10000 3 230 20:25 19.03.2020
1117 Snow 0 996 97 8000 3 230 19:59 19.03.2020
1118 Snow 0 996 97 9000 4 230 19:39 19.03.2020
1119 Snow 0 996 97 9000 4 230 19:39 19.03.2020
1120 Snow 0 996 97 9000 4 230 19:21 19.03.2020
1121 Snow 0 997 97 7000 3 240 18:58 19.03.2020
1122 Snow 0 997 97 10000 3 250 18:40 19.03.2020
1123 Snow 0 997 97 9000 4 230 18:22 19.03.2020
1124 Snow 0 997 97 4900 4 230 17:54 19.03.2020
1125 Snow 0 997 97 4900 4 230 17:36 19.03.2020
1126 Snow 1 997 100 4000 4 230 17:18 19.03.2020
1127 Snow 1 997 100 5000 4 220 16:41 19.03.2020
1128 Snow 1 997 100 5000 4 220 16:21 19.03.2020
1129 Snow 1 998 97 9000 5 230 15:42 19.03.2020
1130 Clouds 1 998 86 10000 6 230 15:23 19.03.2020
1131 Clouds 2 998 74 10000 5 230 14:43 19.03.2020
1132 Clouds 2 998 74 10000 5 230 14:23 19.03.2020
1133 Clouds 2 998 74 10000 4 230 13:57 19.03.2020
1134 Clouds 2 998 74 10000 3 210 13:37 19.03.2020
1135 Clouds 2 998 74 10000 3 210 13:18 19.03.2020
1136 Clouds 1 999 74 10000 3 230 12:41 19.03.2020
1137 Clouds 1 999 74 10000 3 230 12:23 19.03.2020
1138 Clouds 1 999 74 10000 5 230 11:58 19.03.2020
1139 Clouds 1 999 74 10000 5 210 11:40 19.03.2020
1140 Clouds 1 999 69 10000 5 220 11:22 19.03.2020
1141 Clouds 1 999 69 10000 5 220 10:42 19.03.2020
1142 Clouds 1 999 69 10000 5 220 10:21 19.03.2020
1143 Clouds 0 999 96 10000 5 230 09:58 19.03.2020
1144 Snow 0 999 96 10000 6 230 09:38 19.03.2020
1145 Snow 0 999 96 10000 6 230 09:19 19.03.2020
1146 Snow 0 1000 96 10000 6 230 08:46 19.03.2020
1147 Snow 0 1000 96 10000 6 240 08:21 19.03.2020
1148 Clouds -1 1000 74 10000 6 230 07:47 19.03.2020
1149 Clouds -1 1000 74 10000 6 230 07:28 19.03.2020
1150 Clouds -1 1000 74 10000 5 230 06:51 19.03.2020
1151 Snow -2 1000 79 10000 5 220 05:52 19.03.2020
1152 Snow -3 1001 86 9000 5 230 05:19 19.03.2020
1153 Snow -4 1001 92 3400 5 230 04:40 19.03.2020
1154 Snow -4 1001 79 10000 5 220 03:20 19.03.2020
1155 Snow -4 1002 73 10000 5 210 01:27 19.03.2020
1156 Snow -4 1003 73 10000 5 210 00:37 19.03.2020
1157 Snow -4 1003 73 10000 5 200 23:58 18.03.2020
1158 Snow -4 1004 73 10000 6 210 23:36 18.03.2020
1159 Clouds -4 1005 73 10000 5 210 23:18 18.03.2020
1160 Clouds -3 1005 63 10000 5 210 22:42 18.03.2020
1161 Clouds -3 1005 63 10000 5 210 22:22 18.03.2020
1162 Clouds -4 1006 68 10000 4 220 21:54 18.03.2020
1163 Clouds -4 1006 68 10000 5 210 21:36 18.03.2020
1164 Clouds -4 1006 68 10000 5 210 21:18 18.03.2020
1165 Clouds -4 1007 68 10000 5 220 20:41 18.03.2020
1166 Clouds -4 1007 68 10000 6 230 20:21 18.03.2020
1167 Clouds -4 1008 68 10000 6 230 19:58 18.03.2020
1168 Clouds -4 1008 62 10000 6 230 19:40 18.03.2020
1169 Clouds -4 1008 62 10000 6 230 19:21 18.03.2020
1170 Clouds -4 1008 62 10000 6 230 19:21 18.03.2020
1171 Clouds -4 1008 62 10000 6 230 19:21 18.03.2020
1172 Clouds -4 1009 62 10000 5 230 18:54 18.03.2020
1173 Clouds -4 1009 62 10000 5 230 18:36 18.03.2020
1174 Clouds -4 1009 62 10000 5 230 18:18 18.03.2020
1175 Clouds -4 1009 62 10000 4 230 17:41 18.03.2020
1176 Clouds -4 1010 68 10000 5 240 17:22 18.03.2020
1177 Clouds -4 1010 68 10000 5 240 16:59 18.03.2020
1178 Clouds -4 1010 68 10000 4 240 16:40 18.03.2020
1179 Clouds -4 1010 68 10000 4 240 16:20 18.03.2020
1180 Clouds -3 1010 63 10000 5 240 15:46 18.03.2020
1181 Clouds -3 1010 63 10000 6 250 15:27 18.03.2020
1182 Clouds -3 1010 68 10000 5 240 14:58 18.03.2020
1183 Clouds -2 1010 63 10000 5 240 14:40 18.03.2020
1184 Clouds -2 1010 63 10000 5 240 14:20 18.03.2020
1185 Clouds -2 1010 58 10000 9 250 13:40 18.03.2020
1186 Clouds -2 1010 58 10000 9 250 13:19 18.03.2020
1187 Clouds -2 1010 58 10000 9 250 13:19 18.03.2020
1188 Clouds -2 1010 58 10000 9 250 12:42 18.03.2020
1189 Clouds -1 1010 54 10000 7 250 12:21 18.03.2020
1190 Clouds -1 1010 54 10000 7 250 11:58 18.03.2020
1191 Clouds -2 1010 63 10000 7 250 11:37 18.03.2020
1192 Clear -1 1009 54 10000 8 260 11:18 18.03.2020
1193 Clear -1 1009 54 10000 8 260 10:55 18.03.2020
1194 Clear -1 1009 54 10000 8 260 10:36 18.03.2020
1195 Clear -1 1009 54 10000 8 260 10:18 18.03.2020
1196 Clear -2 1009 58 10000 7 280 09:41 18.03.2020
1197 Clear -3 1009 63 10000 8 280 09:22 18.03.2020
1198 Clear -3 1008 63 10000 8 280 08:40 18.03.2020
1199 Clouds -3 1008 63 10000 8 280 08:22 18.03.2020
1200 Clouds -3 1008 68 10000 8 290 07:59 18.03.2020
1201 Clouds -4 1007 68 10000 8 300 07:37 18.03.2020
1202 Clouds -4 1007 68 10000 8 300 07:19 18.03.2020
1203 Clouds -5 1006 73 10000 10 300 06:39 18.03.2020
1204 Clouds -5 1004 73 10000 8 300 05:37 18.03.2020
1205 Snow -4 1002 85 8000 10 300 04:38 18.03.2020
1206 Snow -3 1000 92 10000 9 300 03:21 18.03.2020
1207 Snow -3 998 100 1600 8 300 02:36 18.03.2020
1208 Snow -3 997 100 10000 8 300 01:42 18.03.2020
1209 Snow -3 995 100 4700 7 290 00:45 18.03.2020
1210 Snow -3 995 100 4700 7 290 00:21 18.03.2020
1211 Snow -3 995 100 5000 6 280 23:42 17.03.2020
1212 Snow -3 994 100 9000 5 280 23:20 17.03.2020
1213 Snow -4 994 100 9000 5 280 22:45 17.03.2020
1214 Snow -4 994 100 9000 5 280 22:26 17.03.2020
1215 Snow -4 994 100 7000 4 260 21:43 17.03.2020
1216 Snow -4 994 100 9000 3 250 21:23 17.03.2020
1217 Snow -5 994 100 7000 2 270 20:58 17.03.2020
1218 Snow -5 994 100 8000 2 270 20:38 17.03.2020
1219 Snow -5 994 100 8000 2 270 20:19 17.03.2020
1220 Snow -4 995 100 4500 1 0 19:42 17.03.2020
1221 Snow -4 995 100 3000 1 0 19:19 17.03.2020
1222 Snow -4 995 100 3000 1 0 18:57 17.03.2020
1223 Clouds -4 996 100 10000 1 0 18:39 17.03.2020
1224 Clouds -4 996 100 10000 1 0 18:21 17.03.2020
1225 Snow -4 996 100 3200 2 110 17:56 17.03.2020
1226 Snow -4 997 100 1800 2 140 17:37 17.03.2020
1227 Snow -4 997 100 1900 2 130 17:18 17.03.2020
1228 Snow -4 998 100 1100 3 140 16:41 17.03.2020
1229 Snow -4 998 100 1100 3 140 16:19 17.03.2020
1230 Snow -4 999 100 900 3 140 15:45 17.03.2020
1231 Snow -3 999 100 1400 3 150 15:22 17.03.2020
1232 Snow -3 1000 86 5000 4 150 14:44 17.03.2020
1233 Clouds -3 1001 86 10000 4 150 14:26 17.03.2020
1234 Clouds -3 1001 86 10000 5 150 13:58 17.03.2020
1235 Clouds -3 1002 86 10000 4 150 13:39 17.03.2020
1236 Clouds -3 1002 86 10000 4 150 13:21 17.03.2020
1237 Snow -3 1004 86 4700 5 160 12:44 17.03.2020
1238 Snow -3 1004 86 4700 5 160 12:24 17.03.2020
1239 Clouds -3 1006 73 10000 5 150 11:48 17.03.2020
1240 Clouds -3 1006 73 10000 5 150 11:30 17.03.2020
1241 Clouds -4 1007 79 10000 4 150 10:59 17.03.2020
1242 Clouds -4 1007 79 10000 4 150 10:59 17.03.2020
1243 Clouds -4 1008 73 10000 5 150 10:40 17.03.2020
1244 Clouds -4 1008 73 10000 5 150 10:22 17.03.2020
1245 Clouds -4 1008 73 10000 5 150 10:22 17.03.2020
1246 Clouds -5 1008 79 10000 5 140 09:59 17.03.2020
1247 Clouds -5 1009 73 10000 6 150 09:41 17.03.2020
1248 Clouds -5 1009 73 10000 6 150 09:20 17.03.2020
1249 Clouds -5 1009 73 10000 6 150 09:20 17.03.2020
1250 Clouds -6 1010 79 10000 5 150 08:50 17.03.2020
1251 Clouds -6 1011 73 10000 5 150 08:23 17.03.2020
1252 Clouds -6 1011 79 10000 6 180 07:57 17.03.2020
1253 Clouds -6 1012 73 10000 6 180 07:38 17.03.2020
1254 Clouds -6 1012 73 10000 6 180 07:19 17.03.2020
1255 Clouds -8 1013 78 10000 5 180 06:39 17.03.2020
1256 Clouds -9 1014 78 10000 5 180 05:58 17.03.2020
1257 Clear -12 1016 85 10000 5 200 03:58 17.03.2020
1258 Clear -12 1016 85 10000 5 200 03:58 17.03.2020
1259 Clear -12 1016 78 10000 4 190 02:54 17.03.2020
1260 Clear -13 1017 78 10000 4 190 01:49 17.03.2020
1261 Clear -13 1017 78 10000 3 190 01:25 17.03.2020
1262 Clear -12 1017 72 10000 4 190 00:47 17.03.2020
1263 Clear -13 1017 78 10000 4 200 23:50 16.03.2020
1264 Clear -13 1017 78 10000 4 200 23:32 16.03.2020
1265 Clear -13 1018 78 10000 3 190 22:42 16.03.2020
1266 Clear -13 1018 78 10000 3 190 22:24 16.03.2020
1267 Clear -13 1018 71 10000 2 190 21:58 16.03.2020
1268 Clear -13 1018 71 10000 2 190 21:40 16.03.2020
1269 Clear -13 1018 71 10000 3 200 21:22 16.03.2020
1270 Clear -12 1018 66 10000 3 200 20:56 16.03.2020
1271 Clear -12 1018 66 10000 3 200 20:37 16.03.2020
1272 Clear -12 1018 66 10000 3 200 20:19 16.03.2020
1273 Clear -12 1018 66 10000 3 220 19:41 16.03.2020
1274 Clear -12 1018 66 10000 3 210 19:20 16.03.2020
1275 Clear -13 1019 65 10000 3 200 18:43 16.03.2020
1276 Clear -13 1019 65 10000 3 200 18:22 16.03.2020
1277 Clear -13 1018 71 10000 2 210 17:56 16.03.2020
1278 Clear -13 1018 71 10000 2 210 17:37 16.03.2020
1279 Clear -12 1018 60 10000 3 240 17:18 16.03.2020
1280 Clear -12 1018 60 10000 3 240 16:45 16.03.2020
1281 Clear -12 1018 66 10000 3 250 16:27 16.03.2020
1282 Clear -12 1018 66 10000 3 250 15:46 16.03.2020
1283 Clear -12 1018 66 10000 3 280 15:28 16.03.2020
1284 Clear -12 1017 72 10000 4 280 14:49 16.03.2020
1285 Clear -10 1017 61 10000 4 290 14:28 16.03.2020
1286 Clouds -10 1017 61 10000 4 290 13:59 16.03.2020
1287 Clouds -10 1016 61 10000 5 300 13:41 16.03.2020
1288 Clouds -10 1016 61 10000 5 300 13:22 16.03.2020
1289 Clouds -9 1016 61 10000 6 290 12:45 16.03.2020
1290 Clouds -9 1015 61 10000 7 290 12:24 16.03.2020
1291 Clouds -9 1015 61 10000 7 290 11:56 16.03.2020
1292 Clouds -9 1014 66 10000 7 300 11:37 16.03.2020
1293 Clouds -9 1013 61 10000 6 310 11:18 16.03.2020
1294 Clouds -9 1012 66 10000 7 310 10:40 16.03.2020
1295 Clouds -9 1012 66 10000 7 310 10:19 16.03.2020
1296 Clouds -9 1011 66 10000 9 300 09:42 16.03.2020
1297 Clouds -8 1010 67 10000 7 300 09:24 16.03.2020
1298 Clouds -8 1010 72 10000 8 310 08:53 16.03.2020
1299 Snow -8 1009 72 10000 9 320 08:25 16.03.2020
1300 Clouds -9 1008 72 10000 8 310 07:49 16.03.2020
1301 Clouds -9 1007 78 10000 8 330 07:25 16.03.2020
1302 Snow -9 1006 78 8000 9 320 06:54 16.03.2020
1303 Clouds -8 1005 72 10000 9 320 06:25 16.03.2020
1304 Clouds -8 1002 78 10000 9 330 04:55 16.03.2020
1305 Snow -5 998 85 9000 7 340 02:44 16.03.2020
1306 Snow -4 995 100 2500 8 360 01:20 16.03.2020
1307 Snow -1 994 100 1800 6 10 00:39 16.03.2020
1308 Snow -1 993 100 1400 5 20 23:47 15.03.2020
1309 Snow 0 993 97 2100 5 30 23:20 15.03.2020
1310 Snow 0 992 97 2800 6 40 22:43 15.03.2020
1311 Snow 0 992 97 5000 7 50 22:23 15.03.2020
1312 Snow 1 992 86 9000 5 50 21:58 15.03.2020
1313 Snow 1 992 86 9000 5 50 21:38 15.03.2020
1314 Clouds 1 992 86 10000 6 50 21:18 15.03.2020
1315 Snow 1 993 80 10000 6 60 20:42 15.03.2020
1316 Snow 1 993 80 10000 5 60 20:21 15.03.2020
1317 Clouds 1 994 80 10000 6 60 19:58 15.03.2020
1318 Clouds 1 995 80 10000 4 70 19:39 15.03.2020
1319 Clouds 1 995 80 10000 4 70 19:20 15.03.2020
1320 Clouds 1 995 80 10000 4 70 19:20 15.03.2020
1321 Clouds 1 995 80 10000 5 80 18:55 15.03.2020
1322 Clouds 1 996 86 10000 5 80 18:37 15.03.2020
1323 Clouds 1 996 86 10000 5 80 18:19 15.03.2020
1324 Clouds 1 997 86 10000 4 70 17:41 15.03.2020
1325 Clouds 1 997 86 10000 4 70 17:21 15.03.2020
1326 Clouds 1 998 86 10000 5 60 16:58 15.03.2020
1327 Clouds 1 999 86 10000 4 70 16:39 15.03.2020
1328 Clouds 1 999 86 10000 4 70 16:21 15.03.2020
1329 Clouds 1 999 86 10000 4 70 15:46 15.03.2020
1330 Clouds 1 999 86 10000 3 70 15:28 15.03.2020
1331 Clouds 1 1000 86 10000 3 80 14:58 15.03.2020
1332 Clouds 1 1000 86 10000 3 80 14:38 15.03.2020
1333 Snow 1 1000 80 10000 2 60 14:19 15.03.2020
1334 Snow 2 1000 80 10000 3 60 13:54 15.03.2020
1335 Snow 2 1000 74 10000 1 50 13:36 15.03.2020
1336 Clouds 2 1000 74 10000 1 50 13:18 15.03.2020
1337 Clouds 2 1000 74 10000 1 50 13:18 15.03.2020
1338 Clouds 3 1001 69 10000 2 260 12:39 15.03.2020
1339 Clouds 3 1001 69 10000 2 260 12:21 15.03.2020
1340 Clouds 3 1001 69 10000 2 260 12:21 15.03.2020
1341 Clouds 2 1001 80 10000 3 280 11:43 15.03.2020
1342 Clouds 2 1001 80 10000 3 280 11:24 15.03.2020
1343 Clouds 3 1001 69 10000 5 250 10:57 15.03.2020
1344 Clouds 3 1001 69 10000 6 240 10:39 15.03.2020
1345 Clouds 3 1001 69 10000 6 240 10:21 15.03.2020
1346 Clouds 3 1001 69 10000 6 240 09:42 15.03.2020
1347 Clouds 3 1001 74 10000 7 240 09:23 15.03.2020
1348 Clouds 2 1000 80 10000 6 240 08:58 15.03.2020
1349 Clouds 2 1000 80 10000 6 240 08:40 15.03.2020
1350 Clouds 2 1000 80 10000 6 240 08:40 15.03.2020
1351 Clouds 2 1000 80 10000 7 250 08:18 15.03.2020
1352 Clouds 2 1000 80 10000 6 240 07:44 15.03.2020
1353 Clouds 2 999 74 10000 6 250 06:59 15.03.2020
1354 Clouds 2 998 74 10000 7 250 06:35 15.03.2020
1355 Clouds 1 997 86 10000 10 250 05:46 15.03.2020
1356 Clouds 1 997 86 10000 8 250 04:49 15.03.2020
1357 Clouds 1 996 86 10000 7 250 04:29 15.03.2020
1358 Clouds 1 996 86 10000 7 250 03:55 15.03.2020
1359 Clouds 2 994 80 10000 8 250 02:48 15.03.2020
1360 Clouds 2 993 92 10000 7 240 01:56 15.03.2020
1361 Rain 2 992 89 10000 7 250 00:51 15.03.2020
1362 Clouds 2 992 93 10000 6 250 00:28 15.03.2020
1363 Rain 2 991 93 10000 6 250 23:58 14.03.2020
1364 Clouds 2 991 93 10000 7 250 23:37 14.03.2020
1365 Clouds 2 991 93 10000 7 250 23:19 14.03.2020
1366 Snow 2 990 93 10000 6 240 22:44 14.03.2020
1367 Clouds 2 990 93 10000 6 240 22:26 14.03.2020
1368 Clouds 2 989 96 10000 6 240 21:57 14.03.2020
1369 Clouds 2 989 96 10000 6 240 21:37 14.03.2020
1370 Clouds 2 989 96 10000 6 240 21:19 14.03.2020
1371 Clouds 2 989 96 10000 6 240 21:19 14.03.2020
1372 Clouds 2 988 96 10000 6 240 20:59 14.03.2020
1373 Clouds 2 988 96 10000 6 240 20:41 14.03.2020
1374 Clouds 2 988 93 10000 5 240 20:20 14.03.2020
1375 Clouds 2 988 93 10000 5 240 19:58 14.03.2020
1376 Snow 2 987 93 10000 6 240 19:39 14.03.2020
1377 Snow 2 987 93 10000 6 240 19:19 14.03.2020
1378 Snow 2 987 100 10000 4 230 18:37 14.03.2020
1379 Clouds 2 987 100 10000 5 230 18:19 14.03.2020
1380 Clouds 2 987 100 10000 4 230 17:40 14.03.2020
1381 Snow 2 986 100 10000 4 230 17:21 14.03.2020
1382 Clouds 2 986 100 10000 4 230 16:42 14.03.2020
1383 Clouds 2 986 100 10000 4 230 16:24 14.03.2020
1384 Clouds 2 986 100 10000 4 220 15:59 14.03.2020
1385 Clouds 2 986 100 10000 4 210 15:27 14.03.2020
1386 Clouds 2 986 100 10000 4 210 14:59 14.03.2020
1387 Clouds 2 986 100 10000 4 210 14:37 14.03.2020
1388 Clouds 2 986 100 10000 4 210 14:19 14.03.2020
1389 Clouds 2 986 100 10000 5 210 13:54 14.03.2020
1390 Clouds 2 986 100 10000 5 200 13:36 14.03.2020
1391 Clouds 2 986 100 10000 5 200 13:18 14.03.2020
1392 Clouds 2 986 100 10000 5 200 12:42 14.03.2020
1393 Clouds 2 986 100 10000 5 200 12:23 14.03.2020
1394 Rain 2 986 100 9000 5 200 11:43 14.03.2020
1395 Rain 2 986 100 9000 5 200 11:43 14.03.2020
1396 Clouds 2 986 100 10000 6 200 11:25 14.03.2020
1397 Clouds 2 986 100 10000 5 200 10:47 14.03.2020
1398 Clouds 2 986 100 10000 5 200 10:47 14.03.2020
1399 Clouds 2 986 100 10000 5 200 10:28 14.03.2020
1400 Clouds 2 986 100 10000 5 190 09:59 14.03.2020
1401 Rain 1 987 100 6000 5 190 09:40 14.03.2020
1402 Rain 1 987 100 6000 5 190 09:21 14.03.2020
1403 Clouds 1 987 100 10000 5 190 08:46 14.03.2020
1404 Rain 1 987 100 7000 5 190 08:26 14.03.2020
1405 Snow 1 988 100 4800 5 200 07:40 14.03.2020
1406 Snow 2 988 97 9000 8 210 07:21 14.03.2020
1407 Clouds 2 989 97 10000 7 200 06:55 14.03.2020
1408 Clouds 2 989 97 10000 8 200 06:34 14.03.2020
1409 Clouds 2 989 94 10000 7 180 04:55 14.03.2020
1410 Clouds 2 991 80 10000 7 170 03:34 14.03.2020
1411 Clouds 2 991 80 10000 7 180 02:48 14.03.2020
1412 Clouds 2 992 80 10000 7 180 01:46 14.03.2020
1413 Clouds 2 994 80 10000 5 190 00:34 14.03.2020
1414 Clouds 2 995 80 10000 5 190 23:42 13.03.2020
1415 Clouds 2 995 80 10000 5 190 23:23 13.03.2020
1416 Clouds 3 996 74 10000 5 190 22:44 13.03.2020
1417 Clouds 2 996 80 10000 5 190 22:22 13.03.2020
1418 Clouds 3 997 74 10000 5 200 21:41 13.03.2020
1419 Clouds 3 997 74 10000 5 200 21:19 13.03.2020
1420 Clouds 2 997 80 10000 4 200 20:43 13.03.2020
1421 Clouds 3 998 94 10000 4 200 20:23 13.03.2020
1422 Clouds 3 998 98 10000 6 210 19:58 13.03.2020
1423 Clouds 3 998 98 10000 5 210 19:39 13.03.2020
1424 Clouds 3 998 98 10000 5 210 19:19 13.03.2020
1425 Clouds 3 998 98 10000 7 220 18:43 13.03.2020
1426 Clouds 3 998 98 10000 7 220 18:23 13.03.2020
1427 Clouds 3 998 98 10000 5 230 17:43 13.03.2020
1428 Clouds 3 998 98 10000 5 230 17:21 13.03.2020
1429 Clouds 4 998 80 10000 6 230 16:57 13.03.2020
1430 Clouds 4 998 98 10000 5 210 16:38 13.03.2020
1431 Clouds 4 998 98 10000 5 210 16:20 13.03.2020
1432 Clouds 4 998 98 10000 6 220 15:45 13.03.2020
1433 Clouds 4 998 98 10000 7 230 15:22 13.03.2020
1434 Rain 4 998 98 10000 9 220 14:58 13.03.2020
1435 Rain 4 998 98 10000 9 220 14:40 13.03.2020
1436 Clouds 6 997 56 10000 8 220 14:21 13.03.2020
1437 Rain 6 997 52 10000 9 210 13:42 13.03.2020
1438 Clouds 7 998 48 10000 8 210 13:24 13.03.2020
1439 Clouds 7 997 48 10000 8 210 12:59 13.03.2020
1440 Clouds 7 997 48 10000 7 210 12:38 13.03.2020
1441 Clouds 7 997 48 10000 7 210 12:38 13.03.2020
1442 Snow 7 998 45 10000 8 210 12:20 13.03.2020
1443 Snow 7 998 45 10000 8 210 11:56 13.03.2020
1444 Snow 7 997 45 10000 7 200 11:36 13.03.2020
1445 Snow 7 997 45 10000 7 200 11:36 13.03.2020
1446 Rain 7 997 45 10000 7 190 11:18 13.03.2020
1447 Rain 7 997 45 10000 7 190 10:46 13.03.2020
1448 Rain 6 998 48 10000 6 190 10:26 13.03.2020
1449 Rain 6 998 48 10000 6 190 09:49 13.03.2020
1450 Rain 5 999 56 10000 7 190 09:30 13.03.2020
1451 Rain 5 999 56 10000 6 190 08:59 13.03.2020
1452 Rain 5 1000 56 10000 6 190 08:41 13.03.2020
1453 Rain 5 1000 56 10000 6 190 08:22 13.03.2020
1454 Clouds 4 1000 60 10000 5 180 07:44 13.03.2020
1455 Clouds 4 1000 60 10000 5 190 07:25 13.03.2020
1456 Clouds 4 1001 60 10000 5 200 06:46 13.03.2020
1457 Clouds 4 1001 60 10000 5 200 06:23 13.03.2020
1458 Clouds 3 1001 64 10000 7 210 05:46 13.03.2020
1459 Clouds 3 1001 64 10000 8 210 04:57 13.03.2020
1460 Clouds 3 1001 64 10000 7 200 04:26 13.03.2020
1461 Clouds 3 1002 69 10000 6 210 02:43 13.03.2020
1462 Clouds 4 1002 64 10000 7 210 01:37 13.03.2020
1463 Clouds 4 1002 64 10000 7 210 01:18 13.03.2020
1464 Clouds 4 1002 69 10000 7 200 00:41 13.03.2020
1465 Clouds 4 1002 69 10000 6 200 00:19 13.03.2020
1466 Clouds 5 1002 65 10000 6 210 23:39 12.03.2020
1467 Clouds 4 1002 69 10000 5 210 23:19 12.03.2020
1468 Clouds 4 1002 69 10000 5 210 22:46 12.03.2020
1469 Clouds 4 1002 99 10000 5 200 22:28 12.03.2020
1470 Clouds 4 1002 99 10000 5 200 21:57 12.03.2020
1471 Clouds 4 1003 99 10000 5 210 21:39 12.03.2020
1472 Clouds 4 1003 99 10000 5 210 21:20 12.03.2020
1473 Clouds 4 1003 69 10000 5 200 20:42 12.03.2020
1474 Clouds 4 1003 69 10000 5 200 20:20 12.03.2020
1475 Clouds 4 1003 69 10000 5 200 19:56 12.03.2020
1476 Clouds 4 1003 69 10000 5 210 19:37 12.03.2020
1477 Clouds 4 1004 64 10000 5 200 19:18 12.03.2020
1478 Clouds 4 1004 64 10000 4 200 18:41 12.03.2020
1479 Clouds 4 1004 64 10000 6 200 18:22 12.03.2020
1480 Clouds 4 1004 64 10000 6 200 17:56 12.03.2020
1481 Clouds 4 1004 64 10000 6 200 17:37 12.03.2020
1482 Clouds 4 1005 64 10000 5 190 17:18 12.03.2020
1483 Clouds 4 1005 69 10000 5 200 16:41 12.03.2020
1484 Clouds 4 1005 69 10000 5 200 16:22 12.03.2020
1485 Clouds 3 1005 74 10000 4 190 15:49 12.03.2020
1486 Clouds 4 1006 69 10000 4 190 15:28 12.03.2020
1487 Clouds 4 1006 69 10000 4 190 15:28 12.03.2020
1488 Clouds 4 1006 69 10000 5 200 14:56 12.03.2020
1489 Clouds 4 1006 69 10000 5 200 14:56 12.03.2020
1490 Clouds 4 1006 69 10000 4 200 14:37 12.03.2020
1491 Clouds 4 1006 69 10000 4 200 14:18 12.03.2020
1492 Clouds 4 1006 69 10000 5 220 13:40 12.03.2020
1493 Clouds 4 1006 69 10000 5 220 13:21 12.03.2020
1494 Clouds 4 1006 69 10000 5 220 12:55 12.03.2020
1495 Clouds 4 1006 69 10000 5 220 12:55 12.03.2020
1496 Clouds 4 1006 99 10000 6 220 12:37 12.03.2020
1497 Clouds 4 1006 99 10000 6 220 12:37 12.03.2020
1498 Clouds 4 1006 99 10000 7 220 12:18 12.03.2020
1499 Clouds 4 1006 99 10000 7 220 12:18 12.03.2020
1500 Clouds 4 1006 99 10000 7 220 11:55 12.03.2020
1501 Clouds 4 1006 99 10000 6 210 11:36 12.03.2020
1502 Clouds 4 1006 100 10000 6 210 11:18 12.03.2020
1503 Clouds 3 1006 100 10000 7 210 10:43 12.03.2020
1504 Clouds 3 1006 100 10000 7 210 10:23 12.03.2020
1505 Clouds 3 1007 86 10000 6 200 09:55 12.03.2020
1506 Clouds 3 1007 86 10000 6 190 09:37 12.03.2020
1507 Clouds 3 1007 86 10000 6 190 09:19 12.03.2020
1508 Clouds 3 1007 93 10000 6 180 08:38 12.03.2020
1509 Clouds 3 1007 93 10000 6 180 08:18 12.03.2020
1510 Clouds 2 1008 100 10000 7 170 07:47 12.03.2020
1511 Clouds 2 1009 100 10000 6 180 07:22 12.03.2020
1512 Clouds 2 1010 100 10000 6 180 06:26 12.03.2020
1513 Clouds 1 1011 100 10000 6 190 05:35 12.03.2020
1514 Clouds 0 1012 96 10000 4 190 03:44 12.03.2020
1515 Clouds 0 1013 95 10000 4 200 01:58 12.03.2020
1516 Clouds -1 1013 100 10000 4 210 01:23 12.03.2020
1517 Clouds 0 1013 95 10000 3 210 00:42 12.03.2020
1518 Clouds 0 1013 95 10000 4 230 23:58 11.03.2020
1519 Clouds 0 1013 95 10000 4 240 23:29 11.03.2020
1520 Clouds 0 1013 93 10000 4 230 22:59 11.03.2020
1521 Snow 0 1013 93 10000 4 230 22:40 11.03.2020
1522 Snow 0 1013 93 10000 4 230 22:21 11.03.2020
1523 Clouds 1 1013 100 10000 4 230 21:58 11.03.2020
1524 Clouds 1 1013 100 10000 4 240 21:39 11.03.2020
1525 Clouds 1 1013 100 10000 4 240 21:21 11.03.2020
1526 Clouds 0 1013 93 10000 3 230 20:56 11.03.2020
1527 Clouds 1 1012 100 10000 4 240 20:37 11.03.2020
1528 Clouds 1 1012 100 10000 4 240 20:19 11.03.2020
1529 Clouds 1 1013 93 10000 4 240 19:42 11.03.2020
1530 Clouds 1 1013 93 10000 4 240 19:24 11.03.2020
1531 Clouds 1 1012 93 10000 5 250 18:57 11.03.2020
1532 Clouds 1 1012 100 10000 4 250 18:37 11.03.2020
1533 Clouds 1 1012 100 10000 4 250 18:18 11.03.2020
1534 Clouds 1 1012 100 10000 5 250 17:54 11.03.2020
1535 Clouds 1 1011 100 10000 5 260 17:36 11.03.2020
1536 Clouds 1 1011 100 10000 5 250 17:18 11.03.2020
1537 Clouds 1 1011 100 10000 5 250 16:41 11.03.2020
1538 Clouds 1 1011 100 10000 5 250 16:19 11.03.2020
1539 Clouds 1 1010 100 10000 6 260 15:43 11.03.2020
1540 Clouds 1 1010 100 10000 7 280 15:23 11.03.2020
1541 Clouds 1 1010 100 10000 7 280 15:23 11.03.2020
1542 Clouds 1 1009 100 10000 7 270 14:46 11.03.2020
1543 Clouds 1 1009 100 10000 6 250 14:25 11.03.2020
1544 Clouds 1 1008 100 10000 7 250 13:59 11.03.2020
1545 Clouds 1 1008 100 10000 7 250 13:40 11.03.2020
1546 Clouds 1 1008 100 10000 7 250 13:22 11.03.2020
1547 Clouds 1 1008 100 10000 7 240 12:56 11.03.2020
1548 Snow 1 1008 100 8000 7 240 12:37 11.03.2020
1549 Snow 1 1008 100 8000 7 240 12:18 11.03.2020
1550 Snow 1 1007 100 2600 6 240 11:40 11.03.2020
1551 Snow 1 1007 100 2600 6 240 11:20 11.03.2020
1552 Snow 0 1007 99 5000 7 230 10:47 11.03.2020
1553 Snow 0 1007 99 7000 7 230 10:20 11.03.2020
1554 Snow 0 1007 99 9000 7 230 09:58 11.03.2020
1555 Snow 0 1007 99 2500 7 230 09:38 11.03.2020
1556 Snow 0 1007 99 2500 7 230 09:19 11.03.2020
1557 Snow 0 1007 99 2000 6 230 08:42 11.03.2020
1558 Snow 0 1008 98 1400 6 220 08:23 11.03.2020
1559 Snow 0 1008 98 1100 6 220 07:47 11.03.2020
1560 Snow 0 1008 98 2300 6 220 07:20 11.03.2020
1561 Snow 0 1008 98 4400 6 220 06:49 11.03.2020
1562 Snow 0 1008 98 5000 7 210 06:30 11.03.2020
1563 Snow 0 1009 98 6000 6 220 05:32 11.03.2020
1564 Clouds 0 1011 97 10000 6 220 02:36 11.03.2020
1565 Clouds 0 1011 95 10000 6 220 01:51 11.03.2020
1566 Clouds 0 1011 95 10000 6 220 00:53 11.03.2020
1567 Clouds 0 1012 95 10000 6 220 00:31 11.03.2020
1568 Clouds -1 1012 86 10000 6 220 23:47 10.03.2020
1569 Clouds -1 1012 86 10000 6 220 23:22 10.03.2020
1570 Clouds -1 1013 86 10000 6 230 22:55 10.03.2020
1571 Clouds -1 1013 86 10000 6 230 22:36 10.03.2020
1572 Clouds -1 1013 86 10000 6 230 22:18 10.03.2020
1573 Clouds -1 1013 86 10000 6 230 21:55 10.03.2020
1574 Clouds -1 1014 86 10000 5 230 21:37 10.03.2020
1575 Clouds -1 1014 86 10000 5 230 21:18 10.03.2020
1576 Clouds -1 1014 86 10000 5 230 21:18 10.03.2020
1577 Clouds -1 1014 86 10000 6 230 20:41 10.03.2020
1578 Clouds -1 1014 86 10000 6 240 20:19 10.03.2020
1579 Clouds -1 1014 86 10000 6 240 19:58 10.03.2020
1580 Clouds -1 1014 86 10000 6 230 19:40 10.03.2020
1581 Clouds -1 1014 86 10000 6 230 19:21 10.03.2020
1582 Clouds -1 1014 80 10000 7 240 18:54 10.03.2020
1583 Clouds -1 1014 80 10000 7 240 18:36 10.03.2020
1584 Clouds -1 1014 80 10000 7 240 18:18 10.03.2020
1585 Clouds -1 1015 80 10000 6 230 17:40 10.03.2020
1586 Clouds -1 1015 80 10000 6 230 17:21 10.03.2020
1587 Clouds -1 1015 80 10000 8 230 16:40 10.03.2020
1588 Clouds -1 1015 80 10000 8 230 16:20 10.03.2020
1589 Clouds -1 1015 80 10000 6 230 15:58 10.03.2020
1590 Clouds -1 1015 80 10000 7 230 15:39 10.03.2020
1591 Clouds -1 1015 80 10000 7 230 15:19 10.03.2020
1592 Clouds -1 1015 74 10000 7 230 14:57 10.03.2020
1593 Clouds -1 1015 74 10000 7 230 14:39 10.03.2020
1594 Clouds -1 1015 80 10000 8 240 14:18 10.03.2020
1595 Clouds -1 1015 74 10000 8 240 13:42 10.03.2020
1596 Clouds -1 1015 74 10000 8 240 13:42 10.03.2020
1597 Clouds -1 1015 74 10000 7 230 13:24 10.03.2020
1598 Clouds -1 1016 74 10000 7 240 12:42 10.03.2020
1599 Clouds -1 1016 74 10000 8 240 12:21 10.03.2020
1600 Clouds -1 1016 74 10000 8 240 11:59 10.03.2020
1601 Clouds -1 1016 74 10000 7 240 11:41 10.03.2020
1602 Clouds -1 1016 74 10000 7 240 11:23 10.03.2020
1603 Clouds -1 1016 68 10000 8 230 10:54 10.03.2020
1604 Clouds -1 1016 68 10000 8 230 10:36 10.03.2020
1605 Clouds -1 1016 68 10000 8 230 10:18 10.03.2020
1606 Clouds -1 1017 68 10000 8 230 09:42 10.03.2020
1607 Clouds -2 1017 74 10000 7 230 09:19 10.03.2020
1608 Clouds -2 1017 68 10000 6 230 08:53 10.03.2020
1609 Clouds -3 1018 73 10000 7 230 08:33 10.03.2020
1610 Clouds -4 1018 73 10000 6 230 07:53 10.03.2020
1611 Clouds -4 1018 68 10000 5 220 07:34 10.03.2020
1612 Clouds -5 1019 67 10000 5 220 06:50 10.03.2020
1613 Clouds -7 1019 67 10000 5 220 06:31 10.03.2020
1614 Clouds -9 1020 72 10000 5 210 05:42 10.03.2020
1615 Clouds -9 1020 72 10000 5 210 04:53 10.03.2020
1616 Clouds -10 1020 72 10000 4 210 04:24 10.03.2020
1617 Clouds -11 1020 78 10000 4 230 02:46 10.03.2020
1618 Clouds -15 1020 84 10000 2 240 01:31 10.03.2020
1619 Clouds -14 1020 84 10000 2 250 00:50 10.03.2020
1620 Clouds -15 1020 84 10000 3 260 00:27 10.03.2020
1621 Clouds -15 1020 92 10000 3 280 23:41 09.03.2020
1622 Clouds -15 1020 92 10000 3 280 23:22 09.03.2020
1623 Clear -15 1020 84 10000 3 280 22:56 09.03.2020
1624 Clear -15 1020 84 10000 3 280 22:37 09.03.2020
1625 Clear -15 1020 84 10000 3 280 22:18 09.03.2020
1626 Clear -15 1020 84 10000 3 280 21:42 09.03.2020
1627 Clear -15 1020 84 10000 3 280 21:22 09.03.2020
1628 Clear -14 1020 77 10000 4 280 20:58 09.03.2020
1629 Clear -15 1020 77 10000 3 280 20:39 09.03.2020
1630 Clear -15 1020 77 10000 3 280 20:20 09.03.2020
1631 Clear -13 1019 78 10000 3 300 19:45 09.03.2020
1632 Clear -12 1019 72 10000 4 300 19:26 09.03.2020
1633 Clear -12 1019 72 10000 3 310 18:59 09.03.2020
1634 Clear -11 1019 72 10000 4 310 18:40 09.03.2020
1635 Clear -11 1019 72 10000 4 310 18:20 09.03.2020
1636 Clear -11 1019 72 10000 4 310 17:58 09.03.2020
1637 Clear -11 1018 72 10000 4 300 17:38 09.03.2020
1638 Clear -10 1018 66 10000 4 320 17:20 09.03.2020
1639 Clear -10 1018 66 10000 4 320 16:58 09.03.2020
1640 Clear -9 1017 66 10000 6 320 16:40 09.03.2020
1641 Clear -9 1017 66 10000 6 320 16:22 09.03.2020
1642 Clear -9 1017 66 10000 6 320 15:58 09.03.2020
1643 Clear -8 1017 61 10000 7 330 15:39 09.03.2020
1644 Clear -8 1017 61 10000 7 330 15:21 09.03.2020
1645 Clear -8 1017 67 10000 5 320 14:57 09.03.2020
1646 Clear -7 1016 62 10000 7 320 14:37 09.03.2020
1647 Clear -7 1016 62 10000 7 320 14:19 09.03.2020
1648 Clouds -7 1016 62 10000 6 320 13:55 09.03.2020
1649 Clouds -7 1015 67 10000 6 310 13:37 09.03.2020
1650 Clouds -7 1015 67 10000 6 310 13:18 09.03.2020
1651 Clouds -6 1015 62 10000 7 320 12:42 09.03.2020
1652 Clouds -6 1015 57 10000 5 320 12:22 09.03.2020
1653 Clouds -6 1015 57 10000 5 320 12:22 09.03.2020
1654 Clear -7 1014 62 10000 7 320 11:54 09.03.2020
1655 Clear -7 1014 57 10000 8 320 11:36 09.03.2020
1656 Clear -7 1014 57 10000 8 320 11:18 09.03.2020
1657 Clear -7 1014 62 10000 7 330 10:54 09.03.2020
1658 Clear -7 1014 62 10000 7 330 10:36 09.03.2020
1659 Clear -7 1014 62 10000 7 330 10:18 09.03.2020
1660 Clear -7 1013 62 10000 7 330 09:38 09.03.2020
1661 Clear -7 1013 62 10000 7 330 09:19 09.03.2020
1662 Clear -7 1012 67 10000 7 330 08:44 09.03.2020
1663 Clear -6 1012 62 10000 7 330 08:25 09.03.2020
1664 Snow -6 1011 67 10000 5 330 07:41 09.03.2020
1665 Snow -6 1011 62 10000 8 340 07:22 09.03.2020
1666 Snow -5 1011 62 10000 9 330 06:46 09.03.2020
1667 Clouds -3 1010 58 10000 7 330 06:25 09.03.2020
1668 Clouds -3 1010 58 10000 6 340 05:52 09.03.2020
1669 Clouds -3 1009 68 10000 6 340 05:34 09.03.2020
1670 Snow -3 1009 86 6000 6 340 04:43 09.03.2020
1671 Snow -3 1008 92 8000 4 330 04:22 09.03.2020
1672 Snow -3 1008 100 3000 4 300 03:20 09.03.2020
1673 Clouds -3 1008 100 10000 5 260 01:41 09.03.2020
1674 Clouds -2 1008 92 10000 5 260 00:38 09.03.2020
1675 Clouds -2 1008 92 10000 5 260 00:20 09.03.2020
1676 Clouds -2 1008 92 10000 5 250 23:48 08.03.2020
1677 Clouds -2 1008 92 10000 5 260 23:23 08.03.2020
1678 Clouds -2 1008 92 10000 5 250 22:57 08.03.2020
1679 Clouds -2 1008 92 10000 5 250 22:57 08.03.2020
1680 Clouds -1 1008 86 10000 5 250 22:38 08.03.2020
1681 Clouds -1 1008 86 10000 5 250 22:20 08.03.2020
1682 Clouds -1 1008 86 10000 4 250 21:54 08.03.2020
1683 Clouds -1 1009 86 10000 5 250 21:36 08.03.2020
1684 Clouds -1 1009 86 10000 5 250 21:36 08.03.2020
1685 Clouds -1 1009 86 10000 5 250 21:18 08.03.2020
1686 Clouds -1 1009 86 10000 5 250 20:39 08.03.2020
1687 Clouds -1 1009 86 10000 5 250 20:21 08.03.2020
1688 Clouds -1 1009 86 10000 5 250 20:21 08.03.2020
1689 Clouds -1 1010 86 10000 5 250 19:56 08.03.2020
1690 Clouds -1 1010 86 10000 5 250 19:37 08.03.2020
1691 Clouds -1 1010 86 10000 5 250 19:18 08.03.2020
1692 Clouds -1 1010 86 10000 6 240 18:41 08.03.2020
1693 Clouds -1 1011 80 10000 5 240 18:23 08.03.2020
1694 Clouds -1 1011 80 10000 3 240 17:56 08.03.2020
1695 Clouds -1 1011 80 10000 3 240 17:38 08.03.2020
1696 Clouds -1 1011 80 10000 3 240 17:18 08.03.2020
1697 Clouds -1 1011 80 10000 3 240 16:45 08.03.2020
1698 Clouds -1 1011 80 10000 4 230 16:27 08.03.2020
1699 Clouds -1 1011 80 10000 3 240 15:56 08.03.2020
1700 Clouds -1 1011 80 10000 3 240 15:38 08.03.2020
1701 Clouds -1 1011 80 10000 3 240 15:19 08.03.2020
1702 Clouds 0 1012 90 10000 4 240 14:40 08.03.2020
1703 Clouds 0 1012 90 10000 4 240 14:21 08.03.2020
1704 Clouds 0 1012 90 10000 4 240 14:21 08.03.2020
1705 Clouds 0 1012 87 10000 5 240 13:57 08.03.2020
1706 Clouds 0 1012 87 10000 5 240 13:38 08.03.2020
1707 Clouds 0 1012 88 10000 6 250 13:19 08.03.2020
1708 Clouds 1 1012 74 10000 7 250 12:41 08.03.2020
1709 Clouds 1 1012 74 10000 7 240 12:21 08.03.2020
1710 Clouds 2 1012 64 10000 8 250 11:54 08.03.2020
1711 Clouds 2 1012 69 10000 8 250 11:36 08.03.2020
1712 Clouds 2 1012 69 10000 8 250 11:18 08.03.2020
1713 Clouds 2 1012 69 10000 8 250 10:41 08.03.2020
1714 Clouds 2 1012 69 10000 8 250 10:23 08.03.2020
1715 Clouds 2 1012 69 10000 9 270 09:43 08.03.2020
1716 Clouds 2 1012 69 10000 10 280 09:24 08.03.2020
1717 Clouds 1 1012 74 10000 9 280 08:50 08.03.2020
1718 Clouds 1 1012 74 10000 9 280 08:28 08.03.2020
1719 Clouds 1 1012 74 10000 9 280 07:56 08.03.2020
1720 Clouds 1 1012 74 10000 9 280 07:37 08.03.2020
1721 Clouds 1 1011 74 10000 9 280 07:18 08.03.2020
1722 Clouds 1 1011 74 10000 9 270 06:40 08.03.2020
1723 Clouds 1 1011 74 10000 9 270 06:22 08.03.2020
1724 Clouds 0 1010 88 10000 9 260 05:18 08.03.2020
1725 Clouds 0 1009 88 10000 8 260 03:50 08.03.2020
1726 Clouds 1 1008 80 10000 8 260 02:28 08.03.2020
1727 Clouds 1 1007 80 10000 9 270 01:22 08.03.2020
1728 Clouds 1 1007 80 10000 10 270 00:43 08.03.2020
1729 Clouds 1 1006 80 10000 8 260 00:24 08.03.2020
1730 Clouds 1 1006 80 10000 8 260 23:43 07.03.2020
1731 Clouds 0 1006 91 10000 8 260 23:22 07.03.2020
1732 Clouds 0 1006 95 10000 7 270 22:40 07.03.2020
1733 Clouds 0 1006 95 10000 7 270 22:21 07.03.2020
1734 Snow 0 1006 95 7000 8 260 21:49 07.03.2020
1735 Clouds 0 1006 95 10000 7 260 21:25 07.03.2020
1736 Clouds 0 1006 95 10000 8 260 20:42 07.03.2020
1737 Clouds 0 1005 95 10000 9 260 20:24 07.03.2020
1738 Clouds 0 1005 93 10000 8 250 19:59 07.03.2020
1739 Clouds 0 1005 93 10000 9 260 19:40 07.03.2020
1740 Clouds 0 1005 93 10000 9 260 19:20 07.03.2020
1741 Clouds 0 1005 93 10000 10 260 18:42 07.03.2020
1742 Clouds 0 1005 93 10000 10 250 18:24 07.03.2020
1743 Clouds -1 1004 86 10000 11 250 17:56 07.03.2020
1744 Clouds -1 1004 80 10000 11 260 17:38 07.03.2020
1745 Clouds -1 1004 80 10000 11 260 17:18 07.03.2020
1746 Snow -2 1004 92 9000 9 250 16:42 07.03.2020
1747 Snow -2 1004 92 9000 9 250 16:23 07.03.2020
1748 Snow -2 1004 100 3500 10 250 15:58 07.03.2020
1749 Snow -2 1004 100 5000 10 250 15:40 07.03.2020
1750 Snow -2 1004 100 5000 10 250 15:21 07.03.2020
1751 Snow -2 1004 100 5000 10 250 15:21 07.03.2020
1752 Snow -2 1004 100 3400 8 250 14:57 07.03.2020
1753 Snow -2 1004 100 4100 8 240 14:38 07.03.2020
1754 Snow -2 1004 100 4100 8 240 14:19 07.03.2020
1755 Snow -4 1005 92 1100 7 230 13:40 07.03.2020
1756 Snow -4 1005 92 1100 7 230 13:21 07.03.2020
1757 Clouds -3 1005 68 10000 6 230 12:44 07.03.2020
1758 Clouds -3 1005 68 10000 6 230 12:44 07.03.2020
1759 Clouds -3 1005 68 10000 6 210 12:22 07.03.2020
1760 Clouds -4 1006 68 10000 5 200 11:59 07.03.2020
1761 Snow -4 1006 68 10000 6 200 11:40 07.03.2020
1762 Snow -4 1006 68 10000 6 200 11:22 07.03.2020
1763 Snow -5 1007 67 10000 6 200 10:42 07.03.2020
1764 Snow -6 1008 73 10000 6 200 10:21 07.03.2020
1765 Snow -6 1008 73 10000 7 200 09:58 07.03.2020
1766 Snow -7 1009 79 10000 6 200 09:39 07.03.2020
1767 Snow -7 1009 79 10000 6 200 09:19 07.03.2020
1768 Snow -8 1010 85 7000 6 200 08:44 07.03.2020
1769 Clouds -9 1011 85 1600 6 200 08:22 07.03.2020
1770 Clouds -10 1012 92 1400 7 190 07:56 07.03.2020
1771 Snow -9 1014 93 0 8.36 196 07:37 07.03.2020
1772 Snow -9 1014 93 0 8.36 196 07:19 07.03.2020
1773 Snow -9 1014 93 0 8.36 196 06:37 07.03.2020
1774 Snow -12 1017 85 1100 6 190 05:57 07.03.2020
1775 Snow -12 1017 85 1100 6 190 05:33 07.03.2020
1776 Snow -15 1022 84 2500 6 150 02:58 07.03.2020
1777 Snow -15 1022 84 2500 6 150 02:35 07.03.2020
1778 Snow -15 1022 84 2500 6 150 01:46 07.03.2020
1779 Snow -16 1025 71 10000 5 180 00:41 07.03.2020
1780 Snow -16 1025 71 10000 5 180 00:22 07.03.2020
1781 Snow -16 1026 71 10000 5 180 23:54 06.03.2020
1782 Snow -16 1027 65 10000 5 180 23:26 06.03.2020
1783 Clouds -17 1028 70 10000 4 180 22:58 06.03.2020
1784 Clouds -16 1028 65 10000 5 170 22:40 06.03.2020
1785 Clouds -16 1028 65 10000 5 170 22:18 06.03.2020
1786 Clouds -16 1029 65 10000 5 180 21:43 06.03.2020
1787 Clouds -16 1030 59 10000 4 190 21:19 06.03.2020
1788 Clouds -18 1031 70 10000 1 170 20:39 06.03.2020
1789 Clouds -18 1031 70 10000 1 170 20:21 06.03.2020
1790 Clouds -19 1032 77 10000 2 170 19:52 06.03.2020
1791 Clouds -21 1032 83 10000 1 170 19:33 06.03.2020
1792 Clouds -23 1032 83 10000 2 190 18:59 06.03.2020
1793 Clouds -23 1032 83 10000 2 190 18:40 06.03.2020
1794 Clouds -23 1033 76 10000 1 0 18:19 06.03.2020
1795 Clouds -23 1033 76 10000 1 0 18:19 06.03.2020
1796 Clouds -23 1033 76 10000 1 0 18:19 06.03.2020
1797 Clouds -24 1033 83 10000 1 0 17:43 06.03.2020
1798 Clouds -24 1033 83 10000 1 0 17:43 06.03.2020
1799 Clouds -22 1034 76 10000 1 260 17:25 06.03.2020
1800 Clouds -22 1034 76 10000 1 260 16:59 06.03.2020
1801 Clouds -22 1034 76 10000 1 260 16:41 06.03.2020
1802 Clouds -22 1034 76 10000 1 260 16:20 06.03.2020
1803 Clouds -22 1034 69 10000 1 280 15:45 06.03.2020
1804 Clouds -21 1035 70 10000 1.62 259 15:25 06.03.2020
1805 Clouds -21 1035 70 10000 1.62 259 14:55 06.03.2020
1806 Clouds -19 1035 64 10000 1 310 14:37 06.03.2020
1807 Clouds -19 1035 64 10000 1 310 14:19 06.03.2020
1808 Clouds -17 1035 54 10000 3 300 13:43 06.03.2020
1809 Clouds -17 1035 54 10000 3 300 13:22 06.03.2020
1810 Clouds -16 1035 49 10000 3 320 12:57 06.03.2020
1811 Clouds -17 1035 59 10000 4 300 12:38 06.03.2020
1812 Clouds -17 1035 59 10000 4 300 12:19 06.03.2020
1813 Clouds -17 1035 59 10000 4 300 12:19 06.03.2020
1814 Clouds -16 1035 54 10000 5 320 11:57 06.03.2020
1815 Clouds -17 1035 59 10000 4 310 11:38 06.03.2020
1816 Clouds -17 1035 59 10000 4 310 11:19 06.03.2020
1817 Clouds -17 1034 59 10000 6 330 10:39 06.03.2020
1818 Clouds -17 1034 59 10000 6 330 10:20 06.03.2020
1819 Clouds -17 1034 59 10000 5 310 09:55 06.03.2020
1820 Clouds -17 1034 59 10000 5 330 09:36 06.03.2020
1821 Clouds -17 1034 59 10000 5 330 09:18 06.03.2020
1822 Clouds -17 1034 59 10000 6 330 08:43 06.03.2020
1823 Clouds -18 1033 59 10000 6 340 08:25 06.03.2020
1824 Clouds -17 1033 64 10000 7 330 07:47 06.03.2020
1825 Clouds -18 1032 59 10000 7 340 07:26 06.03.2020
1826 Clouds -19 1032 70 10000 7 330 06:56 06.03.2020
1827 Clouds -19 1031 64 10000 8 330 06:38 06.03.2020
1828 Clouds -19 1030 70 10000 8 330 05:42 06.03.2020
1829 Clouds -19 1030 70 10000 8 330 05:22 06.03.2020
1830 Clouds -19 1030 70 10000 8 330 04:55 06.03.2020
1831 Clouds -19 1027 77 10000 7 330 01:58 06.03.2020
1832 Clouds -18 1026 70 10000 8 330 01:39 06.03.2020
1833 Clouds -18 1026 70 10000 8 330 01:19 06.03.2020
1834 Clouds -18 1025 77 10000 8 320 00:32 06.03.2020
1835 Clouds -17 1024 70 10000 8 330 23:50 05.03.2020
1836 Clouds -17 1024 77 10000 8 330 23:30 05.03.2020
1837 Clouds -17 1023 77 10000 8 330 22:58 05.03.2020
1838 Clouds -16 1023 71 10000 7 330 22:39 05.03.2020
1839 Clouds -16 1023 71 10000 7 330 22:21 05.03.2020
1840 Clouds -16 1022 71 10000 8 320 21:57 05.03.2020
1841 Clouds -16 1022 77 10000 7 330 21:38 05.03.2020
1842 Clouds -16 1022 77 10000 7 330 21:20 05.03.2020
1843 Clouds -16 1021 77 10000 8 330 20:57 05.03.2020
1844 Clouds -15 1021 71 10000 8 330 20:38 05.03.2020
1845 Clouds -15 1021 71 10000 8 330 20:19 05.03.2020
1846 Clouds -15 1020 77 10000 8 330 19:56 05.03.2020
1847 Clouds -14 1020 71 10000 8 330 19:37 05.03.2020
1848 Clouds -14 1020 71 10000 8 330 19:18 05.03.2020
1849 Clouds -14 1019 77 10000 9 330 18:39 05.03.2020
1850 Clouds -14 1019 77 10000 9 330 18:20 05.03.2020
1851 Clouds -13 1019 71 10000 8 330 17:59 05.03.2020
1852 Clouds -13 1018 71 10000 9 330 17:40 05.03.2020
1853 Clouds -13 1018 71 10000 9 330 17:22 05.03.2020
1854 Clouds -13 1018 71 10000 9 330 16:54 05.03.2020
1855 Clouds -12 1017 72 10000 10 330 16:36 05.03.2020
1856 Clouds -12 1017 72 10000 10 330 16:18 05.03.2020
1857 Clouds -12 1017 72 8000 9 330 15:44 05.03.2020
1858 Clouds -12 1016 78 6000 8 330 15:22 05.03.2020
1859 Clouds -12 1016 78 5000 11 320 14:57 05.03.2020
1860 Clouds -11 1015 72 5000 10 330 14:39 05.03.2020
1861 Clouds -11 1015 72 5000 10 330 14:20 05.03.2020
1862 Clouds -11 1014 78 5000 9 320 13:55 05.03.2020
1863 Clouds -11 1013 78 2400 9 310 13:36 05.03.2020
1864 Clouds -11 1013 78 2400 9 310 13:18 05.03.2020
1865 Clouds -11 1012 78 5000 9 320 12:40 05.03.2020
1866 Clouds -11 1012 78 5000 9 320 12:40 05.03.2020
1867 Clouds -11 1012 78 5000 9 320 12:20 05.03.2020
1868 Clouds -11 1012 72 6000 10 310 11:57 05.03.2020
1869 Snow -11 1011 78 5000 8 300 11:37 05.03.2020
1870 Snow -11 1011 78 5000 8 300 11:37 05.03.2020
1871 Snow -11 1011 78 5000 8 300 11:18 05.03.2020
1872 Clouds -11 1010 78 2600 10 300 10:57 05.03.2020
1873 Clouds -10 1010 72 2000 9 310 10:38 05.03.2020
1874 Clouds -10 1010 72 2000 9 310 10:38 05.03.2020
1875 Clouds -10 1010 72 2000 9 310 10:20 05.03.2020
1876 Clouds -10 1009 78 1300 9 300 09:45 05.03.2020
1877 Clouds -10 1009 78 3000 8 290 09:26 05.03.2020
1878 Clouds -11 1009 85 1200 10 300 08:47 05.03.2020
1879 Clouds -11 1008 85 2100 9 300 08:29 05.03.2020
1880 Clouds -11 1008 85 2300 9 290 07:48 05.03.2020
1881 Clouds -11 1007 78 3600 9 300 07:22 05.03.2020
1882 Clouds -11 1007 85 3500 8 300 06:49 05.03.2020
1883 Clouds -11 1006 78 2600 11 310 06:22 05.03.2020
1884 Clouds -10 1006 78 1700 9 300 05:57 05.03.2020
1885 Snow -11 1005 85 2700 9 290 05:25 05.03.2020
1886 Clouds -11 1005 78 10000 8 290 04:22 05.03.2020
1887 Snow -11 1005 78 9000 8 280 03:51 05.03.2020
1888 Snow -11 1004 72 10000 7 290 01:58 05.03.2020
1889 Clouds -11 1004 72 10000 9 300 01:22 05.03.2020
1890 Snow -10 1003 78 10000 10 280 00:26 05.03.2020
1891 Clouds -10 1003 78 10000 9 260 23:43 04.03.2020
1892 Snow -10 1003 72 8000 9 270 23:23 04.03.2020
1893 Clouds -10 1003 66 10000 10 270 22:58 04.03.2020
1894 Clouds -10 1003 61 10000 9 260 22:39 04.03.2020
1895 Clouds -10 1003 61 10000 9 260 22:19 04.03.2020
1896 Clouds -10 1003 61 10000 8 250 21:58 04.03.2020
1897 Clouds -10 1003 61 10000 8 250 21:40 04.03.2020
1898 Clouds -10 1003 61 10000 8 250 21:20 04.03.2020
1899 Clouds -10 1003 61 10000 7 250 20:54 04.03.2020
1900 Clouds -10 1003 61 10000 7 250 20:36 04.03.2020
1901 Clouds -10 1003 61 10000 7 250 20:18 04.03.2020
1902 Clouds -10 1003 61 10000 7 250 19:42 04.03.2020
1903 Clouds -9 1004 56 10000 8 250 19:23 04.03.2020
1904 Clouds -10 1004 61 10000 6 260 18:55 04.03.2020
1905 Clouds -10 1004 66 10000 6 280 18:36 04.03.2020
1906 Clouds -10 1004 66 10000 6 280 18:18 04.03.2020
1907 Clouds -9 1004 61 10000 7 280 17:54 04.03.2020
1908 Clouds -9 1004 61 10000 7 290 17:36 04.03.2020
1909 Snow -9 1004 61 10000 7 290 17:18 04.03.2020
1910 Snow -8 1004 67 10000 7 290 16:42 04.03.2020
1911 Snow -7 1004 67 10000 12 290 16:23 04.03.2020
1912 Snow -6 1003 62 10000 7 270 15:57 04.03.2020
1913 Snow -6 1003 67 10000 8 290 15:39 04.03.2020
1914 Snow -6 1003 67 10000 8 290 15:19 04.03.2020
1915 Snow -6 1003 67 10000 8 290 15:19 04.03.2020
1916 Snow -7 1003 73 10000 7 280 14:54 04.03.2020
1917 Snow -6 1003 73 10000 9 280 14:36 04.03.2020
1918 Snow -6 1003 73 10000 9 280 14:18 04.03.2020
1919 Clouds -4 1002 73 10000 11 270 13:40 04.03.2020
1920 Clouds -4 1002 73 10000 11 270 13:22 04.03.2020
1921 Clouds -4 1002 73 10000 10 260 13:00 04.03.2020
1922 Snow -3 1002 68 10000 11 260 12:41 04.03.2020
1923 Snow -3 1002 68 10000 11 260 12:23 04.03.2020
1924 Clouds -3 1002 68 10000 10 260 11:55 04.03.2020
1925 Clouds -3 1002 68 10000 10 260 11:55 04.03.2020
1926 Clouds -3 1002 68 10000 9 260 11:37 04.03.2020
1927 Clouds -3 1002 68 10000 9 260 11:19 04.03.2020
1928 Clouds -3 1002 68 10000 11 260 10:42 04.03.2020
1929 Clouds -3 1002 68 10000 11 260 10:23 04.03.2020
1930 Clouds -3 1002 68 10000 9 240 09:55 04.03.2020
1931 Clouds -2 1002 63 10000 7 240 09:37 04.03.2020
1932 Clouds -2 1002 63 10000 7 240 09:18 04.03.2020
1933 Clouds -2 1002 63 10000 7 240 08:41 04.03.2020
1934 Snow -2 1003 63 10000 7 250 08:23 04.03.2020
1935 Clouds -3 1003 63 10000 8 280 07:47 04.03.2020
1936 Clouds -3 1003 68 10000 8 280 07:28 04.03.2020
1937 Clouds -3 1003 63 10000 8 280 06:51 04.03.2020
1938 Clouds -3 1003 63 10000 7 280 06:26 04.03.2020
1939 Clouds -3 1003 63 10000 6 290 05:57 04.03.2020
1940 Clouds -3 1003 68 10000 7 290 05:21 04.03.2020
1941 -273 0 0 0 0 0 05:21 04.03.2020
1942 Snow -1 1001 100 4400 7 290 03:52 04.03.2020
1943 Snow -1 1001 100 1700 11 280 03:33 04.03.2020
1944 Snow 0 1001 83 2700 6 250 02:58 04.03.2020
1945 Snow 0 1001 83 3500 7 250 02:27 04.03.2020
1946 Snow 0 1001 96 1000 7 240 01:56 04.03.2020
1947 Clouds 1 1001 100 10000 6 240 01:31 04.03.2020
1948 Clouds 1 1001 96 10000 6 240 00:41 04.03.2020
1949 Clouds 1 1002 100 10000 6 240 00:21 04.03.2020
1950 Clouds 0 1002 96 10000 5 230 23:42 03.03.2020
1951 Clouds 0 1002 96 10000 5 230 23:22 03.03.2020
1952 Clouds 0 1002 95 10000 4 240 22:55 03.03.2020
1953 Clouds 0 1003 95 10000 4 230 22:37 03.03.2020
1954 Clouds 0 1003 95 10000 4 230 22:18 03.03.2020
1955 Snow -1 1003 100 9000 4 230 21:41 03.03.2020
1956 Snow -1 1003 100 8000 4 230 21:22 03.03.2020
1957 Clouds -1 1004 100 10000 4 220 20:58 03.03.2020
1958 Clouds -1 1004 100 10000 4 220 20:39 03.03.2020
1959 Clouds -1 1004 100 10000 4 220 20:18 03.03.2020
1960 Clouds -2 1004 100 10000 4 220 19:56 03.03.2020
1961 Clouds -2 1005 100 10000 3 220 19:37 03.03.2020
1962 Clouds -2 1005 100 10000 3 220 19:37 03.03.2020
1963 Clouds -2 1005 100 10000 3 220 19:18 03.03.2020
1964 Clouds -2 1005 100 10000 3 220 18:56 03.03.2020
1965 Clouds -2 1006 92 10000 4 220 18:38 03.03.2020
1966 Clouds -2 1006 92 10000 4 220 18:19 03.03.2020
1967 Snow -2 1006 86 10000 4 210 17:41 03.03.2020
1968 Snow -2 1006 86 10000 4 210 17:22 03.03.2020
1969 Clouds -2 1006 79 10000 4 220 16:59 03.03.2020
1970 Snow -2 1007 74 10000 4 210 16:39 03.03.2020
1971 Snow -2 1007 74 10000 4 210 16:21 03.03.2020
1972 Snow -2 1007 74 10000 3 200 15:58 03.03.2020
1973 Snow -2 1007 74 10000 3 200 15:40 03.03.2020
1974 Snow -2 1007 74 10000 3 200 15:20 03.03.2020
1975 Snow -2 1007 74 10000 3 190 14:43 03.03.2020
1976 Snow -2 1008 74 10000 3 190 14:21 03.03.2020
1977 Clouds -2 1008 74 10000 3 200 13:58 03.03.2020
1978 Clouds -2 1008 74 10000 3 200 13:40 03.03.2020
1979 Clouds -2 1008 74 10000 3 200 13:22 03.03.2020
1980 Clouds -2 1008 68 10000 4 210 12:49 03.03.2020
1981 Clouds -2 1008 68 10000 4 200 12:27 03.03.2020
1982 Clouds -2 1009 68 10000 3 200 11:59 03.03.2020
1983 Clouds -2 1009 68 10000 3 220 11:38 03.03.2020
1984 Clouds -2 1009 68 10000 3 220 11:19 03.03.2020
1985 Clouds -2 1009 68 10000 4 210 10:56 03.03.2020
1986 Clouds -2 1009 68 10000 4 210 10:38 03.03.2020
1987 Clouds -2 1009 68 10000 4 210 10:19 03.03.2020
1988 Clouds -3 1009 73 10000 4 220 09:45 03.03.2020
1989 Clouds -3 1009 73 10000 4 210 09:23 03.03.2020
1990 Clouds -3 1009 73 10000 4 220 08:58 03.03.2020
1991 Clouds -3 1010 73 10000 4 210 08:39 03.03.2020
1992 Clouds -3 1010 73 10000 4 210 08:21 03.03.2020
1993 Clouds -3 1010 73 10000 5 220 07:44 03.03.2020
1994 Snow -3 1010 68 10000 4 210 07:22 03.03.2020
1995 Snow -4 1010 73 10000 4 200 06:51 03.03.2020
1996 Clouds -4 1010 79 10000 4 200 06:25 03.03.2020
1997 Snow -4 1011 79 10000 3 200 05:47 03.03.2020
1998 Snow -5 1011 85 9000 3 200 05:28 03.03.2020
1999 Snow -5 1011 79 7000 3 210 04:37 03.03.2020
2000 Snow -6 1011 73 10000 2 220 01:40 03.03.2020
2001 Clouds -6 1011 73 10000 2 240 00:49 03.03.2020
2002 Clouds -6 1011 73 10000 4 220 00:27 03.03.2020
2003 Clouds -6 1011 73 10000 3 220 23:59 02.03.2020
2004 Clouds -6 1012 73 10000 3 240 23:40 02.03.2020
2005 Clouds -6 1012 73 10000 3 240 23:22 02.03.2020
2006 Clouds -6 1012 73 10000 3 230 22:55 02.03.2020
2007 Clouds -6 1012 73 10000 3 230 22:55 02.03.2020
2008 Clouds -7 1012 79 10000 3 220 22:37 02.03.2020
2009 Clouds -7 1012 79 10000 3 220 22:18 02.03.2020
2010 Clouds -8 1012 78 10000 3 220 21:42 02.03.2020
2011 Clouds -8 1012 78 10000 2 230 21:23 02.03.2020
2012 Clouds -7 1011 73 10000 3 230 20:58 02.03.2020
2013 Clouds -7 1011 73 10000 3 230 20:58 02.03.2020
2014 Clouds -7 1011 73 10000 2 230 20:40 02.03.2020
2015 Clouds -7 1011 73 10000 2 230 20:21 02.03.2020
2016 Clouds -7 1011 73 10000 2 240 19:57 02.03.2020
2017 Clouds -7 1012 73 10000 3 240 19:38 02.03.2020
2018 Clouds -7 1012 73 10000 3 240 19:20 02.03.2020
2019 Clouds -6 1012 67 10000 3 240 18:54 02.03.2020
2020 Clouds -6 1011 67 10000 3 240 18:36 02.03.2020
2021 Clouds -6 1011 67 10000 3 240 18:18 02.03.2020
2022 Clouds -6 1012 67 10000 5 250 17:54 02.03.2020
2023 Clouds -6 1011 67 10000 5 250 17:36 02.03.2020
2024 Clouds -6 1011 67 10000 5 250 17:18 02.03.2020
2025 Clouds -6 1011 67 10000 4 240 16:39 02.03.2020
2026 Clouds -6 1011 67 10000 4 240 16:20 02.03.2020
2027 Clouds -8 1011 78 10000 2 250 15:44 02.03.2020
2028 Clouds -5 1011 62 10000 3 240 15:20 02.03.2020
2029 Clouds -5 1011 67 10000 4 250 14:56 02.03.2020
2030 Clouds -4 1011 62 10000 4 240 14:37 02.03.2020
2031 Clouds -4 1011 62 10000 4 240 14:37 02.03.2020
2032 Clear -4 1011 62 10000 4 240 14:18 02.03.2020
2033 Clear -3 1011 58 10000 5 240 13:40 02.03.2020
2034 Clear -3 1011 58 10000 5 240 13:19 02.03.2020
2035 Clear -2 1011 54 10000 7 250 12:55 02.03.2020
2036 Clear -2 1011 58 10000 6 250 12:37 02.03.2020
2037 Clear -2 1011 58 10000 6 250 12:18 02.03.2020
2038 Clear -2 1010 58 10000 7 240 11:38 02.03.2020
2039 Clear -2 1010 58 10000 7 240 11:19 02.03.2020
2040 Clear -2 1010 58 10000 7 240 10:55 02.03.2020
2041 Clear -2 1010 58 10000 7 240 10:36 02.03.2020
2042 Clear -2 1010 58 10000 7 240 10:18 02.03.2020
2043 Clear -2 1010 63 10000 6 240 09:45 02.03.2020
2044 Clear -3 1010 68 10000 5 240 09:26 02.03.2020
2045 Clear -3 1010 68 10000 6 240 08:47 02.03.2020
2046 Clear -3 1010 68 10000 5 240 08:22 02.03.2020
2047 Clouds -3 1010 73 10000 5 240 07:44 02.03.2020
2048 Clouds -3 1010 73 10000 5 240 07:20 02.03.2020
2049 Clouds -3 1009 73 10000 6 240 06:49 02.03.2020
2050 Clouds -3 1009 86 10000 5 250 05:58 02.03.2020
2051 Clouds -3 1009 92 10000 4 230 04:56 02.03.2020
2052 Clouds -3 1008 100 10000 4 220 03:25 02.03.2020
2053 Clouds -3 1008 100 10000 4 220 02:49 02.03.2020
2054 Snow -3 1008 100 10000 3 210 01:55 02.03.2020
2055 Clouds -2 1008 92 10000 3 210 01:33 02.03.2020
2056 Clouds -2 1008 92 10000 3 200 00:24 02.03.2020
2057 Clouds -2 1008 92 10000 4 200 23:59 01.03.2020
2058 Clouds -2 1008 92 10000 4 200 23:41 01.03.2020
2059 Clouds -2 1008 92 10000 4 200 23:21 01.03.2020
2060 Clouds -2 1008 92 10000 3 200 22:43 01.03.2020
2061 Clouds -2 1009 92 10000 3 200 22:21 01.03.2020
2062 Clouds -2 1009 92 10000 3 200 21:57 01.03.2020
2063 Clouds -2 1009 92 10000 3 210 21:39 01.03.2020
2064 Clouds -2 1009 92 10000 3 210 21:20 01.03.2020
2065 Clouds -2 1009 92 10000 4 220 20:44 01.03.2020
2066 Clouds -2 1009 92 10000 5 230 20:25 01.03.2020
2067 Clouds -2 1009 86 10000 3 220 19:59 01.03.2020
2068 Clouds -2 1009 86 10000 3 220 19:59 01.03.2020
2069 Snow -2 1009 86 10000 3 230 19:40 01.03.2020
2070 Snow -2 1009 86 10000 3 230 19:21 01.03.2020
2071 Snow -2 1009 86 10000 3 220 18:41 01.03.2020
2072 Snow -2 1009 86 10000 3 230 18:21 01.03.2020
2073 Snow -2 1009 86 10000 3 230 18:21 01.03.2020
2074 Snow -1 1009 80 10000 4 220 17:58 01.03.2020
2075 Snow -1 1010 80 10000 4 210 17:40 01.03.2020
2076 Snow -1 1010 80 10000 4 210 17:22 01.03.2020
2077 Snow -1 1010 80 10000 4 210 16:59 01.03.2020
2078 Snow -1 1010 80 10000 5 210 16:39 01.03.2020
2079 Snow -1 1010 80 10000 5 210 16:39 01.03.2020
2080 Snow -1 1010 80 10000 5 210 16:19 01.03.2020
2081 Snow -1 1010 80 10000 3 210 15:58 01.03.2020
2082 Snow -1 1010 80 10000 4 200 15:40 01.03.2020
2083 Snow -1 1010 80 10000 4 200 15:21 01.03.2020
2084 Snow 0 1011 96 10000 4 190 14:57 01.03.2020
2085 Snow 0 1011 96 10000 4 190 14:39 01.03.2020
2086 Snow 0 1011 96 10000 4 190 14:21 01.03.2020
2087 Clouds 0 1011 96 10000 4 190 13:57 01.03.2020
2088 Clouds 0 1011 96 10000 5 190 13:38 01.03.2020
2089 Clouds 0 1011 94 10000 5 190 13:19 01.03.2020
2090 Clouds 0 1011 96 10000 3 200 12:44 01.03.2020
2091 Clouds 0 1011 96 10000 4 200 12:23 01.03.2020
2092 Clouds 0 1011 96 10000 4 200 11:58 01.03.2020
2093 Snow 0 1011 96 10000 5 200 11:39 01.03.2020
2094 Snow 0 1011 95 10000 5 200 11:19 01.03.2020
2095 Clouds 0 1011 94 10000 5 200 10:56 01.03.2020
2096 Clouds 0 1011 95 10000 7 210 10:36 01.03.2020
2097 Clouds 0 1011 94 10000 7 210 10:18 01.03.2020
2098 Clouds 0 1011 95 10000 6 200 09:42 01.03.2020
2099 Clouds 0 1011 95 10000 6 200 09:42 01.03.2020
2100 Clouds 0 1011 95 10000 6 200 09:23 01.03.2020
2101 Clouds 0 1011 95 10000 5 200 08:46 01.03.2020
2102 Clouds 0 1011 95 10000 6 200 08:27 01.03.2020
2103 Clouds 0 1011 90 10000 6 200 07:56 01.03.2020
2104 Clouds 0 1011 90 10000 5 190 07:38 01.03.2020
2105 Clouds 0 1011 90 10000 5 190 07:19 01.03.2020
2106 Clouds 0 1010 90 10000 6 210 06:41 01.03.2020
2107 Clouds -1 1010 80 10000 6 200 05:35 01.03.2020
2108 Snow -1 1010 80 10000 6 180 02:59 01.03.2020
2109 Clouds 0 1011 87 10000 5 180 02:18 01.03.2020
2110 Clouds 0 1010 87 10000 6 180 01:45 01.03.2020
2111 Clouds 0 1011 88 10000 5 190 00:51 01.03.2020
2112 Clouds 0 1011 88 10000 5 190 00:25 01.03.2020
2113 Clouds 0 1011 88 10000 5 180 23:58 29.02.2020
2114 Clouds 1 1011 80 10000 5 180 23:40 29.02.2020
2115 Clouds 1 1011 80 10000 5 180 23:22 29.02.2020
2116 Clouds 0 1012 87 10000 6 170 22:38 29.02.2020
2117 Clouds 0 1012 87 10000 6 170 22:20 29.02.2020
2118 Clouds 0 1013 87 10000 6 150 21:39 29.02.2020
2119 Clouds 0 1013 87 10000 6 150 21:20 29.02.2020
2120 Clouds 0 1013 87 10000 7 150 20:42 29.02.2020
2121 Clouds -1 1014 100 10000 6 150 20:21 29.02.2020
2122 Clouds -1 1014 100 10000 7 150 19:56 29.02.2020
2123 Clouds -1 1015 100 10000 7 150 19:37 29.02.2020
2124 Clouds -1 1015 100 10000 7 150 19:18 29.02.2020
2125 Clouds -1 1016 100 10000 6 160 18:42 29.02.2020
2126 Clouds -1 1016 92 10000 7 150 18:23 29.02.2020
2127 Clouds -2 1017 100 10000 6 150 17:56 29.02.2020
2128 Snow -2 1017 100 8000 7 160 17:37 29.02.2020
2129 Snow -2 1017 100 8000 7 160 17:19 29.02.2020
2130 Snow -2 1018 100 1100 5 160 16:44 29.02.2020
2131 Snow -2 1018 92 1500 6 150 16:20 29.02.2020
2132 Snow -3 1019 86 2800 6 140 15:57 29.02.2020
2133 Snow -4 1019 85 8000 5 130 15:37 29.02.2020
2134 Snow -4 1019 85 8000 5 130 15:19 29.02.2020
2135 Snow -5 1020 79 10000 6 130 14:40 29.02.2020
2136 Snow -5 1020 79 10000 6 130 14:22 29.02.2020
2137 Clouds -5 1021 73 10000 6 130 13:46 29.02.2020
2138 Clouds -6 1021 79 10000 5 130 13:27 29.02.2020
2139 Clouds -6 1021 73 10000 5 130 12:57 29.02.2020
2140 Clouds -6 1022 73 10000 5 130 12:38 29.02.2020
2141 Clouds -6 1022 73 10000 5 130 12:20 29.02.2020
2142 Clouds -5 1022 67 10000 5 130 11:45 29.02.2020
2143 Clouds -6 1022 73 10000 5 130 11:26 29.02.2020
2144 Clouds -6 1023 73 10000 4 120 10:51 29.02.2020
2145 Clouds -6 1023 73 10000 4 120 10:31 29.02.2020
2146 Clouds -6 1023 73 10000 3 120 09:56 29.02.2020
2147 Clouds -7 1023 92 10000 3 130 09:38 29.02.2020
2148 Clouds -7 1023 92 10000 3 130 09:18 29.02.2020
2149 Clouds -8 1024 100 10000 2 140 08:40 29.02.2020
2150 Clouds -8 1024 100 10000 2 140 08:21 29.02.2020
2151 Clouds -10 1024 100 10000 3 110 07:52 29.02.2020
2152 Clouds -11 1024 92 10000 1 0 07:25 29.02.2020
2153 Fog -12 1024 92 250 2 130 06:55 29.02.2020
2154 Fog -12 1024 85 550 1 150 06:29 29.02.2020
2155 Clouds -15 1024 92 10000 2.92 139 05:52 29.02.2020
2156 Fog -17 1023 91 400 1 70 05:32 29.02.2020
2157 Clear -20 1023 83 10000 0.65 77 03:59 29.02.2020
2158 Clear -19 1022 84 10000 1 50 03:24 29.02.2020
2159 Clear -19 1022 84 10000 0.65 77 02:57 29.02.2020
2160 Clouds -17 1022 84 10000 1.38 283 01:58 29.02.2020
2161 Clouds -17 1021 91 10000 1 290 00:51 29.02.2020
2162 Clouds -18 1021 91 10000 1.03 266 00:27 29.02.2020
2163 Clouds -17 1020 91 10000 1 250 23:41 28.02.2020
2164 Clouds -17 1020 91 10000 1 250 23:23 28.02.2020
2165 Clear -14 1020 92 10000 3 280 22:43 28.02.2020
2166 Clear -14 1019 100 10000 2 280 22:22 28.02.2020
2167 Clear -16 1019 100 10000 2.05 280 21:42 28.02.2020
2168 Clear -15 1019 100 10000 1 0 21:22 28.02.2020
2169 Clear -13 1018 100 10000 2 300 20:58 28.02.2020
2170 Clear -12 1018 100 10000 2 280 20:39 28.02.2020
2171 Clouds -12 1018 100 10000 2 280 20:20 28.02.2020
2172 Clear -12 1018 92 10000 4 280 19:57 28.02.2020
2173 Clear -12 1018 92 10000 4 280 19:57 28.02.2020
2174 Clear -12 1018 92 10000 4 280 19:57 28.02.2020
2175 Clear -11 1017 92 10000 4 280 19:38 28.02.2020
2176 Clear -11 1017 92 10000 4 280 19:20 28.02.2020
2177 Clear -11 1017 100 10000 3 300 18:47 28.02.2020
2178 Clear -12 1017 100 10000 2 270 18:27 28.02.2020
2179 Clear -12 1017 92 10000 2 250 17:57 28.02.2020
2180 Clear -10 1016 92 10000 3 250 17:38 28.02.2020
2181 Clouds -10 1016 92 10000 3 250 17:20 28.02.2020
2182 Clouds -10 1016 85 10000 2 270 16:41 28.02.2020
2183 Clouds -10 1016 85 10000 2 270 16:20 28.02.2020
2184 Clouds -10 1016 85 10000 2 240 15:57 28.02.2020
2185 Clouds -8 1015 78 10000 3 250 15:38 28.02.2020
2186 Clouds -8 1015 78 10000 3 250 15:18 28.02.2020
2187 Clouds -7 1015 79 10000 3 240 14:46 28.02.2020
2188 Clouds -9 1015 78 10000 4 270 14:20 28.02.2020
2189 Clouds -7 1015 79 10000 4 250 13:59 28.02.2020
2190 Clouds -5 1015 67 10000 6 260 13:40 28.02.2020
2191 Clouds -5 1015 67 10000 6 260 13:20 28.02.2020
2192 Clouds -5 1014 73 10000 5 240 12:46 28.02.2020
2193 Clouds -5 1014 73 10000 6 250 12:28 28.02.2020
2194 Clouds -5 1014 73 10000 6 270 11:59 28.02.2020
2195 Clouds -5 1013 73 10000 6 270 11:40 28.02.2020
2196 Clouds -5 1013 73 10000 6 270 11:21 28.02.2020
2197 Clouds -4 1013 68 10000 5 240 10:43 28.02.2020
2198 Clouds -4 1013 73 10000 6 240 10:24 28.02.2020
2199 Clouds -4 1012 73 10000 6 260 09:55 28.02.2020
2200 Clouds -4 1012 79 10000 6 250 09:36 28.02.2020
2201 Clouds -4 1012 79 10000 6 250 09:18 28.02.2020
2202 Snow -4 1011 79 10000 5 250 08:42 28.02.2020
2203 Clouds -4 1011 79 10000 6 270 08:20 28.02.2020
2204 Clouds -4 1011 85 10000 5 280 07:45 28.02.2020
2205 Snow -4 1010 85 10000 5 280 07:25 28.02.2020
2206 Snow -5 1010 92 10000 6 280 06:50 28.02.2020
2207 Snow -5 1010 92 9000 5 280 06:29 28.02.2020
2208 Snow -5 1009 85 8000 7 290 05:22 28.02.2020
2209 Snow -6 1008 100 9000 6 280 04:31 28.02.2020
2210 Snow -6 1007 100 7000 4 280 02:48 28.02.2020
2211 Snow -7 1006 100 8000 5 280 02:28 28.02.2020
2212 Clouds -7 1005 100 10000 5 280 01:38 28.02.2020
2213 Snow -7 1004 100 10000 6 280 00:31 28.02.2020
2214 Snow -7 1004 100 7000 5 280 23:45 27.02.2020
2215 Snow -7 1003 100 6000 5 280 23:22 27.02.2020
2216 Clouds -7 1003 100 10000 5 280 22:56 27.02.2020
2217 Clouds -6 1002 100 10000 5 280 22:37 27.02.2020
2218 Clouds -6 1002 100 10000 5 280 22:19 27.02.2020
2219 Clouds -6 1002 100 10000 5 280 21:41 27.02.2020
2220 Clouds -6 1002 100 10000 5 280 21:22 27.02.2020
2221 Clouds -6 1001 100 10000 6 280 20:58 27.02.2020
2222 Snow -5 1001 100 7000 5 280 20:40 27.02.2020
2223 Snow -5 1001 100 7000 5 280 20:21 27.02.2020
2224 Snow -5 1001 100 7000 5 280 20:21 27.02.2020
2225 Snow -5 1000 100 6000 5 280 19:56 27.02.2020
2226 Snow -5 1000 100 2700 5 270 19:38 27.02.2020
2227 Snow -5 1000 100 2700 5 270 19:19 27.02.2020
2228 Snow -5 999 100 7000 4 260 18:42 27.02.2020
2229 Snow -5 999 100 10000 4 250 18:24 27.02.2020
2230 Snow -5 999 100 8000 3 240 17:58 27.02.2020
2231 Snow -5 999 100 6000 3 230 17:40 27.02.2020
2232 Snow -5 999 100 6000 3 230 17:19 27.02.2020
2233 Snow -5 998 100 4500 2 200 16:58 27.02.2020
2234 Snow -4 998 100 7000 3 200 16:39 27.02.2020
2235 Snow -4 998 100 7000 3 200 16:19 27.02.2020
2236 Snow -4 998 100 10000 2 190 15:57 27.02.2020
2237 Snow -4 998 100 8000 3 160 15:37 27.02.2020
2238 Snow -4 998 100 8000 3 160 15:18 27.02.2020
2239 Snow -4 998 100 7000 3 170 14:55 27.02.2020
2240 Snow -4 998 100 9000 4 160 14:36 27.02.2020
2241 Snow -4 998 100 9000 4 160 14:18 27.02.2020
2242 Snow -4 997 85 6000 4 170 13:41 27.02.2020
2243 Snow -4 997 85 6000 4 170 13:21 27.02.2020
2244 Snow -4 997 85 7000 4 170 12:47 27.02.2020
2245 Snow -4 997 85 4400 4 170 12:25 27.02.2020
2246 Snow -4 997 85 3800 5 170 11:59 27.02.2020
2247 Snow -4 996 79 4000 3 160 11:39 27.02.2020
2248 Snow -4 996 79 4000 3 160 11:21 27.02.2020
2249 Snow -4 996 79 4000 3 160 11:21 27.02.2020
2250 Clouds -4 996 79 10000 4 150 10:43 27.02.2020
2251 Snow -4 996 79 7000 6 150 10:22 27.02.2020
2252 Snow -5 996 85 7000 6 160 09:48 27.02.2020
2253 Snow -5 996 85 8000 6 150 09:29 27.02.2020
2254 Snow -5 996 85 8000 6 150 08:57 27.02.2020
2255 Snow -5 996 85 5000 5 140 08:39 27.02.2020
2256 Snow -5 996 85 5000 5 140 08:19 27.02.2020
2257 Snow -6 997 92 8000 5 130 07:43 27.02.2020
2258 Snow -6 997 85 3500 6 130 07:25 27.02.2020
2259 Snow -7 997 85 4200 6 130 06:42 27.02.2020
2260 Snow -8 998 92 1900 6 120 05:27 27.02.2020
2261 Clouds -8 999 78 10000 8 110 03:33 27.02.2020
2262 Clouds -8 1000 78 10000 7 130 02:20 27.02.2020
2263 Clouds -7 1001 79 10000 8 130 00:44 27.02.2020
2264 Clouds -7 1002 79 10000 8 130 00:24 27.02.2020
2265 Clouds -7 1003 79 10000 6 130 23:39 26.02.2020
2266 Clouds -7 1003 79 10000 6 130 23:18 26.02.2020
2267 Clouds -7 1004 79 10000 6 130 22:56 26.02.2020
2268 Clouds -7 1004 79 10000 6 130 22:38 26.02.2020
2269 Clouds -7 1004 79 10000 6 130 22:19 26.02.2020
2270 Clouds -5 1005 67 10000 7 130 21:40 26.02.2020
2271 Clouds -5 1005 67 10000 7 130 21:21 26.02.2020
2272 Clouds -5 1006 67 10000 7 140 20:57 26.02.2020
2273 Clouds -5 1006 73 10000 6 140 20:39 26.02.2020
2274 Clouds -5 1006 73 10000 6 140 20:19 26.02.2020
2275 Clouds -5 1007 73 10000 8 140 19:57 26.02.2020
2276 Clouds -5 1007 73 10000 7 140 19:38 26.02.2020
2277 Clouds -5 1007 73 10000 7 140 19:19 26.02.2020
2278 Clouds -5 1007 73 10000 7 140 19:19 26.02.2020
2279 Clouds -4 1008 68 10000 6 150 18:57 26.02.2020
2280 Clouds -4 1008 68 10000 7 150 18:39 26.02.2020
2281 Clouds -4 1008 68 10000 7 150 18:20 26.02.2020
2282 Clouds -4 1009 68 10000 7 150 17:41 26.02.2020
2283 Clouds -4 1009 68 10000 7 150 17:21 26.02.2020
2284 Clouds -4 1009 68 10000 7 150 16:57 26.02.2020
2285 Clouds -4 1009 68 10000 7 150 16:39 26.02.2020
2286 Clouds -4 1009 68 10000 7 150 16:20 26.02.2020
2287 Clouds -4 1010 68 10000 8 150 15:46 26.02.2020
2288 Clouds -4 1011 68 10000 8 150 15:28 26.02.2020
2289 Clouds -4 1011 68 10000 7 150 14:57 26.02.2020
2290 Clouds -4 1011 68 10000 7 140 14:39 26.02.2020
2291 Clouds -4 1011 68 10000 7 140 14:21 26.02.2020
2292 Clouds -4 1012 68 10000 6 140 13:42 26.02.2020
2293 Clouds -4 1012 68 10000 6 140 13:42 26.02.2020
2294 Clouds -4 1012 68 10000 7 150 13:20 26.02.2020
2295 Clouds -4 1013 68 10000 6 140 12:39 26.02.2020
2296 Clouds -4 1013 68 10000 6 140 12:20 26.02.2020
2297 Clouds -4 1014 68 10000 6 140 11:57 26.02.2020
2298 Clouds -4 1014 68 10000 6 140 11:39 26.02.2020
2299 Clouds -4 1014 68 10000 6 140 11:21 26.02.2020
2300 Clouds -5 1015 73 10000 6 140 10:42 26.02.2020
2301 Clouds -5 1015 67 10000 6 150 10:23 26.02.2020
2302 Clouds -6 1015 73 10000 6 150 09:57 26.02.2020
2303 Clouds -6 1016 73 10000 6 150 09:39 26.02.2020
2304 Clouds -6 1016 73 10000 6 150 09:19 26.02.2020
2305 Clouds -7 1017 73 10000 6 160 08:39 26.02.2020
2306 Clouds -7 1017 73 10000 6 160 08:39 26.02.2020
2307 Clouds -7 1017 73 10000 6 160 08:19 26.02.2020
2308 Clouds -7 1017 79 10000 6 170 07:50 26.02.2020
2309 Clouds -7 1017 79 10000 5 160 07:29 26.02.2020
2310 Clouds -7 1017 79 10000 5 170 06:57 26.02.2020
2311 Clouds -7 1018 79 10000 5 160 06:39 26.02.2020
2312 Clouds -7 1018 79 10000 5 160 06:18 26.02.2020
2313 Clouds -6 1018 79 10000 6 170 05:47 26.02.2020
2314 Clouds -6 1018 85 10000 4 180 04:49 26.02.2020
2315 Clouds -6 1018 85 10000 3 160 02:54 26.02.2020
2316 Clouds -6 1019 85 10000 3 170 01:50 26.02.2020
2317 Clouds -6 1018 85 10000 3 170 01:21 26.02.2020
2318 Clouds -6 1019 85 10000 3 170 00:28 26.02.2020
2319 Clouds -6 1019 85 10000 3 180 23:59 25.02.2020
2320 Clouds -7 1019 92 10000 3 190 23:38 25.02.2020
2321 Clouds -7 1019 92 10000 3 190 23:20 25.02.2020
2322 Clouds -7 1019 92 10000 3 180 22:43 25.02.2020
2323 Clouds -8 1019 92 10000 3 200 22:20 25.02.2020
2324 Clouds -8 1019 92 10000 4 190 21:58 25.02.2020
2325 Clouds -7 1019 85 10000 4 190 21:37 25.02.2020
2326 Clouds -7 1019 85 10000 4 190 21:18 25.02.2020
2327 Clouds -6 1018 85 10000 5 190 20:55 25.02.2020
2328 Clouds -7 1018 92 10000 5 190 20:36 25.02.2020
2329 Clouds -7 1018 92 10000 5 190 20:18 25.02.2020
2330 Clouds -6 1018 85 10000 4 190 19:42 25.02.2020
2331 Clouds -6 1018 85 10000 4 190 19:22 25.02.2020
2332 Clouds -6 1018 85 10000 4 190 18:58 25.02.2020
2333 Clouds -6 1018 85 10000 4 190 18:39 25.02.2020
2334 Clouds -6 1018 85 10000 4 190 18:20 25.02.2020
2335 Clouds -6 1017 85 10000 4 190 17:55 25.02.2020
2336 Clouds -7 1017 85 10000 4 190 17:36 25.02.2020
2337 Clouds -7 1017 85 10000 4 190 17:18 25.02.2020
2338 Clouds -7 1017 85 10000 4 190 16:42 25.02.2020
2339 Snow -7 1017 85 10000 4 190 16:22 25.02.2020
2340 Snow -7 1017 85 10000 4 190 16:22 25.02.2020
2341 Snow -7 1017 85 10000 5 190 15:59 25.02.2020
2342 Snow -7 1017 85 10000 5 190 15:59 25.02.2020
2343 Clouds -7 1017 85 10000 5 190 15:41 25.02.2020
2344 Clouds -7 1017 85 10000 5 190 15:20 25.02.2020
2345 Clouds -7 1017 85 10000 6 190 14:58 25.02.2020
2346 Snow -7 1017 85 10000 6 190 14:38 25.02.2020
2347 Snow -7 1017 85 10000 6 190 14:18 25.02.2020
2348 Snow -7 1017 85 10000 5 180 13:57 25.02.2020
2349 Snow -7 1016 85 8000 7 190 13:38 25.02.2020
2350 Snow -7 1016 85 8000 7 190 13:20 25.02.2020
2351 Snow -7 1017 85 4700 6 190 12:42 25.02.2020
2352 Snow -7 1016 85 8000 6 190 12:23 25.02.2020
2353 Snow -7 1016 85 7000 6 180 11:59 25.02.2020
2354 Snow -7 1016 85 6000 7 180 11:41 25.02.2020
2355 Snow -7 1016 85 6000 7 180 11:19 25.02.2020
2356 Snow -7 1016 85 2600 7 170 10:59 25.02.2020
2357 Snow -7 1016 85 2600 6 180 10:40 25.02.2020
2358 Snow -7 1016 85 2600 6 180 10:22 25.02.2020
2359 Snow -7 1016 85 2300 7 180 09:42 25.02.2020
2360 Snow -7 1016 85 2300 7 180 09:42 25.02.2020
2361 Snow -7 1016 85 2300 7 180 09:22 25.02.2020
2362 Snow -7 1016 85 1500 6 180 08:55 25.02.2020
2363 Snow -7 1016 85 2300 6 190 08:37 25.02.2020
2364 Snow -7 1016 85 2300 6 190 08:19 25.02.2020
2365 Clouds -7 1015 73 10000 6 180 07:40 25.02.2020
2366 Clouds -7 1015 73 10000 6 180 07:20 25.02.2020
2367 Clouds -9 1016 85 10000 6 180 06:37 25.02.2020
2368 -273 0 0 0 0 0 05:37 25.02.2020
2369 Clouds -10 1016 85 10000 7 160 03:35 25.02.2020
2370 Clouds -9 1017 85 10000 7 180 01:36 25.02.2020
2371 Clouds -8 1017 85 10000 6 180 00:48 25.02.2020
2372 Clouds -8 1017 78 10000 6 190 00:29 25.02.2020
2373 Clouds -8 1017 78 10000 6 190 23:43 24.02.2020
2374 Clouds -8 1017 85 10000 5 180 23:20 24.02.2020
2375 Clear -8 1017 85 10000 7 170 22:42 24.02.2020
2376 Clear -8 1017 85 10000 6 160 22:20 24.02.2020
2377 Clear -7 1017 79 10000 7 180 21:57 24.02.2020
2378 Clear -6 1017 79 10000 7 180 21:39 24.02.2020
2379 Clear -6 1017 79 10000 7 180 21:20 24.02.2020
2380 Clear -6 1018 73 10000 7 180 20:58 24.02.2020
2381 Clear -6 1018 73 10000 7 180 20:40 24.02.2020
2382 Clear -6 1018 73 10000 7 180 20:40 24.02.2020
2383 Clouds -6 1018 73 10000 7 180 20:19 24.02.2020
2384 Clouds -6 1018 73 10000 8 180 19:56 24.02.2020
2385 Clouds -6 1018 73 10000 8 180 19:38 24.02.2020
2386 Clouds -6 1018 73 10000 8 180 19:20 24.02.2020
2387 Clouds -6 1018 73 10000 7 180 18:43 24.02.2020
2388 Clouds -6 1018 73 10000 6 180 18:24 24.02.2020
2389 Clouds -5 1018 67 10000 7 180 17:58 24.02.2020
2390 Clouds -5 1019 67 10000 7 180 17:40 24.02.2020
2391 Clouds -5 1019 67 10000 7 180 17:20 24.02.2020
2392 Clouds -4 1019 68 10000 7 180 16:58 24.02.2020
2393 Clouds -4 1019 73 10000 7 180 16:39 24.02.2020
2394 Clouds -4 1019 73 10000 7 180 16:20 24.02.2020
2395 Clouds -4 1019 73 10000 7 180 16:20 24.02.2020
2396 Clouds -3 1019 68 10000 7 180 15:57 24.02.2020
2397 Clouds -3 1019 73 10000 6 180 15:39 24.02.2020
2398 Clouds -3 1019 73 10000 6 180 15:20 24.02.2020
2399 Clouds -3 1019 79 10000 6 180 14:55 24.02.2020
2400 Clouds -3 1019 79 10000 7 180 14:36 24.02.2020
2401 Clouds -3 1019 79 10000 7 180 14:18 24.02.2020
2402 Clouds -2 1019 68 10000 7 180 13:41 24.02.2020
2403 Clouds -2 1019 68 10000 7 180 13:41 24.02.2020
2404 Clouds -2 1019 68 10000 7 180 13:23 24.02.2020
2405 Clouds -2 1019 68 10000 6 180 12:59 24.02.2020
2406 Clouds -2 1019 68 10000 5 180 12:41 24.02.2020
2407 Clouds -2 1019 68 10000 5 180 12:23 24.02.2020
2408 Clouds -1 1019 63 10000 5 180 11:50 24.02.2020
2409 Clouds -1 1020 58 10000 6 180 11:32 24.02.2020
2410 Clouds -1 1020 58 10000 5 180 10:54 24.02.2020
2411 Clouds -2 1020 63 10000 5 190 10:36 24.02.2020
2412 Clouds -2 1020 63 10000 5 190 10:18 24.02.2020
2413 Clouds -3 1020 68 10000 4 190 09:40 24.02.2020
2414 Clouds -3 1020 68 10000 4 190 09:19 24.02.2020
2415 Clouds -3 1020 68 10000 4 190 09:19 24.02.2020
2416 Clouds -4 1020 73 10000 5 190 08:51 24.02.2020
2417 Clouds -4 1020 73 10000 5 180 08:29 24.02.2020
2418 Clouds -4 1020 73 10000 5 180 08:29 24.02.2020
2419 Clouds -5 1020 73 10000 5 190 07:55 24.02.2020
2420 Clouds -6 1020 79 10000 5 190 07:33 24.02.2020
2421 Clouds -7 1020 85 10000 5 180 06:50 24.02.2020
2422 Clouds -7 1020 79 10000 4 180 06:23 24.02.2020
2423 Clouds -8 1020 85 10000 4 190 05:44 24.02.2020
2424 Clouds -9 1020 92 10000 4 190 05:24 24.02.2020
2425 Clouds -9 1020 85 10000 5 190 02:57 24.02.2020
2426 Snow -9 1020 85 10000 4 190 01:55 24.02.2020
2427 Snow -8 1020 78 10000 4 190 01:29 24.02.2020
2428 Snow -8 1020 85 10000 4 190 00:44 24.02.2020
2429 Snow -8 1020 85 10000 4 190 00:20 24.02.2020
2430 Snow -7 1020 79 10000 4 190 23:42 23.02.2020
2431 Snow -7 1020 79 10000 4 200 23:23 23.02.2020
2432 Clouds -7 1020 79 10000 4 200 22:58 23.02.2020
2433 Clouds -6 1020 79 10000 4 200 22:40 23.02.2020
2434 Clouds -6 1020 79 10000 4 200 22:21 23.02.2020
2435 Clouds -6 1020 79 10000 4 200 21:46 23.02.2020
2436 Clouds -6 1020 79 10000 4 200 21:21 23.02.2020
2437 Clouds -6 1020 79 10000 5 210 20:59 23.02.2020
2438 Clouds -5 1020 73 10000 6 210 20:40 23.02.2020
2439 Clouds -5 1020 73 10000 6 210 20:22 23.02.2020
2440 Clouds -5 1020 73 10000 5 200 19:59 23.02.2020
2441 Clouds -5 1020 73 10000 5 210 19:41 23.02.2020
2442 Clouds -5 1020 73 10000 5 210 19:19 23.02.2020
2443 Clouds -6 1021 79 10000 4 200 18:59 23.02.2020
2444 Clouds -5 1020 73 10000 4 200 18:38 23.02.2020
2445 Clouds -5 1020 73 10000 4 200 18:19 23.02.2020
2446 Clouds -5 1020 79 10000 4 200 17:58 23.02.2020
2447 Clouds -5 1021 79 10000 4 200 17:39 23.02.2020
2448 Clouds -5 1021 79 10000 4 200 17:21 23.02.2020
2449 Clouds -5 1021 79 10000 5 200 16:56 23.02.2020
2450 Clouds -5 1021 79 10000 4 200 16:36 23.02.2020
2451 Clouds -5 1021 79 10000 4 200 16:18 23.02.2020
2452 Clouds -5 1021 85 10000 3 180 15:40 23.02.2020
2453 Clouds -5 1021 85 10000 3 180 15:21 23.02.2020
2454 Clouds -4 1021 79 10000 4 190 14:59 23.02.2020
2455 Clouds -4 1021 79 10000 4 190 14:59 23.02.2020
2456 Clouds -4 1021 79 10000 4 190 14:40 23.02.2020
2457 Clouds -4 1021 79 10000 4 190 14:22 23.02.2020
2458 Clouds -4 1021 79 10000 4 190 14:22 23.02.2020
2459 Clouds -3 1021 73 10000 5 200 13:57 23.02.2020
2460 Clouds -3 1021 73 10000 5 200 13:39 23.02.2020
2461 Clouds -3 1021 73 10000 5 200 13:21 23.02.2020
2462 Clouds -3 1021 73 10000 5 200 12:43 23.02.2020
2463 Clouds -3 1021 73 10000 5 200 12:23 23.02.2020
2464 Clouds -3 1021 73 10000 5 200 11:58 23.02.2020
2465 Clouds -3 1022 73 10000 5 200 11:37 23.02.2020
2466 Clouds -3 1022 73 10000 5 200 11:19 23.02.2020
2467 Clouds -3 1022 73 10000 5 200 10:55 23.02.2020
2468 Clouds -4 1022 73 10000 5 210 10:37 23.02.2020
2469 Clouds -4 1022 73 10000 5 210 10:19 23.02.2020
2470 Clouds -5 1022 73 10000 6 220 09:40 23.02.2020
2471 Clouds -5 1022 73 10000 6 220 09:21 23.02.2020
2472 Clouds -6 1022 79 10000 6 210 08:56 23.02.2020
2473 Clouds -7 1023 79 10000 6 220 08:38 23.02.2020
2474 Clouds -7 1023 79 10000 6 220 08:18 23.02.2020
2475 Clouds -8 1022 78 10000 6 210 07:40 23.02.2020
2476 Clouds -9 1023 78 10000 6 210 06:52 23.02.2020
2477 Clouds -10 1023 78 10000 5 210 05:50 23.02.2020
2478 Clouds -11 1023 78 10000 5 210 04:42 23.02.2020
2479 Clouds -12 1023 78 10000 5 210 03:21 23.02.2020
2480 Clouds -12 1023 78 10000 4 210 02:27 23.02.2020
2481 Clouds -13 1023 84 10000 4 210 01:25 23.02.2020
2482 Clouds -13 1023 84 10000 4 210 00:48 23.02.2020
2483 Clouds -13 1024 84 10000 3 230 00:26 23.02.2020
2484 Clouds -12 1024 85 10000 5 210 23:47 22.02.2020
2485 Clouds -12 1024 85 10000 5 230 23:29 22.02.2020
2486 Clouds -13 1024 92 10000 4 210 22:59 22.02.2020
2487 Clouds -13 1024 92 10000 4 220 22:39 22.02.2020
2488 Clouds -13 1024 92 10000 4 220 22:18 22.02.2020
2489 Clouds -12 1024 85 10000 4 230 21:41 22.02.2020
2490 Clouds -12 1024 85 10000 4 230 21:23 22.02.2020
2491 Clouds -12 1024 85 10000 4 220 20:46 22.02.2020
2492 Clouds -12 1024 85 10000 4 220 20:46 22.02.2020
2493 Clouds -13 1024 84 10000 3 220 20:25 22.02.2020
2494 Clouds -13 1024 84 10000 3 220 20:25 22.02.2020
2495 Clouds -13 1025 84 10000 3 240 19:58 22.02.2020
2496 Clouds -14 1025 92 10000 2 210 19:39 22.02.2020
2497 Clouds -14 1025 92 10000 2 210 19:20 22.02.2020
2498 Clouds -16 1025 91 10000 1 0 18:39 22.02.2020
2499 Clouds -16 1025 91 10000 1 0 18:21 22.02.2020
2500 Clouds -14 1025 84 10000 2 230 17:57 22.02.2020
2501 Clouds -14 1025 92 10000 3 240 17:39 22.02.2020
2502 Clouds -14 1025 92 10000 3 240 17:21 22.02.2020
2503 Clear -15 1025 92 8000 1 0 16:57 22.02.2020
2504 Mist -15 1025 92 5000 2 270 16:38 22.02.2020
2505 Mist -15 1025 92 5000 2 270 16:20 22.02.2020
2506 Clear -14 1025 92 9000 1 230 15:43 22.02.2020
2507 Clear -15 1025 92 10000 1 0 15:25 22.02.2020
2508 Clear -14 1025 92 10000 1 280 14:44 22.02.2020
2509 Clear -14 1025 84 10000 3.39 243 14:24 22.02.2020
2510 Clear -11 1025 78 10000 2.72 256 13:58 22.02.2020
2511 Clear -11 1025 78 10000 2 290 13:40 22.02.2020
2512 Clear -11 1025 78 10000 2 290 13:18 22.02.2020
2513 Clear -9 1025 72 10000 3 300 12:44 22.02.2020
2514 Clear -9 1025 66 10000 3 300 12:24 22.02.2020
2515 Clear -9 1025 66 10000 3 300 12:24 22.02.2020
2516 Clear -9 1025 72 10000 3 290 11:55 22.02.2020
2517 Clear -9 1025 72 10000 3 280 11:36 22.02.2020
2518 Clear -9 1025 72 10000 3 280 11:18 22.02.2020
2519 Clear -9 1024 72 10000 2 280 10:40 22.02.2020
2520 Clear -9 1024 72 10000 2 280 10:20 22.02.2020
2521 Clear -9 1024 66 10000 2 280 09:58 22.02.2020
2522 Clear -10 1024 72 10000 3 280 09:39 22.02.2020
2523 Clear -10 1024 72 10000 3 280 09:20 22.02.2020
2524 Clear -10 1023 72 10000 2 300 08:47 22.02.2020
2525 Clear -10 1024 72 10000 2 340 08:28 22.02.2020
2526 Clear -11 1023 72 10000 2 310 07:49 22.02.2020
2527 Clear -11 1023 72 10000 2 330 07:20 22.02.2020
2528 Clear -12 1023 78 10000 2 320 06:48 22.02.2020
2529 Clear -12 1023 78 10000 2 320 06:29 22.02.2020
2530 Clear -14 1021 92 10000 4 350 04:33 22.02.2020
2531 Clear -14 1021 100 10000 5 340 03:22 22.02.2020
2532 Clear -12 1020 92 10000 5 340 02:31 22.02.2020
2533 Clouds -11 1019 85 10000 4 350 01:46 22.02.2020
2534 Clouds -10 1019 85 10000 5 360 01:25 22.02.2020
2535 Clouds -9 1019 85 10000 5 360 00:45 22.02.2020
2536 Clouds -9 1018 85 10000 6 350 00:26 22.02.2020
2537 Clouds -8 1018 85 10000 6 340 23:47 21.02.2020
2538 Snow -7 1017 85 4200 5 350 23:22 21.02.2020
2539 Snow -6 1017 85 8000 5 340 22:55 21.02.2020
2540 Clouds -6 1016 85 10000 6 350 22:37 21.02.2020
2541 Clouds -6 1016 85 10000 6 350 22:18 21.02.2020
2542 Clouds -6 1016 85 10000 6 340 21:41 21.02.2020
2543 Clouds -5 1015 85 10000 6 340 21:23 21.02.2020
2544 Clouds -5 1015 85 10000 6 340 21:23 21.02.2020
2545 Clouds -4 1015 85 10000 5 330 20:48 21.02.2020
2546 Clouds -4 1014 85 10000 4 340 20:29 21.02.2020
2547 Clouds -4 1014 92 10000 7 340 19:44 21.02.2020
2548 Clouds -3 1013 92 10000 7 330 19:25 21.02.2020
2549 Clouds -2 1013 100 10000 6 340 18:58 21.02.2020
2550 Snow -1 1012 100 6000 5 320 18:39 21.02.2020
2551 Snow -1 1012 100 6000 5 320 18:21 21.02.2020
2552 Snow -1 1012 100 3500 3 290 17:41 21.02.2020
2553 Snow -1 1012 100 3500 3 290 17:21 21.02.2020
2554 Snow -1 1012 100 3800 3 290 16:57 21.02.2020
2555 Snow -1 1012 100 1000 3 280 16:39 21.02.2020
2556 Snow -1 1012 100 1000 3 280 16:20 21.02.2020
2557 Snow -1 1011 100 10000 4 280 15:46 21.02.2020
2558 Snow -1 1011 100 10000 4 280 15:19 21.02.2020
2559 Snow -1 1011 100 10000 4 280 15:19 21.02.2020
2560 Snow -1 1011 100 10000 4 280 15:19 21.02.2020
2561 Snow -1 1011 100 1400 4 280 14:59 21.02.2020
2562 Clouds 0 1011 95 10000 5 280 14:41 21.02.2020
2563 Clouds 0 1011 98 10000 5 280 14:19 21.02.2020
2564 Clouds 0 1011 98 10000 5 280 13:42 21.02.2020
2565 Clouds 0 1010 97 10000 4 250 13:24 21.02.2020
2566 Clouds 0 1010 97 10000 4 240 12:54 21.02.2020
2567 Clouds 1 1010 100 10000 5 240 12:36 21.02.2020
2568 Clouds 1 1010 100 10000 5 240 12:18 21.02.2020
2569 Clouds 1 1010 97 10000 4 240 11:40 21.02.2020
2570 Clouds 1 1010 97 10000 4 240 11:21 21.02.2020
2571 Clouds 1 1010 97 10000 4 240 10:56 21.02.2020
2572 Clouds 1 1010 97 10000 4 240 10:56 21.02.2020
2573 Clouds 1 1009 97 10000 5 250 10:38 21.02.2020
2574 Clouds 1 1009 97 10000 5 250 10:19 21.02.2020
2575 Clouds 1 1009 97 10000 5 230 09:56 21.02.2020
2576 Clouds 1 1009 97 10000 4 230 09:37 21.02.2020
2577 Clouds 1 1009 97 10000 4 230 09:18 21.02.2020
2578 Clouds 0 1009 97 10000 4 240 08:41 21.02.2020
2579 Clouds 0 1009 94 10000 4 240 08:22 21.02.2020
2580 Clouds 0 1009 97 10000 4 240 08:22 21.02.2020
2581 Clouds 0 1009 94 10000 5 250 07:59 21.02.2020
2582 Clouds 0 1009 94 10000 4 250 07:40 21.02.2020
2583 Clouds 0 1009 94 10000 4 250 07:18 21.02.2020
2584 Clouds 0 1009 94 10000 4 250 06:50 21.02.2020
2585 Clouds 0 1009 94 10000 4 250 06:30 21.02.2020
2586 Clouds 0 1009 94 10000 4 250 05:43 21.02.2020
2587 Clouds 0 1008 96 10000 4 240 04:36 21.02.2020
2588 Clouds 0 1008 96 10000 4 240 04:18 21.02.2020
2589 Clouds 0 1008 96 10000 4 240 03:31 21.02.2020
2590 Clouds 0 1008 96 10000 3 240 01:51 21.02.2020
2591 Clouds 0 1008 96 10000 3 230 01:24 21.02.2020
2592 Clouds 0 1008 96 10000 3 240 00:45 21.02.2020
2593 Clouds 0 1008 96 10000 2 240 00:23 21.02.2020
2594 Clouds 0 1008 96 10000 3 240 23:44 20.02.2020
2595 Clouds 0 1008 96 10000 3 240 23:23 20.02.2020
2596 Clouds 0 1008 97 10000 3 230 22:56 20.02.2020
2597 Clouds 0 1008 97 10000 3 220 22:37 20.02.2020
2598 Clouds 0 1008 97 10000 3 220 22:19 20.02.2020
2599 Clouds 0 1008 97 10000 3 230 21:55 20.02.2020
2600 Clouds 0 1008 97 10000 3 230 21:37 20.02.2020
2601 Clouds 0 1008 97 10000 3 230 21:19 20.02.2020
2602 Clouds 1 1008 100 10000 3 240 20:54 20.02.2020
2603 Clouds 0 1008 97 10000 3 250 20:36 20.02.2020
2604 Clouds 0 1008 97 10000 3 250 20:18 20.02.2020
2605 Clouds 1 1008 100 10000 3 240 19:42 20.02.2020
2606 Clouds 0 1008 97 10000 3 240 19:24 20.02.2020
2607 Clouds 1 1008 100 10000 4 240 18:59 20.02.2020
2608 Clouds 0 1008 97 10000 4 230 18:39 20.02.2020
2609 Clouds 0 1008 97 10000 4 230 18:19 20.02.2020
2610 Clouds 1 1008 100 10000 3 220 17:41 20.02.2020
2611 Clouds 1 1008 100 10000 3 220 17:23 20.02.2020
2612 Clouds 1 1008 100 10000 3 220 17:22 20.02.2020
2613 Clouds 1 1008 100 10000 3 220 17:22 20.02.2020
2614 Clouds 1 1008 100 10000 3 220 16:58 20.02.2020
2615 Clouds 1 1008 100 10000 4 220 16:40 20.02.2020
2616 Clouds 1 1008 100 10000 4 220 16:20 20.02.2020
2617 Clouds 1 1008 100 10000 3 220 15:58 20.02.2020
2618 Clouds 1 1008 100 10000 3 210 15:39 20.02.2020
2619 Clouds 1 1008 100 10000 3 210 15:20 20.02.2020
2620 Clouds 1 1008 97 10000 4 220 14:54 20.02.2020
2621 Clouds 1 1008 97 10000 3 210 14:36 20.02.2020
2622 Clouds 1 1008 96 10000 3 210 14:18 20.02.2020
2623 Clouds 1 1008 96 10000 4 220 13:43 20.02.2020
2624 Clouds 1 1008 96 10000 3 220 13:19 20.02.2020
2625 Clouds 1 1008 96 10000 3 220 12:43 20.02.2020
2626 Clouds 1 1008 96 10000 4 210 12:22 20.02.2020
2627 Clouds 1 1007 96 10000 4 210 11:59 20.02.2020
2628 Clouds 1 1007 96 10000 4 210 11:41 20.02.2020
2629 Clouds 1 1007 96 10000 4 210 11:41 20.02.2020
2630 Clouds 1 1007 96 10000 4 210 11:41 20.02.2020
2631 Clouds 1 1007 96 10000 4 210 11:22 20.02.2020
2632 Snow 1 1007 93 10000 5 220 10:57 20.02.2020
2633 Snow 1 1007 93 10000 5 220 10:38 20.02.2020
2634 Snow 1 1007 93 10000 5 220 10:20 20.02.2020
2635 Clouds 1 1007 93 10000 4 220 09:45 20.02.2020
2636 Clouds 1 1007 93 10000 5 230 09:24 20.02.2020
2637 Clouds 1 1007 93 10000 4 210 08:57 20.02.2020
2638 Clouds 1 1007 93 10000 5 230 08:38 20.02.2020
2639 Clouds 1 1007 98 10000 5 230 08:19 20.02.2020
2640 Snow 1 1007 95 10000 4 230 07:45 20.02.2020
2641 Snow 1 1007 95 10000 5 220 07:21 20.02.2020
2642 Clouds 0 1007 95 10000 4 230 06:44 20.02.2020
2643 Snow 0 1007 95 10000 5 230 06:25 20.02.2020
2644 Snow 0 1007 95 10000 5 230 05:44 20.02.2020
2645 Snow 0 1006 95 10000 5 230 04:50 20.02.2020
2646 Snow 0 1006 95 10000 4 220 03:58 20.02.2020
2647 Snow 0 1006 95 10000 4 220 03:20 20.02.2020
2648 Clouds 0 1006 95 10000 4 230 02:23 20.02.2020
2649 Snow 0 1006 97 10000 5 230 00:58 20.02.2020
2650 Clouds 0 1005 97 10000 4 230 00:31 20.02.2020
2651 Snow 0 1005 97 10000 4 240 23:49 19.02.2020
2652 Snow 0 1005 97 10000 4 240 23:49 19.02.2020
2653 Snow 0 1005 97 10000 5 240 23:22 19.02.2020
2654 Clouds 1 1005 97 10000 5 230 22:46 19.02.2020
2655 Clouds 1 1005 97 10000 5 230 22:28 19.02.2020
2656 Clouds 1 1004 100 10000 5 230 21:59 19.02.2020
2657 Clouds 1 1004 97 10000 5 230 21:41 19.02.2020
2658 Clouds 1 1004 97 10000 5 230 21:19 19.02.2020
2659 Clouds 1 1004 97 10000 5 220 20:58 19.02.2020
2660 Clouds 1 1004 97 10000 4 220 20:39 19.02.2020
2661 Clouds 1 1004 95 10000 4 220 20:20 19.02.2020
2662 Clouds 0 1004 95 10000 4 220 19:58 19.02.2020
2663 Clouds 1 1004 95 10000 5 230 19:38 19.02.2020
2664 Clouds 1 1004 95 10000 5 230 19:38 19.02.2020
2665 Clouds 1 1004 95 10000 5 230 19:20 19.02.2020
2666 Clouds 1 1004 95 10000 5 230 18:58 19.02.2020
2667 Clouds 1 1004 95 10000 5 230 18:40 19.02.2020
2668 Clouds 1 1004 95 10000 5 230 18:22 19.02.2020
2669 Clouds 1 1004 95 10000 6 230 17:57 19.02.2020
2670 Clouds 1 1003 95 10000 5 230 17:39 19.02.2020
2671 Clouds 1 1003 88 10000 5 230 17:19 19.02.2020
2672 Clouds 1 1003 88 10000 6 230 16:43 19.02.2020
2673 Clouds 1 1003 88 10000 6 230 16:43 19.02.2020
2674 Clouds 1 1003 88 10000 5 230 16:19 19.02.2020
2675 Clouds 1 1003 88 10000 5 230 15:57 19.02.2020
2676 Clouds 1 1003 88 10000 5 220 15:38 19.02.2020
2677 Clouds 1 1003 88 10000 5 220 15:19 19.02.2020
2678 Clouds 1 1002 88 10000 5 230 14:41 19.02.2020
2679 Clouds 1 1002 88 10000 5 230 14:23 19.02.2020
2680 Clouds 1 1002 89 10000 5 230 13:55 19.02.2020
2681 Clouds 1 1002 89 10000 4 230 13:36 19.02.2020
2682 Clouds 1 1002 88 10000 4 230 13:18 19.02.2020
2683 Clouds 1 1001 86 10000 5 230 12:38 19.02.2020
2684 Clouds 1 1001 86 10000 5 230 12:19 19.02.2020
2685 Snow 1 1001 86 10000 5 240 11:54 19.02.2020
2686 Clouds 1 1001 86 10000 5 230 11:36 19.02.2020
2687 Clouds 1 1001 86 10000 5 230 11:18 19.02.2020
2688 Clouds 1 1001 86 10000 7 240 10:54 19.02.2020
2689 Clouds 1 1000 86 10000 5 240 10:36 19.02.2020
2690 Clouds 1 1000 86 10000 5 240 10:18 19.02.2020
2691 Clouds 0 1000 92 10000 6 240 09:41 19.02.2020
2692 Clouds 0 1000 92 10000 6 240 09:41 19.02.2020
2693 Clouds 0 1000 92 10000 6 240 09:20 19.02.2020
2694 Clouds 0 1000 92 10000 6 240 08:48 19.02.2020
2695 Snow 0 999 92 10000 6 240 08:24 19.02.2020
2696 Snow 0 999 92 10000 6 240 08:24 19.02.2020
2697 Snow 0 999 92 10000 6 240 08:24 19.02.2020
2698 Snow 0 999 92 10000 6 240 08:24 19.02.2020
2699 Snow 0 999 92 10000 6 240 07:59 19.02.2020
2700 Clouds 0 999 92 10000 6 250 07:39 19.02.2020
2701 Clouds 0 999 92 10000 6 250 07:18 19.02.2020
2702 Clouds 0 999 92 10000 6 250 06:45 19.02.2020
2703 Clouds 0 998 92 10000 6 240 05:26 19.02.2020
2704 Snow 0 997 93 9000 5 230 03:52 19.02.2020
2705 Clouds -1 997 100 10000 5 230 02:36 19.02.2020
2706 Clouds -1 996 100 10000 5 240 01:41 19.02.2020
2707 Clouds -1 996 100 10000 5 240 01:22 19.02.2020
2708 Clouds -1 996 100 10000 5 230 00:39 19.02.2020
2709 Clouds -1 996 100 10000 5 230 00:19 19.02.2020
2710 Clouds -2 996 100 10000 4 210 23:39 18.02.2020
2711 Clouds -2 996 100 10000 4 210 23:20 18.02.2020
2712 Snow -3 996 100 8000 5 220 22:55 18.02.2020
2713 Snow -3 995 100 5000 4 210 22:36 18.02.2020
2714 Snow -3 995 100 5000 4 210 22:18 18.02.2020
2715 Snow -4 996 100 1500 5 210 21:54 18.02.2020
2716 Snow -4 995 100 2500 4 200 21:36 18.02.2020
2717 Snow -4 995 100 2500 4 200 21:36 18.02.2020
2718 Snow -4 995 100 2500 4 200 21:18 18.02.2020
2719 Snow -4 995 100 2700 5 200 20:40 18.02.2020
2720 Snow -4 995 100 2700 5 200 20:40 18.02.2020
2721 Snow -4 995 100 2700 5 200 20:22 18.02.2020
2722 Snow -5 996 100 1100 4 190 19:58 18.02.2020
2723 Snow -5 996 100 6000 5 200 19:40 18.02.2020
2724 Snow -5 996 100 6000 5 200 19:19 18.02.2020
2725 Snow -5 996 100 3500 5 190 18:42 18.02.2020
2726 Snow -5 996 92 3500 5 200 18:21 18.02.2020
2727 Snow -5 996 85 6000 5 200 17:58 18.02.2020
2728 Snow -5 996 85 8000 6 200 17:40 18.02.2020
2729 Snow -5 996 85 8000 6 200 17:19 18.02.2020
2730 Snow -6 997 92 4800 6 200 16:40 18.02.2020
2731 Snow -6 997 92 4800 6 200 16:40 18.02.2020
2732 Snow -6 997 92 4800 6 200 16:21 18.02.2020
2733 Snow -6 997 100 3500 6 190 15:54 18.02.2020
2734 Snow -6 997 100 1300 7 200 15:36 18.02.2020
2735 Snow -6 997 100 1300 7 200 15:18 18.02.2020
2736 Snow -6 997 100 1300 7 200 15:18 18.02.2020
2737 Snow -6 998 100 1500 5 190 14:54 18.02.2020
2738 Snow -6 998 100 1300 6 190 14:36 18.02.2020
2739 Snow -6 998 100 1300 6 190 14:18 18.02.2020
2740 Snow -6 999 100 1500 7 190 13:41 18.02.2020
2741 Snow -6 999 100 1500 7 190 13:21 18.02.2020
2742 Snow -6 999 92 1000 8 190 12:44 18.02.2020
2743 Snow -5 999 92 900 6 190 12:25 18.02.2020
2744 Snow -5 1000 92 1500 7 190 11:56 18.02.2020
2745 Snow -5 1000 85 1000 6 190 11:38 18.02.2020
2746 Snow -5 1000 85 1000 6 190 11:20 18.02.2020
2747 Snow -5 1000 79 2500 9 190 10:44 18.02.2020
2748 Clouds -4 1000 68 10000 8 180 10:23 18.02.2020
2749 Clouds -4 1001 62 10000 8 190 09:57 18.02.2020
2750 Clouds -4 1001 68 10000 9 180 09:38 18.02.2020
2751 Clouds -4 1001 68 10000 9 180 09:19 18.02.2020
2752 Clouds -5 1002 67 10000 8 180 08:55 18.02.2020
2753 Clouds -5 1003 67 10000 8 180 08:37 18.02.2020
2754 Clouds -5 1003 67 10000 8 180 08:19 18.02.2020
2755 Clouds -5 1003 67 10000 8 170 07:46 18.02.2020
2756 Clouds -6 1004 73 10000 8 170 07:25 18.02.2020
2757 Clouds -7 1005 73 10000 8 180 06:51 18.02.2020
2758 Clouds -7 1006 73 10000 8 170 06:28 18.02.2020
2759 Clouds -8 1006 78 10000 8 180 05:48 18.02.2020
2760 Clouds -8 1007 78 10000 7 180 05:20 18.02.2020
2761 Clouds -8 1009 85 10000 5 160 03:49 18.02.2020
2762 Clouds -8 1011 92 10000 6 170 02:58 18.02.2020
2763 Clouds -8 1013 92 10000 5 180 01:25 18.02.2020
2764 Clouds -8 1015 92 10000 5 180 00:40 18.02.2020
2765 Clouds -8 1015 92 10000 5 180 00:18 18.02.2020
2766 Clouds -8 1016 100 10000 6 190 23:39 17.02.2020
2767 Clouds -8 1016 100 10000 6 190 23:19 17.02.2020
2768 Clouds -7 1016 85 10000 5 190 22:58 17.02.2020
2769 Clouds -7 1017 85 10000 5 190 22:39 17.02.2020
2770 Clouds -7 1017 85 10000 5 190 22:18 17.02.2020
2771 Clouds -7 1018 85 10000 2 200 21:39 17.02.2020
2772 Clouds -7 1018 85 10000 2 200 21:19 17.02.2020
2773 Clouds -6 1018 79 10000 4 190 20:55 17.02.2020
2774 Clouds -6 1019 85 10000 4 190 20:36 17.02.2020
2775 Clouds -6 1019 85 10000 4 190 20:18 17.02.2020
2776 Clouds -6 1020 85 10000 3 200 19:42 17.02.2020
2777 Clouds -7 1020 92 10000 3 200 19:21 17.02.2020
2778 Clouds -7 1021 92 10000 3 200 18:55 17.02.2020
2779 Clouds -6 1021 92 10000 3 180 18:36 17.02.2020
2780 Clouds -6 1021 92 10000 3 180 18:18 17.02.2020
2781 Snow -6 1022 100 8000 2 170 17:38 17.02.2020
2782 Snow -6 1022 100 8000 2 170 17:19 17.02.2020
2783 Snow -6 1022 100 9000 2 130 16:58 17.02.2020
2784 Snow -6 1022 100 9000 2 120 16:40 17.02.2020
2785 Snow -6 1022 100 9000 2 120 16:21 17.02.2020
2786 Snow -6 1023 100 9000 2 170 15:46 17.02.2020
2787 Snow -7 1023 100 8000 2 150 15:27 17.02.2020
2788 Snow -7 1024 100 8000 2 130 14:58 17.02.2020
2789 Clouds -7 1024 100 8000 2 130 14:39 17.02.2020
2790 Clouds -7 1024 100 8000 2 130 14:20 17.02.2020
2791 Snow -6 1024 100 8000 1 150 13:55 17.02.2020
2792 Snow -6 1024 100 10000 2 130 13:36 17.02.2020
2793 Snow -6 1024 100 10000 2 130 13:18 17.02.2020
2794 Snow -6 1024 100 10000 2 150 12:42 17.02.2020
2795 Clouds -6 1025 100 10000 2 150 12:23 17.02.2020
2796 Clouds -6 1024 100 10000 2 140 11:50 17.02.2020
2797 Clouds -6 1025 100 10000 3 200 11:29 17.02.2020
2798 Clouds -6 1025 100 10000 3 200 11:29 17.02.2020
2799 Clouds -6 1025 100 10000 3 200 10:59 17.02.2020
2800 Clouds -6 1026 100 10000 3 190 10:41 17.02.2020
2801 Clouds -6 1026 100 10000 3 190 10:22 17.02.2020
2802 Clouds -6 1026 100 10000 2 220 09:58 17.02.2020
2803 Clouds -6 1026 100 10000 2 190 09:40 17.02.2020
2804 Clouds -6 1026 100 10000 2 190 09:21 17.02.2020
2805 Clouds -6 1027 100 10000 2 180 08:56 17.02.2020
2806 Clouds -6 1027 100 10000 3 190 08:38 17.02.2020
2807 Clouds -6 1027 100 10000 3 190 08:19 17.02.2020
2808 Snow -6 1027 100 10000 3 190 07:42 17.02.2020
2809 Snow -6 1027 100 10000 2 190 07:23 17.02.2020
2810 Snow -6 1028 100 6000 2 190 06:51 17.02.2020
2811 Snow -6 1028 100 6000 2 190 06:30 17.02.2020
2812 Snow -6 1028 100 8000 2 200 05:40 17.02.2020
2813 Snow -6 1028 100 7000 2 190 04:59 17.02.2020
2814 Clouds -8 1029 100 7000 1 0 03:20 17.02.2020
2815 Fog -11 1029 100 200 2.73 213 01:47 17.02.2020
2816 Fog -11 1029 92 350 2 200 00:41 17.02.2020
2817 Fog -11 1029 92 350 2 200 00:19 17.02.2020
2818 Fog -11 1029 92 650 3 210 23:52 16.02.2020
2819 Fog -11 1030 100 1200 2 200 23:29 16.02.2020
2820 Fog -10 1030 100 300 3 220 22:57 16.02.2020
2821 Fog -10 1030 100 750 3 210 22:38 16.02.2020
2822 Fog -10 1030 100 750 3 210 22:20 16.02.2020
2823 Fog -10 1030 100 750 3 210 22:20 16.02.2020
2824 Mist -11 1030 100 4500 3 210 21:56 16.02.2020
2825 Mist -11 1030 100 4500 3 210 21:56 16.02.2020
2826 Clouds -11 1030 100 7000 2 200 21:38 16.02.2020
2827 Clouds -11 1030 100 7000 2 200 21:19 16.02.2020
2828 Clouds -11 1030 100 6000 2 220 20:56 16.02.2020
2829 Clouds -11 1030 100 9000 3 200 20:38 16.02.2020
2830 Clouds -11 1030 100 9000 3 200 20:20 16.02.2020
2831 Clouds -10 1030 100 6000 3 230 19:56 16.02.2020
2832 Clouds -10 1030 100 10000 3 210 19:37 16.02.2020
2833 Clouds -10 1030 100 10000 3 210 19:18 16.02.2020
2834 Clouds -9 1030 92 10000 3 200 18:42 16.02.2020
2835 Clouds -9 1030 92 10000 3 200 18:42 16.02.2020
2836 Clouds -9 1030 92 10000 3 200 18:23 16.02.2020
2837 Clouds -9 1030 92 10000 3 200 17:46 16.02.2020
2838 Clouds -8 1030 85 10000 3 210 17:21 16.02.2020
2839 Clouds -8 1030 85 10000 3 210 16:58 16.02.2020
2840 Clouds -8 1030 85 10000 3 210 16:58 16.02.2020
2841 Clouds -8 1030 85 10000 3 230 16:39 16.02.2020
2842 Clouds -8 1030 85 10000 3 230 16:21 16.02.2020
2843 Clouds -8 1030 85 10000 3 230 16:21 16.02.2020
2844 Clouds -8 1030 85 10000 3 230 16:21 16.02.2020
2845 Clouds -7 1030 85 10000 4 220 15:58 16.02.2020
2846 Clouds -6 1030 79 10000 4 220 15:38 16.02.2020
2847 Clouds -6 1030 79 10000 4 220 15:20 16.02.2020
2848 Clouds -6 1030 79 10000 2 200 14:41 16.02.2020
2849 Clouds -6 1030 79 10000 2 200 14:23 16.02.2020
2850 Clouds -7 1030 85 10000 2 200 13:48 16.02.2020
2851 Clouds -7 1030 85 10000 2 200 13:25 16.02.2020
2852 Clouds -7 1030 79 10000 2 200 12:58 16.02.2020
2853 Clouds -7 1030 79 10000 2 200 12:38 16.02.2020
2854 Clouds -7 1030 79 10000 2 200 12:19 16.02.2020
2855 Clouds -6 1030 79 10000 3 220 11:40 16.02.2020
2856 Clouds -6 1030 79 10000 3 220 11:19 16.02.2020
2857 Clouds -6 1030 79 10000 4 210 10:58 16.02.2020
2858 Clouds -6 1030 79 10000 4 210 10:58 16.02.2020
2859 Snow -6 1030 79 10000 5 220 10:39 16.02.2020
2860 Snow -6 1030 79 10000 5 220 10:21 16.02.2020
2861 Snow -7 1030 85 9000 4 220 09:57 16.02.2020
2862 Clouds -7 1029 85 10000 5 210 09:37 16.02.2020
2863 Clouds -7 1029 85 10000 5 210 09:19 16.02.2020
2864 Clouds -7 1029 85 10000 4 220 08:47 16.02.2020
2865 Clouds -7 1029 85 10000 5 220 08:22 16.02.2020
2866 Clouds -7 1029 85 10000 5 220 08:22 16.02.2020
2867 Clouds -7 1029 85 10000 4 220 07:56 16.02.2020
2868 Clouds -8 1029 92 10000 4 220 07:34 16.02.2020
2869 Clouds -8 1028 92 10000 4 210 06:36 16.02.2020
2870 Snow -8 1028 92 9000 3 220 04:57 16.02.2020
2871 Snow -8 1027 92 9000 4 220 03:34 16.02.2020
2872 Clouds -8 1027 92 10000 4 210 02:32 16.02.2020
2873 Clouds -8 1027 92 10000 4 210 01:45 16.02.2020
2874 Snow -8 1027 92 10000 4 200 01:26 16.02.2020
2875 Snow -8 1027 92 10000 3 200 00:59 16.02.2020
2876 Snow -9 1027 92 9000 2 190 00:39 16.02.2020
2877 Snow -9 1027 92 9000 2 190 00:19 16.02.2020
2878 Clouds -9 1026 92 10000 3 210 23:42 15.02.2020
2879 Clouds -9 1026 92 10000 3 210 23:23 15.02.2020
2880 Clouds -9 1026 92 10000 3 210 22:56 15.02.2020
2881 Clouds -9 1026 92 10000 4 230 22:37 15.02.2020
2882 Clouds -9 1026 92 10000 4 230 22:18 15.02.2020
2883 Clouds -9 1026 92 10000 4 220 21:42 15.02.2020
2884 Clouds -9 1025 92 10000 3 210 21:23 15.02.2020
2885 Clouds -10 1025 92 10000 3 200 20:43 15.02.2020
2886 Clouds -10 1025 92 10000 3 200 20:43 15.02.2020
2887 Clouds -9 1025 92 10000 3 200 20:21 15.02.2020
2888 Snow -10 1025 92 10000 3 210 19:59 15.02.2020
2889 Snow -10 1025 92 4500 2 210 19:40 15.02.2020
2890 Snow -10 1025 92 4500 2 210 19:21 15.02.2020
2891 Snow -9 1025 85 5000 3 220 18:40 15.02.2020
2892 Snow -9 1025 85 5000 3 220 18:20 15.02.2020
2893 Snow -9 1025 85 9000 3 210 17:55 15.02.2020
2894 Snow -9 1025 85 8000 4 210 17:37 15.02.2020
2895 Snow -9 1025 85 8000 4 210 17:18 15.02.2020
2896 Snow -9 1024 85 7000 4 200 16:39 15.02.2020
2897 Snow -9 1024 85 7000 4 200 16:20 15.02.2020
2898 Snow -9 1024 85 7000 4 200 16:20 15.02.2020
2899 Snow -9 1024 85 7000 4 200 15:49 15.02.2020
2900 Snow -10 1024 92 10000 4 200 15:31 15.02.2020
2901 Snow -9 1024 85 9000 4 200 14:55 15.02.2020
2902 Snow -9 1024 78 10000 4 190 14:37 15.02.2020
2903 Snow -9 1024 78 10000 4 190 14:18 15.02.2020
2904 Snow -9 1023 78 10000 4 190 13:41 15.02.2020
2905 Snow -9 1023 78 10000 4 190 13:22 15.02.2020
2906 Snow -9 1023 78 8000 5 190 12:55 15.02.2020
2907 Snow -9 1023 85 6000 4 190 12:37 15.02.2020
2908 Snow -9 1023 85 6000 4 190 12:19 15.02.2020
2909 Clouds -9 1022 78 10000 3 190 11:41 15.02.2020
2910 Clouds -9 1022 78 10000 3 190 11:23 15.02.2020
2911 Clouds -9 1022 78 10000 4 180 10:47 15.02.2020
2912 Clouds -9 1022 78 10000 4 190 10:29 15.02.2020
2913 Clouds -10 1022 78 10000 4 190 09:45 15.02.2020
2914 Clouds -10 1022 78 10000 4 190 09:26 15.02.2020
2915 Clouds -10 1022 78 10000 4 200 08:59 15.02.2020
2916 Snow -11 1022 78 10000 4 200 08:41 15.02.2020
2917 Snow -11 1022 78 10000 4 200 08:22 15.02.2020
2918 Clouds -11 1022 78 10000 5 200 07:42 15.02.2020
2919 Snow -12 1022 85 8000 5 200 07:23 15.02.2020
2920 Clouds -12 1022 85 10000 5 190 06:39 15.02.2020
2921 Clouds -12 1022 85 10000 5 190 06:39 15.02.2020
2922 Clouds -12 1022 85 10000 5 190 06:20 15.02.2020
2923 Snow -11 1022 85 10000 5 190 04:52 15.02.2020
2924 Snow -11 1021 85 8000 5 190 04:31 15.02.2020
2925 Snow -11 1021 85 2900 4 190 02:59 15.02.2020
2926 Snow -11 1021 85 5000 4 190 02:29 15.02.2020
2927 Clouds -11 1021 85 10000 4 180 01:59 15.02.2020
2928 Snow -11 1021 85 7000 3 190 01:37 15.02.2020
2929 Clouds -11 1021 85 10000 4 190 00:31 15.02.2020
2930 Clouds -11 1020 85 10000 4 190 23:59 14.02.2020
2931 Snow -11 1020 85 8000 5 200 23:38 14.02.2020
2932 Snow -11 1020 85 8000 5 200 23:18 14.02.2020
2933 Snow -10 1020 85 8000 4 190 22:43 14.02.2020
2934 Clouds -10 1020 85 10000 4 200 22:22 14.02.2020
2935 Clouds -10 1020 85 10000 4 190 21:49 14.02.2020
2936 Clouds -9 1020 85 10000 5 200 21:31 14.02.2020
2937 Snow -9 1020 85 6000 5 190 20:56 14.02.2020
2938 Snow -9 1020 92 5000 6 200 20:38 14.02.2020
2939 Snow -9 1020 92 5000 6 200 20:38 14.02.2020
2940 Snow -9 1020 92 5000 6 200 20:19 14.02.2020
2941 Snow -9 1020 92 5000 6 200 20:19 14.02.2020
2942 Snow -9 1020 92 5000 6 200 20:19 14.02.2020
2943 Snow -8 1020 85 4700 5 200 19:41 14.02.2020
2944 Snow -8 1020 85 4700 5 200 19:23 14.02.2020
2945 Snow -8 1019 85 4300 4 200 18:57 14.02.2020
2946 Snow -8 1019 85 9000 4 200 18:39 14.02.2020
2947 Snow -8 1019 85 9000 4 200 18:20 14.02.2020
2948 Snow -8 1019 85 6000 5 200 17:44 14.02.2020
2949 Snow -9 1019 92 5000 5 200 17:23 14.02.2020
2950 Snow -9 1019 92 5000 5 200 17:23 14.02.2020
2951 Snow -9 1019 85 4600 4 200 16:59 14.02.2020
2952 Snow -9 1019 85 3300 5 200 16:41 14.02.2020
2953 Snow -9 1019 85 3300 5 200 16:22 14.02.2020
2954 Snow -9 1019 85 2700 5 190 15:56 14.02.2020
2955 Snow -9 1018 85 2800 6 190 15:38 14.02.2020
2956 Snow -9 1018 85 2800 6 190 15:19 14.02.2020
2957 Snow -9 1018 85 3400 5 190 14:58 14.02.2020
2958 Snow -9 1018 85 1600 6 190 14:40 14.02.2020
2959 Snow -9 1018 85 1600 6 190 14:21 14.02.2020
2960 Snow -9 1018 85 5000 4 190 13:54 14.02.2020
2961 Snow -10 1018 85 5000 5 190 13:36 14.02.2020
2962 Snow -10 1018 85 5000 5 190 13:18 14.02.2020
2963 Snow -10 1017 85 5000 5 190 12:56 14.02.2020
2964 Snow -10 1017 85 5000 5 190 12:56 14.02.2020
2965 Snow -10 1017 85 6000 4 180 12:37 14.02.2020
2966 Snow -10 1017 85 6000 4 180 12:18 14.02.2020
2967 Snow -10 1017 85 4200 5 190 11:41 14.02.2020
2968 Snow -10 1017 85 4200 5 190 11:21 14.02.2020
2969 Snow -10 1017 85 5000 4 200 10:57 14.02.2020
2970 Snow -9 1017 78 9000 5 190 10:38 14.02.2020
2971 Snow -9 1017 78 9000 5 190 10:20 14.02.2020
2972 Snow -9 1016 78 6000 5 190 09:44 14.02.2020
2973 Snow -9 1016 78 6000 5 190 09:22 14.02.2020
2974 Snow -9 1016 78 6000 5 190 08:56 14.02.2020
2975 Snow -9 1016 78 7000 4 190 08:37 14.02.2020
2976 Snow -9 1016 78 7000 4 190 08:18 14.02.2020
2977 Snow -9 1016 78 7000 5 190 07:44 14.02.2020
2978 Snow -9 1015 78 5000 4 190 07:24 14.02.2020
2979 Clouds -9 1015 85 10000 5 190 06:32 14.02.2020
2980 Clouds -9 1015 85 10000 4 180 05:59 14.02.2020
2981 Clouds -10 1015 92 10000 4 180 05:25 14.02.2020
2982 Snow -9 1015 92 10000 4 160 03:31 14.02.2020
2983 Snow -8 1015 85 9000 4 150 02:42 14.02.2020
2984 Snow -9 1015 92 5000 5 150 01:50 14.02.2020
2985 Snow -9 1016 92 1600 5 140 00:44 14.02.2020
2986 Snow -10 1016 85 4600 4 130 00:24 14.02.2020
2987 Clouds -10 1016 78 10000 5 120 23:51 13.02.2020
2988 Snow -10 1016 78 10000 5 120 23:23 13.02.2020
2989 Clouds -10 1017 78 10000 5 120 22:56 13.02.2020
2990 Clouds -10 1017 72 10000 6 110 22:37 13.02.2020
2991 Clouds -10 1017 72 10000 6 110 22:18 13.02.2020
2992 Clouds -9 1018 66 10000 4 130 21:41 13.02.2020
2993 Clouds -9 1018 66 10000 4 130 21:23 13.02.2020
2994 Clouds -10 1018 72 10000 5 110 20:58 13.02.2020
2995 Clouds -10 1019 72 10000 5 120 20:39 13.02.2020
2996 Clouds -10 1019 72 10000 5 120 20:39 13.02.2020
2997 Clouds -10 1019 72 10000 5 120 20:21 13.02.2020
2998 Clouds -10 1020 72 10000 4 120 19:56 13.02.2020
2999 Clouds -10 1020 66 10000 5 100 19:37 13.02.2020
3000 Clouds -10 1020 66 10000 5 100 19:37 13.02.2020
3001 Clouds -10 1020 66 10000 5 100 19:19 13.02.2020
3002 Clouds -11 1021 78 10000 4 140 18:45 13.02.2020
3003 Clouds -10 1021 72 10000 4 140 18:24 13.02.2020
3004 Clouds -10 1021 72 10000 4 140 18:24 13.02.2020
3005 Clouds -10 1021 72 10000 4 140 17:59 13.02.2020
3006 Clouds -10 1021 72 10000 3 140 17:40 13.02.2020
3007 Clouds -10 1021 72 10000 3 140 17:21 13.02.2020
3008 Clouds -10 1022 72 10000 3 140 16:58 13.02.2020
3009 Clouds -10 1021 66 10000 4 150 16:40 13.02.2020
3010 Clouds -10 1021 66 10000 4 150 16:19 13.02.2020
3011 Clouds -10 1021 66 10000 4 150 16:19 13.02.2020
3012 Clouds -10 1021 72 10000 4 160 15:56 13.02.2020
3013 Clouds -9 1022 66 10000 5 160 15:38 13.02.2020
3014 Clouds -9 1022 66 10000 5 160 15:19 13.02.2020
3015 Clouds -9 1022 66 10000 4 160 14:57 13.02.2020
3016 Clouds -9 1022 61 10000 4 170 14:38 13.02.2020
3017 Clouds -9 1022 61 10000 4 170 14:20 13.02.2020
3018 Clouds -9 1022 61 10000 5 160 13:48 13.02.2020
3019 Clouds -9 1022 61 10000 5 150 13:19 13.02.2020
3020 Clouds -9 1022 61 10000 4 150 12:56 13.02.2020
3021 Clouds -9 1022 66 10000 4 150 12:37 13.02.2020
3022 Clouds -9 1022 66 10000 4 150 12:37 13.02.2020
3023 Clouds -9 1022 66 10000 4 150 12:19 13.02.2020
3024 Clouds -9 1022 66 10000 4 150 11:43 13.02.2020
3025 Clouds -9 1022 66 10000 4 150 11:43 13.02.2020
3026 Clouds -9 1022 66 10000 4 150 11:20 13.02.2020
3027 Clouds -9 1022 66 10000 5 160 10:48 13.02.2020
3028 Clouds -9 1022 66 10000 4 160 10:28 13.02.2020
3029 Clouds -9 1021 66 10000 5 160 09:55 13.02.2020
3030 Clouds -9 1021 66 10000 5 160 09:37 13.02.2020
3031 Clouds -9 1021 66 10000 5 160 09:18 13.02.2020
3032 Clouds -9 1021 72 10000 4 160 08:41 13.02.2020
3033 Clouds -9 1021 72 10000 4 160 08:19 13.02.2020
3034 Clouds -10 1021 78 10000 6 180 07:40 13.02.2020
3035 Clouds -10 1021 78 10000 6 180 07:21 13.02.2020
3036 Clouds -11 1021 85 10000 6 180 06:44 13.02.2020
3037 Clouds -12 1021 85 10000 5 180 06:20 13.02.2020
3038 Clouds -12 1021 85 10000 5 190 05:37 13.02.2020
3039 Clouds -11 1021 85 10000 6 190 04:26 13.02.2020
3040 Clouds -10 1020 85 10000 6 180 03:52 13.02.2020
3041 Snow -9 1020 85 8000 5 190 03:26 13.02.2020
3042 Snow -9 1020 85 6000 4 190 02:52 13.02.2020
3043 Snow -9 1020 85 9000 4 190 02:19 13.02.2020
3044 Clouds -10 1020 92 9000 4 190 01:35 13.02.2020
3045 Clouds -10 1019 92 10000 4 190 00:39 13.02.2020
3046 Clouds -10 1019 92 10000 4 190 00:21 13.02.2020
3047 Clouds -10 1020 92 10000 4 180 23:40 12.02.2020
3048 Clouds -10 1020 92 10000 4 180 23:21 12.02.2020
3049 Clouds -10 1020 92 10000 4 190 22:45 12.02.2020
3050 Clouds -10 1019 100 10000 4 190 22:27 12.02.2020
3051 Clouds -9 1019 100 10000 4 190 21:59 12.02.2020
3052 Clouds -9 1019 92 10000 4 190 21:40 12.02.2020
3053 Clouds -9 1019 92 10000 4 190 21:19 12.02.2020
3054 Clouds -9 1019 92 10000 4 190 20:57 12.02.2020
3055 Clouds -9 1019 92 10000 3 190 20:39 12.02.2020
3056 Clouds -9 1019 92 10000 3 190 20:20 12.02.2020
3057 Clouds -9 1018 92 10000 3 190 19:55 12.02.2020
3058 Clouds -10 1018 92 10000 3 200 19:36 12.02.2020
3059 Clouds -10 1018 92 10000 3 200 19:36 12.02.2020
3060 Clouds -10 1018 92 10000 3 200 19:18 12.02.2020
3061 Clouds -10 1018 92 10000 3 200 18:45 12.02.2020
3062 Clouds -10 1019 85 10000 4 200 18:18 12.02.2020
3063 Clouds -10 1019 92 10000 5 210 17:43 12.02.2020
3064 Clouds -10 1019 85 10000 4 200 17:21 12.02.2020
3065 Clouds -10 1018 85 10000 3 190 16:59 12.02.2020
3066 Clouds -10 1018 85 10000 4 200 16:39 12.02.2020
3067 Clouds -10 1018 85 10000 4 200 16:19 12.02.2020
3068 Clouds -10 1018 85 10000 3 200 15:43 12.02.2020
3069 Clouds -10 1018 85 10000 3 190 15:23 12.02.2020
3070 Clouds -10 1018 85 10000 3 190 14:57 12.02.2020
3071 Clouds -9 1018 78 10000 4 190 14:39 12.02.2020
3072 Clouds -9 1018 78 10000 4 190 14:19 12.02.2020
3073 Clouds -9 1017 78 10000 4 200 13:57 12.02.2020
3074 Clouds -9 1017 78 10000 3 190 13:38 12.02.2020
3075 Clouds -9 1017 78 10000 3 190 13:19 12.02.2020
3076 Clouds -9 1017 78 10000 4 200 12:57 12.02.2020
3077 Clouds -9 1016 78 10000 4 200 12:37 12.02.2020
3078 Clouds -9 1016 78 10000 4 200 12:18 12.02.2020
3079 Clouds -9 1016 78 10000 4 190 11:55 12.02.2020
3080 Clouds -9 1016 78 10000 4 200 11:37 12.02.2020
3081 Clouds -9 1016 78 10000 4 200 11:19 12.02.2020
3082 Clouds -8 1016 72 10000 4 200 10:54 12.02.2020
3083 Clouds -8 1015 78 10000 4 200 10:36 12.02.2020
3084 Clouds -8 1015 78 10000 4 200 10:18 12.02.2020
3085 Clouds -8 1015 78 10000 4 200 10:18 12.02.2020
3086 Clouds -9 1015 78 10000 6 210 09:40 12.02.2020
3087 Clouds -9 1015 78 10000 6 210 09:20 12.02.2020
3088 Clouds -9 1014 78 10000 7 210 08:57 12.02.2020
3089 Clouds -9 1014 78 10000 6 210 08:37 12.02.2020
3090 Clouds -9 1014 78 10000 6 210 08:19 12.02.2020
3091 Clouds -10 1014 85 10000 6 210 07:43 12.02.2020
3092 Clouds -10 1014 85 10000 5 210 07:23 12.02.2020
3093 Clouds -10 1014 85 10000 5 210 06:53 12.02.2020
3094 Clouds -10 1013 85 10000 5 200 06:21 12.02.2020
3095 Clouds -10 1013 92 10000 5 200 05:36 12.02.2020
3096 Clouds -10 1013 92 10000 5 200 04:57 12.02.2020
3097 Clouds -10 1013 92 10000 5 200 04:39 12.02.2020
3098 Clouds -10 1012 92 10000 5 200 03:32 12.02.2020
3099 Clouds -10 1012 92 10000 5 200 02:58 12.02.2020
3100 Clouds -9 1012 85 10000 5 200 02:28 12.02.2020
3101 Clouds -9 1012 85 10000 5 200 02:28 12.02.2020
3102 Clouds -9 1011 92 10000 5 200 01:49 12.02.2020
3103 Clouds -9 1011 92 10000 5 210 00:45 12.02.2020
3104 Clouds -9 1010 92 10000 5 210 00:26 12.02.2020
3105 Clouds -8 1010 85 10000 5 210 23:55 11.02.2020
3106 Clouds -8 1010 85 10000 5 210 23:37 11.02.2020
3107 Clouds -8 1010 85 10000 5 210 23:18 11.02.2020
3108 Clouds -8 1010 92 10000 5 200 22:55 11.02.2020
3109 Clouds -8 1010 92 10000 6 210 22:36 11.02.2020
3110 Clouds -8 1010 92 10000 6 210 22:18 11.02.2020
3111 Clouds -8 1009 85 10000 5 210 21:55 11.02.2020
3112 Clouds -9 1009 92 10000 5 210 21:36 11.02.2020
3113 Clouds -9 1009 92 10000 5 210 21:18 11.02.2020
3114 Clouds -9 1009 92 10000 5 210 21:18 11.02.2020
3115 Clouds -9 1009 92 10000 5 210 20:39 11.02.2020
3116 Clouds -9 1009 92 10000 5 210 20:39 11.02.2020
3117 Clouds -9 1009 92 10000 5 210 20:20 11.02.2020
3118 Clouds -9 1009 92 10000 5 210 19:59 11.02.2020
3119 Clouds -9 1009 92 10000 6 210 19:41 11.02.2020
3120 Clouds -9 1009 92 10000 6 210 19:23 11.02.2020
3121 Clouds -9 1008 85 10000 6 210 18:55 11.02.2020
3122 Clouds -9 1008 85 10000 6 220 18:37 11.02.2020
3123 Clouds -9 1008 85 10000 6 220 18:19 11.02.2020
3124 Clouds -9 1008 85 10000 6 210 17:54 11.02.2020
3125 Clouds -10 1008 85 10000 5 210 17:36 11.02.2020
3126 Clouds -10 1008 85 10000 5 210 17:18 11.02.2020
3127 Clouds -10 1008 85 10000 5 210 17:18 11.02.2020
3128 Clouds -10 1008 85 10000 5 210 17:18 11.02.2020
3129 Clouds -10 1007 85 10000 6 210 16:55 11.02.2020
3130 Clouds -9 1007 85 10000 6 200 16:36 11.02.2020
3131 Clouds -9 1007 85 10000 6 200 16:18 11.02.2020
3132 Clouds -10 1007 85 10000 6 200 15:42 11.02.2020
3133 Clouds -10 1007 85 10000 6 200 15:23 11.02.2020
3134 Clouds -10 1007 85 10000 5 190 14:43 11.02.2020
3135 Clouds -10 1007 85 10000 6 190 14:20 11.02.2020
3136 Clouds -10 1006 85 10000 5 190 13:58 11.02.2020
3137 Clouds -9 1006 85 10000 5 190 13:39 11.02.2020
3138 Clouds -9 1006 85 10000 5 190 13:20 11.02.2020
3139 Clouds -9 1006 78 10000 5 200 12:57 11.02.2020
3140 Clouds -9 1006 85 10000 5 200 12:39 11.02.2020
3141 Clouds -9 1006 85 10000 5 200 12:19 11.02.2020
3142 Clouds -9 1006 78 10000 6 200 11:41 11.02.2020
3143 Clouds -9 1006 78 10000 6 200 11:20 11.02.2020
3144 Clouds -9 1006 78 10000 5 200 10:55 11.02.2020
3145 Snow -9 1006 78 7000 5 210 10:37 11.02.2020
3146 Snow -9 1006 78 7000 5 210 10:19 11.02.2020
3147 Clouds -9 1006 78 10000 6 210 09:55 11.02.2020
3148 Clouds -9 1005 78 10000 6 210 09:37 11.02.2020
3149 Clouds -9 1005 78 10000 6 210 09:18 11.02.2020
3150 Clouds -9 1005 78 10000 8 210 08:41 11.02.2020
3151 Clouds -9 1005 78 10000 8 210 08:41 11.02.2020
3152 Clouds -9 1005 78 10000 8 210 08:23 11.02.2020
3153 Snow -10 1005 85 10000 6 210 07:48 11.02.2020
3154 Snow -10 1005 85 6000 6 210 07:25 11.02.2020
3155 Clouds -10 1005 78 10000 5 220 06:43 11.02.2020
3156 Snow -11 1005 85 10000 5 210 06:22 11.02.2020
3157 Snow -11 1005 85 9000 6 210 05:47 11.02.2020
3158 Clouds -11 1005 85 10000 6 210 05:23 11.02.2020
3159 Snow -12 1005 92 9000 5 210 04:39 11.02.2020
3160 Clouds -13 1004 84 10000 4 210 02:53 11.02.2020
3161 Clouds -12 1004 85 10000 5 220 02:27 11.02.2020
3162 Clouds -12 1004 78 10000 6 220 01:36 11.02.2020
3163 Clouds -13 1004 84 10000 5 220 00:40 11.02.2020
3164 Clouds -13 1003 84 10000 6 220 23:57 10.02.2020
3165 Snow -13 1003 84 10000 5 220 23:38 10.02.2020
3166 Snow -13 1003 84 10000 5 220 23:19 10.02.2020
3167 Clouds -13 1003 84 10000 6 220 22:40 10.02.2020
3168 Clouds -13 1003 84 10000 6 220 22:20 10.02.2020
3169 Snow -13 1003 84 3800 6 220 21:46 10.02.2020
3170 Snow -13 1003 84 2100 5 230 21:27 10.02.2020
3171 Snow -13 1003 84 1600 6 230 20:58 10.02.2020
3172 Snow -13 1003 84 1800 5 230 20:39 10.02.2020
3173 Snow -13 1003 84 1800 5 230 20:21 10.02.2020
3174 Snow -13 1003 84 2200 5 230 19:59 10.02.2020
3175 Snow -13 1003 78 9000 6 230 19:38 10.02.2020
3176 Snow -13 1003 78 9000 6 230 19:19 10.02.2020
3177 Clouds -13 1003 78 10000 5 230 18:59 10.02.2020
3178 Snow -13 1003 78 9000 6 230 18:40 10.02.2020
3179 Snow -13 1003 78 9000 6 230 18:21 10.02.2020
3180 Clouds -14 1003 84 10000 6 230 17:58 10.02.2020
3181 Snow -14 1003 84 8000 5 230 17:38 10.02.2020
3182 Snow -14 1003 84 8000 5 230 17:19 10.02.2020
3183 Snow -14 1003 84 9000 6 240 16:58 10.02.2020
3184 Clouds -14 1003 84 10000 7 240 16:40 10.02.2020
3185 Clouds -14 1003 84 10000 7 240 16:19 10.02.2020
3186 Clouds -14 1002 84 10000 6 240 15:56 10.02.2020
3187 Clouds -13 1002 78 10000 6 250 15:38 10.02.2020
3188 Clouds -13 1002 78 10000 6 250 15:20 10.02.2020
3189 Clouds -13 1002 84 10000 6 250 14:56 10.02.2020
3190 Snow -13 1001 84 8000 4 240 14:36 10.02.2020
3191 Snow -13 1001 84 8000 4 240 14:18 10.02.2020
3192 Snow -13 1001 84 3700 4 240 13:42 10.02.2020
3193 Snow -13 1001 78 2700 6 250 13:24 10.02.2020
3194 Snow -13 1001 78 6000 5 240 12:50 10.02.2020
3195 Snow -13 1001 78 5000 6 240 12:26 10.02.2020
3196 Snow -14 1000 84 7000 7 230 11:56 10.02.2020
3197 Snow -14 1000 84 4900 6 230 11:38 10.02.2020
3198 Snow -14 1000 84 4900 6 230 11:19 10.02.2020
3199 Snow -14 1000 84 2400 6 230 10:46 10.02.2020
3200 Snow -15 1000 84 4200 6 220 10:27 10.02.2020
3201 Snow -15 1000 84 10000 6 220 09:47 10.02.2020
3202 Snow -15 1000 84 10000 7 220 09:26 10.02.2020
3203 Snow -15 1000 84 10000 7 220 09:26 10.02.2020
3204 Snow -16 1000 91 10000 5 220 08:57 10.02.2020
3205 Snow -16 1001 84 10000 5 210 08:37 10.02.2020
3206 Clouds -16 1001 84 10000 5 210 08:18 10.02.2020
3207 Clouds -16 1001 84 10000 6 220 07:49 10.02.2020
3208 Clouds -17 1001 84 10000 5 220 07:27 10.02.2020
3209 Clouds -19 1001 84 10000 3 200 06:22 10.02.2020
3210 Clouds -21 1001 76 10000 4 220 04:42 10.02.2020
3211 Clouds -22 1002 83 10000 4 220 03:34 10.02.2020
3212 Clouds -22 1002 76 10000 4 220 02:54 10.02.2020
3213 Clouds -23 1002 83 10000 4 230 01:57 10.02.2020
3214 -273 0 0 0 0 0 00:51 10.02.2020
3215 Clouds -23 1002 83 10000 3 240 00:31 10.02.2020
3216 Clouds -22 1002 76 10000 3 240 23:57 09.02.2020
3217 Clouds -23 1003 83 10000 4 250 23:39 09.02.2020
3218 Clouds -23 1003 83 10000 4 250 23:19 09.02.2020
3219 Clouds -23 1003 83 10000 4 250 22:40 09.02.2020
3220 Clouds -23 1003 83 10000 4 250 22:21 09.02.2020
3221 Clouds -23 1003 83 10000 4 250 21:43 09.02.2020
3222 Clouds -23 1003 83 10000 4 250 21:24 09.02.2020
3223 Clouds -24 1003 83 10000 4 260 20:56 09.02.2020
3224 Clouds -23 1003 83 10000 5 250 20:38 09.02.2020
3225 Clouds -23 1003 83 10000 5 250 20:18 09.02.2020
3226 Clouds -23 1003 83 10000 4 250 19:40 09.02.2020
3227 Clouds -23 1003 83 10000 4 250 19:21 09.02.2020
3228 Clouds -22 1003 76 10000 4 250 18:57 09.02.2020
3229 Clouds -23 1003 76 10000 5 280 18:38 09.02.2020
3230 Clouds -23 1003 76 10000 5 280 18:20 09.02.2020
3231 Clouds -23 1003 76 10000 4 260 17:42 09.02.2020
3232 Clouds -22 1003 76 10000 5 250 17:22 09.02.2020
3233 Clouds -22 1003 83 10000 4 250 16:56 09.02.2020
3234 Clouds -23 1003 83 10000 4 250 16:37 09.02.2020
3235 Clouds -23 1003 83 10000 4 250 16:18 09.02.2020
3236 Clouds -24 1003 76 10000 4 260 15:54 09.02.2020
3237 Clouds -23 1004 76 10000 4 260 15:36 09.02.2020
3238 Clouds -23 1004 76 10000 4 260 15:18 09.02.2020
3239 Clouds -23 1004 76 10000 3 250 14:41 09.02.2020
3240 Clouds -23 1004 76 10000 3 250 14:22 09.02.2020
3241 Clouds -23 1004 76 10000 3 240 13:47 09.02.2020
3242 Clouds -23 1004 83 10000 4 250 13:28 09.02.2020
3243 Clouds -23 1004 76 10000 3 240 12:57 09.02.2020
3244 Clouds -23 1004 76 10000 3 240 12:38 09.02.2020
3245 Clouds -23 1004 76 10000 3 240 12:19 09.02.2020
3246 Clouds -23 1004 76 10000 3 240 12:19 09.02.2020
3247 Clouds -23 1004 76 10000 3 240 12:19 09.02.2020
3248 Clouds -23 1004 76 10000 3 240 11:42 09.02.2020
3249 Clouds -23 1004 76 10000 3 230 11:22 09.02.2020
3250 Clouds -23 1004 76 10000 3 240 10:59 09.02.2020
3251 Clouds -24 1004 83 10000 3 240 10:41 09.02.2020
3252 Clouds -24 1004 83 10000 3 240 10:21 09.02.2020
3253 Clouds -24 1004 83 10000 3 250 09:46 09.02.2020
3254 Clouds -23 1004 76 10000 2 240 09:27 09.02.2020
3255 Clouds -25 1004 83 10000 2 270 08:46 09.02.2020
3256 Clouds -25 1004 75 10000 2 280 08:28 09.02.2020
3257 Clouds -26 1004 75 10000 3 270 07:59 09.02.2020
3258 Clouds -28 1004 82 10000 3 280 07:41 09.02.2020
3259 Clouds -28 1004 75 10000 3 270 06:48 09.02.2020
3260 Clouds -29 1004 75 10000 3 280 06:28 09.02.2020
3261 Clouds -30 1004 74 8000 3 280 05:43 09.02.2020
3262 Mist -30 1004 74 3800 3 280 05:18 09.02.2020
3263 Clouds -30 1004 74 10000 2 280 03:52 09.02.2020
3264 Clouds -30 1004 74 10000 3 290 02:45 09.02.2020
3265 Clouds -30 1004 74 10000 2 290 02:26 09.02.2020
3266 Clouds -29 1004 75 10000 2 290 01:35 09.02.2020
3267 Clouds -29 1004 82 10000 3 300 00:44 09.02.2020
3268 Clouds -29 1003 82 10000 3 300 00:24 09.02.2020
3269 Clouds -28 1003 75 10000 3 310 23:43 08.02.2020
3270 Clouds -28 1003 82 10000 3 310 23:20 08.02.2020
3271 Clouds -27 1003 75 10000 3 290 22:43 08.02.2020
3272 Clouds -27 1003 75 10000 3 290 22:22 08.02.2020
3273 Clouds -26 1003 75 10000 3 320 21:59 08.02.2020
3274 Clouds -25 1002 75 10000 3 330 21:40 08.02.2020
3275 Clouds -25 1002 75 10000 3 330 21:21 08.02.2020
3276 Clouds -25 1002 83 10000 3 330 20:57 08.02.2020
3277 Clouds -24 1002 76 10000 3 340 20:38 08.02.2020
3278 Clouds -24 1002 76 10000 3 340 20:19 08.02.2020
3279 Clouds -23 1002 76 10000 4 320 19:55 08.02.2020
3280 Clouds -22 1002 83 10000 3 330 19:36 08.02.2020
3281 Clouds -22 1002 83 10000 3 330 19:18 08.02.2020
3282 Clouds -21 1002 83 10000 3 340 18:43 08.02.2020
3283 Clouds -20 1002 76 10000 2 330 18:23 08.02.2020
3284 Clouds -20 1001 83 10000 3 340 17:43 08.02.2020
3285 Clouds -20 1001 83 10000 2 350 17:21 08.02.2020
3286 -273 0 0 0 0 0 17:21 08.02.2020
3287 Clouds -20 1001 83 10000 2 340 16:59 08.02.2020
3288 Clouds -19 1001 84 10000 2 350 16:39 08.02.2020
3289 Clouds -19 1001 84 10000 2 350 16:21 08.02.2020
3290 Clouds -19 1001 84 10000 2 350 15:43 08.02.2020
3291 Clouds -18 1001 84 10000 3 10 15:19 08.02.2020
3292 Clouds -18 1001 84 9000 3 10 14:59 08.02.2020
3293 Clouds -18 1001 84 9000 3 10 14:59 08.02.2020
3294 Clouds -18 1001 84 8000 3 20 14:39 08.02.2020
3295 Clouds -18 1001 84 8000 3 20 14:19 08.02.2020
3296 Clouds -17 1001 84 10000 2 360 13:43 08.02.2020
3297 Snow -17 1001 84 7000 3 20 13:23 08.02.2020
3298 Snow -17 1001 84 9000 4 10 12:57 08.02.2020
3299 Snow -16 1001 84 5000 3 10 12:37 08.02.2020
3300 Snow -16 1001 84 5000 3 10 12:19 08.02.2020
3301 Snow -16 1001 84 5000 3 10 12:19 08.02.2020
3302 Clouds -16 1001 84 10000 4 20 11:43 08.02.2020
3303 Clouds -16 1001 84 10000 5 20 11:21 08.02.2020
3304 Clouds -16 1001 91 10000 4 30 10:55 08.02.2020
3305 Clouds -16 1001 91 10000 4 20 10:37 08.02.2020
3306 Clouds -16 1001 91 10000 4 20 10:19 08.02.2020
3307 Clouds -16 1002 84 10000 3 20 09:46 08.02.2020
3308 Clouds -16 1002 84 10000 3 20 09:23 08.02.2020
3309 Clouds -16 1003 84 10000 2 50 08:41 08.02.2020
3310 Clouds -16 1003 84 10000 2 50 08:22 08.02.2020
3311 Clouds -17 1003 84 10000 2 50 07:51 08.02.2020
3312 Clouds -18 1003 84 10000 3 50 07:33 08.02.2020
3313 Clouds -18 1004 84 10000 2 50 06:49 08.02.2020
3314 Clouds -19 1004 84 10000 3 60 06:21 08.02.2020
3315 Clouds -20 1005 83 10000 2 60 05:33 08.02.2020
3316 Clouds -20 1005 83 10000 2 60 04:53 08.02.2020
3317 Clouds -20 1005 83 10000 3 50 04:24 08.02.2020
3318 Clouds -21 1007 83 10000 2 90 03:37 08.02.2020
3319 Clouds -21 1007 83 10000 2 60 02:29 08.02.2020
3320 Clouds -21 1008 76 10000 1 0 01:31 08.02.2020
3321 Clouds -21 1008 83 9000 1 80 00:46 08.02.2020
3322 Fog -21 1008 83 10000 1 0 00:25 08.02.2020
3323 Clouds -22 1008 83 10000 1 70 23:57 07.02.2020
3324 Clouds -21 1009 83 10000 1 0 23:39 07.02.2020
3325 Clouds -21 1009 83 10000 1 0 23:19 07.02.2020
3326 Clouds -21 1009 83 10000 1.92 219 22:41 07.02.2020
3327 Clouds -21 1009 83 10000 1.92 219 22:19 07.02.2020
3328 Clouds -21 1009 83 10000 1.92 219 22:19 07.02.2020
3329 Clouds -21 1010 91 10000 1.92 219 21:57 07.02.2020
3330 Clouds -20 1010 91 10000 1 0 21:39 07.02.2020
3331 Clouds -20 1010 91 10000 1 0 21:19 07.02.2020
3332 Clouds -20 1010 83 10000 1.92 219 20:39 07.02.2020
3333 Clouds -20 1010 83 10000 2.93 235 20:19 07.02.2020
3334 Clouds -20 1010 83 10000 2.93 235 20:19 07.02.2020
3335 Clouds -20 1010 91 10000 2.93 235 19:54 07.02.2020
3336 Clouds -21 1009 91 10000 2 210 19:36 07.02.2020
3337 Clouds -21 1009 91 10000 2 210 19:18 07.02.2020
3338 Clouds -18 1010 84 10000 2 240 18:43 07.02.2020
3339 Clouds -18 1009 84 10000 2 240 18:25 07.02.2020
3340 Clouds -17 1009 77 10000 3 250 17:55 07.02.2020
3341 Clouds -19 1009 84 10000 3 250 17:37 07.02.2020
3342 Clear -19 1009 84 10000 3 250 17:18 07.02.2020
3343 Clear -18 1009 77 10000 4 260 16:42 07.02.2020
3344 Clear -18 1009 77 10000 4 260 16:23 07.02.2020
3345 Clear -18 1009 84 10000 4 250 15:53 07.02.2020
3346 Clear -18 1008 84 10000 3 260 15:28 07.02.2020
3347 Clear -17 1008 77 10000 4 250 14:55 07.02.2020
3348 Clear -18 1008 84 10000 4 250 14:37 07.02.2020
3349 Clouds -18 1008 84 10000 4 250 14:19 07.02.2020
3350 Clouds -18 1008 84 10000 3 280 13:56 07.02.2020
3351 Clouds -17 1008 77 10000 3 250 13:38 07.02.2020
3352 Clouds -17 1008 77 10000 3 250 13:18 07.02.2020
3353 Clouds -13 1006 71 10000 5 250 12:41 07.02.2020
3354 Clouds -13 1006 71 10000 5 250 12:23 07.02.2020
3355 Clouds -12 1006 72 10000 7 250 11:45 07.02.2020
3356 Clouds -12 1006 66 10000 5 260 11:22 07.02.2020
3357 Clouds -12 1005 72 10000 6 260 10:58 07.02.2020
3358 Clouds -12 1005 78 10000 7 260 10:38 07.02.2020
3359 Clouds -12 1005 78 10000 7 260 10:19 07.02.2020
3360 Clouds -10 1004 78 10000 6 260 09:41 07.02.2020
3361 Clouds -10 1004 78 10000 6 260 09:22 07.02.2020
3362 Clouds -10 1004 78 10000 6 260 09:22 07.02.2020
3363 Snow -9 1003 85 7000 6 270 08:47 07.02.2020
3364 Snow -9 1003 85 7000 6 270 08:23 07.02.2020
3365 Clouds -9 1003 85 10000 7 250 07:54 07.02.2020
3366 Clouds -8 1002 78 10000 7 240 07:33 07.02.2020
3367 Snow -8 1001 85 9000 6 240 06:59 07.02.2020
3368 Snow -8 1001 85 4700 7 240 06:39 07.02.2020
3369 Snow -8 1001 85 4700 7 240 06:19 07.02.2020
3370 Snow -7 1000 92 4800 5 240 05:37 07.02.2020
3371 Snow -7 999 92 10000 6 230 03:43 07.02.2020
3372 Snow -8 998 100 7000 3 230 01:57 07.02.2020
3373 Clouds -8 998 92 10000 5 240 00:59 07.02.2020
3374 Clouds -8 998 85 10000 4 240 00:27 07.02.2020
3375 Clouds -8 997 85 10000 5 240 23:38 06.02.2020
3376 Clouds -8 997 85 10000 5 240 23:19 06.02.2020
3377 Clouds -8 997 92 10000 5 230 22:48 06.02.2020
3378 Clouds -9 996 100 10000 4 220 22:27 06.02.2020
3379 Clouds -9 996 100 10000 4 210 21:58 06.02.2020
3380 Clouds -9 996 100 10000 4 220 21:36 06.02.2020
3381 Clouds -9 996 100 10000 4 220 21:18 06.02.2020
3382 Clouds -9 995 100 10000 4 230 20:55 06.02.2020
3383 Clouds -9 995 100 10000 4 230 20:36 06.02.2020
3384 Clouds -9 995 100 10000 4 230 20:18 06.02.2020
3385 Clouds -9 995 100 10000 5 240 19:56 06.02.2020
3386 Clouds -9 995 100 10000 5 240 19:37 06.02.2020
3387 Clouds -9 995 100 10000 5 240 19:19 06.02.2020
3388 Clouds -8 994 100 10000 5 240 18:42 06.02.2020
3389 Clouds -8 994 100 10000 5 240 18:42 06.02.2020
3390 Clouds -8 994 100 10000 5 240 18:24 06.02.2020
3391 Clouds -8 994 100 10000 4 240 17:58 06.02.2020
3392 Clouds -8 994 100 10000 4 240 17:40 06.02.2020
3393 Clouds -8 994 100 10000 4 240 17:20 06.02.2020
3394 Clouds -7 994 92 10000 4 240 16:43 06.02.2020
3395 Clouds -7 993 92 10000 5 240 16:25 06.02.2020
3396 Clouds -6 993 92 10000 5 240 15:44 06.02.2020
3397 Clouds -6 993 92 10000 5 240 15:24 06.02.2020
3398 Clouds -6 993 92 10000 5 230 14:58 06.02.2020
3399 Clouds -6 993 92 10000 5 230 14:58 06.02.2020
3400 Clouds -6 992 85 10000 4 230 14:40 06.02.2020
3401 Clouds -6 992 85 10000 4 230 14:22 06.02.2020
3402 Clouds -6 992 92 10000 4 240 13:43 06.02.2020
3403 Clouds -6 992 85 10000 3 240 13:25 06.02.2020
3404 Clouds -6 992 92 10000 4 240 12:45 06.02.2020
3405 Clouds -5 991 85 10000 5 240 12:20 06.02.2020
3406 Clouds -5 991 85 10000 5 250 11:58 06.02.2020
3407 Clouds -4 991 85 10000 5 250 11:39 06.02.2020
3408 Clouds -4 991 85 10000 5 250 11:21 06.02.2020
3409 Clouds -4 991 85 10000 5 260 10:57 06.02.2020
3410 Clouds -4 991 85 10000 7 260 10:38 06.02.2020
3411 Clouds -4 991 85 10000 7 260 10:38 06.02.2020
3412 Clouds -4 991 85 10000 7 260 10:20 06.02.2020
3413 Clouds -4 991 100 10000 8 280 09:56 06.02.2020
3414 Clouds -2 990 92 10000 7 270 09:37 06.02.2020
3415 Clouds -2 990 92 10000 7 270 09:18 06.02.2020
3416 Clouds -1 990 92 10000 4 270 08:41 06.02.2020
3417 Clouds -1 990 92 10000 4 270 08:22 06.02.2020
3418 Clouds -1 990 92 10000 5 270 07:48 06.02.2020
3419 Clouds -1 990 100 10000 4 260 07:27 06.02.2020
3420 Snow 0 990 93 5000 4 210 06:37 06.02.2020
3421 Snow 0 990 93 5000 4 210 06:18 06.02.2020
3422 Snow 0 990 98 2700 4 180 04:43 06.02.2020
3423 Snow 0 991 98 1400 4 190 03:21 06.02.2020
3424 Snow 0 992 98 2600 6 180 02:29 06.02.2020
3425 Snow 0 992 93 4000 5 170 01:35 06.02.2020
3426 Snow 0 992 93 6000 5 180 00:58 06.02.2020
3427 Snow 0 993 93 10000 6 180 00:26 06.02.2020
3428 Snow 0 993 93 8000 7 170 23:46 05.02.2020
3429 Snow 0 993 93 9000 6 180 23:28 05.02.2020
3430 Snow 0 994 94 8000 7 170 22:58 05.02.2020
3431 Snow 0 994 94 9000 7 180 22:40 05.02.2020
3432 Snow 0 994 94 9000 7 180 22:21 05.02.2020
3433 Snow 0 994 94 9000 7 180 22:21 05.02.2020
3434 Snow 0 994 94 4000 6 170 21:43 05.02.2020
3435 Snow 0 994 94 3500 6 180 21:24 05.02.2020
3436 Snow 0 995 94 3000 7 180 20:59 05.02.2020
3437 Snow 0 995 94 2800 6 180 20:39 05.02.2020
3438 Snow 0 995 94 2800 6 180 20:19 05.02.2020
3439 Snow 0 995 94 2500 6 180 19:57 05.02.2020
3440 Snow 0 996 94 2700 6 180 19:38 05.02.2020
3441 Snow 0 996 94 2700 6 180 19:19 05.02.2020
3442 Snow 0 996 94 3600 7 180 18:45 05.02.2020
3443 Snow 0 996 94 4000 6 180 18:21 05.02.2020
3444 Snow 0 996 94 4000 6 180 18:21 05.02.2020
3445 Snow 1 996 100 4700 6 180 17:59 05.02.2020
3446 Snow 1 996 100 3500 6 180 17:37 05.02.2020
3447 Snow 1 996 100 3500 6 180 17:37 05.02.2020
3448 Snow 1 996 100 3400 6 180 17:18 05.02.2020
3449 Snow 1 996 100 3400 6 180 16:55 05.02.2020
3450 Snow 1 997 100 4700 6 190 16:37 05.02.2020
3451 Snow 1 997 100 4700 6 190 16:18 05.02.2020
3452 Clouds 1 997 96 10000 7 190 15:41 05.02.2020
3453 Clouds 1 997 96 10000 7 190 15:19 05.02.2020
3454 Clouds 1 997 96 10000 6 190 14:55 05.02.2020
3455 Clouds 2 997 96 10000 7 190 14:37 05.02.2020
3456 Clouds 2 997 90 10000 7 190 14:19 05.02.2020
3457 Clouds 2 997 93 10000 6 180 13:40 05.02.2020
3458 Clouds 2 997 93 10000 6 180 13:22 05.02.2020
3459 Clouds 2 997 93 10000 6 190 12:44 05.02.2020
3460 Clouds 1 997 100 10000 6 190 12:25 05.02.2020
3461 Clouds 1 997 100 10000 7 180 11:57 05.02.2020
3462 Clouds 1 997 100 10000 6 180 11:38 05.02.2020
3463 Clouds 1 997 100 10000 6 180 11:20 05.02.2020
3464 Clouds 0 997 98 10000 6 170 10:43 05.02.2020
3465 Clouds 0 997 98 10000 6 170 10:25 05.02.2020
3466 Snow 0 998 98 5000 6 190 09:58 05.02.2020
3467 Snow 0 998 98 8000 6 190 09:38 05.02.2020
3468 Snow 0 998 98 8000 6 190 09:20 05.02.2020
3469 Clouds -1 998 100 10000 5 180 08:44 05.02.2020
3470 Snow -2 998 100 6000 4 160 08:24 05.02.2020
3471 Snow -3 998 100 1900 4 150 07:55 05.02.2020
3472 Snow -3 998 100 1000 4 150 07:33 05.02.2020
3473 Snow -3 999 100 2200 5 150 06:50 05.02.2020
3474 Snow -3 999 100 1300 5 160 06:23 05.02.2020
3475 Snow -3 999 100 1100 6 170 05:54 05.02.2020
3476 Snow -3 999 100 2700 6 180 05:19 05.02.2020
3477 Snow -4 1000 100 8000 7 190 04:45 05.02.2020
3478 Clouds -4 999 100 10000 6 180 03:50 05.02.2020
3479 Clouds -4 1000 100 10000 6 180 02:25 05.02.2020
3480 Clouds -4 1000 100 10000 6 190 01:37 05.02.2020
3481 Clouds -4 1000 100 10000 6 190 01:37 05.02.2020
3482 Clouds -4 1000 100 10000 6 190 00:42 05.02.2020
3483 Clouds -4 1000 100 10000 6 190 23:57 04.02.2020
3484 Clouds -4 1000 100 10000 6 190 23:37 04.02.2020
3485 Clouds -4 1000 100 10000 6 190 23:18 04.02.2020
3486 Clouds -5 1000 100 10000 6 190 22:42 04.02.2020
3487 Clouds -5 1000 100 10000 6 190 22:22 04.02.2020
3488 Clouds -5 1000 92 10000 5 190 21:59 04.02.2020
3489 Clouds -5 1000 92 10000 6 190 21:41 04.02.2020
3490 Clouds -5 1000 92 10000 6 190 21:19 04.02.2020
3491 Clouds -5 1000 92 10000 5 190 20:59 04.02.2020
3492 Clouds -6 1000 92 10000 5 190 20:38 04.02.2020
3493 Clouds -6 1000 92 10000 5 190 20:20 04.02.2020
3494 Clouds -6 1000 92 10000 5 190 20:20 04.02.2020
3495 Clouds -6 1000 92 10000 5 190 20:20 04.02.2020
3496 Clouds -6 999 92 10000 6 180 19:56 04.02.2020
3497 Clouds -6 999 92 10000 6 180 19:56 04.02.2020
3498 Clouds -6 999 92 10000 5 180 19:38 04.02.2020
3499 Clouds -6 999 92 10000 5 180 19:20 04.02.2020
3500 Clouds -6 1000 92 10000 5 190 18:55 04.02.2020
3501 Clouds -6 1000 85 10000 6 190 18:36 04.02.2020
3502 Clouds -6 1000 85 10000 6 190 18:18 04.02.2020
3503 Clouds -7 1000 92 10000 6 180 17:42 04.02.2020
3504 Clouds -7 1000 92 10000 6 180 17:20 04.02.2020
3505 Clouds -7 1000 85 10000 7 190 16:54 04.02.2020
3506 Clouds -7 1000 85 10000 7 190 16:36 04.02.2020
3507 Clouds -7 1000 85 10000 7 190 16:18 04.02.2020
3508 Clouds -7 1000 85 10000 6 170 15:55 04.02.2020
3509 Clouds -8 1000 92 10000 7 180 15:37 04.02.2020
3510 Clouds -8 1000 92 10000 7 180 15:18 04.02.2020
3511 Snow -8 1000 92 2100 6 160 14:41 04.02.2020
3512 Snow -8 1000 92 2100 6 160 14:20 04.02.2020
3513 Snow -8 1000 85 4400 4 170 13:55 04.02.2020
3514 Snow -9 1000 92 1700 5 180 13:36 04.02.2020
3515 Snow -9 1000 92 1700 5 180 13:18 04.02.2020
3516 Clouds -10 1000 92 10000 5 170 12:42 04.02.2020
3517 Clouds -10 1000 92 10000 5 170 12:42 04.02.2020
3518 Clouds -10 1000 92 10000 5 170 12:42 04.02.2020
3519 Clouds -10 1000 92 10000 5 170 12:24 04.02.2020
3520 Clouds -10 1000 92 10000 5 170 11:57 04.02.2020
3521 Clouds -10 1000 92 10000 6 170 11:38 04.02.2020
3522 Clouds -10 1000 92 10000 6 170 11:19 04.02.2020
3523 Snow -11 1000 100 9000 6 160 10:49 04.02.2020
3524 Snow -11 1000 92 9000 6 170 10:26 04.02.2020
3525 Clouds -12 1001 92 10000 6 160 09:58 04.02.2020
3526 Clouds -13 1001 92 9000 5 160 09:39 04.02.2020
3527 Clouds -13 1001 92 9000 5 160 09:21 04.02.2020
3528 Clouds -13 1002 92 9000 5 160 08:46 04.02.2020
3529 Clouds -13 1002 92 9000 6 150 08:27 04.02.2020
3530 Clouds -14 1002 92 9000 4 150 07:53 04.02.2020
3531 Mist -14 1003 84 4000 3 150 07:25 04.02.2020
3532 Mist -14 1003 84 4000 3 150 07:25 04.02.2020
3533 Mist -15 1003 92 4000 3 150 06:54 04.02.2020
3534 Mist -15 1003 92 4400 4 150 06:36 04.02.2020
3535 Mist -16 1004 91 5000 3 150 05:34 04.02.2020
3536 Mist -16 1004 91 3900 4 160 04:27 04.02.2020
3537 Mist -16 1004 84 3100 4 160 03:47 04.02.2020
3538 Mist -16 1005 84 4500 4 150 03:29 04.02.2020
3539 Mist -16 1005 84 3100 4 150 02:38 04.02.2020
3540 Mist -16 1005 84 3100 4 150 02:18 04.02.2020
3541 Mist -16 1005 84 3100 3 150 01:44 04.02.2020
3542 Mist -16 1006 84 5000 4 150 00:55 04.02.2020
3543 Mist -16 1006 91 4400 4 150 00:23 04.02.2020
3544 Mist -15 1006 84 4000 4 150 23:48 03.02.2020
3545 Mist -15 1006 92 5000 3 150 23:28 03.02.2020
3546 Mist -15 1006 92 2700 3 160 22:58 03.02.2020
3547 Snow -15 1006 92 5000 3 160 22:38 03.02.2020
3548 Snow -15 1006 92 5000 3 160 22:19 03.02.2020
3549 Snow -14 1007 92 4300 3 160 21:41 03.02.2020
3550 Snow -14 1007 92 4300 3 160 21:19 03.02.2020
3551 Snow -14 1007 92 4800 4 200 20:43 03.02.2020
3552 Snow -14 1007 92 4800 4 200 20:21 03.02.2020
3553 Snow -13 1007 92 4800 4 180 19:59 03.02.2020
3554 Snow -13 1007 92 5000 4 190 19:41 03.02.2020
3555 Snow -13 1007 92 5000 4 190 19:22 03.02.2020
3556 Snow -13 1007 92 4500 4 190 18:57 03.02.2020
3557 Snow -13 1008 92 3400 3 190 18:38 03.02.2020
3558 Snow -13 1008 92 3400 3 190 18:20 03.02.2020
3559 Snow -13 1008 92 3400 3 190 18:20 03.02.2020
3560 Snow -13 1008 92 5000 3 190 17:56 03.02.2020
3561 Clouds -13 1008 92 10000 4 180 17:38 03.02.2020
3562 Clouds -13 1008 92 10000 4 180 17:18 03.02.2020
3563 Clouds -13 1008 92 10000 4 180 16:40 03.02.2020
3564 Clouds -13 1008 92 10000 4 180 16:21 03.02.2020
3565 Clouds -13 1008 92 10000 3 190 15:56 03.02.2020
3566 Clouds -14 1008 92 10000 3 150 15:38 03.02.2020
3567 Clouds -14 1008 92 10000 3 150 15:19 03.02.2020
3568 Clouds -14 1008 92 10000 2 150 14:45 03.02.2020
3569 Clouds -14 1008 84 10000 3 150 14:27 03.02.2020
3570 Clouds -14 1008 92 10000 3 150 13:58 03.02.2020
3571 Clouds -14 1008 84 10000 2 150 13:40 03.02.2020
3572 Clouds -14 1008 84 10000 2 150 13:19 03.02.2020
3573 Clouds -14 1009 84 10000 2 190 12:56 03.02.2020
3574 Clouds -14 1008 84 10000 2 190 12:37 03.02.2020
3575 Clouds -14 1008 84 10000 2 190 12:19 03.02.2020
3576 Clouds -15 1008 92 10000 1 0 11:40 03.02.2020
3577 Clouds -15 1008 92 10000 1 0 11:20 03.02.2020
3578 Clouds -15 1008 92 10000 1 0 11:20 03.02.2020
3579 Clouds -14 1008 84 10000 1 220 10:58 03.02.2020
3580 Clouds -14 1008 84 10000 2 200 10:39 03.02.2020
3581 Clouds -14 1008 84 10000 2 200 10:20 03.02.2020
3582 Clouds -16 1008 84 8000 2.08 220 09:41 03.02.2020
3583 Clouds -16 1008 84 8000 2.08 220 09:20 03.02.2020
3584 Clouds -18 1008 84 8000 2.08 220 08:41 03.02.2020
3585 Clouds -18 1008 84 8000 2.27 220 08:23 03.02.2020
3586 Clouds -19 1008 84 6000 1 280 07:58 03.02.2020
3587 Clouds -19 1008 84 7000 1 0 07:39 03.02.2020
3588 Clouds -19 1008 84 7000 1 0 07:20 03.02.2020
3589 Clouds -19 1008 84 6000 2.49 237 06:43 03.02.2020
3590 Mist -20 1008 83 4000 2.49 237 06:24 03.02.2020
3591 Fog -20 1008 83 8000 1 280 05:36 03.02.2020
3592 Fog -19 1008 84 5000 1 290 04:50 03.02.2020
3593 Clouds -19 1008 84 10000 2 280 02:58 03.02.2020
3594 Clouds -19 1008 84 10000 2 280 02:33 03.02.2020
3595 Snow -17 1008 84 10000 2 280 01:25 03.02.2020
3596 Snow -17 1008 84 10000 1 280 00:45 03.02.2020
3597 Snow -16 1008 91 10000 1 260 00:21 03.02.2020
3598 Snow -15 1008 92 7000 2 250 23:37 02.02.2020
3599 Snow -15 1008 92 7000 2 250 23:19 02.02.2020
3600 Snow -15 1008 92 10000 1.65 217 22:55 02.02.2020
3601 Snow -14 1008 92 9000 1.65 217 22:36 02.02.2020
3602 Snow -14 1008 92 9000 1.65 217 22:36 02.02.2020
3603 Snow -14 1008 92 9000 1.65 217 22:36 02.02.2020
3604 Snow -14 1008 92 9000 1.65 217 22:18 02.02.2020
3605 Snow -12 1007 85 4200 2 220 21:41 02.02.2020
3606 Snow -12 1007 85 4200 2 220 21:22 02.02.2020
3607 Snow -12 1007 92 3800 2 200 20:58 02.02.2020
3608 Snow -12 1008 92 2500 2 210 20:39 02.02.2020
3609 Snow -12 1008 92 2500 2 210 20:21 02.02.2020
3610 Snow -12 1008 92 4000 2 220 19:59 02.02.2020
3611 Snow -12 1008 92 1900 2 220 19:41 02.02.2020
3612 Snow -12 1008 92 1900 2 220 19:23 02.02.2020
3613 Snow -12 1008 92 2400 2 210 18:57 02.02.2020
3614 Snow -12 1008 92 2200 2 200 18:38 02.02.2020
3615 Snow -12 1008 92 2200 2 200 18:38 02.02.2020
3616 Snow -12 1008 92 2200 2 200 18:20 02.02.2020
3617 Snow -12 1008 85 2800 3 220 17:57 02.02.2020
3618 Snow -12 1008 85 3500 3 210 17:38 02.02.2020
3619 Snow -12 1008 85 3500 3 210 17:18 02.02.2020
3620 Snow -12 1009 85 4500 2 210 16:58 02.02.2020
3621 Snow -12 1009 85 3700 3 210 16:38 02.02.2020
3622 Snow -12 1009 85 3700 3 210 16:19 02.02.2020
3623 Snow -12 1009 85 3700 3 210 16:19 02.02.2020
3624 Clouds -12 1009 85 10000 3 210 15:57 02.02.2020
3625 Clouds -12 1009 85 10000 3 200 15:37 02.02.2020
3626 Clouds -12 1009 85 10000 3 200 15:19 02.02.2020
3627 Clouds -12 1009 85 10000 2 200 14:44 02.02.2020
3628 Clouds -12 1009 85 10000 2 220 14:19 02.02.2020
3629 Snow -12 1009 85 9000 2 220 13:59 02.02.2020
3630 Snow -12 1009 92 5000 2 210 13:41 02.02.2020
3631 Snow -12 1009 92 5000 2 210 13:21 02.02.2020
3632 Snow -11 1009 85 4700 3 210 12:57 02.02.2020
3633 Snow -11 1009 85 4700 3 210 12:57 02.02.2020
3634 Snow -11 1009 85 6000 3 200 12:38 02.02.2020
3635 Snow -11 1009 85 6000 3 200 12:20 02.02.2020
3636 Snow -11 1009 85 2400 3 200 11:43 02.02.2020
3637 Snow -11 1010 85 2800 3 190 11:20 02.02.2020
3638 Snow -11 1010 85 2300 4 180 10:58 02.02.2020
3639 Snow -12 1010 92 1500 4 180 10:39 02.02.2020
3640 Snow -12 1010 92 1500 4 180 10:21 02.02.2020
3641 Snow -12 1010 92 1700 3 160 09:59 02.02.2020
3642 Snow -12 1010 85 2200 4 160 09:39 02.02.2020
3643 Snow -12 1010 85 2200 4 160 09:20 02.02.2020
3644 Snow -12 1010 85 2700 4 170 08:46 02.02.2020
3645 Snow -12 1010 85 2000 4 170 08:26 02.02.2020
3646 Snow -12 1011 85 1600 4 160 07:49 02.02.2020
3647 Snow -12 1011 85 2300 4 170 07:30 02.02.2020
3648 Snow -12 1012 85 1300 3 170 06:56 02.02.2020
3649 Snow -12 1012 85 1600 4 170 06:37 02.02.2020
3650 Snow -12 1012 85 1600 4 170 06:18 02.02.2020
3651 Snow -12 1013 85 3000 4 170 05:19 02.02.2020
3652 Snow -12 1013 85 2100 5 170 03:43 02.02.2020
3653 Snow -12 1014 85 2400 5 170 03:22 02.02.2020
3654 Snow -12 1014 92 4600 5 170 02:19 02.02.2020
3655 Snow -12 1014 92 2600 4 160 01:49 02.02.2020
3656 Snow -12 1015 92 3500 4 160 00:50 02.02.2020
3657 Snow -12 1015 92 3500 4 150 00:24 02.02.2020
3658 Snow -12 1015 92 3400 4 150 23:55 01.02.2020
3659 Snow -12 1016 92 2500 4 150 23:37 01.02.2020
3660 Snow -12 1016 92 2500 4 150 23:18 01.02.2020
3661 Snow -12 1016 92 2400 4 160 22:43 01.02.2020
3662 Snow -12 1016 92 3600 5 170 22:18 01.02.2020
3663 Snow -12 1016 92 3600 5 170 22:18 01.02.2020
3664 Snow -12 1017 92 1900 5 150 21:40 01.02.2020
3665 Snow -12 1017 92 1900 5 150 21:19 01.02.2020
3666 Snow -12 1017 92 2100 6 150 20:55 01.02.2020
3667 Snow -12 1017 85 2000 4 140 20:36 01.02.2020
3668 Snow -12 1017 85 2000 4 140 20:18 01.02.2020
3669 Snow -13 1017 92 2200 4 120 19:54 01.02.2020
3670 Snow -14 1018 92 1700 4 120 19:36 01.02.2020
3671 Snow -14 1018 92 1700 4 120 19:18 01.02.2020
3672 Snow -14 1018 84 4000 4 130 18:42 01.02.2020
3673 Snow -14 1018 84 4000 4 130 18:23 01.02.2020
3674 Snow -14 1019 84 4400 5 130 17:59 01.02.2020
3675 Snow -15 1019 84 2100 5 130 17:40 01.02.2020
3676 Snow -15 1019 84 2100 5 130 17:20 01.02.2020
3677 Snow -15 1019 84 3100 5 130 16:58 01.02.2020
3678 Snow -15 1020 84 2600 5 130 16:38 01.02.2020
3679 Snow -15 1020 84 2600 5 130 16:20 01.02.2020
3680 Snow -16 1020 84 4000 5 130 15:43 01.02.2020
3681 Snow -16 1020 84 3500 5 130 15:25 01.02.2020
3682 Snow -16 1020 84 3500 5 130 14:58 01.02.2020
3683 Snow -16 1021 84 2100 5 130 14:39 01.02.2020
3684 Snow -16 1021 84 2100 5 130 14:20 01.02.2020
3685 Snow -16 1021 77 2200 6 120 13:45 01.02.2020
3686 Snow -17 1021 84 7000 6 120 13:21 01.02.2020
3687 Snow -17 1021 84 6000 5 130 12:44 01.02.2020
3688 Snow -17 1022 84 8000 5 120 12:26 01.02.2020
3689 Snow -17 1022 77 5000 5 120 11:57 01.02.2020
3690 Snow -17 1022 77 4900 5 120 11:38 01.02.2020
3691 Snow -17 1022 77 4900 5 120 11:19 01.02.2020
3692 Snow -17 1022 77 2500 5 120 10:55 01.02.2020
3693 Snow -18 1023 84 4700 5 120 10:37 01.02.2020
3694 Snow -18 1023 84 4700 5 120 10:37 01.02.2020
3695 Snow -18 1023 84 4700 5 120 10:19 01.02.2020
3696 Snow -18 1023 77 3100 5 120 09:42 01.02.2020
3697 Snow -18 1023 77 3100 5 120 09:23 01.02.2020
3698 Snow -19 1023 84 3500 6 120 08:59 01.02.2020
3699 Snow -19 1023 84 3900 5 120 08:38 01.02.2020
3700 Snow -19 1024 77 3900 6 120 07:47 01.02.2020
3701 Snow -19 1024 77 3400 5 120 07:25 01.02.2020
3702 Snow -19 1024 77 1900 6 110 06:50 01.02.2020
3703 Snow -19 1024 77 1900 6 110 06:50 01.02.2020
3704 Snow -20 1024 83 3600 6 110 06:19 01.02.2020
3705 Snow -20 1025 83 2900 5 110 05:51 01.02.2020
3706 Snow -20 1025 76 4100 5 110 03:40 01.02.2020
3707 Snow -20 1025 76 4100 5 110 03:20 01.02.2020
3708 Snow -20 1026 76 6000 6 110 02:41 01.02.2020
3709 Snow -20 1026 76 6000 6 110 02:22 01.02.2020
3710 Snow -21 1026 83 4600 6 110 01:48 01.02.2020
3711 Snow -21 1026 83 3300 6 110 01:28 01.02.2020
3712 Snow -21 1026 83 10000 5 110 00:25 01.02.2020
3713 Snow -21 1027 83 7000 6 110 23:42 31.01.2020
3714 Snow -21 1027 83 7000 6 110 23:19 31.01.2020
3715 Snow -21 1027 83 7000 6 110 23:19 31.01.2020
3716 Snow -21 1027 83 5000 6 110 22:58 31.01.2020
3717 Snow -21 1027 83 6000 5 110 22:40 31.01.2020
3718 Snow -21 1027 83 6000 5 110 22:21 31.01.2020
3719 Snow -21 1027 76 4600 5 100 21:55 31.01.2020
3720 Snow -21 1027 76 5000 5 110 21:37 31.01.2020
3721 Snow -21 1027 76 5000 5 110 21:19 31.01.2020
3722 Snow -21 1027 76 3700 5 110 20:55 31.01.2020
3723 Snow -22 1028 83 2500 6 110 20:37 31.01.2020
3724 Snow -22 1028 83 5000 5 110 20:18 31.01.2020
3725 Snow -22 1028 83 5000 5 110 19:54 31.01.2020
3726 Snow -22 1028 83 3900 5 110 19:36 31.01.2020
3727 Snow -22 1028 83 3900 5 110 19:18 31.01.2020
3728 Snow -22 1028 76 3500 6 110 18:38 31.01.2020
3729 Snow -22 1028 76 3500 6 110 18:20 31.01.2020
3730 Snow -22 1029 76 5000 6 110 17:46 31.01.2020
3731 Snow -22 1029 76 5000 6 110 17:46 31.01.2020
3732 Snow -22 1029 76 3600 5 110 17:27 31.01.2020
3733 Snow -23 1029 83 4500 5 120 16:57 31.01.2020
3734 Snow -23 1029 83 7000 5 120 16:38 31.01.2020
3735 Snow -23 1029 83 7000 5 120 16:19 31.01.2020
3736 Snow -23 1029 83 8000 7 110 15:57 31.01.2020
3737 Snow -23 1029 83 3800 6 110 15:39 31.01.2020
3738 Snow -23 1029 83 3800 6 110 15:20 31.01.2020
3739 Clouds -23 1029 83 10000 6 110 14:43 31.01.2020
3740 Clouds -23 1030 83 10000 6 110 14:24 31.01.2020
3741 Clouds -24 1030 83 10000 6 100 13:55 31.01.2020
3742 Snow -24 1030 83 7000 6 100 13:36 31.01.2020
3743 Clouds -24 1030 83 10000 5 110 12:59 31.01.2020
3744 Snow -25 1030 83 5000 5 90 12:41 31.01.2020
3745 Snow -25 1030 83 5000 5 90 12:22 31.01.2020
3746 Snow -25 1031 75 5000 5 90 11:46 31.01.2020
3747 Snow -25 1031 75 5000 5 90 11:26 31.01.2020
3748 Snow -25 1031 75 6000 4 90 10:59 31.01.2020
3749 Snow -26 1031 83 9000 4 90 10:41 31.01.2020
3750 Snow -26 1031 83 9000 4 90 10:21 31.01.2020
3751 Snow -26 1032 75 8000 4 90 09:57 31.01.2020
3752 Snow -27 1032 82 6000 3 100 09:39 31.01.2020
3753 Snow -27 1032 82 6000 3 100 09:39 31.01.2020
3754 Snow -27 1032 82 6000 3 100 09:19 31.01.2020
3755 Clouds -27 1032 75 10000 2 60 08:52 31.01.2020
3756 Clouds -28 1032 75 10000 2 70 08:27 31.01.2020
3757 Clouds -29 1032 75 10000 2 70 07:53 31.01.2020
3758 Clouds -30 1033 74 9000 2 70 07:25 31.01.2020
3759 Clouds -31 1033 74 9000 2 70 06:48 31.01.2020
3760 Clouds -31 1033 74 8000 2 70 06:18 31.01.2020
3761 Clouds -31 1033 74 8000 2 70 06:18 31.01.2020
3762 Clouds -30 1033 74 6000 2 80 05:46 31.01.2020
3763 Mist -29 1033 75 1700 2 90 04:55 31.01.2020
3764 Clouds -30 1033 74 10000 2 70 02:58 31.01.2020
3765 Fog -31 1033 67 100 2 70 01:38 31.01.2020
3766 Fog -30 1033 74 500 1 80 00:46 31.01.2020
3767 Clouds -33 1033 74 9000 2 100 00:26 31.01.2020
3768 Clear -35 1033 73 10000 2 60 23:57 30.01.2020
3769 Clear -36 1033 73 10000 1 50 23:24 30.01.2020
3770 Clear -34 1033 73 10000 0.63 137 22:57 30.01.2020
3771 Clear -34 1033 73 10000 0.63 137 22:57 30.01.2020
3772 Clear -34 1033 73 10000 0.63 137 22:36 30.01.2020
3773 Clear -34 1033 73 10000 0.63 137 22:18 30.01.2020
3774 Clear -34 1033 73 10000 1 0 21:55 30.01.2020
3775 Clear -34 1033 73 10000 1 60 21:36 30.01.2020
3776 Clear -32 1033 67 10000 1 0 21:18 30.01.2020
3777 Clear -32 1033 74 10000 0.63 137 20:40 30.01.2020
3778 Clouds -32 1033 74 10000 1.63 310 20:21 30.01.2020
3779 Clear -32 1033 74 10000 1 290 19:56 30.01.2020
3780 Clear -32 1033 74 10000 2 280 19:38 30.01.2020
3781 Clear -32 1033 74 10000 2 280 19:18 30.01.2020
3782 Clear -32 1033 74 10000 3 280 18:41 30.01.2020
3783 Clear -32 1033 74 10000 3 280 18:21 30.01.2020
3784 Clear -31 1033 74 10000 2 280 17:56 30.01.2020
3785 Clear -31 1033 74 10000 2 280 17:37 30.01.2020
3786 Clear -31 1033 74 10000 2 280 17:18 30.01.2020
3787 Clear -32 1033 74 10000 3 280 16:56 30.01.2020
3788 Clear -32 1033 74 10000 3 280 16:56 30.01.2020
3789 Clear -32 1033 74 10000 3 280 16:37 30.01.2020
3790 Clear -32 1033 74 10000 3 280 16:19 30.01.2020
3791 Clear -31 1033 74 10000 2 280 15:43 30.01.2020
3792 Clear -31 1033 74 10000 3 270 15:19 30.01.2020
3793 Clear -30 1033 74 10000 3 250 14:50 30.01.2020
3794 Clear -31 1033 74 10000 3 270 14:26 30.01.2020
3795 Clouds -30 1032 74 10000 3 270 13:54 30.01.2020
3796 Clouds -30 1032 74 10000 3 280 13:36 30.01.2020
3797 Clouds -30 1032 74 10000 3 280 13:18 30.01.2020
3798 Clouds -27 1032 82 10000 4 260 12:41 30.01.2020
3799 Clouds -27 1032 82 10000 4 260 12:22 30.01.2020
3800 Clouds -27 1031 75 10000 4 280 11:56 30.01.2020
3801 Clouds -27 1031 75 10000 3 280 11:38 30.01.2020
3802 Clouds -27 1031 75 10000 3 280 11:38 30.01.2020
3803 Clouds -27 1031 75 10000 3 280 11:19 30.01.2020
3804 Clouds -26 1031 75 10000 4 270 10:42 30.01.2020
3805 Clouds -26 1031 75 10000 4 270 10:22 30.01.2020
3806 Clouds -27 1031 75 10000 4 280 09:48 30.01.2020
3807 Clouds -28 1031 75 10000 4 280 09:30 30.01.2020
3808 Clouds -28 1031 75 10000 4 280 08:59 30.01.2020
3809 Clouds -29 1030 75 10000 4 280 08:39 30.01.2020
3810 Clouds -29 1030 75 10000 4 280 08:20 30.01.2020
3811 Mist -29 1030 75 5000 4 280 07:49 30.01.2020
3812 Clear -30 1030 74 10000 4 280 07:28 30.01.2020
3813 Clear -31 1030 74 10000 4 280 06:47 30.01.2020
3814 Clear -31 1030 74 10000 4 280 06:28 30.01.2020
3815 Clear -32 1030 74 10000 4 280 05:44 30.01.2020
3816 Clear -32 1029 74 10000 4 280 05:20 30.01.2020
3817 Clear -31 1029 82 10000 4 250 03:54 30.01.2020
3818 Clear -30 1028 74 10000 4 250 03:36 30.01.2020
3819 Clear -32 1028 74 10000 4 270 02:22 30.01.2020
3820 Clear -30 1027 74 10000 4 250 00:42 30.01.2020
3821 Clear -31 1027 74 10000 4 270 00:20 30.01.2020
3822 Clear -30 1027 74 10000 4 260 23:46 29.01.2020
3823 Clear -29 1027 75 10000 4 250 23:21 29.01.2020
3824 Clear -29 1027 75 10000 4 250 22:57 29.01.2020
3825 Clear -30 1027 74 10000 4 270 22:38 29.01.2020
3826 Clear -30 1027 74 10000 4 270 22:19 29.01.2020
3827 Clear -29 1027 75 10000 4 250 21:58 29.01.2020
3828 Clear -29 1027 75 10000 3 250 21:38 29.01.2020
3829 Clear -29 1027 75 10000 3 250 21:19 29.01.2020
3830 Clear -29 1026 75 10000 4 260 20:58 29.01.2020
3831 Clear -28 1026 75 10000 3 250 20:38 29.01.2020
3832 Clear -28 1026 75 10000 3 250 20:38 29.01.2020
3833 Clear -28 1026 75 10000 3 250 20:19 29.01.2020
3834 Clear -29 1026 82 10000 4 260 19:55 29.01.2020
3835 Clear -28 1026 75 10000 4 250 19:37 29.01.2020
3836 Clear -28 1026 75 10000 4 250 19:18 29.01.2020
3837 Clear -28 1026 75 10000 5 260 18:46 29.01.2020
3838 Clear -28 1025 82 10000 5 260 18:19 29.01.2020
3839 Clear -29 1025 82 10000 5 280 17:57 29.01.2020
3840 Clear -28 1025 75 10000 5 270 17:38 29.01.2020
3841 Clouds -28 1025 75 10000 5 270 17:20 29.01.2020
3842 Clouds -27 1025 75 10000 5 250 16:41 29.01.2020
3843 Clouds -27 1025 75 10000 5 250 16:22 29.01.2020
3844 Clouds -27 1025 82 10000 5 250 15:55 29.01.2020
3845 Clouds -27 1024 75 10000 5 250 15:36 29.01.2020
3846 Clouds -27 1024 75 10000 5 250 15:18 29.01.2020
3847 Clouds -27 1024 75 10000 4 250 14:41 29.01.2020
3848 Clouds -27 1024 75 10000 4 250 14:20 29.01.2020
3849 Clouds -28 1023 82 10000 4 250 13:41 29.01.2020
3850 Clouds -28 1023 82 10000 4 250 13:23 29.01.2020
3851 Clouds -27 1023 75 10000 4 250 12:59 29.01.2020
3852 Clouds -27 1023 75 10000 5 250 12:39 29.01.2020
3853 Clouds -27 1023 75 10000 5 250 12:21 29.01.2020
3854 Clouds -27 1022 75 10000 4 240 11:58 29.01.2020
3855 Clouds -26 1022 75 10000 4 250 11:39 29.01.2020
3856 Clouds -26 1022 75 10000 4 250 11:19 29.01.2020
3857 Clouds -26 1021 75 10000 4 240 10:46 29.01.2020
3858 Clouds -26 1021 75 10000 5 260 10:22 29.01.2020
3859 Clouds -26 1021 75 10000 5 260 09:57 29.01.2020
3860 Clouds -26 1021 75 10000 5 260 09:38 29.01.2020
3861 Clouds -26 1021 75 10000 5 260 09:18 29.01.2020
3862 Clouds -27 1020 75 10000 5 280 08:41 29.01.2020
3863 Clouds -27 1020 75 10000 5 280 08:22 29.01.2020
3864 Clouds -27 1019 75 10000 6 280 07:45 29.01.2020
3865 Clouds -28 1019 75 10000 5 280 07:25 29.01.2020
3866 Clouds -28 1019 75 10000 5 280 06:55 29.01.2020
3867 Clouds -29 1018 75 10000 5 280 06:37 29.01.2020
3868 Clouds -29 1018 75 10000 5 280 06:37 29.01.2020
3869 Clouds -29 1018 75 10000 5 280 06:19 29.01.2020
3870 Clouds -29 1018 75 10000 5 280 05:47 29.01.2020
3871 Clouds -29 1017 75 10000 5 280 05:29 29.01.2020
3872 Clouds -30 1016 82 10000 5 280 04:38 29.01.2020
3873 Clouds -29 1016 75 10000 5 280 03:55 29.01.2020
3874 Clouds -29 1014 75 10000 5 280 02:33 29.01.2020
3875 Clouds -29 1013 75 10000 5 280 00:57 29.01.2020
3876 Clouds -28 1013 75 10000 5 290 00:36 29.01.2020
3877 Clouds -28 1012 75 10000 5 290 00:18 29.01.2020
3878 Clouds -28 1012 75 10000 5 290 23:38 28.01.2020
3879 Clouds -28 1012 75 10000 5 290 23:19 28.01.2020
3880 Clouds -28 1011 75 10000 4 290 22:46 28.01.2020
3881 Clouds -27 1011 75 10000 5 290 22:27 28.01.2020
3882 Clouds -27 1010 75 10000 5 290 21:54 28.01.2020
3883 Clouds -27 1010 75 10000 5 290 21:36 28.01.2020
3884 Clouds -27 1010 75 10000 5 290 21:18 28.01.2020
3885 Clouds -27 1010 75 10000 5 290 20:45 28.01.2020
3886 Clouds -27 1009 75 10000 5 290 20:25 28.01.2020
3887 Clouds -27 1009 75 10000 4 290 19:55 28.01.2020
3888 Clouds -27 1008 75 10000 4 290 19:36 28.01.2020
3889 Clouds -27 1008 75 10000 4 290 19:18 28.01.2020
3890 Clouds -27 1008 75 10000 4 290 19:18 28.01.2020
3891 Clouds -26 1007 75 10000 4 300 18:41 28.01.2020
3892 Clouds -26 1007 75 10000 4 300 18:23 28.01.2020
3893 Clouds -26 1007 75 10000 5 300 17:59 28.01.2020
3894 Clouds -26 1007 75 10000 4 300 17:39 28.01.2020
3895 Clouds -26 1007 75 10000 4 300 17:21 28.01.2020
3896 Clouds -26 1006 75 10000 4 300 16:57 28.01.2020
3897 Mist -27 1006 75 2500 4 280 16:39 28.01.2020
3898 Mist -27 1006 75 2500 4 280 16:21 28.01.2020
3899 Clouds -27 1005 75 10000 4 280 15:45 28.01.2020
3900 Clouds -26 1005 75 10000 4 280 15:19 28.01.2020
3901 Clouds -27 1004 82 10000 4 280 14:58 28.01.2020
3902 Clouds -26 1004 75 10000 4 280 14:39 28.01.2020
3903 Clouds -26 1004 75 10000 4 280 14:18 28.01.2020
3904 Clouds -26 1003 83 10000 3 280 13:41 28.01.2020
3905 Clouds -26 1003 83 10000 3 280 13:23 28.01.2020
3906 Clouds -25 1003 83 10000 4 280 12:43 28.01.2020
3907 Clouds -24 1002 83 9000 4 280 12:24 28.01.2020
3908 Clouds -23 1002 83 10000 4 270 11:56 28.01.2020
3909 Clouds -23 1001 83 10000 4 280 11:38 28.01.2020
3910 Clouds -23 1001 83 10000 4 280 11:19 28.01.2020
3911 Clouds -23 1000 83 10000 4 270 10:41 28.01.2020
3912 Clouds -23 1000 83 10000 4 270 10:23 28.01.2020
3913 Clouds -23 1000 76 10000 4 280 09:58 28.01.2020
3914 Clouds -23 1000 76 10000 4 280 09:38 28.01.2020
3915 Clouds -23 1000 76 10000 4 280 09:19 28.01.2020
3916 Clouds -23 999 76 10000 3 280 08:43 28.01.2020
3917 Clouds -23 998 76 8000 4 280 08:21 28.01.2020
3918 Clouds -24 998 83 9000 4 280 07:40 28.01.2020
3919 Clouds -25 997 83 10000 4 280 06:58 28.01.2020
3920 Clouds -23 997 76 8000 4 280 06:40 28.01.2020
3921 Clouds -23 997 76 8000 4 280 06:22 28.01.2020
3922 Clouds -24 996 83 10000 4 280 05:34 28.01.2020
3923 Clouds -23 995 83 10000 4 280 04:40 28.01.2020
3924 Clouds -23 994 83 10000 4 280 03:41 28.01.2020
3925 Clouds -22 994 83 10000 4 280 02:43 28.01.2020
3926 Snow -21 993 83 10000 4 270 02:24 28.01.2020
3927 Snow -22 993 83 10000 4 280 01:50 28.01.2020
3928 Snow -19 992 77 8000 4 280 00:51 28.01.2020
3929 Snow -18 992 84 4400 5 280 00:30 28.01.2020
3930 Snow -18 991 84 3300 5 280 23:59 27.01.2020
3931 Snow -17 991 77 3900 5 280 23:41 27.01.2020
3932 Snow -17 991 77 3900 5 280 23:18 27.01.2020
3933 Snow -16 990 77 7000 4 290 22:44 27.01.2020
3934 Snow -16 990 77 7000 4 290 22:20 27.01.2020
3935 Snow -16 989 84 5000 4 290 21:57 27.01.2020
3936 Snow -16 989 84 1300 4 290 21:38 27.01.2020
3937 Snow -16 989 84 1300 4 290 21:18 27.01.2020
3938 Snow -15 989 84 2400 4 290 20:55 27.01.2020
3939 Snow -14 988 84 2000 3 300 20:37 27.01.2020
3940 Snow -14 988 84 2000 3 300 20:18 27.01.2020
3941 Snow -14 987 92 8000 3 310 19:41 27.01.2020
3942 Snow -14 987 92 8000 3 310 19:23 27.01.2020
3943 Snow -14 987 92 2100 3 330 18:57 27.01.2020
3944 Snow -14 987 92 10000 4 340 18:39 27.01.2020
3945 Snow -14 987 92 10000 4 340 18:39 27.01.2020
3946 Snow -14 987 92 10000 4 340 18:20 27.01.2020
3947 Snow -14 987 92 7000 4 340 17:55 27.01.2020
3948 Clouds -14 986 92 10000 3 360 17:37 27.01.2020
3949 Clouds -14 986 92 10000 3 360 17:18 27.01.2020
3950 Clouds -13 986 84 10000 2 360 16:41 27.01.2020
3951 Clouds -13 986 84 10000 2 360 16:41 27.01.2020
3952 Clouds -13 986 84 10000 2 360 16:23 27.01.2020
3953 Snow -12 986 85 6000 2 360 15:55 27.01.2020
3954 Snow -12 986 92 2300 2 30 15:37 27.01.2020
3955 Snow -12 986 92 2900 2 30 15:18 27.01.2020
3956 Snow -12 986 92 2900 2 30 15:18 27.01.2020
3957 Snow -12 986 92 2900 2 30 14:43 27.01.2020
3958 Snow -12 986 92 2200 3 40 14:22 27.01.2020
3959 Snow -12 986 92 1700 4 50 13:58 27.01.2020
3960 Snow -12 986 92 1800 3 50 13:40 27.01.2020
3961 Snow -12 986 92 1800 3 50 13:20 27.01.2020
3962 Snow -12 986 92 1700 4 50 12:54 27.01.2020
3963 Snow -12 986 92 4300 4 60 12:36 27.01.2020
3964 Snow -12 986 92 4300 4 60 12:18 27.01.2020
3965 Snow -12 986 92 2200 5 70 11:41 27.01.2020
3966 Snow -12 986 92 2200 5 70 11:41 27.01.2020
3967 Snow -12 986 92 2200 5 70 11:20 27.01.2020
3968 Snow -12 986 92 2600 5 70 10:43 27.01.2020
3969 Snow -12 987 92 1900 4 70 10:24 27.01.2020
3970 Snow -12 987 85 3400 4 80 09:56 27.01.2020
3971 Snow -12 987 85 1700 4 70 09:38 27.01.2020
3972 Snow -13 988 92 2000 4 80 09:18 27.01.2020
3973 Snow -13 988 92 2000 4 80 08:42 27.01.2020
3974 Snow -13 988 84 2400 5 80 08:20 27.01.2020
3975 Snow -14 989 92 1400 5 90 07:54 27.01.2020
3976 Snow -14 989 92 1400 5 90 07:54 27.01.2020
3977 Snow -14 989 92 4500 5 90 07:33 27.01.2020
3978 Snow -14 990 84 1300 5 90 06:52 27.01.2020
3979 Snow -15 990 92 3300 5 90 06:24 27.01.2020
3980 Snow -16 991 84 2000 6 90 05:22 27.01.2020
3981 Snow -17 992 84 3200 5 100 03:43 27.01.2020
3982 Snow -19 993 84 10000 5 90 02:36 27.01.2020
3983 Snow -20 994 83 10000 4 90 01:29 27.01.2020
3984 Snow -20 995 83 8000 3 90 00:43 27.01.2020
3985 Snow -20 995 83 6000 4 100 00:23 27.01.2020
3986 Snow -20 996 83 5000 4 100 23:59 26.01.2020
3987 Snow -20 996 83 5000 4 100 23:59 26.01.2020
3988 Snow -21 996 83 10000 4 100 23:41 26.01.2020
3989 Snow -21 996 83 10000 4 100 23:41 26.01.2020
3990 Snow -21 996 83 10000 4 100 23:18 26.01.2020
3991 Snow -21 997 83 5000 3 90 22:54 26.01.2020
3992 Clouds -21 997 83 10000 3 100 22:36 26.01.2020
3993 Clouds -21 997 83 10000 3 100 22:18 26.01.2020
3994 Clouds -20 997 83 10000 4 100 21:54 26.01.2020
3995 Clouds -21 998 83 10000 4 100 21:36 26.01.2020
3996 Clouds -21 998 83 10000 4 100 21:18 26.01.2020
3997 Clouds -21 998 83 10000 4 100 20:54 26.01.2020
3998 Clouds -21 998 83 10000 4 90 20:36 26.01.2020
3999 Clouds -21 998 83 10000 4 90 20:18 26.01.2020
4000 Snow -20 999 83 10000 4 90 19:40 26.01.2020
4001 Snow -20 999 83 10000 4 90 19:21 26.01.2020
4002 Clouds -19 1000 84 10000 3 110 18:59 26.01.2020
4003 Clouds -18 1000 84 10000 3 110 18:39 26.01.2020
4004 Clouds -18 1000 84 10000 3 110 18:21 26.01.2020
4005 Clouds -18 1000 84 10000 3 110 18:21 26.01.2020
4006 Clouds -20 1000 83 10000 3 110 17:57 26.01.2020
4007 Clouds -18 1000 84 9000 3 150 17:38 26.01.2020
4008 Clouds -18 1000 84 9000 3 150 17:18 26.01.2020
4009 Clouds -17 1000 84 10000 2 120 16:57 26.01.2020
4010 Clouds -17 1000 91 10000 3 150 16:39 26.01.2020
4011 Clouds -17 1000 91 10000 3 150 16:20 26.01.2020
4012 Clouds -17 1000 91 10000 3 150 16:20 26.01.2020
4013 Clouds -20 1002 98 0 3.6 147 15:46 26.01.2020
4014 Clouds -20 1002 98 0 3.6 147 15:22 26.01.2020
4015 Clouds -20 1002 98 0 3.6 147 14:58 26.01.2020
4016 Clouds -20 1002 98 0 3.6 147 14:39 26.01.2020
4017 Clouds -20 1002 98 0 3.74 161 14:19 26.01.2020
4018 Clouds -20 1002 98 0 3.74 161 13:41 26.01.2020
4019 Clouds -20 1002 98 0 3.77 160 13:20 26.01.2020
4020 Clouds -20 1002 98 0 3.77 160 12:57 26.01.2020
4021 Clouds -20 1002 98 0 3.77 160 12:38 26.01.2020
4022 Clouds -20 1002 98 0 3.77 160 12:19 26.01.2020
4023 Clouds -20 1002 98 0 3.77 160 11:57 26.01.2020
4024 Clouds -20 1002 98 0 3.77 160 11:37 26.01.2020
4025 Snow -15 999 84 10000 2 140 11:18 26.01.2020
4026 Snow -15 999 84 10000 2 140 10:56 26.01.2020
4027 Snow -15 999 84 10000 2 140 10:38 26.01.2020
4028 Snow -15 999 84 10000 2 140 10:19 26.01.2020
4029 Clouds -15 999 84 10000 3 180 09:56 26.01.2020
4030 Clouds -15 999 84 10000 3 180 09:37 26.01.2020
4031 Clouds -15 999 84 10000 3 180 09:19 26.01.2020
4032 Clouds -16 999 84 10000 3 190 08:41 26.01.2020
4033 Clouds -16 999 84 10000 3 190 08:22 26.01.2020
4034 Snow -16 999 84 10000 3 190 07:50 26.01.2020
4035 Snow -16 999 91 6000 4 190 07:27 26.01.2020
4036 Snow -16 998 84 4400 3 170 06:51 26.01.2020
4037 Clouds -17 998 91 10000 3 180 06:23 26.01.2020
4038 Snow -17 998 84 10000 3 190 05:28 26.01.2020
4039 Clouds -16 997 84 10000 3 190 03:31 26.01.2020
4040 Clouds -18 997 91 10000 3 190 02:38 26.01.2020
4041 Clouds -18 996 91 10000 2 190 01:45 26.01.2020
4042 Clouds -17 996 84 10000 3 190 01:22 26.01.2020
4043 Clouds -17 996 84 10000 2 190 00:42 26.01.2020
4044 Clouds -17 996 91 10000 2 190 00:24 26.01.2020
4045 Clouds -18 998 97 0 3.31 208 23:39 25.01.2020
4046 Clouds -17 997 97 0 3.48 220 23:21 25.01.2020
4047 Clouds -17 997 97 0 3.48 220 22:56 25.01.2020
4048 Clouds -17 997 97 0 3.48 220 22:36 25.01.2020
4049 Clouds -17 997 97 0 3.48 220 22:18 25.01.2020
4050 Clouds -17 997 97 0 3.48 220 21:41 25.01.2020
4051 Clouds -17 997 97 0 3.48 220 21:23 25.01.2020
4052 Clouds -17 997 97 0 3.48 220 20:56 25.01.2020
4053 Clouds -17 997 97 0 3.48 220 20:38 25.01.2020
4054 Clouds -16 996 96 0 3.69 224 20:20 25.01.2020
4055 Clouds -16 996 96 0 3.69 224 19:44 25.01.2020
4056 Clouds -18 996 97 0 3.55 221 19:20 25.01.2020
4057 Clouds -18 996 97 0 3.55 221 18:57 25.01.2020
4058 Clouds -18 996 97 0 3.55 221 18:39 25.01.2020
4059 Clouds -18 996 97 0 3.55 221 18:20 25.01.2020
4060 Clouds -16 996 96 0 3.69 224 17:42 25.01.2020
4061 Clouds -16 995 95 0 3.96 221 17:23 25.01.2020
4062 Clouds -16 995 95 0 3.96 221 16:58 25.01.2020
4063 Clouds -16 995 95 0 3.96 221 16:40 25.01.2020
4064 Clouds -16 995 95 0 3.96 221 16:21 25.01.2020
4065 Clouds -16 995 95 0 3.96 221 15:47 25.01.2020
4066 Clouds -16 995 95 0 3.96 221 15:25 25.01.2020
4067 Clouds -16 995 95 0 3.96 221 14:59 25.01.2020
4068 Clouds -16 995 95 0 3.96 221 14:41 25.01.2020
4069 Clouds -16 994 96 0 3.62 215 14:18 25.01.2020
4070 Clouds -16 994 96 0 3.62 215 13:43 25.01.2020
4071 Clouds -16 994 96 0 3.61 217 13:24 25.01.2020
4072 Snow -12 992 92 4500 2 190 12:46 25.01.2020
4073 Snow -12 992 92 4500 2 190 12:26 25.01.2020
4074 Snow -12 992 92 4500 2 190 11:46 25.01.2020
4075 Snow -12 992 92 10000 2 180 11:22 25.01.2020
4076 Snow -11 991 85 10000 2 190 11:00 25.01.2020
4077 Snow -11 991 92 10000 3 190 10:40 25.01.2020
4078 Snow -11 991 92 10000 3 190 10:21 25.01.2020
4079 Snow -11 991 92 5000 3 190 09:57 25.01.2020
4080 Snow -11 991 92 5000 3 190 09:37 25.01.2020
4081 Snow -11 991 92 5000 3 190 09:18 25.01.2020
4082 Snow -11 991 85 10000 3 200 08:42 25.01.2020
4083 Snow -11 991 85 7000 3 200 07:53 25.01.2020
4084 Snow -12 991 92 10000 3 180 06:57 25.01.2020
4085 Snow -12 991 92 8000 3 190 06:31 25.01.2020
4086 Clouds -12 991 92 10000 3 180 05:50 25.01.2020
4087 Clouds -12 991 92 10000 3 190 05:28 25.01.2020
4088 Clouds -11 991 92 10000 3 200 03:55 25.01.2020
4089 Snow -10 991 92 5000 3 210 03:23 25.01.2020
4090 Snow -10 991 92 3800 3 210 02:23 25.01.2020
4091 Snow -10 991 92 3200 4 210 01:53 25.01.2020
4092 Clouds -9 991 92 10000 4 210 00:52 25.01.2020
4093 Snow -9 991 92 7000 5 200 00:26 25.01.2020
4094 Snow -9 991 92 7000 5 200 00:26 25.01.2020
4095 Snow -9 991 92 7000 4 200 23:59 24.01.2020
4096 Snow -9 991 92 7000 4 200 23:59 24.01.2020
4097 Snow -9 991 92 8000 4 200 23:40 24.01.2020
4098 Snow -9 991 92 8000 4 200 23:40 24.01.2020
4099 Snow -9 991 92 8000 4 200 23:22 24.01.2020
4100 Snow -9 991 92 8000 4 210 22:45 24.01.2020
4101 Snow -9 991 92 3600 4 200 22:25 24.01.2020
4102 Clouds -8 991 92 10000 5 200 21:56 24.01.2020
4103 Clouds -8 991 92 10000 5 210 21:37 24.01.2020
4104 Clouds -8 991 92 10000 5 210 21:18 24.01.2020
4105 Clouds -7 991 85 10000 5 210 20:42 24.01.2020
4106 Clouds -7 991 85 10000 5 210 20:21 24.01.2020
4107 Clouds -7 991 85 10000 4 210 19:57 24.01.2020
4108 Clouds -7 991 85 10000 5 210 19:39 24.01.2020
4109 Clouds -7 991 85 10000 5 210 19:21 24.01.2020
4110 Clouds -7 991 85 10000 6 220 18:43 24.01.2020
4111 Clouds -7 991 85 10000 5 220 18:24 24.01.2020
4112 Clouds -6 991 85 10000 5 210 17:56 24.01.2020
4113 Snow -6 990 85 7000 5 220 17:38 24.01.2020
4114 Snow -6 990 85 7000 5 220 17:18 24.01.2020
4115 Snow -6 990 85 8000 5 230 16:39 24.01.2020
4116 Snow -6 990 85 8000 5 230 16:39 24.01.2020
4117 Snow -6 990 85 8000 5 230 16:21 24.01.2020
4118 Snow -6 990 85 2500 5 220 15:55 24.01.2020
4119 Clouds -6 990 85 10000 5 230 15:37 24.01.2020
4120 Clouds -6 990 85 10000 5 230 15:18 24.01.2020
4121 Clouds -6 989 79 10000 5 230 14:41 24.01.2020
4122 Clouds -6 989 79 10000 5 230 14:22 24.01.2020
4123 Clouds -6 989 85 10000 5 230 13:44 24.01.2020
4124 Snow -6 989 85 7000 6 230 13:23 24.01.2020
4125 Snow -6 989 100 10000 4 220 12:45 24.01.2020
4126 Clouds -6 989 92 10000 5 230 12:23 24.01.2020
4127 Clouds -6 988 92 10000 5 230 11:58 24.01.2020
4128 Clouds -6 988 85 10000 6 230 11:39 24.01.2020
4129 Clouds -6 988 85 10000 6 230 11:18 24.01.2020
4130 Clouds -6 988 85 10000 7 240 10:42 24.01.2020
4131 Clouds -6 988 85 10000 7 240 10:42 24.01.2020
4132 Clouds -6 988 85 10000 7 240 10:21 24.01.2020
4133 Clouds -7 987 85 10000 7 240 09:55 24.01.2020
4134 Clouds -7 987 85 10000 7 240 09:37 24.01.2020
4135 Clouds -7 987 85 10000 7 240 09:18 24.01.2020
4136 Clouds -7 987 85 10000 7 240 09:18 24.01.2020
4137 Snow -6 986 85 9000 7 240 08:39 24.01.2020
4138 Snow -6 986 85 9000 7 240 08:19 24.01.2020
4139 Snow -6 986 85 9000 7 240 07:48 24.01.2020
4140 Snow -6 986 100 1100 4 240 07:24 24.01.2020
4141 Snow -6 986 92 3000 6 240 06:45 24.01.2020
4142 Snow -6 985 92 3000 6 240 06:24 24.01.2020
4143 Snow -5 985 92 2600 6 230 05:37 24.01.2020
4144 Snow -4 984 92 2400 5 230 03:47 24.01.2020
4145 Snow -5 983 100 4000 4 220 02:41 24.01.2020
4146 Snow -5 983 100 4000 4 220 02:22 24.01.2020
4147 Snow -4 983 100 5000 5 230 01:39 24.01.2020
4148 Snow -4 983 100 5000 5 230 00:54 24.01.2020
4149 Snow -4 983 100 2200 4 220 00:19 24.01.2020
4150 Snow -4 983 100 2100 3 200 23:45 23.01.2020
4151 Snow -4 983 100 9000 4 190 23:26 23.01.2020
4152 Snow -4 983 100 9000 4 180 22:59 23.01.2020
4153 Snow -5 983 100 2100 3 150 22:37 23.01.2020
4154 Snow -5 983 100 2100 3 150 22:18 23.01.2020
4155 Snow -5 983 100 9000 3 150 21:55 23.01.2020
4156 Snow -5 983 100 8000 3 150 21:37 23.01.2020
4157 Snow -5 983 100 8000 3 150 21:19 23.01.2020
4158 Snow -5 983 100 6000 3 140 20:55 23.01.2020
4159 Snow -5 983 100 9000 4 150 20:37 23.01.2020
4160 Snow -5 983 100 9000 4 150 20:18 23.01.2020
4161 Snow -5 983 100 2800 3 150 19:44 23.01.2020
4162 Snow -5 984 100 3700 4 150 19:23 23.01.2020
4163 Snow -5 984 100 3600 3 150 18:58 23.01.2020
4164 Snow -5 984 100 3100 3 150 18:39 23.01.2020
4165 Snow -5 984 100 3100 3 150 18:20 23.01.2020
4166 Snow -5 984 100 3200 3 150 17:56 23.01.2020
4167 Snow -5 984 100 4400 3 150 17:37 23.01.2020
4168 Snow -5 984 100 4400 3 150 17:18 23.01.2020
4169 Snow -5 985 100 10000 4 160 16:39 23.01.2020
4170 Snow -5 985 100 10000 4 160 16:20 23.01.2020
4171 Clouds -5 985 100 10000 4 160 15:58 23.01.2020
4172 Snow -5 985 92 9000 4 150 15:40 23.01.2020
4173 Snow -5 985 92 9000 4 150 15:19 23.01.2020
4174 Snow -5 985 92 9000 4 150 14:59 23.01.2020
4175 Clouds -5 986 92 10000 3 150 14:41 23.01.2020
4176 Clouds -5 986 92 10000 3 150 14:22 23.01.2020
4177 Snow -6 986 100 9000 4 160 13:56 23.01.2020
4178 Snow -6 986 100 6000 4 150 13:37 23.01.2020
4179 Snow -6 986 100 6000 4 150 13:18 23.01.2020
4180 Snow -6 986 100 7000 5 150 12:43 23.01.2020
4181 Snow -6 986 100 3400 4 150 12:24 23.01.2020
4182 Snow -6 986 100 7000 5 150 11:56 23.01.2020
4183 Snow -6 986 92 9000 5 150 11:37 23.01.2020
4184 Snow -6 986 92 9000 5 150 11:18 23.01.2020
4185 Snow -5 987 85 8000 5 150 10:43 23.01.2020
4186 Snow -5 987 85 3900 5 150 10:19 23.01.2020
4187 Snow -5 987 92 3500 5 150 09:43 23.01.2020
4188 Snow -5 987 92 3500 5 150 09:25 23.01.2020
4189 Snow -5 988 85 4900 5 150 08:59 23.01.2020
4190 Snow -6 988 92 6000 5 160 08:40 23.01.2020
4191 Snow -6 988 92 6000 5 160 08:21 23.01.2020
4192 Snow -6 988 92 4500 5 150 07:44 23.01.2020
4193 Snow -6 989 92 9000 6 160 07:24 23.01.2020
4194 Clouds -7 989 100 10000 6 160 06:51 23.01.2020
4195 Clouds -7 989 92 10000 5 160 06:22 23.01.2020
4196 Snow -7 989 100 9000 5 160 05:44 23.01.2020
4197 Snow -8 990 100 8000 5 140 04:24 23.01.2020
4198 Clouds -9 991 100 10000 5 160 02:34 23.01.2020
4199 Clouds -9 991 100 10000 5 150 01:19 23.01.2020
4200 Snow -9 992 92 10000 4 160 00:27 23.01.2020
4201 Snow -9 992 92 3900 4 160 23:48 22.01.2020
4202 Clouds -9 993 85 10000 5 160 23:29 22.01.2020
4203 Clouds -9 993 85 10000 4 160 22:59 22.01.2020
4204 Snow -10 993 92 10000 5 170 22:40 22.01.2020
4205 Snow -10 993 92 10000 5 170 22:22 22.01.2020
4206 Snow -10 993 92 9000 5 170 21:40 22.01.2020
4207 Snow -10 993 92 9000 5 170 21:22 22.01.2020
4208 Snow -10 993 85 9000 6 160 20:57 22.01.2020
4209 Snow -10 994 85 9000 6 160 20:37 22.01.2020
4210 Snow -10 994 85 9000 6 160 20:19 22.01.2020
4211 Clouds -11 994 92 10000 5 160 19:56 22.01.2020
4212 Clouds -11 994 85 10000 5 160 19:37 22.01.2020
4213 Clouds -11 994 85 10000 5 160 19:18 22.01.2020
4214 Clouds -12 994 85 10000 5 160 18:56 22.01.2020
4215 Clouds -12 995 85 10000 5 160 18:37 22.01.2020
4216 Clouds -13 996 92 10000 4 160 18:19 22.01.2020
4217 Snow -13 996 92 10000 4 160 17:40 22.01.2020
4218 Snow -13 996 92 10000 4 160 17:21 22.01.2020
4219 Snow -13 996 84 10000 5 160 16:58 22.01.2020
4220 Snow -13 997 92 9000 5 170 16:39 22.01.2020
4221 Snow -13 997 92 9000 5 170 16:21 22.01.2020
4222 Clouds -12 997 85 10000 4 160 15:56 22.01.2020
4223 Clouds -12 997 85 10000 6 170 15:38 22.01.2020
4224 Clouds -12 997 85 10000 6 170 15:19 22.01.2020
4225 Snow -12 998 85 8000 5 160 14:40 22.01.2020
4226 Snow -12 998 85 8000 5 160 14:21 22.01.2020
4227 Clouds -13 998 92 10000 5 160 13:59 22.01.2020
4228 Clouds -12 998 85 10000 5 150 13:38 22.01.2020
4229 Clouds -12 998 85 10000 5 150 13:19 22.01.2020
4230 Clouds -12 999 85 10000 5 160 12:57 22.01.2020
4231 Clouds -12 999 85 10000 4 160 12:39 22.01.2020
4232 Clouds -12 999 85 10000 4 160 12:19 22.01.2020
4233 Clouds -12 999 85 10000 3 160 11:58 22.01.2020
4234 Clouds -12 999 85 10000 5 160 11:39 22.01.2020
4235 Clouds -12 999 85 10000 5 160 11:19 22.01.2020
4236 Clouds -12 999 85 10000 5 160 11:19 22.01.2020
4237 Clouds -12 999 85 10000 5 160 11:19 22.01.2020
4238 Clouds -13 1000 92 10000 5 160 10:54 22.01.2020
4239 Clouds -13 1000 84 10000 5 160 10:36 22.01.2020
4240 Clouds -13 1000 84 10000 5 160 10:18 22.01.2020
4241 Clouds -13 1001 84 10000 5 150 09:41 22.01.2020
4242 Clouds -13 1001 84 10000 5 150 09:23 22.01.2020
4243 Clouds -13 1001 84 10000 5 160 08:56 22.01.2020
4244 Snow -13 1001 84 5000 5 170 08:37 22.01.2020
4245 Snow -13 1001 84 5000 5 170 08:19 22.01.2020
4246 Snow -13 1001 84 5000 5 170 08:19 22.01.2020
4247 Clouds -13 1002 84 10000 4 170 07:44 22.01.2020
4248 Clouds -14 1002 84 10000 5 180 07:26 22.01.2020
4249 Clouds -14 1003 84 10000 6 190 06:37 22.01.2020
4250 Clouds -14 1003 84 10000 6 190 06:18 22.01.2020
4251 Clouds -16 1004 84 10000 5 180 04:27 22.01.2020
4252 Clouds -17 1004 84 10000 4 180 03:27 22.01.2020
4253 Clouds -18 1005 84 10000 5 180 02:48 22.01.2020
4254 Clouds -17 1006 84 10000 6 190 00:48 22.01.2020
4255 Clouds -17 1006 91 10000 5 190 00:28 22.01.2020
4256 Snow -16 1006 91 10000 6 190 23:59 21.01.2020
4257 Snow -15 1006 84 9000 6 180 23:37 21.01.2020
4258 Snow -15 1006 84 9000 6 180 23:19 21.01.2020
4259 Snow -15 1006 77 10000 5 190 22:42 21.01.2020
4260 Snow -15 1006 77 10000 5 190 22:23 21.01.2020
4261 Snow -15 1007 77 8000 5 190 21:58 21.01.2020
4262 Snow -15 1007 77 5000 5 190 21:39 21.01.2020
4263 Snow -15 1007 77 5000 5 190 21:20 21.01.2020
4264 Snow -16 1007 84 7000 5 190 20:57 21.01.2020
4265 Snow -16 1008 84 7000 5 190 20:39 21.01.2020
4266 Snow -16 1008 84 7000 5 190 20:20 21.01.2020
4267 Snow -17 1008 84 5000 5 190 19:58 21.01.2020
4268 Snow -17 1009 77 5000 5 190 19:39 21.01.2020
4269 Snow -17 1009 77 5000 5 190 19:20 21.01.2020
4270 Clouds -16 1009 77 10000 5 200 18:56 21.01.2020
4271 Clouds -16 1009 77 10000 5 190 18:38 21.01.2020
4272 Clouds -16 1009 77 10000 5 190 18:20 21.01.2020
4273 Clouds -17 1009 77 10000 5 180 17:45 21.01.2020
4274 Clouds -18 1010 84 10000 4 180 17:21 21.01.2020
4275 Clouds -18 1010 77 10000 3 200 16:59 21.01.2020
4276 Clouds -18 1011 77 10000 3 200 16:37 21.01.2020
4277 Clouds -18 1011 77 10000 3 200 16:19 21.01.2020
4278 Clouds -18 1011 77 10000 4 190 15:57 21.01.2020
4279 Clouds -18 1011 84 10000 4 190 15:37 21.01.2020
4280 Clouds -18 1011 84 10000 4 190 15:19 21.01.2020
4281 Clouds -18 1012 84 10000 3 190 14:39 21.01.2020
4282 Clear -18 1012 84 10000 3 190 14:20 21.01.2020
4283 Clear -18 1012 84 10000 3 200 13:43 21.01.2020
4284 Clear -19 1012 91 10000 3 200 13:20 21.01.2020
4285 Clouds -19 1012 84 10000 3 210 12:57 21.01.2020
4286 Clear -19 1012 84 10000 3 210 12:39 21.01.2020
4287 Clear -19 1012 84 10000 3 210 12:21 21.01.2020
4288 Clear -18 1012 84 10000 3 220 11:41 21.01.2020
4289 Clear -18 1012 84 10000 3 220 11:22 21.01.2020
4290 Clear -18 1012 84 10000 3 220 11:00 21.01.2020
4291 Clear -18 1012 84 10000 2 210 10:41 21.01.2020
4292 Clear -18 1012 84 10000 2 210 10:22 21.01.2020
4293 Clear -18 1013 84 10000 2 230 09:43 21.01.2020
4294 Clear -18 1013 84 10000 3 250 09:23 21.01.2020
4295 Clear -18 1013 77 10000 3 240 08:56 21.01.2020
4296 Clear -19 1013 84 10000 3 250 08:38 21.01.2020
4297 Clouds -19 1013 84 10000 3 250 08:19 21.01.2020
4298 Clouds -20 1013 91 10000 4 250 07:41 21.01.2020
4299 Clouds -20 1013 91 10000 4 250 07:22 21.01.2020
4300 Clouds -20 1013 83 10000 4 250 06:55 21.01.2020
4301 Clouds -21 1013 83 10000 4 250 06:37 21.01.2020
4302 Clouds -22 1012 83 10000 3 250 05:50 21.01.2020
4303 Clouds -21 1013 83 10000 4 270 04:41 21.01.2020
4304 Clouds -20 1012 83 10000 4 270 03:40 21.01.2020
4305 Clouds -19 1013 84 10000 4 270 02:26 21.01.2020
4306 Snow -18 1012 77 10000 5 280 01:28 21.01.2020
4307 Snow -15 1012 71 10000 6 280 00:40 21.01.2020
4308 Snow -15 1012 77 10000 6 280 23:59 20.01.2020
4309 Clouds -14 1012 71 10000 7 280 23:41 20.01.2020
4310 Clouds -14 1012 71 10000 7 280 23:19 20.01.2020
4311 Clouds -13 1012 71 10000 7 280 22:59 20.01.2020
4312 Snow -13 1012 78 9000 8 280 22:39 20.01.2020
4313 Snow -13 1012 78 9000 8 280 22:21 20.01.2020
4314 Snow -12 1011 78 2400 6 280 21:58 20.01.2020
4315 Snow -12 1011 78 9000 7 280 21:38 20.01.2020
4316 Snow -12 1011 78 9000 7 280 21:19 20.01.2020
4317 Clouds -11 1011 72 10000 7 280 20:57 20.01.2020
4318 Clouds -12 1011 78 10000 7 280 20:38 20.01.2020
4319 Clouds -12 1011 78 10000 7 280 20:19 20.01.2020
4320 Snow -12 1011 78 10000 7 280 19:56 20.01.2020
4321 Snow -12 1011 78 10000 7 280 19:56 20.01.2020
4322 Snow -11 1011 78 10000 8 280 19:38 20.01.2020
4323 Snow -11 1011 78 10000 8 280 19:18 20.01.2020
4324 Clouds -11 1011 78 10000 8 280 18:44 20.01.2020
4325 Clouds -11 1011 78 10000 7 280 18:23 20.01.2020
4326 Clouds -10 1011 78 10000 8 280 17:58 20.01.2020
4327 Clouds -10 1010 78 10000 8 290 17:36 20.01.2020
4328 Clouds -10 1010 78 10000 8 290 17:36 20.01.2020
4329 Clouds -10 1010 78 10000 8 290 17:18 20.01.2020
4330 Clouds -10 1010 72 10000 9 290 16:43 20.01.2020
4331 Clouds -9 1010 72 10000 10 280 16:25 20.01.2020
4332 Clouds -10 1010 78 10000 7 290 15:58 20.01.2020
4333 Clouds -11 1010 78 10000 7 270 15:39 20.01.2020
4334 Clouds -11 1010 78 10000 7 270 15:21 20.01.2020
4335 Clouds -11 1010 78 10000 8 280 14:42 20.01.2020
4336 Clouds -11 1010 78 10000 8 280 14:24 20.01.2020
4337 Clouds -11 1009 78 9000 9 280 13:59 20.01.2020
4338 Clouds -11 1009 85 10000 8 260 13:40 20.01.2020
4339 Clouds -11 1009 85 10000 8 260 13:22 20.01.2020
4340 Snow -11 1009 85 7000 8 270 12:47 20.01.2020
4341 Clouds -12 1009 85 1900 7 270 12:29 20.01.2020
4342 Clouds -12 1009 85 1900 7 270 12:29 20.01.2020
4343 Clouds -12 1010 78 4500 8 250 11:59 20.01.2020
4344 Clouds -13 1010 84 2500 8 250 11:40 20.01.2020
4345 Clouds -13 1010 84 2500 8 250 11:21 20.01.2020
4346 Snow -13 1010 78 10000 7 250 10:57 20.01.2020
4347 Clouds -13 1010 78 10000 7 240 10:39 20.01.2020
4348 Clouds -13 1010 78 10000 7 240 10:19 20.01.2020
4349 Clouds -13 1010 78 10000 7 240 10:19 20.01.2020
4350 Snow -14 1011 84 10000 6 240 09:40 20.01.2020
4351 Snow -14 1011 84 10000 6 240 09:40 20.01.2020
4352 Snow -14 1011 84 10000 6 240 09:20 20.01.2020
4353 Snow -14 1012 77 10000 5 240 08:46 20.01.2020
4354 Clouds -14 1012 77 10000 5 250 08:28 20.01.2020
4355 Clouds -15 1013 84 10000 6 250 07:46 20.01.2020
4356 Clouds -15 1013 84 10000 6 250 07:26 20.01.2020
4357 Clouds -15 1013 84 10000 4 250 06:54 20.01.2020
4358 Clouds -15 1013 84 10000 5 250 06:28 20.01.2020
4359 Clouds -15 1013 84 10000 5 250 05:43 20.01.2020
4360 Clouds -15 1013 84 10000 5 250 05:43 20.01.2020
4361 Clouds -16 1013 84 10000 5 260 05:23 20.01.2020
4362 Clouds -16 1014 84 10000 5 260 04:48 20.01.2020
4363 Clouds -19 1014 91 10000 5 260 02:58 20.01.2020
4364 Clouds -19 1014 91 10000 5 260 02:58 20.01.2020
4365 Snow -18 1014 84 10000 5 250 01:55 20.01.2020
4366 Snow -18 1014 84 2400 5 250 01:37 20.01.2020
4367 Snow -18 1014 84 2400 5 250 00:45 20.01.2020
4368 Clouds -18 1014 84 10000 6 260 00:24 20.01.2020
4369 Clouds -20 1014 83 10000 6 280 23:39 19.01.2020
4370 Clouds -20 1014 83 10000 6 280 23:20 19.01.2020
4371 Clouds -19 1014 84 10000 6 280 22:57 19.01.2020
4372 Clouds -18 1015 84 10000 6 280 22:39 19.01.2020
4373 Clouds -18 1015 84 10000 6 280 22:39 19.01.2020
4374 Clouds -18 1015 84 10000 6 280 22:20 19.01.2020
4375 Clouds -18 1015 84 10000 6 280 22:20 19.01.2020
4376 Clouds -19 1015 84 10000 5 280 21:57 19.01.2020
4377 Clouds -20 1014 83 10000 5 280 21:38 19.01.2020
4378 Clouds -20 1014 83 10000 5 280 21:20 19.01.2020
4379 Snow -18 1014 77 7000 6 280 20:57 19.01.2020
4380 Snow -19 1014 84 8000 6 280 20:39 19.01.2020
4381 Snow -19 1014 84 8000 6 280 20:20 19.01.2020
4382 Clouds -19 1014 77 10000 6 280 19:57 19.01.2020
4383 Clouds -20 1014 76 10000 5 280 19:39 19.01.2020
4384 Clouds -20 1014 76 10000 5 280 19:20 19.01.2020
4385 Clouds -22 1014 83 10000 5 260 18:57 19.01.2020
4386 Clouds -22 1014 83 10000 5 260 18:39 19.01.2020
4387 Clouds -22 1014 83 10000 5 260 18:20 19.01.2020
4388 Clouds -22 1015 83 10000 5 270 17:58 19.01.2020
4389 Clouds -22 1015 83 10000 5 270 17:58 19.01.2020
4390 Clouds -21 1015 76 10000 6 270 17:40 19.01.2020
4391 Clear -21 1015 76 10000 6 270 17:21 19.01.2020
4392 Clear -21 1015 76 10000 7 280 16:59 19.01.2020
4393 Clear -22 1015 83 10000 7 280 16:39 19.01.2020
4394 Clear -22 1015 83 10000 7 280 16:21 19.01.2020
4395 Clear -22 1015 76 10000 7 280 15:58 19.01.2020
4396 Clear -22 1015 76 10000 6 280 15:39 19.01.2020
4397 Clear -22 1015 76 10000 6 280 15:20 19.01.2020
4398 Clear -22 1015 76 10000 6 270 14:58 19.01.2020
4399 Clouds -21 1015 76 10000 6 260 14:39 19.01.2020
4400 Clouds -21 1015 76 10000 6 260 14:18 19.01.2020
4401 Clouds -22 1015 83 10000 3 240 13:57 19.01.2020
4402 Clouds -22 1015 83 10000 5 250 13:38 19.01.2020
4403 Clouds -22 1015 83 10000 5 250 13:19 19.01.2020
4404 Clouds -22 1015 76 10000 5 250 12:55 19.01.2020
4405 Clear -22 1015 76 10000 5 250 12:37 19.01.2020
4406 Clear -22 1015 76 10000 5 250 12:19 19.01.2020
4407 Clear -23 1015 83 10000 5 280 11:42 19.01.2020
4408 Clear -23 1015 83 10000 5 280 11:20 19.01.2020
4409 Clear -22 1015 76 10000 6 290 10:56 19.01.2020
4410 Clear -22 1015 76 10000 6 290 10:56 19.01.2020
4411 Clear -22 1015 76 10000 5 290 10:38 19.01.2020
4412 Clear -21 1014 70 10000 5 300 10:19 19.01.2020
4413 Clear -21 1014 70 10000 5 300 09:55 19.01.2020
4414 Clear -21 1014 70 10000 5 300 09:55 19.01.2020
4415 Clear -21 1014 70 10000 5 300 09:55 19.01.2020
4416 Clear -21 1014 70 10000 5 300 09:55 19.01.2020
4417 Clear -21 1014 70 10000 6 320 09:36 19.01.2020
4418 Clear -21 1014 70 10000 6 320 09:18 19.01.2020
4419 Clear -21 1013 70 10000 6 310 08:44 19.01.2020
4420 Clear -21 1013 70 10000 6 320 08:26 19.01.2020
4421 Clouds -21 1013 70 10000 7 330 07:42 19.01.2020
4422 Clouds -20 1012 70 10000 7 330 07:22 19.01.2020
4423 Clouds -20 1011 70 10000 8 330 06:53 19.01.2020
4424 Clouds -18 1011 77 10000 7 330 06:21 19.01.2020
4425 Clouds -17 1007 84 10000 7 310 02:44 19.01.2020
4426 Snow -17 1006 84 7000 6 320 02:21 19.01.2020
4427 Clouds -17 1005 84 10000 6 310 01:25 19.01.2020
4428 Clouds -17 1004 91 10000 5 310 00:50 19.01.2020
4429 Clouds -17 1004 91 10000 5 310 00:29 19.01.2020
4430 Clouds -17 1004 91 10000 5 310 23:58 18.01.2020
4431 Clouds -16 1004 84 10000 4 310 23:40 18.01.2020
4432 Clouds -16 1004 84 10000 5 300 23:21 18.01.2020
4433 Clouds -16 1004 84 10000 5 300 22:55 18.01.2020
4434 Clouds -16 1003 84 10000 5 290 22:37 18.01.2020
4435 -273 0 0 0 0 0 22:37 18.01.2020
4436 Clouds -16 1003 84 10000 5 290 22:19 18.01.2020
4437 Clouds -15 1003 84 10000 4 290 21:57 18.01.2020
4438 Snow -16 1003 91 7000 4 290 21:37 18.01.2020
4439 Snow -16 1003 91 7000 4 290 21:37 18.01.2020
4440 Snow -16 1003 91 7000 4 290 21:19 18.01.2020
4441 Clouds -15 1003 84 10000 5 290 20:43 18.01.2020
4442 Snow -13 1003 84 4200 4 280 20:21 18.01.2020
4443 Snow -13 1003 84 4200 4 280 19:57 18.01.2020
4444 Snow -13 1003 92 2200 5 280 19:39 18.01.2020
4445 Snow -13 1003 92 2200 5 280 19:39 18.01.2020
4446 Snow -13 1003 92 2200 5 280 19:21 18.01.2020
4447 Snow -12 1003 85 4000 3 250 18:42 18.01.2020
4448 Snow -12 1003 85 2700 3 240 18:21 18.01.2020
4449 Snow -12 1003 85 1800 3 230 17:55 18.01.2020
4450 Snow -12 1004 85 2300 3 220 17:37 18.01.2020
4451 Snow -12 1004 85 2300 3 220 17:18 18.01.2020
4452 Snow -12 1004 85 3300 5 210 16:42 18.01.2020
4453 Snow -12 1004 85 3300 5 210 16:24 18.01.2020
4454 Snow -12 1005 85 3000 5 220 15:59 18.01.2020
4455 Snow -12 1005 85 1700 5 210 15:41 18.01.2020
4456 Snow -12 1005 85 1700 5 210 15:22 18.01.2020
4457 Snow -12 1005 78 4000 5 200 14:54 18.01.2020
4458 Snow -12 1005 72 9000 4 190 14:36 18.01.2020
4459 Snow -12 1005 72 9000 4 190 14:18 18.01.2020
4460 Clouds -12 1006 72 10000 4 210 13:43 18.01.2020
4461 Clouds -12 1007 72 10000 4 210 13:24 18.01.2020
4462 Clouds -12 1007 72 10000 3 210 12:56 18.01.2020
4463 Clouds -12 1008 72 10000 4 220 12:38 18.01.2020
4464 Clouds -12 1008 72 10000 4 220 12:19 18.01.2020
4465 Clouds -12 1008 72 10000 5 210 11:44 18.01.2020
4466 Snow -12 1008 72 10000 6 210 11:21 18.01.2020
4467 Snow -12 1009 72 10000 7 230 10:56 18.01.2020
4468 Snow -12 1009 72 10000 6 230 10:38 18.01.2020
4469 Snow -12 1009 72 10000 6 230 10:18 18.01.2020
4470 Snow -12 1009 72 10000 6 230 10:18 18.01.2020
4471 Snow -12 1009 72 10000 6 230 09:42 18.01.2020
4472 Snow -13 1009 78 10000 6 220 09:20 18.01.2020
4473 Snow -13 1010 71 10000 5 230 08:55 18.01.2020
4474 Snow -14 1010 77 10000 5 230 08:37 18.01.2020
4475 Snow -14 1010 77 10000 5 230 08:18 18.01.2020
4476 Clouds -15 1010 77 10000 5 220 07:40 18.01.2020
4477 Clouds -16 1010 84 10000 5 230 07:21 18.01.2020
4478 Clouds -17 1010 84 10000 5 240 06:45 18.01.2020
4479 Snow -17 1010 84 8000 5 230 05:53 18.01.2020
4480 Clouds -18 1010 84 10000 5 230 04:28 18.01.2020
4481 Clouds -18 1010 91 10000 5 250 02:49 18.01.2020
4482 Clouds -18 1010 91 10000 5 240 01:47 18.01.2020
4483 Clouds -18 1009 84 10000 5 250 00:40 18.01.2020
4484 Clouds -18 1009 84 10000 5 250 00:21 18.01.2020
4485 Clouds -19 1009 84 10000 4 250 23:59 17.01.2020
4486 Clouds -19 1009 84 10000 5 250 23:40 17.01.2020
4487 Clear -19 1009 84 10000 5 250 23:18 17.01.2020
4488 Clear -19 1009 84 10000 5 250 22:42 17.01.2020
4489 Clear -19 1009 84 10000 5 250 22:20 17.01.2020
4490 Clear -18 1009 77 10000 6 250 21:57 17.01.2020
4491 Clear -19 1008 84 10000 5 250 21:38 17.01.2020
4492 Clear -19 1008 84 10000 5 250 21:20 17.01.2020
4493 Clear -19 1008 84 10000 4 250 20:55 17.01.2020
4494 Clouds -19 1008 84 10000 5 250 20:36 17.01.2020
4495 Clouds -19 1008 84 10000 5 250 20:18 17.01.2020
4496 Clear -21 1008 83 10000 5 280 19:54 17.01.2020
4497 Clear -21 1007 83 10000 5 280 19:36 17.01.2020
4498 Clear -21 1007 83 10000 5 280 19:18 17.01.2020
4499 Clear -20 1007 76 10000 5 280 18:41 17.01.2020
4500 Clear -20 1007 76 10000 5 280 18:23 17.01.2020
4501 Clear -19 1007 77 10000 5 290 17:54 17.01.2020
4502 Clear -19 1006 77 10000 6 290 17:36 17.01.2020
4503 Clear -19 1006 77 10000 6 290 17:18 17.01.2020
4504 Clear -18 1005 70 10000 5 310 16:41 17.01.2020
4505 Clear -18 1005 70 10000 5 310 16:19 17.01.2020
4506 Clear -17 1005 64 10000 7 310 15:48 17.01.2020
4507 Clear -17 1004 64 10000 6 320 15:26 17.01.2020
4508 Clear -17 1003 64 10000 8 320 14:54 17.01.2020
4509 Clear -17 1002 70 10000 8 320 14:36 17.01.2020
4510 Snow -17 1002 70 10000 8 320 14:18 17.01.2020
4511 Snow -17 1002 70 10000 8 320 14:18 17.01.2020
4512 Snow -15 1000 65 10000 8 320 13:38 17.01.2020
4513 Snow -15 1000 65 10000 8 320 13:19 17.01.2020
4514 Snow -14 999 65 10000 10 320 12:45 17.01.2020
4515 Snow -13 998 71 9000 9 330 12:22 17.01.2020
4516 Snow -11 995 78 2600 8 330 11:40 17.01.2020
4517 Snow -11 995 78 2600 8 330 11:19 17.01.2020
4518 Clouds -11 994 85 1600 9 330 10:45 17.01.2020
4519 Clouds -11 992 85 1100 9 330 10:23 17.01.2020
4520 Clouds -10 991 78 2000 10 330 09:59 17.01.2020
4521 Clouds -10 991 78 2000 10 330 09:59 17.01.2020
4522 Clouds -10 990 85 1500 10 330 09:41 17.01.2020
4523 Clouds -10 990 85 1500 10 330 09:20 17.01.2020
4524 Clouds -10 990 85 1500 10 330 09:20 17.01.2020
4525 Clouds -8 989 92 1800 10 330 08:46 17.01.2020
4526 Snow -4 987 92 1800 8 310 08:25 17.01.2020
4527 Snow -4 987 92 1800 8 310 08:25 17.01.2020
4528 Snow -4 987 100 1400 6 290 07:56 17.01.2020
4529 Snow -4 987 100 1400 6 290 07:56 17.01.2020
4530 Snow -4 986 100 2400 7 290 07:34 17.01.2020
4531 Clouds -5 985 100 10000 6 280 06:59 17.01.2020
4532 Snow -5 985 100 7000 5 280 06:41 17.01.2020
4533 Snow -6 985 100 10000 4 270 05:57 17.01.2020
4534 Snow -5 984 96 0 2.51 222 03:39 17.01.2020
4535 Snow -5 984 96 0 2.51 222 02:55 17.01.2020
4536 Snow -6 986 95 0 4.27 212 01:48 17.01.2020
4537 Snow -6 986 95 0 4.23 211 01:30 17.01.2020
4538 Snow -6 986 95 0 4.23 211 00:55 17.01.2020
4539 Snow -6 986 100 9000 4 190 00:28 17.01.2020
4540 Snow -6 986 100 9000 4 190 23:46 16.01.2020
4541 Snow -6 986 100 9000 4 190 23:26 16.01.2020
4542 Clouds -6 986 100 10000 4 190 22:58 16.01.2020
4543 Clouds -6 987 100 10000 4 190 22:40 16.01.2020
4544 Clouds -6 987 100 10000 5 190 22:21 16.01.2020
4545 Clouds -6 987 100 10000 5 190 21:55 16.01.2020
4546 Snow -6 987 100 7000 4 190 21:37 16.01.2020
4547 Snow -6 987 100 7000 4 190 21:18 16.01.2020
4548 Snow -6 988 100 3200 5 190 20:56 16.01.2020
4549 Snow -6 988 100 3000 5 190 20:36 16.01.2020
4550 Snow -6 988 100 3000 5 190 20:18 16.01.2020
4551 Snow -6 988 100 3500 5 190 20:18 16.01.2020
4552 Snow -6 989 92 5000 5 190 19:41 16.01.2020
4553 Snow -6 989 92 5000 5 190 19:23 16.01.2020
4554 Snow -6 989 100 2200 6 190 18:58 16.01.2020
4555 Snow -7 990 100 3300 5 190 18:39 16.01.2020
4556 Snow -7 990 100 3300 5 190 18:21 16.01.2020
4557 Snow -7 990 100 6000 5 190 17:59 16.01.2020
4558 Snow -7 991 92 4400 5 190 17:41 16.01.2020
4559 Snow -7 991 92 4400 5 190 17:41 16.01.2020
4560 Snow -7 991 92 4400 5 190 17:21 16.01.2020
4561 Snow -7 991 100 2200 5 190 16:56 16.01.2020
4562 Snow -7 992 92 2800 6 190 16:36 16.01.2020
4563 Snow -7 992 92 1900 5 190 16:18 16.01.2020
4564 Snow -8 993 100 2500 5 190 15:42 16.01.2020
4565 Snow -8 993 100 2500 5 190 15:21 16.01.2020
4566 Snow -8 994 100 3500 5 190 14:55 16.01.2020
4567 Snow -8 994 100 1600 6 190 14:37 16.01.2020
4568 Snow -8 994 100 1600 6 190 14:18 16.01.2020
4569 Snow -9 995 100 1600 5 190 13:43 16.01.2020
4570 Snow -9 995 100 2500 5 190 13:24 16.01.2020
4571 Snow -10 996 100 5000 5 190 12:45 16.01.2020
4572 Snow -10 996 100 5000 5 190 12:27 16.01.2020
4573 Snow -10 997 92 2300 6 190 11:55 16.01.2020
4574 Snow -10 997 92 5000 7 190 11:37 16.01.2020
4575 Snow -10 997 92 5000 7 190 11:19 16.01.2020
4576 Snow -10 998 85 7000 6 190 10:39 16.01.2020
4577 Snow -10 998 85 7000 6 190 10:20 16.01.2020
4578 Snow -11 999 92 8000 7 190 09:57 16.01.2020
4579 Snow -11 1000 92 8000 6 190 09:38 16.01.2020
4580 Snow -11 1000 92 8000 6 190 09:19 16.01.2020
4581 Snow -11 1000 92 4500 5 190 08:51 16.01.2020
4582 Snow -12 1001 92 7000 5 180 08:30 16.01.2020
4583 Snow -12 1001 92 6000 6 180 07:58 16.01.2020
4584 Snow -13 1002 100 3500 6 180 07:38 16.01.2020
4585 Snow -13 1002 100 3500 6 180 07:19 16.01.2020
4586 Snow -14 1003 92 9000 6 180 06:42 16.01.2020
4587 Snow -14 1004 92 3500 5 190 05:59 16.01.2020
4588 Clouds -14 1004 92 10000 6 180 05:40 16.01.2020
4589 Clouds -14 1006 92 10000 4 180 04:37 16.01.2020
4590 Clouds -14 1006 92 10000 4 180 04:37 16.01.2020
4591 Clouds -14 1006 92 10000 4 180 04:37 16.01.2020
4592 Clouds -15 1007 92 10000 5 180 03:28 16.01.2020
4593 Clouds -15 1007 92 10000 5 180 02:42 16.01.2020
4594 Clouds -18 1010 91 10000 3 190 00:53 16.01.2020
4595 Clouds -18 1010 84 10000 3 190 00:24 16.01.2020
4596 Clouds -19 1010 91 10000 3 190 23:50 15.01.2020
4597 Clouds -18 1010 84 10000 3 190 23:50 15.01.2020
4598 Clouds -19 1010 91 10000 3 190 23:23 15.01.2020
4599 Clouds -19 1010 84 10000 3 190 22:58 15.01.2020
4600 Clouds -21 1011 83 10000 2 190 22:40 15.01.2020
4601 Clouds -21 1011 83 10000 2 190 22:19 15.01.2020
4602 Clear -22 1011 76 10000 2 200 21:58 15.01.2020
4603 Clear -22 1011 83 10000 2 230 21:40 15.01.2020
4604 Clear -22 1011 83 10000 2 230 21:21 15.01.2020
4605 Clouds -23 1011 83 10000 2 210 20:58 15.01.2020
4606 Clouds -23 1011 83 10000 2 210 20:58 15.01.2020
4607 Clouds -24 1011 83 10000 2 220 20:40 15.01.2020
4608 Clouds -24 1011 83 10000 2 220 20:21 15.01.2020
4609 Clear -24 1012 83 10000 2 230 19:55 15.01.2020
4610 Clear -24 1012 83 10000 2 220 19:37 15.01.2020
4611 Clear -24 1012 83 10000 2 220 19:19 15.01.2020
4612 Clear -25 1012 75 10000 1 210 18:57 15.01.2020
4613 Clear -24 1012 83 10000 3 250 18:38 15.01.2020
4614 Clear -25 1012 83 10000 3 250 18:20 15.01.2020
4615 Clear -25 1012 83 10000 3 250 17:58 15.01.2020
4616 Clear -24 1012 76 10000 1 0 17:39 15.01.2020
4617 Clear -24 1012 76 10000 1 0 17:20 15.01.2020
4618 Clear -25 1013 83 10000 2 280 16:42 15.01.2020
4619 Clear -25 1013 83 10000 2 280 16:23 15.01.2020
4620 Clear -25 1012 83 10000 3 260 15:59 15.01.2020
4621 Clear -25 1013 83 10000 3 280 15:41 15.01.2020
4622 Clear -25 1013 83 10000 3 280 15:20 15.01.2020
4623 Clear -25 1012 83 10000 3 280 14:44 15.01.2020
4624 Clouds -23 1012 83 10000 1 0 14:21 15.01.2020
4625 Clouds -24 1012 83 10000 2 280 13:56 15.01.2020
4626 Clouds -24 1012 83 10000 2 280 13:38 15.01.2020
4627 Clouds -24 1012 83 10000 2 280 13:20 15.01.2020
4628 Clouds -23 1011 83 10000 4 280 12:55 15.01.2020
4629 Clouds -22 1011 83 10000 3 290 12:36 15.01.2020
4630 Clouds -22 1011 83 10000 3 290 12:18 15.01.2020
4631 Clouds -20 1010 83 10000 3 290 11:38 15.01.2020
4632 Clouds -20 1010 83 10000 3 290 11:20 15.01.2020
4633 Clouds -19 1010 84 10000 4 290 10:47 15.01.2020
4634 Clouds -19 1010 84 10000 2 290 10:28 15.01.2020
4635 Clouds -18 1009 84 10000 3 290 09:58 15.01.2020
4636 Clouds -18 1009 77 10000 2 280 09:39 15.01.2020
4637 Clouds -18 1009 77 10000 2 280 09:19 15.01.2020
4638 Clouds -18 1009 84 10000 3 290 08:44 15.01.2020
4639 Clouds -17 1009 84 10000 2 300 08:24 15.01.2020
4640 Clouds -17 1008 84 10000 3 280 07:54 15.01.2020
4641 Clouds -16 1008 84 10000 3 300 07:33 15.01.2020
4642 Clouds -16 1008 84 10000 2 320 06:52 15.01.2020
4643 Clouds -15 1008 84 10000 2 330 06:28 15.01.2020
4644 Clouds -14 1007 92 10000 1 0 04:56 15.01.2020
4645 Snow -13 1006 92 10000 3 350 02:48 15.01.2020
4646 Clouds -12 1005 92 10000 3 340 01:48 15.01.2020
4647 Clouds -12 1005 92 10000 3 350 01:20 15.01.2020
4648 Clouds -10 1004 92 10000 3 340 00:37 15.01.2020
4649 Clouds -10 1004 92 10000 3 340 00:19 15.01.2020
4650 Snow -10 1004 100 10000 2 360 23:46 14.01.2020
4651 Snow -10 1004 100 9000 3 350 23:24 14.01.2020
4652 Clouds -9 1003 92 10000 3 350 22:56 14.01.2020
4653 Clouds -9 1003 100 10000 3 340 22:38 14.01.2020
4654 Clouds -9 1003 100 10000 3 340 22:18 14.01.2020
4655 Clouds -9 1003 100 10000 3 350 21:55 14.01.2020
4656 Clouds -8 1002 100 10000 3 350 21:37 14.01.2020
4657 Clouds -7 1002 100 9000 5 340 21:19 14.01.2020
4658 Snow -4 1001 100 1900 2 230 20:42 14.01.2020
4659 Snow -4 1001 100 1900 2 230 20:42 14.01.2020
4660 Snow -4 1001 100 1900 2 230 20:22 14.01.2020
4661 Snow -4 1001 100 1900 2 230 19:57 14.01.2020
4662 Snow -4 1001 100 3200 2 230 19:38 14.01.2020
4663 Snow -4 1001 100 3200 2 230 19:20 14.01.2020
4664 Snow -4 1001 100 3200 2 230 19:20 14.01.2020
4665 Snow -4 1001 100 4500 2 240 18:58 14.01.2020
4666 Mist -4 1000 100 3100 2 240 18:39 14.01.2020
4667 Mist -4 1000 100 3100 2 240 18:19 14.01.2020
4668 Mist -4 1000 100 3100 2 240 18:19 14.01.2020
4669 Mist -4 1000 100 3300 2 240 17:39 14.01.2020
4670 Mist -4 1000 100 3300 2 240 17:19 14.01.2020
4671 Mist -4 1000 100 2300 3 240 16:59 14.01.2020
4672 Mist -4 999 100 2700 3 230 16:41 14.01.2020
4673 Mist -4 999 100 2700 3 230 16:21 14.01.2020
4674 Mist -4 999 100 3100 3 230 15:55 14.01.2020
4675 Mist -4 999 100 4700 3 220 15:37 14.01.2020
4676 Mist -4 999 100 4700 3 220 15:18 14.01.2020
4677 Clouds -4 999 100 10000 3 220 14:43 14.01.2020
4678 Clouds -4 998 100 10000 3 220 14:20 14.01.2020
4679 Clouds -4 998 100 10000 3 220 13:43 14.01.2020
4680 Snow -4 997 100 10000 3 220 13:20 14.01.2020
4681 Snow -5 997 100 10000 3 210 12:59 14.01.2020
4682 Snow -5 997 100 10000 3 210 12:40 14.01.2020
4683 Snow -5 997 100 10000 3 210 12:20 14.01.2020
4684 Snow -5 996 100 8000 3 210 11:42 14.01.2020
4685 Snow -5 996 100 8000 3 210 11:23 14.01.2020
4686 Snow -5 995 100 9000 4 210 10:58 14.01.2020
4687 Snow -5 995 100 10000 4 210 10:39 14.01.2020
4688 Snow -5 995 100 10000 4 210 10:19 14.01.2020
4689 Snow -5 995 100 10000 4 210 10:19 14.01.2020
4690 Snow -5 995 100 10000 4 210 09:56 14.01.2020
4691 Snow -5 995 100 9000 4 210 09:38 14.01.2020
4692 Snow -5 995 100 9000 4 210 09:20 14.01.2020
4693 Snow -6 994 100 8000 4 200 08:42 14.01.2020
4694 Snow -6 994 100 8000 4 200 08:23 14.01.2020
4695 Snow -6 994 100 10000 4 200 07:53 14.01.2020
4696 Snow -6 994 100 9000 5 200 07:31 14.01.2020
4697 Snow -6 993 100 10000 5 200 06:50 14.01.2020
4698 Snow -6 993 100 8000 5 200 06:23 14.01.2020
4699 Snow -6 993 100 9000 4 200 05:21 14.01.2020
4700 Snow -6 992 100 10000 4 200 03:51 14.01.2020
4701 Snow -6 991 92 9000 5 200 02:42 14.01.2020
4702 Snow -6 991 100 10000 5 200 01:35 14.01.2020
4703 Snow -6 991 100 10000 5 200 00:49 14.01.2020
4704 Snow -6 991 100 10000 5 200 00:28 14.01.2020
4705 Snow -6 991 100 9000 5 200 23:48 13.01.2020
4706 Snow -6 990 100 4100 5 200 23:20 13.01.2020
4707 Snow -6 990 100 2100 5 200 23:00 13.01.2020
4708 Snow -6 990 100 3800 6 200 22:40 13.01.2020
4709 Snow -6 990 100 3800 6 200 22:20 13.01.2020
4710 Snow -6 990 100 3100 6 200 21:56 13.01.2020
4711 Snow -6 990 100 5000 6 200 21:37 13.01.2020
4712 Snow -6 990 100 5000 6 200 21:18 13.01.2020
4713 Snow -6 990 100 4400 5 200 20:57 13.01.2020
4714 Snow -6 990 100 4400 5 200 20:57 13.01.2020
4715 Snow -6 990 100 3100 6 200 20:38 13.01.2020
4716 Snow -6 990 100 3100 6 200 20:20 13.01.2020
4717 Snow -6 990 100 2200 5 200 19:56 13.01.2020
4718 Snow -6 990 100 1900 5 200 19:38 13.01.2020
4719 Snow -6 990 92 7000 5 200 19:18 13.01.2020
4720 Snow -6 990 92 7000 5 200 18:56 13.01.2020
4721 Snow -6 990 92 7000 5 200 18:56 13.01.2020
4722 Snow -6 990 92 2600 6 200 18:37 13.01.2020
4723 Snow -6 990 85 8000 6 200 18:18 13.01.2020
4724 Snow -7 991 92 9000 6 190 17:40 13.01.2020
4725 Snow -7 991 92 9000 6 190 17:40 13.01.2020
4726 Snow -7 991 92 9000 6 190 17:22 13.01.2020
4727 Snow -7 991 92 9000 6 190 16:56 13.01.2020
4728 Snow -9 993 92 0 7.23 202 16:37 13.01.2020
4729 Snow -9 993 92 0 7.23 202 16:19 13.01.2020
4730 Snow -9 993 92 0 7.23 202 15:43 13.01.2020
4731 Snow -9 993 92 0 7.23 202 15:23 13.01.2020
4732 Snow -9 993 92 0 7.23 202 14:57 13.01.2020
4733 Snow -9 993 92 0 7.23 202 14:37 13.01.2020
4734 Snow -9 994 93 0 7.97 194 14:18 13.01.2020
4735 Snow -9 994 93 0 7.97 194 13:41 13.01.2020
4736 Snow -9 995 93 0 7.87 192 13:23 13.01.2020
4737 Snow -7 993 85 2200 6 190 12:58 13.01.2020
4738 Snow -7 993 85 2200 6 190 12:40 13.01.2020
4739 Snow -7 993 85 2200 6 190 12:22 13.01.2020
4740 Snow -7 993 85 2200 6 190 11:56 13.01.2020
4741 Snow -7 993 85 7000 6 190 11:37 13.01.2020
4742 Snow -7 993 85 7000 6 190 11:18 13.01.2020
4743 Snow -7 993 85 8000 7 190 10:55 13.01.2020
4744 Snow -8 993 92 4400 7 180 10:36 13.01.2020
4745 Snow -8 993 92 4400 7 180 10:18 13.01.2020
4746 Clouds -8 994 92 2100 7 180 09:42 13.01.2020
4747 Clouds -8 994 92 2100 7 180 09:23 13.01.2020
4748 Clouds -8 995 92 10000 7 170 08:44 13.01.2020
4749 Clouds -8 995 92 10000 7 170 08:22 13.01.2020
4750 Snow -8 996 92 8000 7 180 07:59 13.01.2020
4751 Snow -8 996 92 8000 7 180 07:59 13.01.2020
4752 Snow -8 997 92 9000 7 180 07:40 13.01.2020
4753 Snow -8 997 92 9000 7 180 07:18 13.01.2020
4754 Snow -8 998 92 10000 6 190 06:37 13.01.2020
4755 Snow -8 998 92 10000 6 190 06:37 13.01.2020
4756 Snow -8 999 92 10000 5 180 05:36 13.01.2020
4757 Snow -9 999 100 9000 5 180 04:26 13.01.2020
4758 Snow -9 1000 100 10000 3 190 03:35 13.01.2020
4759 Snow -10 1000 100 10000 4 200 02:49 13.01.2020
4760 Snow -10 1001 100 10000 4 200 02:30 13.01.2020
4761 Snow -10 1001 100 10000 4 200 02:30 13.01.2020
4762 Snow -10 1001 92 9000 5 200 01:33 13.01.2020
4763 Snow -10 1002 92 9000 5 200 00:44 13.01.2020
4764 Snow -10 1002 85 8000 5 200 00:25 13.01.2020
4765 Snow -10 1002 92 9000 4 200 23:57 12.01.2020
4766 Snow -10 1002 85 9000 4 200 23:38 12.01.2020
4767 Snow -10 1002 85 9000 4 200 23:20 12.01.2020
4768 Snow -10 1002 85 5000 4 220 22:43 12.01.2020
4769 Snow -10 1002 85 5000 4 220 22:24 12.01.2020
4770 Snow -10 1002 85 3900 5 230 21:59 12.01.2020
4771 Snow -10 1002 85 3900 5 230 21:59 12.01.2020
4772 Snow -10 1002 92 6000 4 210 21:40 12.01.2020
4773 Snow -10 1002 92 6000 4 210 21:20 12.01.2020
4774 Clouds -10 1002 92 10000 5 210 20:57 12.01.2020
4775 Clouds -10 1003 92 10000 4 200 20:39 12.01.2020
4776 Clouds -10 1003 92 10000 4 200 20:20 12.01.2020
4777 Snow -10 1003 92 7000 4 200 19:56 12.01.2020
4778 Snow -10 1003 92 9000 3 210 19:38 12.01.2020
4779 Snow -10 1003 92 9000 3 210 19:19 12.01.2020
4780 Snow -10 1003 92 10000 4 210 18:58 12.01.2020
4781 Snow -10 1003 92 10000 4 210 18:58 12.01.2020
4782 Snow -10 1003 92 10000 4 210 18:40 12.01.2020
4783 Snow -10 1003 92 10000 4 210 18:21 12.01.2020
4784 Snow -10 1003 92 10000 4 200 17:58 12.01.2020
4785 Snow -10 1003 92 10000 4 200 17:38 12.01.2020
4786 Snow -10 1003 92 10000 4 200 17:19 12.01.2020
4787 Snow -10 1004 92 10000 4 210 16:55 12.01.2020
4788 Snow -10 1004 92 10000 3 210 16:37 12.01.2020
4789 Snow -10 1004 92 10000 3 210 16:19 12.01.2020
4790 Snow -10 1004 92 9000 4 210 15:42 12.01.2020
4791 Snow -10 1004 92 9000 4 210 15:24 12.01.2020
4792 Snow -10 1004 92 8000 4 210 14:57 12.01.2020
4793 Snow -10 1004 92 8000 4 210 14:38 12.01.2020
4794 Snow -10 1004 92 8000 4 210 14:19 12.01.2020
4795 Clouds -9 1004 85 10000 4 210 13:44 12.01.2020
4796 Snow -9 1004 85 10000 4 210 13:25 12.01.2020
4797 Snow -9 1004 85 10000 4 200 12:59 12.01.2020
4798 Snow -9 1004 92 10000 3 200 12:39 12.01.2020
4799 Snow -9 1004 92 10000 3 200 12:20 12.01.2020
4800 Snow -9 1004 85 10000 4 200 11:58 12.01.2020
4801 Snow -9 1004 85 10000 4 210 11:39 12.01.2020
4802 Snow -9 1004 85 10000 4 210 11:20 12.01.2020
4803 Snow -9 1004 92 10000 4 210 10:41 12.01.2020
4804 Snow -9 1004 92 10000 4 210 10:22 12.01.2020
4805 Snow -9 1004 92 10000 5 220 09:57 12.01.2020
4806 Snow -9 1004 92 10000 4 210 09:38 12.01.2020
4807 Snow -9 1004 92 10000 4 210 09:19 12.01.2020
4808 Clouds -9 1004 92 7000 5 220 08:45 12.01.2020
4809 Clouds -9 1004 92 7000 5 220 08:20 12.01.2020
4810 Clouds -9 1004 92 10000 4 210 07:41 12.01.2020
4811 Clouds -9 1004 92 10000 4 210 07:23 12.01.2020
4812 Clouds -9 1004 92 9000 4 210 06:48 12.01.2020
4813 Clouds -9 1004 92 10000 4 220 06:29 12.01.2020
4814 Clouds -8 1005 85 9000 5 210 05:32 12.01.2020
4815 Clouds -8 1005 92 10000 4 210 04:27 12.01.2020
4816 Clouds -8 1005 92 10000 5 210 03:23 12.01.2020
4817 Clouds -8 1005 92 10000 5 210 02:33 12.01.2020
4818 Clouds -8 1005 92 10000 5 210 01:44 12.01.2020
4819 Clouds -8 1005 92 10000 5 210 01:22 12.01.2020
4820 Clouds -8 1005 92 10000 4 200 00:41 12.01.2020
4821 Clouds -8 1005 92 10000 4 200 00:20 12.01.2020
4822 Snow -8 1005 92 4300 5 200 23:42 11.01.2020
4823 Snow -8 1005 92 4300 5 200 23:42 11.01.2020
4824 Snow -8 1005 92 4300 5 200 23:19 11.01.2020
4825 Snow -8 1005 92 3700 5 200 22:58 11.01.2020
4826 Clouds -8 1005 92 10000 4 200 22:39 11.01.2020
4827 Clouds -8 1005 92 10000 4 200 22:20 11.01.2020
4828 Clouds -8 1005 92 10000 4 200 21:58 11.01.2020
4829 Snow -8 1005 92 9000 5 200 21:39 11.01.2020
4830 Snow -8 1005 92 9000 5 200 21:18 11.01.2020
4831 Snow -8 1005 92 5000 4 190 20:40 11.01.2020
4832 Snow -8 1005 92 5000 4 190 20:22 11.01.2020
4833 Snow -8 1005 92 5000 4 190 19:58 11.01.2020
4834 Snow -7 1005 85 3400 5 200 19:39 11.01.2020
4835 Snow -7 1005 85 3400 5 200 19:21 11.01.2020
4836 Clouds -7 1006 85 10000 5 200 18:58 11.01.2020
4837 Clouds -7 1006 85 10000 5 200 18:38 11.01.2020
4838 Clouds -7 1006 85 10000 5 200 18:19 11.01.2020
4839 Clouds -7 1006 85 10000 6 200 17:57 11.01.2020
4840 Clouds -7 1006 92 10000 6 200 17:39 11.01.2020
4841 Clouds -7 1006 92 10000 6 200 17:19 11.01.2020
4842 Clouds -7 1006 92 10000 5 200 16:45 11.01.2020
4843 Clouds -7 1006 92 10000 6 200 16:27 11.01.2020
4844 Clouds -6 1006 85 10000 6 200 15:58 11.01.2020
4845 Clouds -6 1006 85 10000 5 200 15:40 11.01.2020
4846 Clouds -6 1006 85 10000 5 200 15:22 11.01.2020
4847 Clouds -6 1006 85 10000 6 210 14:56 11.01.2020
4848 Snow -6 1006 85 10000 5 200 14:38 11.01.2020
4849 Snow -6 1006 85 10000 5 200 14:19 11.01.2020
4850 Snow -6 1007 85 10000 5 200 13:39 11.01.2020
4851 Snow -6 1007 85 10000 5 200 13:20 11.01.2020
4852 Snow -6 1007 85 10000 5 200 13:20 11.01.2020
4853 Snow -7 1007 92 10000 5 200 12:57 11.01.2020
4854 Snow -7 1007 92 7000 5 200 12:38 11.01.2020
4855 Snow -7 1007 92 7000 5 200 12:20 11.01.2020
4856 Snow -7 1007 92 9000 5 200 11:46 11.01.2020
4857 Snow -7 1007 92 10000 5 200 11:25 11.01.2020
4858 Snow -7 1007 92 9000 5 190 10:50 11.01.2020
4859 Snow -7 1007 92 4800 5 200 10:30 11.01.2020
4860 Snow -7 1007 92 5000 5 200 09:55 11.01.2020
4861 Snow -8 1007 92 4000 5 190 09:37 11.01.2020
4862 Snow -8 1007 92 4000 5 190 09:18 11.01.2020
4863 Snow -8 1007 92 2700 5 200 08:41 11.01.2020
4864 Snow -8 1007 92 2700 5 200 08:21 11.01.2020
4865 Snow -8 1007 92 3500 5 190 07:43 11.01.2020
4866 Snow -8 1008 92 3900 5 190 07:25 11.01.2020
4867 Snow -8 1008 92 6000 5 190 06:45 11.01.2020
4868 Snow -8 1008 92 8000 5 190 05:33 11.01.2020
4869 Snow -8 1008 92 4700 5 190 04:45 11.01.2020
4870 Snow -8 1008 92 4700 5 190 04:27 11.01.2020
4871 Clouds -8 1009 85 10000 5 190 02:48 11.01.2020
4872 Snow -8 1009 92 8000 5 190 01:51 11.01.2020
4873 Snow -8 1009 92 7000 6 190 01:32 11.01.2020
4874 Snow -8 1009 92 7000 5 190 00:58 11.01.2020
4875 Snow -8 1009 92 9000 5 190 00:32 11.01.2020
4876 Snow -8 1009 85 7000 5 190 23:59 10.01.2020
4877 Snow -8 1010 85 5000 5 190 23:39 10.01.2020
4878 Snow -8 1010 85 5000 5 190 23:39 10.01.2020
4879 Snow -8 1010 85 5000 5 190 23:21 10.01.2020
4880 Snow -9 1010 92 4000 5 190 22:55 10.01.2020
4881 Snow -9 1010 92 10000 5 190 22:37 10.01.2020
4882 Snow -9 1010 92 10000 5 190 22:18 10.01.2020
4883 Snow -9 1010 92 10000 5 190 21:54 10.01.2020
4884 Snow -9 1010 92 10000 5 190 21:36 10.01.2020
4885 Snow -9 1010 92 10000 5 190 21:18 10.01.2020
4886 Snow -9 1010 85 7000 5 190 20:42 10.01.2020
4887 Snow -9 1010 85 7000 5 190 20:24 10.01.2020
4888 Snow -9 1010 85 6000 5 190 19:54 10.01.2020
4889 Snow -10 1011 92 4300 5 190 19:36 10.01.2020
4890 Snow -10 1011 92 4300 5 190 19:18 10.01.2020
4891 Snow -10 1011 92 7000 5 190 18:41 10.01.2020
4892 Snow -10 1011 92 7000 5 190 18:19 10.01.2020
4893 Snow -10 1011 85 3700 5 200 17:57 10.01.2020
4894 Snow -10 1011 85 6000 5 200 17:38 10.01.2020
4895 Snow -10 1011 85 6000 5 200 17:20 10.01.2020
4896 Snow -10 1011 85 9000 6 190 16:55 10.01.2020
4897 Snow -10 1011 85 7000 6 200 16:37 10.01.2020
4898 Snow -10 1011 85 7000 6 200 16:19 10.01.2020
4899 Snow -10 1011 85 10000 6 200 15:55 10.01.2020
4900 Snow -10 1011 85 7000 6 200 15:36 10.01.2020
4901 Snow -10 1011 85 7000 6 200 15:18 10.01.2020
4902 Snow -11 1011 92 9000 5 190 14:42 10.01.2020
4903 Snow -11 1011 92 9000 5 190 14:20 10.01.2020
4904 Snow -11 1011 92 10000 5 190 13:59 10.01.2020
4905 Snow -11 1011 92 10000 5 200 13:41 10.01.2020
4906 Snow -11 1011 92 10000 5 200 13:23 10.01.2020
4907 Snow -11 1012 92 8000 6 200 12:58 10.01.2020
4908 Snow -10 1012 85 7000 5 200 12:38 10.01.2020
4909 Snow -10 1012 85 7000 5 200 12:19 10.01.2020
4910 Snow -10 1012 85 7000 5 190 11:54 10.01.2020
4911 Snow -10 1011 85 8000 5 190 11:36 10.01.2020
4912 Snow -10 1011 85 8000 5 190 11:18 10.01.2020
4913 Snow -10 1012 85 7000 5 190 10:42 10.01.2020
4914 Snow -10 1012 85 7000 5 190 10:24 10.01.2020
4915 Snow -10 1012 85 9000 6 200 09:56 10.01.2020
4916 Snow -10 1012 85 8000 7 200 09:37 10.01.2020
4917 Snow -10 1012 85 8000 7 200 09:19 10.01.2020
4918 Snow -10 1011 85 4200 7 200 08:41 10.01.2020
4919 Snow -10 1011 85 4200 7 200 08:23 10.01.2020
4920 Snow -10 1012 85 5000 6 200 07:45 10.01.2020
4921 Snow -10 1011 85 9000 6 200 07:26 10.01.2020
4922 Clouds -10 1011 85 10000 6 190 06:46 10.01.2020
4923 Clouds -11 1011 85 10000 6 200 06:26 10.01.2020
4924 Snow -11 1011 92 8000 7 200 05:48 10.01.2020
4925 Clouds -11 1012 92 10000 7 200 03:37 10.01.2020
4926 Clouds -11 1012 92 10000 7 200 03:18 10.01.2020
4927 Clouds -11 1012 85 10000 8 200 02:47 10.01.2020
4928 Snow -11 1012 92 4400 8 200 01:44 10.01.2020
4929 Snow -11 1012 92 3100 8 200 01:26 10.01.2020
4930 Snow -11 1012 92 6000 8 200 00:40 10.01.2020
4931 Clouds -11 1012 92 10000 8 200 23:58 09.01.2020
4932 Clouds -11 1012 92 10000 7 200 23:39 09.01.2020
4933 Clouds -11 1012 92 10000 7 200 23:20 09.01.2020
4934 Snow -11 1013 85 7000 7 200 22:57 09.01.2020
4935 Snow -11 1013 85 6000 7 200 22:39 09.01.2020
4936 Snow -11 1013 85 6000 7 200 22:19 09.01.2020
4937 Snow -11 1013 85 6000 7 200 21:57 09.01.2020
4938 Snow -11 1013 85 5000 7 200 21:37 09.01.2020
4939 Snow -11 1013 85 5000 7 200 21:37 09.01.2020
4940 Snow -11 1013 85 5000 7 200 21:19 09.01.2020
4941 Snow -11 1013 85 6000 7 200 20:57 09.01.2020
4942 Snow -11 1014 85 5000 8 200 20:39 09.01.2020
4943 Snow -11 1014 85 5000 8 200 20:19 09.01.2020
4944 Snow -11 1014 85 6000 7 200 19:56 09.01.2020
4945 Snow -12 1014 85 6000 5 200 19:37 09.01.2020
4946 Snow -12 1014 85 6000 5 200 19:19 09.01.2020
4947 Snow -13 1014 92 5000 6 190 18:55 09.01.2020
4948 Snow -13 1015 92 5000 6 190 18:36 09.01.2020
4949 Snow -13 1015 92 5000 6 190 18:18 09.01.2020
4950 Clouds -13 1015 84 10000 5 190 17:41 09.01.2020
4951 Clouds -13 1015 84 10000 6 190 17:18 09.01.2020
4952 Clouds -13 1015 84 10000 6 180 16:49 09.01.2020
4953 Clouds -13 1016 84 10000 6 190 16:24 09.01.2020
4954 Clouds -14 1016 92 10000 6 180 15:59 09.01.2020
4955 Clouds -14 1016 92 10000 6 180 15:40 09.01.2020
4956 Clouds -14 1016 92 10000 6 180 15:19 09.01.2020
4957 Clouds -14 1017 84 10000 5 180 14:42 09.01.2020
4958 Clouds -14 1017 84 10000 5 180 14:22 09.01.2020
4959 Clouds -14 1018 84 10000 5 190 13:57 09.01.2020
4960 Clouds -15 1018 92 10000 5 190 13:39 09.01.2020
4961 Clouds -15 1018 92 10000 5 190 13:20 09.01.2020
4962 Clouds -15 1018 84 10000 4 190 12:58 09.01.2020
4963 Clouds -15 1018 84 10000 4 190 12:39 09.01.2020
4964 Clouds -15 1019 84 10000 4 180 12:19 09.01.2020
4965 Clouds -16 1019 91 10000 4 190 11:56 09.01.2020
4966 Clouds -16 1019 84 10000 5 180 11:37 09.01.2020
4967 Clouds -16 1019 84 10000 5 180 11:19 09.01.2020
4968 Clouds -16 1019 84 10000 4 190 10:43 09.01.2020
4969 Clouds -16 1019 84 10000 4 190 10:22 09.01.2020
4970 Clouds -17 1019 84 10000 4 190 09:55 09.01.2020
4971 Clouds -17 1020 84 9000 4 190 09:37 09.01.2020
4972 Clouds -17 1020 84 9000 4 190 09:18 09.01.2020
4973 Clouds -17 1020 84 10000 4 180 08:54 09.01.2020
4974 Clouds -17 1020 84 8000 4 180 08:36 09.01.2020
4975 Clouds -17 1020 84 8000 4 180 08:18 09.01.2020
4976 Clouds -16 1021 84 10000 4 200 07:41 09.01.2020
4977 Clouds -16 1021 84 10000 4 200 07:23 09.01.2020
4978 Clouds -15 1021 84 10000 5 210 06:38 09.01.2020
4979 Clouds -15 1021 84 10000 5 210 06:18 09.01.2020
4980 Clouds -14 1021 84 10000 5 200 05:43 09.01.2020
4981 Clouds -14 1021 92 10000 4 210 04:42 09.01.2020
4982 Clouds -14 1021 92 10000 4 210 03:30 09.01.2020
4983 Clouds -14 1021 92 10000 4 200 02:48 09.01.2020
4984 Clouds -14 1021 92 10000 3 200 02:23 09.01.2020
4985 Clouds -14 1021 84 10000 4 210 01:35 09.01.2020
4986 Clouds -15 1021 92 10000 3 210 00:40 09.01.2020
4987 Clouds -15 1021 92 10000 3 210 00:20 09.01.2020
4988 Clouds -15 1021 92 10000 4 210 23:41 08.01.2020
4989 Clouds -15 1021 84 10000 3 210 23:23 08.01.2020
4990 Clouds -15 1021 84 10000 3 200 22:58 08.01.2020
4991 Snow -16 1021 91 10000 2 200 22:38 08.01.2020
4992 Snow -16 1021 91 10000 2 200 22:20 08.01.2020
4993 Snow -16 1022 91 10000 3 200 21:56 08.01.2020
4994 Snow -16 1022 91 10000 3 200 21:56 08.01.2020
4995 Snow -16 1022 84 10000 3 210 21:38 08.01.2020
4996 Snow -16 1022 84 10000 3 210 21:18 08.01.2020
4997 Snow -16 1022 84 10000 3 190 20:57 08.01.2020
4998 Clouds -16 1022 84 10000 2 200 20:38 08.01.2020
4999 Clouds -16 1022 84 10000 2 200 20:19 08.01.2020
5000 Clouds -17 1022 91 10000 2 200 19:55 08.01.2020
5001 Clouds -17 1022 91 10000 2 200 19:55 08.01.2020
5002 Clouds -17 1022 84 10000 2 190 19:36 08.01.2020
5003 Clouds -17 1022 84 10000 2 190 19:18 08.01.2020
5004 Clouds -17 1023 84 10000 2 200 18:54 08.01.2020
5005 Clouds -17 1023 84 10000 2 200 18:54 08.01.2020
5006 Clouds -18 1023 84 10000 2 210 18:36 08.01.2020
5007 Clouds -18 1023 84 10000 2 210 18:18 08.01.2020
5008 Clouds -18 1023 84 10000 2 210 18:18 08.01.2020
5009 Clouds -19 1023 91 10000 3 210 17:42 08.01.2020
5010 Clouds -19 1023 84 10000 3 210 17:23 08.01.2020
5011 Clouds -19 1024 84 10000 3 230 16:57 08.01.2020
5012 Clouds -20 1024 91 10000 3 230 16:38 08.01.2020
5013 Clouds -20 1024 91 10000 3 230 16:19 08.01.2020
5014 Clouds -20 1024 91 10000 3 220 15:55 08.01.2020
5015 Clouds -20 1024 91 10000 2 220 15:37 08.01.2020
5016 Clouds -20 1024 91 10000 2 220 15:18 08.01.2020
5017 Clouds -19 1024 84 10000 3 220 14:41 08.01.2020
5018 Clouds -19 1024 84 10000 3 220 14:21 08.01.2020
5019 Clouds -19 1024 84 10000 2 230 13:42 08.01.2020
5020 Clouds -19 1024 84 10000 2 230 13:24 08.01.2020
5021 Clouds -18 1024 84 10000 2 230 12:59 08.01.2020
5022 Clouds -18 1024 84 10000 2 230 12:40 08.01.2020
5023 Clouds -19 1024 91 10000 2 210 12:18 08.01.2020
5024 Clouds -19 1023 84 10000 2 200 11:48 08.01.2020
5025 Clouds -18 1023 84 10000 3 210 11:20 08.01.2020
5026 Clouds -18 1023 84 10000 2 210 10:59 08.01.2020
5027 Clouds -18 1023 84 10000 2 210 10:41 08.01.2020
5028 Clouds -18 1024 91 10000 2 220 10:21 08.01.2020
5029 Clouds -17 1024 84 10000 2 220 09:57 08.01.2020
5030 Clouds -17 1024 84 10000 2 210 09:36 08.01.2020
5031 Clouds -17 1024 84 10000 2 210 09:18 08.01.2020
5032 Clouds -17 1024 84 10000 2 210 08:41 08.01.2020
5033 Clouds -17 1024 84 10000 2 230 08:22 08.01.2020
5034 Clouds -17 1024 84 10000 3 210 07:59 08.01.2020
5035 Clouds -17 1024 84 10000 3 210 07:40 08.01.2020
5036 Clouds -17 1024 84 10000 3 220 07:19 08.01.2020
5037 Clouds -18 1024 91 10000 3 240 06:42 08.01.2020
5038 Clouds -18 1024 91 10000 3 220 05:56 08.01.2020
5039 Clouds -18 1024 91 10000 3 230 05:27 08.01.2020
5040 Clouds -17 1024 84 10000 4 220 04:37 08.01.2020
5041 Clouds -18 1024 91 10000 2 240 02:48 08.01.2020
5042 Clouds -18 1024 91 10000 2 240 02:30 08.01.2020
5043 Clouds -17 1024 91 10000 2 240 01:58 08.01.2020
5044 Clouds -17 1024 91 10000 2 240 01:32 08.01.2020
5045 Clouds -17 1024 91 10000 3 230 00:51 08.01.2020
5046 Clouds -18 1024 91 10000 2 210 00:23 08.01.2020
5047 Clouds -18 1024 91 10000 1 230 23:46 07.01.2020
5048 Clouds -17 1024 91 10000 2 240 23:21 07.01.2020
5049 Clouds -17 1024 91 10000 2 240 23:21 07.01.2020
5050 Clouds -17 1024 91 10000 2 240 22:57 07.01.2020
5051 Clouds -17 1024 91 10000 3 240 22:38 07.01.2020
5052 Clouds -17 1024 91 10000 3 240 22:19 07.01.2020
5053 Clouds -17 1024 91 10000 3 240 21:42 07.01.2020
5054 Clouds -17 1024 91 10000 3 240 21:22 07.01.2020
5055 Clouds -17 1024 91 10000 3 230 20:58 07.01.2020
5056 Clouds -16 1024 84 10000 3 240 20:40 07.01.2020
5057 Clear -16 1024 84 10000 3 240 20:22 07.01.2020
5058 Clear -16 1024 84 10000 2 240 19:57 07.01.2020
5059 Clear -16 1024 91 10000 3 240 19:38 07.01.2020
5060 Clear -16 1024 91 10000 3 240 19:19 07.01.2020
5061 Clear -15 1024 84 10000 4 250 18:56 07.01.2020
5062 Clear -15 1024 84 10000 4 240 18:38 07.01.2020
5063 Clear -15 1024 84 10000 4 240 18:18 07.01.2020
5064 Clear -15 1024 84 10000 4 240 18:18 07.01.2020
5065 Clear -15 1024 84 10000 4 240 17:55 07.01.2020
5066 Clear -15 1024 84 10000 3 240 17:36 07.01.2020
5067 Clear -15 1024 84 10000 3 240 17:18 07.01.2020
5068 Clear -15 1024 92 10000 4 250 16:55 07.01.2020
5069 Clear -15 1024 92 10000 3 240 16:36 07.01.2020
5070 Clear -15 1024 92 10000 3 240 16:18 07.01.2020
5071 Clear -15 1024 92 10000 3 240 15:42 07.01.2020
5072 Clear -15 1024 92 10000 4 240 15:24 07.01.2020
5073 Clear -15 1024 92 10000 3 240 14:58 07.01.2020
5074 Clear -15 1024 92 10000 3 230 14:38 07.01.2020
5075 Clear -15 1024 92 10000 3 230 14:19 07.01.2020
5076 Clear -15 1024 92 10000 3 240 13:46 07.01.2020
5077 Clear -15 1024 92 10000 3 230 13:20 07.01.2020
5078 Clear -15 1023 92 10000 3 230 12:56 07.01.2020
5079 -273 0 0 0 0 0 12:37 07.01.2020
5080 Clear -14 1024 92 10000 3 250 12:18 07.01.2020
5081 Clear -13 1023 92 10000 3 240 11:41 07.01.2020
5082 Clear -13 1023 92 10000 3 240 11:22 07.01.2020
5083 Clouds -12 1023 92 10000 5 240 10:56 07.01.2020
5084 Clouds -11 1022 92 10000 4 240 10:37 07.01.2020
5085 Clouds -11 1022 92 10000 4 240 10:19 07.01.2020
5086 Clouds -10 1022 92 10000 5 290 09:39 07.01.2020
5087 Clouds -10 1022 92 10000 5 290 09:20 07.01.2020
5088 Clouds -10 1022 92 10000 6 280 08:57 07.01.2020
5089 Clouds -11 1021 92 10000 7 280 08:37 07.01.2020
5090 Clouds -11 1021 92 10000 7 280 08:18 07.01.2020
5091 Clouds -11 1021 92 10000 5 280 07:42 07.01.2020
5092 Clouds -10 1020 92 10000 8 280 06:57 07.01.2020
5093 Clouds -9 1020 92 10000 7 290 06:35 07.01.2020
5094 Snow -9 1020 92 10000 6 290 05:59 07.01.2020
5095 Snow -9 1020 92 10000 6 290 05:40 07.01.2020
5096 Clouds -8 1017 92 10000 8 280 03:45 07.01.2020
5097 Clouds -6 1016 92 10000 8 290 02:47 07.01.2020
5098 Clouds -6 1015 100 10000 7 280 01:59 07.01.2020
5099 Snow -5 1014 92 9000 9 280 01:36 07.01.2020
5100 Snow -5 1014 100 9000 7 270 00:55 07.01.2020
5101 Snow -5 1013 100 8000 7 270 00:20 07.01.2020
5102 Snow -4 1013 100 5000 7 270 23:56 06.01.2020
5103 Snow -4 1012 100 2100 6 250 23:37 06.01.2020
5104 Snow -4 1012 100 2100 6 250 23:19 06.01.2020
5105 Snow -3 1012 92 8000 6 250 22:43 06.01.2020
5106 Snow -3 1012 100 9000 5 230 22:24 06.01.2020
5107 Snow -3 1012 100 9000 5 230 22:24 06.01.2020
5108 Snow -3 1012 100 5000 4 230 21:58 06.01.2020
5109 Snow -3 1011 100 6000 4 230 21:39 06.01.2020
5110 Snow -3 1011 100 6000 4 230 21:20 06.01.2020
5111 Snow -3 1011 100 6000 4 230 21:20 06.01.2020
5112 Snow -3 1011 100 6000 4 230 21:20 06.01.2020
5113 Snow -3 1011 100 6000 4 230 21:20 06.01.2020
5114 Snow -3 1011 100 3700 4 220 20:57 06.01.2020
5115 Clouds -3 1011 100 10000 4 210 20:38 06.01.2020
5116 Clouds -3 1011 100 10000 4 210 20:20 06.01.2020
5117 Clouds -3 1011 100 10000 4 210 19:57 06.01.2020
5118 Clouds -3 1011 100 10000 4 210 19:38 06.01.2020
5119 Clouds -3 1011 100 10000 4 230 19:20 06.01.2020
5120 Clouds -3 1012 100 10000 4 230 18:48 06.01.2020
5121 Clouds -3 1012 100 10000 4 230 18:23 06.01.2020
5122 Clouds -3 1012 100 10000 5 230 17:59 06.01.2020
5123 Clouds -3 1011 100 10000 4 230 17:38 06.01.2020
5124 Clouds -3 1011 100 10000 4 230 17:18 06.01.2020
5125 Clouds -3 1011 100 10000 5 220 16:44 06.01.2020
5126 Clouds -3 1012 100 10000 5 230 16:25 06.01.2020
5127 Clouds -3 1012 100 10000 5 230 16:25 06.01.2020
5128 Clouds -3 1011 100 10000 5 220 15:59 06.01.2020
5129 Clouds -3 1012 100 10000 5 230 15:39 06.01.2020
5130 Clouds -3 1012 100 10000 5 230 15:19 06.01.2020
5131 Clouds -3 1012 100 10000 5 230 14:58 06.01.2020
5132 Clouds -3 1012 100 10000 5 230 14:39 06.01.2020
5133 Clouds -3 1011 100 10000 4 220 14:19 06.01.2020
5134 Clouds -3 1011 100 10000 5 230 13:55 06.01.2020
5135 Clouds -3 1011 100 10000 5 230 13:37 06.01.2020
5136 Clouds -3 1011 100 10000 5 230 13:19 06.01.2020
5137 Clouds -3 1011 100 10000 5 220 12:42 06.01.2020
5138 Clouds -3 1011 100 10000 4 220 12:20 06.01.2020
5139 Clouds -3 1011 100 10000 4 230 11:57 06.01.2020
5140 Snow -3 1011 100 9000 4 230 11:38 06.01.2020
5141 Snow -3 1011 100 9000 4 230 11:20 06.01.2020
5142 Snow -3 1010 100 8000 5 230 10:45 06.01.2020
5143 Snow -3 1010 100 10000 5 230 10:27 06.01.2020
5144 Snow -3 1010 100 10000 5 220 09:57 06.01.2020
5145 Snow -3 1010 100 9000 6 210 09:37 06.01.2020
5146 Snow -3 1010 100 9000 6 210 09:19 06.01.2020
5147 Snow -3 1010 100 9000 5 220 08:43 06.01.2020
5148 Snow -3 1010 100 8000 5 220 08:24 06.01.2020
5149 Snow -3 1009 100 10000 5 230 07:48 06.01.2020
5150 Snow -3 1009 100 10000 5 230 07:23 06.01.2020
5151 Snow -3 1009 100 8000 6 230 06:45 06.01.2020
5152 Clouds -3 1009 100 10000 6 230 06:18 06.01.2020
5153 Clouds -3 1009 100 10000 6 230 05:40 06.01.2020
5154 Snow -3 1008 100 10000 6 220 04:30 06.01.2020
5155 Clouds -3 1008 100 10000 5 220 03:58 06.01.2020
5156 Clouds -3 1008 100 10000 6 220 02:40 06.01.2020
5157 Clouds -3 1008 100 10000 6 230 02:21 06.01.2020
5158 Clouds -3 1008 100 10000 6 220 01:41 06.01.2020
5159 Clouds -3 1008 100 10000 6 220 01:20 06.01.2020
5160 Clouds -3 1008 100 10000 6 230 00:40 06.01.2020
5161 Clouds -3 1008 100 10000 6 230 00:19 06.01.2020
5162 Clouds -3 1008 100 10000 6 230 00:19 06.01.2020
5163 Clouds -3 1007 100 10000 6 230 23:41 05.01.2020
5164 Clouds -3 1007 100 10000 6 220 23:21 05.01.2020
5165 Clouds -3 1007 100 10000 6 230 22:55 05.01.2020
5166 Clouds -3 1007 100 10000 5 230 22:37 05.01.2020
5167 Clouds -3 1007 100 10000 5 230 22:18 05.01.2020
5168 Clouds -3 1007 100 10000 5 230 21:41 05.01.2020
5169 Clouds -3 1007 100 10000 6 220 21:21 05.01.2020
5170 Clouds -3 1006 100 8000 6 230 20:59 05.01.2020
5171 Clouds -3 1006 100 8000 6 230 20:40 05.01.2020
5172 Clouds -3 1006 100 8000 6 230 20:20 05.01.2020
5173 Clouds -3 1006 100 8000 6 230 20:20 05.01.2020
5174 Clouds -2 1006 100 10000 6 230 19:59 05.01.2020
5175 Clouds -2 1006 100 10000 6 230 19:41 05.01.2020
5176 Clouds -2 1006 100 10000 6 230 19:21 05.01.2020
5177 Clouds -3 1006 100 10000 6 230 18:56 05.01.2020
5178 Clouds -2 1006 100 10000 7 230 18:38 05.01.2020
5179 Clouds -2 1006 100 10000 7 230 18:19 05.01.2020
5180 Clouds -2 1006 100 10000 6 230 17:59 05.01.2020
5181 Clouds -2 1006 100 10000 6 230 17:39 05.01.2020
5182 Snow -3 1005 100 10000 6 220 17:20 05.01.2020
5183 Snow -3 1005 100 9000 5 230 16:57 05.01.2020
5184 Snow -3 1005 100 9000 5 230 16:39 05.01.2020
5185 Snow -3 1005 100 9000 5 220 16:20 05.01.2020
5186 Snow -3 1005 100 9000 5 220 15:40 05.01.2020
5187 Snow -3 1005 100 9000 6 210 15:22 05.01.2020
5188 Snow -3 1005 100 9000 5 220 14:57 05.01.2020
5189 Snow -3 1005 100 9000 5 220 14:39 05.01.2020
5190 Snow -3 1005 100 9000 6 220 14:20 05.01.2020
5191 Snow -3 1005 100 6000 5 210 13:57 05.01.2020
5192 Snow -2 1005 100 5000 6 210 13:38 05.01.2020
5193 Snow -2 1005 100 5000 6 210 13:20 05.01.2020
5194 Snow -2 1005 100 7000 5 220 12:56 05.01.2020
5195 Clouds -2 1005 100 10000 6 220 12:38 05.01.2020
5196 Clouds -2 1005 100 10000 6 220 12:19 05.01.2020
5197 Clouds -2 1004 100 10000 5 220 11:54 05.01.2020
5198 Clouds -2 1004 100 10000 6 210 11:36 05.01.2020
5199 Clouds -2 1004 100 10000 6 210 11:18 05.01.2020
5200 Clouds -2 1004 100 10000 6 220 10:40 05.01.2020
5201 Clouds -2 1004 100 10000 6 220 10:20 05.01.2020
5202 Clouds -2 1003 100 10000 6 220 09:43 05.01.2020
5203 Clouds -2 1004 100 10000 6 220 09:22 05.01.2020
5204 Clouds -2 1004 100 10000 6 220 08:56 05.01.2020
5205 Clouds -2 1003 100 10000 6 230 08:38 05.01.2020
5206 Clouds -2 1003 100 10000 6 230 08:20 05.01.2020
5207 Clouds -2 1003 100 10000 6 230 07:39 05.01.2020
5208 Clouds -2 1003 100 10000 6 230 07:21 05.01.2020
5209 Clouds -2 1003 100 10000 5 220 06:47 05.01.2020
5210 Clouds -2 1002 100 10000 6 220 05:39 05.01.2020
5211 Snow -3 1001 100 9000 5 230 04:56 05.01.2020
5212 Snow -3 1001 100 7000 5 230 04:18 05.01.2020
5213 Snow -3 1001 100 8000 6 220 03:31 05.01.2020
5214 Clouds -3 1000 100 10000 6 220 02:33 05.01.2020
5215 Clouds -3 1000 100 10000 6 220 01:49 05.01.2020
5216 Clouds -3 1000 100 10000 6 210 01:20 05.01.2020
5217 Clouds -3 999 100 10000 5 220 00:57 05.01.2020
5218 Clouds -3 999 100 10000 5 220 00:57 05.01.2020
5219 Snow -3 999 100 3300 6 220 00:39 05.01.2020
5220 Snow -3 999 100 3300 6 220 00:19 05.01.2020
5221 Clouds -3 999 100 9000 6 220 23:41 04.01.2020
5222 Clouds -4 999 100 10000 6 210 23:20 04.01.2020
5223 Clouds -4 998 100 10000 6 210 22:56 04.01.2020
5224 Clouds -4 998 100 10000 5 220 22:38 04.01.2020
5225 Clouds -4 998 100 10000 5 220 22:20 04.01.2020
5226 Clouds -4 998 100 10000 6 220 21:55 04.01.2020
5227 Clouds -4 997 100 10000 6 210 21:36 04.01.2020
5228 Clouds -4 997 100 10000 6 210 21:18 04.01.2020
5229 Clouds -5 997 100 10000 5 210 20:41 04.01.2020
5230 Clouds -5 997 100 10000 5 210 20:22 04.01.2020
5231 Clouds -5 997 100 10000 5 210 19:57 04.01.2020
5232 Clouds -5 997 100 10000 6 220 19:39 04.01.2020
5233 Clouds -5 997 100 10000 6 220 19:21 04.01.2020
5234 Snow -5 997 100 7000 5 220 18:57 04.01.2020
5235 Snow -5 997 100 8000 5 220 18:38 04.01.2020
5236 Snow -5 997 100 8000 5 220 18:19 04.01.2020
5237 Snow -6 996 100 6000 6 220 17:42 04.01.2020
5238 Snow -6 996 100 6000 6 220 17:42 04.01.2020
5239 Clouds -6 996 100 10000 6 220 17:24 04.01.2020
5240 Clouds -6 996 100 10000 5 210 16:59 04.01.2020
5241 Clouds -6 996 100 10000 5 210 16:40 04.01.2020
5242 Snow -6 996 100 5000 5 210 16:22 04.01.2020
5243 Snow -6 996 100 5000 5 210 16:22 04.01.2020
5244 Snow -6 996 100 7000 6 210 15:56 04.01.2020
5245 Snow -6 996 100 10000 6 210 15:38 04.01.2020
5246 Snow -6 996 100 10000 6 210 15:19 04.01.2020
5247 Snow -7 996 100 10000 5 200 14:54 04.01.2020
5248 Snow -7 996 100 8000 5 200 14:36 04.01.2020
5249 Snow -7 996 100 8000 5 200 14:18 04.01.2020
5250 Clouds -7 996 92 10000 5 200 13:39 04.01.2020
5251 Clouds -7 996 92 10000 5 200 13:39 04.01.2020
5252 Clouds -7 996 92 10000 5 200 13:20 04.01.2020
5253 Snow -7 996 92 10000 5 200 12:59 04.01.2020
5254 Snow -8 996 92 8000 5 200 12:40 04.01.2020
5255 Snow -7 996 92 10000 5 200 12:40 04.01.2020
5256 Snow -8 996 92 8000 5 200 12:19 04.01.2020
5257 Snow -8 996 92 4400 5 200 11:57 04.01.2020
5258 Snow -8 996 92 4100 5 190 11:38 04.01.2020
5259 Snow -8 996 92 4100 5 190 11:19 04.01.2020
5260 Clouds -8 995 92 10000 6 190 10:41 04.01.2020
5261 Clouds -8 996 92 10000 5 200 10:22 04.01.2020
5262 Snow -8 996 92 9000 5 190 09:50 04.01.2020
5263 Snow -8 996 85 9000 5 200 09:26 04.01.2020
5264 Snow -9 996 92 9000 6 200 08:58 04.01.2020
5265 Snow -9 996 92 9000 6 200 08:39 04.01.2020
5266 Snow -9 996 92 8000 6 200 08:20 04.01.2020
5267 Snow -9 996 92 7000 6 200 07:42 04.01.2020
5268 Snow -10 997 100 3300 5 190 06:52 04.01.2020
5269 Snow -10 997 92 3000 5 190 06:33 04.01.2020
5270 Snow -10 997 85 1400 5 200 05:18 04.01.2020
5271 Snow -11 997 85 5000 5 200 04:33 04.01.2020
5272 Snow -11 998 85 4900 6 200 03:43 04.01.2020
5273 Snow -11 998 85 3300 6 200 03:18 04.01.2020
5274 Snow -12 998 92 2200 6 200 02:21 04.01.2020
5275 Snow -12 998 92 2200 6 200 02:21 04.01.2020
5276 Snow -12 998 85 900 6 200 01:53 04.01.2020
5277 Snow -12 999 85 2100 5 200 01:30 04.01.2020
5278 Snow -12 999 85 3400 5 200 00:41 04.01.2020
5279 Clouds -13 999 84 10000 6 190 00:22 04.01.2020
5280 Clouds -13 1000 84 10000 5 190 23:42 03.01.2020
5281 Snow -13 1000 84 8000 6 190 23:23 03.01.2020
5282 Clouds -13 1000 84 10000 6 200 22:41 03.01.2020
5283 Clouds -13 1000 84 10000 6 200 22:20 03.01.2020
5284 Clouds -13 1001 84 10000 7 200 21:58 03.01.2020
5285 Clouds -13 1001 84 10000 7 200 21:38 03.01.2020
5286 Clouds -13 1001 84 10000 7 200 21:19 03.01.2020
5287 Clouds -13 1001 84 10000 6 200 20:58 03.01.2020
5288 Clouds -13 1001 84 10000 6 200 20:40 03.01.2020
5289 Clouds -14 1002 92 10000 5 200 20:18 03.01.2020
5290 Clouds -14 1002 92 10000 5 190 19:55 03.01.2020
5291 Clouds -14 1002 92 10000 5 190 19:55 03.01.2020
5292 Clouds -14 1002 92 10000 5 190 19:37 03.01.2020
5293 Clouds -14 1002 92 10000 5 190 19:18 03.01.2020
5294 Clouds -14 1003 92 10000 5 190 18:43 03.01.2020
5295 Clouds -14 1003 84 10000 4 190 18:24 03.01.2020
5296 Clouds -14 1003 84 10000 5 190 17:55 03.01.2020
5297 Clouds -14 1004 84 10000 5 190 17:36 03.01.2020
5298 Clouds -14 1004 84 10000 5 190 17:18 03.01.2020
5299 Clouds -15 1004 92 10000 4 180 16:42 03.01.2020
5300 Clouds -15 1005 92 10000 4 190 16:22 03.01.2020
5301 -273 0 0 0 0 0 16:22 03.01.2020
5302 Clouds -14 1005 84 10000 4 190 15:43 03.01.2020
5303 Clouds -14 1006 92 10000 4 190 15:19 03.01.2020
5304 Clouds -14 1006 92 10000 3 190 14:57 03.01.2020
5305 Snow -13 1007 92 3600 3 200 14:38 03.01.2020
5306 Snow -13 1007 92 3600 3 200 14:19 03.01.2020
5307 Snow -14 1007 92 2200 4 200 13:43 03.01.2020
5308 Snow -14 1007 92 3000 4 210 13:23 03.01.2020
5309 Clouds -14 1007 92 10000 4 210 12:57 03.01.2020
5310 Clouds -14 1007 92 10000 3 200 12:38 03.01.2020
5311 Clouds -14 1007 92 10000 3 200 12:20 03.01.2020
5312 Clouds -17 1007 84 10000 3 170 11:44 03.01.2020
5313 Clouds -17 1007 84 10000 2 220 11:19 03.01.2020
5314 Clouds -17 1007 84 10000 2 230 10:44 03.01.2020
5315 Clouds -16 1007 84 10000 2 230 10:25 03.01.2020
5316 Clouds -17 1007 84 10000 2 220 09:57 03.01.2020
5317 Clouds -17 1007 84 10000 2 220 09:39 03.01.2020
5318 Clouds -17 1008 91 10000 3 230 09:21 03.01.2020
5319 Clouds -16 1008 91 10000 3 240 08:56 03.01.2020
5320 Clouds -15 1008 84 10000 2 240 08:36 03.01.2020
5321 Clouds -15 1008 84 10000 2 240 08:18 03.01.2020
5322 Clouds -14 1007 84 10000 3 230 07:39 03.01.2020
5323 Clouds -14 1007 84 10000 3 230 07:18 03.01.2020
5324 Clouds -13 1007 84 10000 3 240 06:47 03.01.2020
5325 Clouds -13 1007 92 10000 3 240 06:28 03.01.2020
5326 Clouds -13 1007 92 10000 3 250 05:30 03.01.2020
5327 Clouds -13 1007 92 10000 3 250 04:18 03.01.2020
5328 Clouds -14 1006 92 10000 3 250 02:56 03.01.2020
5329 Clouds -13 1006 84 10000 3 250 02:26 03.01.2020
5330 Clouds -14 1006 92 10000 3 250 01:39 03.01.2020
5331 Clouds -14 1005 92 10000 3 250 00:49 03.01.2020
5332 Clouds -14 1005 92 10000 3 250 00:29 03.01.2020
5333 Clouds -14 1005 92 10000 3 250 23:55 02.01.2020
5334 Clouds -14 1005 92 10000 2 240 23:37 02.01.2020
5335 Clouds -14 1005 92 10000 2 240 23:18 02.01.2020
5336 Clouds -14 1005 92 10000 3 250 22:44 02.01.2020
5337 Clouds -14 1005 92 10000 2 250 22:20 02.01.2020
5338 Clouds -14 1005 92 10000 2 240 21:57 02.01.2020
5339 Clouds -14 1005 84 10000 2 240 21:38 02.01.2020
5340 Clouds -14 1005 84 10000 2 240 21:38 02.01.2020
5341 Clouds -14 1005 84 10000 2 240 21:20 02.01.2020
5342 Clouds -14 1005 84 10000 2 240 20:57 02.01.2020
5343 Clouds -14 1005 84 10000 2 240 20:38 02.01.2020
5344 Clouds -14 1005 84 10000 2 240 20:20 02.01.2020
5345 Clouds -14 1005 84 10000 2 240 20:20 02.01.2020
5346 Clouds -15 1004 92 10000 2 240 19:55 02.01.2020
5347 Clouds -15 1004 92 10000 3 230 19:36 02.01.2020
5348 Clouds -15 1004 92 10000 3 230 19:18 02.01.2020
5349 Clouds -14 1004 84 10000 2 220 18:54 02.01.2020
5350 Clouds -14 1004 84 10000 2 220 18:36 02.01.2020
5351 Clouds -14 1004 84 10000 2 220 18:18 02.01.2020
5352 Clouds -14 1004 84 10000 2 220 17:55 02.01.2020
5353 Clouds -15 1004 92 10000 2 210 17:36 02.01.2020
5354 Clouds -15 1004 92 10000 2 210 17:18 02.01.2020
5355 Snow -15 1004 92 9000 3 230 16:42 02.01.2020
5356 Snow -15 1004 92 9000 3 230 16:42 02.01.2020
5357 Snow -15 1004 92 9000 3 230 16:42 02.01.2020
5358 Snow -15 1005 92 3900 2 230 16:22 02.01.2020
5359 Snow -15 1005 92 4000 2 220 15:59 02.01.2020
5360 Snow -15 1005 92 5000 1 0 15:41 02.01.2020
5361 Snow -15 1005 92 5000 1 0 15:23 02.01.2020
5362 Snow -15 1005 92 4200 2 210 14:57 02.01.2020
5363 Snow -15 1005 92 4200 2 210 14:57 02.01.2020
5364 Snow -15 1005 84 4800 2 220 14:37 02.01.2020
5365 Snow -15 1005 84 4300 2 200 14:18 02.01.2020
5366 Snow -15 1005 84 4300 2 200 13:55 02.01.2020
5367 Snow -17 1005 84 4500 2.08 207 13:36 02.01.2020
5368 Clouds -19 1005 91 10000 1 160 12:58 02.01.2020
5369 Clouds -18 1005 91 10000 1 180 12:39 02.01.2020
5370 Clouds -18 1005 91 10000 1 180 12:20 02.01.2020
5371 Clouds -18 1005 91 10000 2.08 207 11:41 02.01.2020
5372 Clouds -18 1005 91 10000 2.29 219 11:20 02.01.2020
5373 Clouds -17 1005 84 10000 2.29 219 10:45 02.01.2020
5374 Clouds -17 1004 91 10000 2.29 219 10:27 02.01.2020
5375 Clouds -16 1004 84 10000 1 220 09:56 02.01.2020
5376 Clouds -16 1004 84 10000 2 220 09:35 02.01.2020
5377 Clouds -17 1004 84 10000 2 230 08:53 02.01.2020
5378 Clouds -18 1004 84 10000 2 240 08:32 02.01.2020
5379 Clouds -17 1004 91 10000 3 240 07:57 02.01.2020
5380 Clouds -18 1004 91 10000 1 0 07:31 02.01.2020
5381 Clouds -19 1003 91 10000 2.75 251 06:57 02.01.2020
5382 Clouds -19 1003 91 10000 2.75 251 06:57 02.01.2020
5383 Clouds -19 1003 91 10000 2.75 251 06:57 02.01.2020
5384 Clouds -19 1003 91 10000 2.75 251 06:57 02.01.2020
5385 Clouds -18 1003 91 10000 2 240 06:39 02.01.2020
5386 Clouds -16 1003 84 10000 2 240 05:37 02.01.2020
5387 Clouds -17 1002 91 10000 3 260 04:34 02.01.2020
5388 Clouds -15 1001 92 10000 2 250 03:19 02.01.2020
5389 Snow -12 1000 92 8000 3 250 02:20 02.01.2020
5390 Snow -12 1000 92 7000 2 250 01:47 02.01.2020
5391 Snow -12 1000 85 6000 3 240 01:19 02.01.2020
5392 Clouds -13 999 92 10000 3 250 00:36 02.01.2020
5393 Clouds -13 999 92 10000 3 250 00:18 02.01.2020
5394 Snow -12 998 92 9000 3 250 23:40 01.01.2020
5395 Snow -12 998 92 10000 3 240 23:20 01.01.2020
5396 Snow -12 998 92 10000 3 230 22:38 01.01.2020
5397 Snow -13 997 100 10000 2 210 22:20 01.01.2020
5398 Snow -13 997 92 10000 2 210 21:57 01.01.2020
5399 Snow -13 997 92 10000 2 210 21:38 01.01.2020
5400 Snow -12 997 85 10000 2 230 21:20 01.01.2020
5401 Snow -12 996 85 9000 3 230 20:56 01.01.2020
5402 Snow -12 996 85 10000 3 210 20:38 01.01.2020
5403 Clouds -12 996 85 10000 3 210 20:19 01.01.2020
5404 Clouds -12 996 85 10000 3 210 19:55 01.01.2020
5405 Clouds -12 996 85 10000 3 210 19:55 01.01.2020
5406 Clouds -12 996 85 10000 3 210 19:55 01.01.2020
5407 Clouds -12 996 85 10000 3 210 19:55 01.01.2020
5408 Clouds -13 996 92 10000 3 210 19:37 01.01.2020
5409 Clouds -13 996 92 10000 3 210 19:19 01.01.2020
5410 Clouds -13 995 92 10000 3 220 18:56 01.01.2020
5411 Clouds -12 995 85 10000 3 200 18:36 01.01.2020
5412 Clouds -12 995 85 10000 3 200 18:18 01.01.2020
5413 Clouds -13 995 92 10000 3 200 17:56 01.01.2020
5414 Clouds -13 994 92 10000 3 200 17:38 01.01.2020
5415 Snow -13 994 92 10000 3 200 17:19 01.01.2020
5416 Snow -13 994 92 10000 3 190 16:42 01.01.2020
5417 Snow -13 994 92 7000 3 190 16:23 01.01.2020
5418 Snow -13 994 92 10000 3 190 15:58 01.01.2020
5419 Snow -13 994 92 10000 3 190 15:40 01.01.2020
5420 Snow -12 993 85 9000 3 190 15:21 01.01.2020
5421 Snow -12 993 85 4500 3 190 14:59 01.01.2020
5422 Snow -12 993 85 4500 3 190 14:40 01.01.2020
5423 Snow -12 993 85 4600 3 190 14:21 01.01.2020
5424 Snow -12 993 85 5000 4 190 13:56 01.01.2020
5425 Snow -12 993 85 9000 4 190 13:37 01.01.2020
5426 Snow -12 993 85 9000 4 190 13:37 01.01.2020
5427 Snow -12 993 85 9000 4 190 13:37 01.01.2020
5428 Snow -12 993 85 9000 4 190 13:18 01.01.2020
5429 Snow -12 993 85 8000 4 180 12:56 01.01.2020
5430 Snow -12 993 85 8000 4 180 12:56 01.01.2020
5431 Snow -13 993 92 8000 4 180 12:38 01.01.2020
5432 Snow -13 993 92 8000 4 180 12:18 01.01.2020
5433 Snow -13 992 92 8000 4 190 11:43 01.01.2020
5434 Snow -13 992 92 9000 4 190 11:23 01.01.2020
5435 Snow -13 992 84 9000 4 190 10:59 01.01.2020
5436 Snow -13 992 84 9000 4 190 10:41 01.01.2020
5437 Snow -13 992 84 7000 4 190 10:21 01.01.2020
5438 Snow -13 991 84 9000 5 190 09:57 01.01.2020
5439 Snow -13 991 84 7000 5 180 09:37 01.01.2020
5440 Snow -13 991 84 7000 5 180 09:37 01.01.2020
5441 Snow -13 991 84 7000 5 180 09:18 01.01.2020
5442 Snow -13 991 84 5000 5 180 08:55 01.01.2020
5443 Snow -14 991 84 4700 5 180 08:36 01.01.2020
5444 Snow -14 991 84 4700 5 180 08:36 01.01.2020
5445 Snow -14 991 84 4700 5 180 08:18 01.01.2020
5446 Snow -14 991 84 4400 5 180 07:51 01.01.2020
5447 Snow -14 991 84 3800 6 180 07:32 01.01.2020
5448 Snow -14 991 84 5000 5 190 06:44 01.01.2020
5449 Snow -14 991 84 7000 5 180 06:20 01.01.2020
5450 Snow -14 991 77 10000 5 180 05:21 01.01.2020
5451 Snow -15 991 84 10000 5 190 03:43 01.01.2020
5452 Snow -15 991 84 8000 6 180 03:22 01.01.2020
5453 Snow -15 991 84 4300 5 180 02:57 01.01.2020
5454 Snow -15 991 77 4400 6 180 02:34 01.01.2020
5455 Snow -15 991 77 8000 6 180 01:55 01.01.2020
5456 Snow -16 991 84 1800 6 190 01:36 01.01.2020
5457 Snow -16 991 84 1800 6 190 01:18 01.01.2020
5458 Snow -16 991 84 1600 6 190 00:44 01.01.2020
5459 Snow -16 991 84 1800 5 190 00:24 01.01.2020
5460 Snow -16 992 84 2700 5 170 23:41 31.12.2019
5461 Snow -17 992 84 1400 6 160 23:21 31.12.2019
5462 Snow -17 992 84 2000 6 160 22:57 31.12.2019
5463 Snow -17 992 84 2000 6 160 22:38 31.12.2019
5464 Snow -18 992 91 3700 6 160 22:19 31.12.2019
5465 Snow -18 992 84 1500 6 150 21:57 31.12.2019
5466 Snow -18 992 84 1500 6 150 21:38 31.12.2019
5467 Snow -18 993 84 10000 6 150 21:20 31.12.2019
5468 Snow -18 993 84 9000 6 160 20:55 31.12.2019
5469 Snow -19 994 84 9000 5 150 20:36 31.12.2019
5470 Snow -19 994 84 9000 5 150 20:18 31.12.2019
5471 Snow -19 994 84 5000 6 150 19:42 31.12.2019
5472 Snow -19 994 84 6000 5 150 19:24 31.12.2019
5473 Snow -19 995 84 6000 5 150 18:59 31.12.2019
5474 Snow -20 995 83 6000 5 150 18:40 31.12.2019
5475 Snow -20 995 83 6000 5 150 18:20 31.12.2019
5476 Clouds -20 996 83 6000 6 150 17:57 31.12.2019
5477 Mist -20 996 83 4500 6 150 17:38 31.12.2019
5478 Mist -20 996 83 4500 6 150 17:19 31.12.2019
5479 Mist -20 997 83 5000 6 150 16:57 31.12.2019
5480 Mist -20 998 83 5000 5 150 16:38 31.12.2019
5481 Mist -20 998 83 5000 5 150 16:19 31.12.2019
5482 Mist -20 999 83 6000 6 150 15:57 31.12.2019
5483 Mist -20 1000 83 3500 6 160 15:38 31.12.2019
5484 Mist -20 1000 83 3500 6 160 15:20 31.12.2019
5485 Mist -20 1000 83 1800 6 150 14:58 31.12.2019
5486 Mist -20 1000 83 1800 6 150 14:38 31.12.2019
5487 Mist -20 1001 83 4000 5 150 14:19 31.12.2019
5488 Mist -19 1002 84 1800 5 150 13:57 31.12.2019
5489 Mist -19 1002 84 1800 5 150 13:39 31.12.2019
5490 Clouds -20 1002 83 10000 6 150 13:21 31.12.2019
5491 Clouds -20 1002 83 10000 6 150 13:21 31.12.2019
5492 Clouds -20 1003 83 6000 5 150 12:58 31.12.2019
5493 Clouds -20 1003 83 6000 5 150 12:58 31.12.2019
5494 Clouds -20 1003 83 6000 5 150 12:39 31.12.2019
5495 Mist -20 1003 83 5000 5 150 12:20 31.12.2019
5496 Mist -20 1004 83 4600 4 150 11:56 31.12.2019
5497 Mist -21 1004 83 5000 3 140 11:38 31.12.2019
5498 Mist -21 1004 83 5000 3 140 11:20 31.12.2019
5499 Mist -21 1005 83 5000 3 140 10:57 31.12.2019
5500 Mist -21 1005 83 5000 3 140 10:57 31.12.2019
5501 Clouds -20 1005 83 10000 3 130 10:38 31.12.2019
5502 Clouds -20 1005 83 10000 3 130 10:20 31.12.2019
5503 Clouds -18 1006 84 10000 4 160 09:58 31.12.2019
5504 Clouds -18 1006 84 10000 4 160 09:39 31.12.2019
5505 Clouds -18 1007 84 7000 5 190 09:20 31.12.2019
5506 Clouds -19 1007 84 8000 4 160 08:57 31.12.2019
5507 Clouds -19 1007 91 10000 5 180 08:37 31.12.2019
5508 Clouds -19 1007 91 10000 5 180 08:19 31.12.2019
5509 Clouds -19 1008 84 10000 4 180 07:42 31.12.2019
5510 Clouds -20 1009 83 10000 4 180 07:20 31.12.2019
5511 Clouds -19 1009 84 10000 4 180 06:49 31.12.2019
5512 Clear -19 1009 84 10000 5 180 05:57 31.12.2019
5513 Clear -20 1010 83 10000 4 180 04:28 31.12.2019
5514 Clear -20 1011 83 10000 4 180 03:27 31.12.2019
5515 Clear -20 1012 83 10000 4 190 02:54 31.12.2019
5516 Clear -20 1012 83 10000 4 190 02:54 31.12.2019
5517 Clear -20 1012 83 10000 4 190 02:54 31.12.2019
5518 Clouds -20 1012 83 10000 3 190 01:58 31.12.2019
5519 Clouds -20 1012 83 10000 3 190 01:40 31.12.2019
5520 Clouds -20 1013 83 10000 4 190 01:22 31.12.2019
5521 Clouds -19 1013 77 10000 3 190 00:45 31.12.2019
5522 Clouds -19 1013 77 10000 4 190 00:22 31.12.2019
5523 Clouds -19 1013 77 10000 4 200 23:56 30.12.2019
5524 Clouds -19 1014 77 10000 4 200 23:38 30.12.2019
5525 Clouds -19 1014 77 10000 4 200 23:20 30.12.2019
5526 Clouds -19 1014 77 10000 4 200 22:57 30.12.2019
5527 Clouds -19 1014 77 10000 4 200 22:38 30.12.2019
5528 Clouds -19 1014 77 10000 4 200 22:19 30.12.2019
5529 Clouds -19 1015 77 10000 4 200 21:56 30.12.2019
5530 Clouds -19 1015 77 10000 4 200 21:38 30.12.2019
5531 Clouds -19 1015 77 10000 4 200 21:18 30.12.2019
5532 Clouds -19 1015 77 10000 4 200 21:18 30.12.2019
5533 Clouds -19 1015 77 10000 4 210 20:56 30.12.2019
5534 Clouds -19 1015 77 10000 4 210 20:38 30.12.2019
5535 Clouds -19 1015 77 10000 4 210 20:19 30.12.2019
5536 Clouds -19 1015 77 10000 4 210 19:57 30.12.2019
5537 Clouds -19 1016 77 10000 4 220 19:37 30.12.2019
5538 Clouds -19 1016 77 10000 4 220 19:19 30.12.2019
5539 Clouds -19 1016 77 10000 4 220 19:19 30.12.2019
5540 Clouds -19 1015 77 10000 4 220 18:56 30.12.2019
5541 Clouds -18 1016 77 10000 5 210 18:37 30.12.2019
5542 Clouds -18 1016 77 10000 5 210 18:19 30.12.2019
5543 Clouds -18 1016 77 10000 4 230 17:55 30.12.2019
5544 Clouds -18 1016 77 10000 4 220 17:36 30.12.2019
5545 Clouds -18 1016 77 10000 4 220 17:18 30.12.2019
5546 Clouds -18 1016 77 10000 4 240 16:54 30.12.2019
5547 Clouds -17 1016 77 10000 4 240 16:36 30.12.2019
5548 Clouds -17 1016 77 10000 4 240 16:18 30.12.2019
5549 Clouds -17 1017 77 10000 5 240 15:54 30.12.2019
5550 Clouds -17 1017 77 10000 4 230 15:36 30.12.2019
5551 Clouds -17 1017 77 10000 4 230 15:18 30.12.2019
5552 Clouds -17 1017 84 10000 5 240 14:42 30.12.2019
5553 Clouds -16 1018 77 10000 5 240 14:19 30.12.2019
5554 Clouds -16 1018 77 10000 4 240 13:54 30.12.2019
5555 Clouds -16 1018 84 10000 5 240 13:36 30.12.2019
5556 Clouds -16 1018 84 10000 5 240 13:18 30.12.2019
5557 Clouds -15 1018 77 10000 6 250 12:42 30.12.2019
5558 Clouds -15 1018 77 10000 7 250 12:20 30.12.2019
5559 Clouds -15 1018 77 10000 6 240 11:58 30.12.2019
5560 Clouds -15 1018 77 10000 6 240 11:39 30.12.2019
5561 Clouds -14 1019 77 10000 6 250 11:19 30.12.2019
5562 Clouds -15 1019 77 10000 6 250 10:43 30.12.2019
5563 Clouds -15 1019 77 10000 6 250 10:21 30.12.2019
5564 Clouds -15 1019 77 10000 5 250 09:55 30.12.2019
5565 Clouds -15 1019 77 10000 5 240 09:37 30.12.2019
5566 Clouds -15 1019 77 10000 5 240 09:19 30.12.2019
5567 Clouds -16 1019 84 10000 5 240 08:49 30.12.2019
5568 Clouds -15 1019 77 10000 5 240 08:23 30.12.2019
5569 Clouds -16 1020 84 10000 4 240 07:55 30.12.2019
5570 Clouds -17 1020 84 10000 4 240 07:33 30.12.2019
5571 Clouds -17 1020 84 10000 5 240 06:51 30.12.2019
5572 Clouds -19 1022 84 10000 4 240 04:56 30.12.2019
5573 Clouds -19 1022 84 10000 3 240 03:53 30.12.2019
5574 Clouds -21 1023 83 10000 3 240 02:50 30.12.2019
5575 Clouds -21 1023 76 10000 3 230 02:32 30.12.2019
5576 Clouds -21 1023 83 10000 3 230 01:50 30.12.2019
5577 Clouds -21 1024 83 10000 4 230 01:20 30.12.2019
5578 Clouds -21 1024 76 10000 3 240 00:43 30.12.2019
5579 Clouds -23 1025 83 10000 3 240 23:59 29.12.2019
5580 Clouds -23 1025 76 10000 2 240 23:39 29.12.2019
5581 Clear -23 1025 76 10000 2 240 23:21 29.12.2019
5582 Clear -23 1025 76 10000 3 240 22:42 29.12.2019
5583 Clear -24 1025 83 10000 2 240 22:22 29.12.2019
5584 Clear -24 1026 76 10000 2 240 21:58 29.12.2019
5585 Clear -24 1026 76 10000 2 240 21:40 29.12.2019
5586 Clear -24 1026 76 10000 2 240 21:20 29.12.2019
5587 Clear -24 1026 83 10000 3 240 20:57 29.12.2019
5588 Clear -24 1026 83 10000 2 240 20:38 29.12.2019
5589 Clouds -24 1026 83 10000 2 240 20:20 29.12.2019
5590 Clear -24 1027 76 10000 2 240 19:58 29.12.2019
5591 Clear -24 1027 76 10000 2 240 19:39 29.12.2019
5592 Clear -25 1027 83 10000 2 240 19:20 29.12.2019
5593 Clear -25 1027 75 10000 2 240 18:56 29.12.2019
5594 Clear -26 1027 75 10000 1 240 18:38 29.12.2019
5595 Clear -26 1027 75 10000 1 240 18:19 29.12.2019
5596 Clear -26 1028 75 10000 2 230 17:57 29.12.2019
5597 Clear -27 1028 75 10000 1 0 17:39 29.12.2019
5598 Clouds -27 1028 75 10000 1 0 17:20 29.12.2019
5599 Clouds -26 1028 83 10000 2 250 16:56 29.12.2019
5600 Clouds -28 1028 82 10000 2 250 16:37 29.12.2019
5601 Clouds -28 1028 82 10000 2 250 16:19 29.12.2019
5602 Clouds -28 1028 75 10000 2 260 15:56 29.12.2019
5603 Clouds -28 1028 75 10000 2 250 15:38 29.12.2019
5604 Clouds -28 1028 75 10000 2 250 15:19 29.12.2019
5605 Clouds -28 1029 75 10000 3 280 14:55 29.12.2019
5606 Clouds -27 1029 75 10000 2 280 14:37 29.12.2019
5607 Clear -27 1029 75 10000 2 280 14:18 29.12.2019
5608 Clear -28 1029 75 10000 1 0 13:55 29.12.2019
5609 Clear -28 1029 75 10000 2 260 13:37 29.12.2019
5610 Clear -28 1029 75 10000 2 260 13:18 29.12.2019
5611 Clear -28 1029 75 10000 2 280 12:42 29.12.2019
5612 Clear -28 1029 75 10000 1 260 12:24 29.12.2019
5613 Clear -27 1029 75 10000 1 290 11:56 29.12.2019
5614 Clear -28 1029 75 10000 1 0 11:37 29.12.2019
5615 Clear -28 1029 75 10000 1 0 11:37 29.12.2019
5616 Clear -28 1029 75 10000 1 0 11:37 29.12.2019
5617 Clear -28 1029 75 10000 1 0 11:19 29.12.2019
5618 Clear -28 1029 75 10000 1 0 10:42 29.12.2019
5619 Clear -28 1029 75 10000 2 250 10:22 29.12.2019
5620 Clear -29 1029 75 10000 2 280 09:56 29.12.2019
5621 Clear -28 1029 75 10000 1.74 321 09:38 29.12.2019
5622 Clear -28 1029 75 10000 1.74 321 09:19 29.12.2019
5623 Clear -28 1029 75 10000 1 0 08:46 29.12.2019
5624 Clear -28 1029 75 10000 1 0 08:24 29.12.2019
5625 Clear -27 1029 75 10000 1 0 07:54 29.12.2019
5626 Clear -27 1029 82 10000 2.27 18 07:28 29.12.2019
5627 Clear -30 1029 82 10000 2 310 06:53 29.12.2019
5628 Clear -28 1029 75 10000 1 0 06:24 29.12.2019
5629 Clear -28 1028 75 10000 1 0 05:51 29.12.2019
5630 Clear -27 1028 75 10000 2 360 04:36 29.12.2019
5631 Clear -27 1027 75 10000 1 0 03:43 29.12.2019
5632 Clear -27 1027 82 10000 2 10 03:19 29.12.2019
5633 Clouds -26 1027 83 10000 2 10 02:20 29.12.2019
5634 Clouds -26 1027 83 10000 2 10 02:20 29.12.2019
5635 Clouds -25 1026 75 10000 2 360 01:31 29.12.2019
5636 Clouds -25 1026 75 10000 2 360 01:31 29.12.2019
5637 Clouds -25 1026 83 10000 2 340 00:55 29.12.2019
5638 Clouds -24 1026 76 10000 2 350 00:36 29.12.2019
5639 Clouds -24 1026 76 10000 2 350 00:18 29.12.2019
5640 Clouds -24 1026 83 10000 2 350 23:41 28.12.2019
5641 Clouds -23 1025 83 10000 2 350 23:18 28.12.2019
5642 Clouds -22 1025 76 10000 2 330 22:39 28.12.2019
5643 Clouds -22 1025 83 10000 2 330 22:20 28.12.2019
5644 Clouds -21 1024 83 10000 3 340 21:58 28.12.2019
5645 Clouds -21 1024 83 10000 3 340 21:39 28.12.2019
5646 Clouds -21 1024 83 10000 3 320 21:20 28.12.2019
5647 Clouds -22 1024 83 10000 3 310 20:56 28.12.2019
5648 Clouds -20 1023 83 10000 2 290 20:37 28.12.2019
5649 Clouds -20 1023 83 10000 2 290 20:18 28.12.2019
5650 Clouds -20 1023 83 10000 2 300 19:55 28.12.2019
5651 Clouds -19 1023 91 10000 2 290 19:37 28.12.2019
5652 Clouds -19 1023 91 10000 2 290 19:18 28.12.2019
5653 Clouds -19 1023 91 10000 2 280 18:55 28.12.2019
5654 Clouds -17 1023 84 10000 3 280 18:37 28.12.2019
5655 Clouds -17 1023 84 10000 3 280 18:18 28.12.2019
5656 Clouds -16 1023 84 10000 2 280 17:42 28.12.2019
5657 Snow -16 1022 91 10000 3 260 17:21 28.12.2019
5658 Snow -15 1022 84 7000 3 250 16:55 28.12.2019
5659 Snow -16 1022 91 8000 2 250 16:37 28.12.2019
5660 Snow -16 1022 91 8000 2 250 16:19 28.12.2019
5661 Snow -15 1022 84 6000 3 250 15:43 28.12.2019
5662 Snow -15 1022 84 8000 3 250 15:22 28.12.2019
5663 Snow -15 1022 84 1400 2 240 14:55 28.12.2019
5664 Snow -15 1022 84 1800 3 240 14:36 28.12.2019
5665 Snow -15 1022 84 1800 3 240 14:18 28.12.2019
5666 Snow -15 1022 84 1900 4 240 13:42 28.12.2019
5667 Snow -15 1022 84 2000 3 230 13:21 28.12.2019
5668 Snow -15 1021 84 2200 3 230 12:58 28.12.2019
5669 Snow -15 1021 84 2200 3 230 12:40 28.12.2019
5670 Snow -15 1021 84 2300 3 230 12:21 28.12.2019
5671 Snow -16 1021 91 1700 3 220 11:40 28.12.2019
5672 Snow -16 1021 91 2000 3 210 11:21 28.12.2019
5673 Snow -16 1021 84 3400 4 210 10:56 28.12.2019
5674 Snow -16 1021 84 2000 4 210 10:37 28.12.2019
5675 Snow -16 1021 84 2000 4 210 10:18 28.12.2019
5676 Snow -16 1021 84 2300 4 210 09:46 28.12.2019
5677 Snow -16 1021 84 1900 5 210 09:24 28.12.2019
5678 Snow -16 1021 84 2100 4 200 08:58 28.12.2019
5679 Snow -16 1021 84 2100 4 200 08:40 28.12.2019
5680 Snow -16 1021 84 2000 4 200 08:22 28.12.2019
5681 Snow -16 1021 84 2500 4 190 07:43 28.12.2019
5682 Snow -17 1021 91 2600 3 200 07:22 28.12.2019
5683 Clouds -17 1021 84 10000 3 190 05:46 28.12.2019
5684 Clouds -18 1022 84 10000 3 180 03:48 28.12.2019
5685 Clouds -18 1023 84 10000 3 180 02:51 28.12.2019
5686 Clouds -19 1023 84 10000 4 180 02:20 28.12.2019
5687 Clouds -19 1023 77 10000 3 180 01:55 28.12.2019
5688 Clouds -20 1024 83 10000 3 190 01:23 28.12.2019
5689 Clouds -20 1024 83 10000 3 180 00:45 28.12.2019
5690 Clouds -20 1024 76 10000 3 180 00:27 28.12.2019
5691 Clouds -21 1025 83 10000 3 180 23:58 27.12.2019
5692 Clouds -21 1025 83 10000 3 180 23:58 27.12.2019
5693 Clouds -20 1025 76 10000 3 180 23:38 27.12.2019
5694 Clouds -20 1025 76 10000 3 180 23:18 27.12.2019
5695 Clouds -21 1025 83 10000 2 170 22:55 27.12.2019
5696 Clouds -21 1025 76 10000 4 180 22:37 27.12.2019
5697 Clouds -21 1025 76 10000 4 180 22:19 27.12.2019
5698 Clouds -23 1026 83 10000 3 160 21:43 27.12.2019
5699 Clouds -23 1026 83 10000 3 160 21:24 27.12.2019
5700 Clouds -24 1026 83 10000 2 160 20:45 27.12.2019
5701 Clouds -24 1026 76 10000 2 160 20:26 27.12.2019
5702 Clouds -25 1027 83 10000 2 160 19:59 27.12.2019
5703 Clouds -25 1027 83 10000 2 160 19:40 27.12.2019
5704 Clouds -25 1027 83 10000 2 160 19:19 27.12.2019
5705 Clouds -25 1027 83 10000 2 150 18:56 27.12.2019
5706 Clouds -25 1028 75 10000 2 160 18:37 27.12.2019
5707 Clouds -25 1028 75 10000 2 160 18:18 27.12.2019
5708 Clouds -26 1028 83 10000 3 160 17:55 27.12.2019
5709 Clouds -26 1028 83 6000 2 160 17:37 27.12.2019
5710 Clouds -26 1028 83 6000 2 160 17:18 27.12.2019
5711 Mist -26 1028 83 4800 2 150 16:41 27.12.2019
5712 Clouds -25 1029 75 7000 2 150 16:23 27.12.2019
5713 Clouds -25 1029 75 9000 2 150 15:57 27.12.2019
5714 Clouds -25 1029 75 10000 2 150 15:37 27.12.2019
5715 Clouds -25 1029 75 10000 2 150 15:19 27.12.2019
5716 Clouds -26 1029 83 10000 2 160 14:55 27.12.2019
5717 Clouds -26 1030 83 10000 2 160 14:37 27.12.2019
5718 Clouds -26 1030 83 10000 2 160 14:19 27.12.2019
5719 Clouds -26 1030 83 10000 2 160 14:19 27.12.2019
5720 Clouds -26 1030 75 6000 2 160 13:46 27.12.2019
5721 Mist -26 1030 75 9000 2 150 13:23 27.12.2019
5722 Mist -27 1031 75 10000 2 150 12:49 27.12.2019
5723 Clouds -27 1031 75 8000 2 150 12:29 27.12.2019
5724 Mist -27 1031 75 10000 1 150 11:59 27.12.2019
5725 Mist -27 1031 75 10000 1 150 11:41 27.12.2019
5726 Mist -26 1031 75 8000 2 150 11:20 27.12.2019
5727 Mist -26 1031 75 8000 2 150 11:20 27.12.2019
5728 Mist -26 1031 83 2600 2 150 10:47 27.12.2019
5729 Clouds -25 1031 75 6000 2 150 10:24 27.12.2019
5730 Clouds -25 1031 75 8000 1 0 09:57 27.12.2019
5731 Clouds -25 1031 75 6000 2 170 09:38 27.12.2019
5732 Clouds -25 1031 75 6000 2 170 09:20 27.12.2019
5733 Clouds -26 1032 75 9000 1 0 08:46 27.12.2019
5734 Clouds -26 1032 75 8000 1 0 08:27 27.12.2019
5735 Mist -29 1032 75 7000 1 0 07:41 27.12.2019
5736 Clouds -30 1032 74 9000 1 0 07:22 27.12.2019
5737 Clouds -30 1032 74 7000 1 0 06:27 27.12.2019
5738 Fog -31 1032 74 8000 2.25 190 04:40 27.12.2019
5739 Clouds -33 1032 74 10000 2.25 190 02:29 27.12.2019
5740 Clouds -32 1033 74 10000 1.32 210 01:48 27.12.2019
5741 Clouds -32 1033 74 10000 1 280 01:23 27.12.2019
5742 Clouds -32 1033 74 10000 1 280 00:51 27.12.2019
5743 Clouds -33 1033 74 10000 1.49 205 00:33 27.12.2019
5744 Clouds -33 1032 74 10000 1.49 205 23:57 26.12.2019
5745 Clouds -34 1032 73 10000 1.49 205 23:38 26.12.2019
5746 Clouds -34 1032 73 10000 0.9 253 23:20 26.12.2019
5747 Clouds -33 1032 74 10000 1 300 22:42 26.12.2019
5748 Clouds -33 1032 74 10000 1 290 22:21 26.12.2019
5749 Clouds -33 1032 74 10000 1 280 21:55 26.12.2019
5750 Clouds -33 1032 67 10000 2 270 21:37 26.12.2019
5751 Clouds -33 1032 67 10000 2 270 21:19 26.12.2019
5752 Clouds -33 1032 74 10000 1 280 20:44 26.12.2019
5753 Clouds -33 1032 74 10000 1 270 20:22 26.12.2019
5754 Clouds -33 1032 74 10000 1 290 19:58 26.12.2019
5755 Clouds -33 1032 74 10000 1 290 19:38 26.12.2019
5756 Clear -33 1032 74 10000 1 280 19:20 26.12.2019
5757 Clear -33 1032 74 10000 1 280 18:57 26.12.2019
5758 Clouds -32 1032 67 10000 1 290 18:37 26.12.2019
5759 Clouds -32 1032 67 10000 1 290 18:19 26.12.2019
5760 Clear -32 1032 74 10000 1 280 17:42 26.12.2019
5761 Clear -32 1032 74 10000 1 280 17:42 26.12.2019
5762 Clouds -32 1031 74 10000 1 0 17:22 26.12.2019
5763 Clouds -32 1032 74 10000 1 300 16:54 26.12.2019
5764 Clouds -31 1031 74 10000 2 290 16:36 26.12.2019
5765 Clouds -31 1031 74 10000 2 290 16:36 26.12.2019
5766 Clouds -31 1031 74 10000 2 290 16:18 26.12.2019
5767 Clouds -31 1031 74 10000 2 280 15:40 26.12.2019
5768 Clouds -32 1031 74 10000 2 280 15:19 26.12.2019
5769 Clouds -33 1031 74 10000 2 280 14:54 26.12.2019
5770 Clear -33 1030 74 10000 2 280 14:36 26.12.2019
5771 Clouds -33 1030 74 10000 2 280 14:18 26.12.2019
5772 Clouds -33 1030 74 10000 2 280 13:42 26.12.2019
5773 Clear -32 1030 74 10000 1 290 13:19 26.12.2019
5774 Clear -31 1030 74 10000 1 290 12:56 26.12.2019
5775 Clear -32 1030 74 10000 2 280 12:37 26.12.2019
5776 Clear -32 1030 74 10000 2 280 12:18 26.12.2019
5777 Clear -31 1030 74 10000 1 290 11:42 26.12.2019
5778 Clouds -32 1029 74 10000 2 300 11:23 26.12.2019
5779 Clouds -31 1029 74 10000 2 300 10:57 26.12.2019
5780 Clouds -31 1029 74 10000 2 300 10:57 26.12.2019
5781 Clouds -31 1029 74 10000 2 300 10:39 26.12.2019
5782 Clouds -30 1029 74 10000 2 320 10:18 26.12.2019
5783 Clear -30 1028 74 10000 1 320 09:42 26.12.2019
5784 Clear -30 1028 67 10000 2 290 09:24 26.12.2019
5785 Clouds -30 1028 74 10000 2 300 08:42 26.12.2019
5786 Clouds -31 1028 74 10000 2 290 08:23 26.12.2019
5787 Clouds -30 1028 74 10000 1 290 07:50 26.12.2019
5788 Clouds -30 1027 74 10000 2 300 07:26 26.12.2019
5789 Clouds -30 1027 74 10000 2 300 06:48 26.12.2019
5790 Clouds -31 1027 74 10000 2 290 06:30 26.12.2019
5791 Clouds -31 1027 74 10000 2 300 05:43 26.12.2019
5792 Clouds -30 1026 74 10000 2 300 04:38 26.12.2019
5793 Clouds -29 1026 75 10000 2 300 03:47 26.12.2019
5794 Clouds -31 1025 74 10000 2 290 02:50 26.12.2019
5795 Clouds -31 1025 74 10000 2 300 02:31 26.12.2019
5796 Clouds -31 1025 74 10000 2 300 02:31 26.12.2019
5797 Clouds -30 1025 74 10000 2 300 01:45 26.12.2019
5798 Clouds -30 1024 74 10000 2 300 01:26 26.12.2019
5799 Clouds -30 1024 74 10000 2 300 00:48 26.12.2019
5800 Clouds -30 1024 74 10000 2 290 00:24 26.12.2019
5801 Clouds -30 1024 74 10000 2 290 00:24 26.12.2019
5802 Clouds -30 1024 74 10000 2 290 00:24 26.12.2019
5803 Clear -31 1023 74 10000 2 280 23:58 25.12.2019
5804 Clear -31 1023 74 10000 2 290 23:38 25.12.2019
5805 Clear -31 1023 74 10000 2 290 23:20 25.12.2019
5806 Clear -31 1023 74 10000 2 280 22:57 25.12.2019
5807 Clear -31 1023 74 10000 2 280 22:38 25.12.2019
5808 Clear -31 1023 74 10000 2 280 22:19 25.12.2019
5809 Clouds -31 1022 74 10000 2 290 21:57 25.12.2019
5810 Clouds -31 1022 74 10000 2 290 21:39 25.12.2019
5811 Clear -31 1022 74 10000 2 290 21:19 25.12.2019
5812 Clear -31 1022 74 10000 2 280 20:41 25.12.2019
5813 Clear -30 1021 74 10000 3 280 20:21 25.12.2019
5814 Clear -30 1021 74 10000 3 290 19:59 25.12.2019
5815 Clear -30 1021 74 10000 3 290 19:41 25.12.2019
5816 Clear -31 1021 74 10000 3 280 19:22 25.12.2019
5817 Clear -31 1021 74 10000 3 280 18:54 25.12.2019
5818 Clear -31 1021 74 10000 2 280 18:36 25.12.2019
5819 Clear -31 1021 74 10000 2 280 18:18 25.12.2019
5820 Clear -31 1021 74 10000 3 280 17:40 25.12.2019
5821 Clear -31 1021 74 10000 3 280 17:18 25.12.2019
5822 Clear -31 1020 74 10000 3 280 16:55 25.12.2019
5823 Clear -31 1020 74 10000 3 280 16:36 25.12.2019
5824 Clear -31 1020 74 10000 3 280 16:18 25.12.2019
5825 Clouds -30 1020 74 10000 3 280 15:56 25.12.2019
5826 Clouds -30 1020 74 10000 3 280 15:37 25.12.2019
5827 Clouds -30 1020 74 10000 3 280 15:18 25.12.2019
5828 Clear -31 1019 74 10000 3 280 14:54 25.12.2019
5829 Clear -30 1019 74 10000 3 280 14:36 25.12.2019
5830 Clouds -30 1019 74 10000 3 280 14:18 25.12.2019
5831 Clouds -31 1019 74 10000 3 280 13:41 25.12.2019
5832 Clouds -30 1018 74 10000 3 280 13:20 25.12.2019
5833 Clear -30 1018 74 10000 3 280 12:44 25.12.2019
5834 Clouds -30 1018 74 10000 3 280 12:22 25.12.2019
5835 Clear -29 1018 75 10000 3 280 11:58 25.12.2019
5836 Clear -29 1018 75 10000 3 280 11:58 25.12.2019
5837 Clear -29 1018 75 10000 3 280 11:40 25.12.2019
5838 Clear -30 1017 74 10000 3 280 11:20 25.12.2019
5839 Clouds -29 1017 75 10000 3 290 10:39 25.12.2019
5840 Clouds -28 1017 75 10000 3 280 10:21 25.12.2019
5841 Clouds -29 1016 75 9000 3 280 09:58 25.12.2019
5842 Clouds -29 1016 75 9000 3 280 09:40 25.12.2019
5843 Clouds -29 1016 75 9000 3 280 09:40 25.12.2019
5844 Clouds -29 1016 75 9000 3 280 09:21 25.12.2019
5845 Clouds -30 1016 74 10000 3 280 08:42 25.12.2019
5846 Clear -30 1015 74 10000 3 280 08:23 25.12.2019
5847 Clear -30 1015 74 10000 3 280 07:42 25.12.2019
5848 Clear -31 1015 74 10000 3 280 07:22 25.12.2019
5849 Clear -32 1015 74 10000 3 280 06:24 25.12.2019
5850 Clear -32 1014 74 10000 3 280 05:49 25.12.2019
5851 Clear -32 1014 74 10000 3 280 04:42 25.12.2019
5852 Clear -32 1014 74 10000 3 290 04:24 25.12.2019
5853 Clear -32 1014 74 10000 3 280 03:43 25.12.2019
5854 Clear -32 1013 74 10000 3 280 02:58 25.12.2019
5855 Clear -32 1013 74 10000 3 280 02:29 25.12.2019
5856 Clear -31 1013 74 10000 3 280 01:43 25.12.2019
5857 Clear -32 1013 74 10000 3 280 01:18 25.12.2019
5858 Clear -31 1013 74 10000 3 280 00:41 25.12.2019
5859 Clear -31 1012 74 10000 3 280 00:23 25.12.2019
5860 Clear -31 1012 74 10000 3 280 00:23 25.12.2019
5861 Clear -31 1012 74 10000 2 290 23:39 24.12.2019
5862 Clear -29 1012 75 10000 3 290 23:20 24.12.2019
5863 Clear -31 1012 74 10000 2 290 22:42 24.12.2019
5864 Clear -29 1012 75 10000 2 300 22:24 24.12.2019
5865 Clear -28 1012 75 10000 3 320 21:59 24.12.2019
5866 Clear -28 1012 75 10000 3 320 21:40 24.12.2019
5867 Clear -28 1012 75 10000 3 330 21:19 24.12.2019
5868 Clear -28 1012 75 10000 3 320 20:42 24.12.2019
5869 Clear -31 1011 74 10000 2 300 20:22 24.12.2019
5870 Clear -30 1012 74 10000 2 300 19:49 24.12.2019
5871 Clear -29 1012 75 10000 2 300 19:22 24.12.2019
5872 Clear -29 1011 75 9000 2 280 18:59 24.12.2019
5873 Clear -29 1011 75 9000 2 280 18:40 24.12.2019
5874 Clear -28 1011 75 10000 2 280 18:18 24.12.2019
5875 Clear -28 1011 75 10000 2 280 18:18 24.12.2019
5876 Clear -28 1012 82 10000 3 280 17:44 24.12.2019
5877 Clear -29 1012 82 10000 3 280 17:22 24.12.2019
5878 Clear -27 1012 75 10000 2 270 16:58 24.12.2019
5879 Clear -27 1012 75 10000 2 270 16:39 24.12.2019
5880 Clear -26 1012 83 10000 2 300 16:20 24.12.2019
5881 Clear -27 1012 75 10000 3 270 15:57 24.12.2019
5882 Clouds -26 1012 75 10000 3 280 15:37 24.12.2019
5883 Clouds -26 1012 75 10000 3 280 15:19 24.12.2019
5884 Clear -26 1013 83 10000 2 280 14:58 24.12.2019
5885 Clear -26 1013 83 10000 2 280 14:39 24.12.2019
5886 Clouds -26 1013 83 10000 3 270 14:21 24.12.2019
5887 Clouds -26 1013 83 10000 3 270 14:21 24.12.2019
5888 Clouds -26 1013 83 10000 3 280 13:56 24.12.2019
5889 Clouds -26 1013 83 10000 3 270 13:37 24.12.2019
5890 Clouds -26 1013 83 10000 3 270 13:19 24.12.2019
5891 Clouds -25 1013 75 10000 3 280 12:56 24.12.2019
5892 Clouds -25 1013 75 10000 3 280 12:56 24.12.2019
5893 Clouds -25 1013 75 10000 3 280 12:56 24.12.2019
5894 Clouds -25 1013 75 10000 3 270 12:37 24.12.2019
5895 Clouds -25 1013 75 10000 3 270 12:19 24.12.2019
5896 Clouds -25 1013 75 10000 3 270 12:19 24.12.2019
5897 Clouds -25 1013 75 10000 3 270 12:19 24.12.2019
5898 Clouds -25 1013 83 10000 3 280 11:56 24.12.2019
5899 Clouds -25 1013 83 10000 3 280 11:37 24.12.2019
5900 Clouds -25 1013 83 10000 3 280 11:37 24.12.2019
5901 Clouds -25 1013 83 10000 3 280 11:19 24.12.2019
5902 Clouds -24 1013 76 10000 4 270 10:56 24.12.2019
5903 Clouds -24 1013 76 10000 4 270 10:56 24.12.2019
5904 Clouds -22 1013 83 10000 4 270 10:37 24.12.2019
5905 Clouds -22 1013 83 10000 4 270 10:19 24.12.2019
5906 Clouds -23 1012 83 10000 4 260 09:55 24.12.2019
5907 Clouds -23 1012 83 10000 4 280 09:37 24.12.2019
5908 Clouds -23 1012 83 10000 4 280 09:37 24.12.2019
5909 Clouds -23 1012 83 10000 4 280 09:19 24.12.2019
5910 Clouds -23 1012 83 10000 4 280 08:45 24.12.2019
5911 Clouds -22 1012 83 10000 4 280 08:24 24.12.2019
5912 Clouds -21 1012 83 10000 5 280 07:46 24.12.2019
5913 Clouds -22 1011 83 10000 5 280 07:26 24.12.2019
5914 Clouds -22 1011 83 10000 5 280 06:58 24.12.2019
5915 Clouds -23 1011 83 10000 5 280 06:38 24.12.2019
5916 Clouds -23 1011 83 10000 5 280 06:19 24.12.2019
5917 Clouds -22 1011 83 10000 5 280 05:40 24.12.2019
5918 Clouds -21 1011 83 10000 5 280 05:18 24.12.2019
5919 Snow -17 1010 84 10000 6 280 03:50 24.12.2019
5920 Clouds -18 1010 84 10000 6 280 03:23 24.12.2019
5921 Clouds -18 1010 84 10000 6 280 02:25 24.12.2019
5922 Clouds -18 1010 84 10000 6 280 02:25 24.12.2019
5923 Clear -19 1009 84 10000 6 280 01:51 24.12.2019
5924 Clear -19 1009 84 10000 6 280 01:51 24.12.2019
5925 Clear -18 1009 84 10000 6 290 01:23 24.12.2019
5926 Clear -18 1009 84 10000 6 290 00:46 24.12.2019
5927 Clear -19 1009 91 10000 6 280 00:26 24.12.2019
5928 Clear -19 1008 84 10000 5 280 23:59 23.12.2019
5929 Clear -19 1008 84 10000 5 280 23:40 23.12.2019
5930 Clear -17 1008 84 10000 6 290 23:22 23.12.2019
5931 Clear -17 1008 84 10000 6 290 22:56 23.12.2019
5932 Clear -16 1008 84 10000 5 290 22:37 23.12.2019
5933 Clear -16 1008 84 10000 5 290 22:18 23.12.2019
5934 Clear -16 1007 84 10000 6 290 21:55 23.12.2019
5935 Clear -15 1007 84 10000 6 290 21:36 23.12.2019
5936 Clear -15 1007 84 10000 6 290 21:18 23.12.2019
5937 Clear -15 1006 92 10000 6 290 20:57 23.12.2019
5938 Clear -15 1006 92 10000 6 290 20:39 23.12.2019
5939 Snow -16 1006 84 10000 5 280 20:18 23.12.2019
5940 Clouds -14 1006 84 10000 5 290 19:55 23.12.2019
5941 Snow -14 1006 92 9000 5 280 19:37 23.12.2019
5942 Snow -14 1006 92 9000 5 280 19:19 23.12.2019
5943 Snow -14 1005 92 9000 5 280 18:57 23.12.2019
5944 Snow -12 1005 92 8000 6 280 18:38 23.12.2019
5945 Snow -12 1005 92 8000 6 280 18:20 23.12.2019
5946 Snow -11 1005 92 6000 5 260 17:55 23.12.2019
5947 Snow -11 1005 92 6000 5 260 17:55 23.12.2019
5948 Snow -11 1005 92 3100 5 250 17:37 23.12.2019
5949 Snow -11 1005 92 3100 5 250 17:19 23.12.2019
5950 Snow -11 1005 92 6000 4 240 16:42 23.12.2019
5951 Snow -11 1005 92 6000 4 240 16:42 23.12.2019
5952 Snow -11 1005 92 4400 4 240 16:19 23.12.2019
5953 Snow -11 1005 92 3900 4 240 15:59 23.12.2019
5954 Snow -11 1005 92 3900 4 240 15:39 23.12.2019
5955 Snow -11 1005 92 5000 4 240 15:20 23.12.2019
5956 Snow -11 1005 92 4200 4 230 14:59 23.12.2019
5957 Snow -12 1004 92 4700 4 230 14:41 23.12.2019
5958 Snow -12 1004 92 4700 4 230 14:23 23.12.2019
5959 Snow -12 1005 92 3600 4 230 13:59 23.12.2019
5960 Snow -12 1005 92 3900 5 230 13:40 23.12.2019
5961 Snow -12 1005 92 3900 5 230 13:40 23.12.2019
5962 Snow -12 1005 92 3900 5 230 13:22 23.12.2019
5963 Snow -12 1005 92 3900 5 230 13:22 23.12.2019
5964 Snow -12 1005 92 3900 5 230 13:22 23.12.2019
5965 Snow -12 1005 92 3600 5 220 12:58 23.12.2019
5966 Snow -12 1005 92 3600 5 220 12:39 23.12.2019
5967 Snow -12 1005 92 1000 5 210 12:20 23.12.2019
5968 Snow -12 1005 85 600 4 210 11:44 23.12.2019
5969 Snow -12 1005 85 600 4 210 11:44 23.12.2019
5970 Snow -13 1005 92 1300 4 200 11:26 23.12.2019
5971 Snow -13 1005 92 1000 4 190 10:59 23.12.2019
5972 Snow -13 1005 92 1000 4 190 10:41 23.12.2019
5973 Snow -14 1006 92 1700 4 190 10:21 23.12.2019
5974 Snow -14 1006 92 900 5 190 09:59 23.12.2019
5975 Snow -14 1006 92 500 5 190 09:40 23.12.2019
5976 Snow -14 1006 92 500 5 190 09:21 23.12.2019
5977 Snow -15 1007 92 900 5 190 08:56 23.12.2019
5978 Snow -15 1008 84 900 4 190 08:38 23.12.2019
5979 Snow -15 1008 84 900 4 190 08:20 23.12.2019
5980 Snow -15 1008 84 8000 4 180 07:43 23.12.2019
5981 Snow -16 1009 91 6000 3 180 07:20 23.12.2019
5982 Mist -16 1009 84 10000 3 170 06:53 23.12.2019
5983 Clouds -17 1010 91 10000 3 180 06:26 23.12.2019
5984 Clouds -17 1011 84 9000 3 180 05:53 23.12.2019
5985 Clouds -17 1012 84 10000 3 190 05:28 23.12.2019
5986 Mist -18 1013 84 5000 2 180 04:31 23.12.2019
5987 Clouds -18 1014 84 9000 2 190 03:18 23.12.2019
5988 Clouds -18 1014 84 9000 1 190 02:40 23.12.2019
5989 Mist -18 1014 84 5000 2 190 02:19 23.12.2019
5990 Mist -18 1015 84 5000 1 0 01:42 23.12.2019
5991 Snow -18 1015 84 9000 1 190 01:20 23.12.2019
5992 Snow -18 1016 84 8000 1 0 00:43 23.12.2019
5993 Clouds -18 1016 84 9000 1 0 00:22 23.12.2019
5994 Mist -18 1016 84 5000 1 240 23:39 22.12.2019
5995 Clouds -18 1016 84 9000 1 190 23:21 22.12.2019
5996 Clouds -18 1017 91 7000 2.27 213 22:58 22.12.2019
5997 Clouds -18 1017 91 7000 2.27 213 22:39 22.12.2019
5998 Clouds -18 1017 91 8000 1 240 22:19 22.12.2019
5999 Mist -18 1017 91 5000 1 260 21:57 22.12.2019
6000 Mist -18 1017 91 5000 1 260 21:39 22.12.2019
6001 Clouds -18 1017 84 8000 1 280 21:21 22.12.2019
6002 Clouds -18 1017 84 7000 1 0 20:57 22.12.2019
6003 Clouds -18 1017 84 7000 1 0 20:38 22.12.2019
6004 Clouds -18 1017 84 7000 1 0 20:18 22.12.2019
6005 Clouds -18 1017 84 6000 1.39 119 19:55 22.12.2019
6006 Clouds -18 1017 84 6000 1.39 119 19:55 22.12.2019
6007 Clouds -18 1018 84 6000 1.39 119 19:37 22.12.2019
6008 Clouds -18 1018 84 6000 1.39 119 19:18 22.12.2019
6009 Mist -18 1018 84 4300 1 0 18:40 22.12.2019
6010 Mist -18 1018 84 2100 1 340 18:22 22.12.2019
6011 Mist -18 1018 84 5000 1 340 17:55 22.12.2019
6012 Fog -18 1018 84 6000 1 350 17:37 22.12.2019
6013 Fog -18 1018 84 6000 1 350 17:18 22.12.2019
6014 Clouds -19 1018 84 10000 1.54 45 16:56 22.12.2019
6015 Clouds -19 1018 84 10000 1.54 45 16:37 22.12.2019
6016 Clouds -19 1018 84 10000 1.54 45 16:19 22.12.2019
6017 Clouds -19 1018 91 10000 1.54 45 15:56 22.12.2019
6018 Clouds -19 1018 84 10000 1.54 45 15:36 22.12.2019
6019 Clouds -19 1018 84 10000 1.54 45 15:36 22.12.2019
6020 Clouds -19 1018 84 10000 1.54 45 15:18 22.12.2019
6021 Clouds -20 1018 83 10000 1.54 45 14:54 22.12.2019
6022 Clouds -20 1018 83 10000 1 0 14:36 22.12.2019
6023 Clouds -20 1018 83 10000 1 0 14:18 22.12.2019
6024 Clouds -20 1018 83 10000 2.83 37 13:55 22.12.2019
6025 Clouds -20 1018 83 10000 2.83 37 13:36 22.12.2019
6026 Clouds -20 1018 83 10000 2.83 37 13:18 22.12.2019
6027 Clouds -20 1018 83 10000 2.83 37 13:18 22.12.2019
6028 Clouds -20 1018 83 10000 2.91 37 12:54 22.12.2019
6029 Clouds -20 1018 83 10000 2.91 37 12:54 22.12.2019
6030 Clouds -20 1018 83 10000 2.91 37 12:54 22.12.2019
6031 Clouds -19 1017 84 10000 1 0 12:36 22.12.2019
6032 Clouds -19 1017 84 10000 1 0 12:18 22.12.2019
6033 Clouds -20 1017 91 7000 2.91 37 11:39 22.12.2019
6034 Clouds -19 1017 84 10000 2.58 48 11:20 22.12.2019
6035 Clouds -18 1017 84 10000 2.58 48 10:58 22.12.2019
6036 Clouds -18 1017 84 10000 2.58 48 10:40 22.12.2019
6037 Clouds -17 1017 84 10000 1 30 10:21 22.12.2019
6038 Clouds -17 1017 84 10000 1 40 09:58 22.12.2019
6039 Clouds -17 1017 84 10000 1 40 09:40 22.12.2019
6040 Clouds -17 1016 91 10000 2 50 09:21 22.12.2019
6041 Clouds -16 1016 84 9000 1 40 08:55 22.12.2019
6042 Clouds -16 1016 84 10000 2 70 08:37 22.12.2019
6043 Clouds -16 1016 84 10000 2 70 08:18 22.12.2019
6044 Snow -16 1016 84 8000 1 50 07:36 22.12.2019
6045 Snow -16 1016 84 8000 1 50 07:18 22.12.2019
6046 Snow -15 1016 84 4200 2 70 06:40 22.12.2019
6047 Snow -15 1016 92 7000 1 0 05:49 22.12.2019
6048 Snow -14 1016 92 4500 2 60 05:21 22.12.2019
6049 Snow -13 1015 92 7000 2 50 04:28 22.12.2019
6050 Snow -13 1015 92 6000 3 50 03:45 22.12.2019
6051 Snow -12 1015 92 6000 2 60 02:38 22.12.2019
6052 Snow -12 1015 92 6000 2 60 02:38 22.12.2019
6053 Snow -11 1015 92 6000 3 60 01:42 22.12.2019
6054 Snow -12 1015 100 8000 3 60 01:22 22.12.2019
6055 Snow -12 1014 100 8000 3 70 00:45 22.12.2019
6056 Snow -12 1014 100 7000 3 70 00:22 22.12.2019
6057 Snow -12 1014 92 6000 3 70 23:55 21.12.2019
6058 Snow -12 1014 92 6000 3 70 23:37 21.12.2019
6059 Snow -12 1014 92 6000 3 70 23:18 21.12.2019
6060 Snow -12 1014 92 6000 3 70 22:40 21.12.2019
6061 Snow -12 1014 92 6000 3 70 22:40 21.12.2019
6062 Snow -12 1014 92 4200 3 70 22:19 21.12.2019
6063 Snow -12 1014 92 4300 3 70 21:57 21.12.2019
6064 Snow -13 1014 92 3400 3 70 21:37 21.12.2019
6065 Snow -13 1014 92 3400 3 70 21:19 21.12.2019
6066 Snow -13 1014 92 3600 3 70 20:58 21.12.2019
6067 Snow -13 1014 92 3600 3 70 20:58 21.12.2019
6068 Snow -13 1014 92 3600 3 70 20:39 21.12.2019
6069 Snow -13 1014 92 3400 3 70 20:21 21.12.2019
6070 Snow -13 1014 92 4300 3 60 19:58 21.12.2019
6071 Snow -13 1014 92 4300 3 60 19:40 21.12.2019
6072 Snow -13 1014 92 5000 3 70 19:19 21.12.2019
6073 Snow -13 1014 92 3700 3 70 18:44 21.12.2019
6074 Snow -12 1014 92 5000 3 60 18:24 21.12.2019
6075 Snow -12 1014 92 3200 4 60 17:57 21.12.2019
6076 Snow -12 1014 92 3200 4 60 17:39 21.12.2019
6077 Snow -12 1014 92 4100 3 60 17:21 21.12.2019
6078 Snow -13 1014 92 4000 3 70 16:58 21.12.2019
6079 Snow -13 1014 92 4000 3 70 16:40 21.12.2019
6080 Snow -13 1014 92 4500 3 70 16:18 21.12.2019
6081 Snow -13 1014 92 4500 3 70 16:18 21.12.2019
6082 Snow -13 1014 84 7000 2 70 15:57 21.12.2019
6083 Snow -14 1014 92 6000 2 60 15:38 21.12.2019
6084 Snow -14 1014 92 6000 2 60 15:19 21.12.2019
6085 Snow -14 1014 84 9000 2 60 14:55 21.12.2019
6086 Mist -14 1014 84 5000 3 60 14:37 21.12.2019
6087 Mist -14 1014 84 5000 3 60 14:18 21.12.2019
6088 Clouds -15 1014 84 10000 4.14 67 13:54 21.12.2019
6089 Clouds -15 1014 84 10000 4.14 67 13:36 21.12.2019
6090 Clouds -15 1014 84 10000 4.09 65 13:18 21.12.2019
6091 Clouds -15 1014 92 10000 4.09 65 12:54 21.12.2019
6092 Clouds -15 1014 92 10000 2 60 12:36 21.12.2019
6093 Clouds -15 1014 92 10000 2 60 12:18 21.12.2019
6094 Clouds -15 1014 92 10000 1 50 11:41 21.12.2019
6095 Snow -15 1014 84 8000 1 50 11:23 21.12.2019
6096 Snow -16 1014 91 6000 1 50 10:42 21.12.2019
6097 Snow -16 1014 84 9000 1 60 10:23 21.12.2019
6098 Snow -16 1014 84 9000 1 60 10:23 21.12.2019
6099 Snow -16 1014 84 6000 2 50 09:59 21.12.2019
6100 Snow -16 1014 84 6000 2 50 09:41 21.12.2019
6101 Snow -16 1014 84 7000 2 60 09:20 21.12.2019
6102 Clouds -17 1014 91 10000 1 50 08:55 21.12.2019
6103 Clouds -17 1014 84 10000 1 60 08:36 21.12.2019
6104 Clouds -17 1014 84 10000 1 60 08:18 21.12.2019
6105 Clouds -16 1014 84 9000 2 50 07:41 21.12.2019
6106 Clouds -16 1014 84 6000 1 60 07:21 21.12.2019
6107 Mist -17 1014 84 5000 1 50 06:42 21.12.2019
6108 Mist -17 1015 84 3800 1 50 06:24 21.12.2019
6109 Mist -17 1014 84 5000 1 60 05:45 21.12.2019
6110 Clouds -17 1015 84 10000 2 70 04:57 21.12.2019
6111 Mist -17 1015 84 4800 2 70 03:56 21.12.2019
6112 Clouds -17 1015 84 6000 1 60 02:40 21.12.2019
6113 Fog -18 1015 91 2000 1 0 01:53 21.12.2019
6114 Mist -18 1015 84 3900 1 70 01:27 21.12.2019
6115 Clouds -18 1015 84 9000 1 0 00:50 21.12.2019
6116 Clouds -19 1015 91 10000 1 0 00:28 21.12.2019
6117 Mist -19 1015 84 2900 2 80 23:55 20.12.2019
6118 Mist -19 1015 84 1500 2 70 23:37 20.12.2019
6119 Mist -19 1015 84 1500 2 70 23:18 20.12.2019
6120 Mist -20 1015 83 1200 2 70 22:40 20.12.2019
6121 Clouds -20 1015 83 9000 2 70 22:21 20.12.2019
6122 Clouds -20 1015 83 10000 2 70 21:57 20.12.2019
6123 Clouds -20 1015 83 10000 2 70 21:39 20.12.2019
6124 Clouds -21 1015 83 10000 2 80 21:18 20.12.2019
6125 Clouds -21 1015 83 9000 3 70 20:39 20.12.2019
6126 Clouds -21 1015 83 10000 2 70 20:19 20.12.2019
6127 Clouds -21 1015 83 10000 2 70 19:57 20.12.2019
6128 Clouds -21 1015 83 10000 2 70 19:57 20.12.2019
6129 Clouds -21 1015 83 10000 2 70 19:39 20.12.2019
6130 Clouds -21 1015 83 10000 3 60 19:19 20.12.2019
6131 Clouds -21 1015 83 10000 2 70 18:42 20.12.2019
6132 Clouds -21 1015 83 10000 2 70 18:24 20.12.2019
6133 Clouds -21 1015 83 10000 2 70 17:58 20.12.2019
6134 Clouds -21 1015 83 10000 2 70 17:40 20.12.2019
6135 Clouds -21 1015 83 10000 2 70 17:21 20.12.2019
6136 Clouds -22 1015 83 10000 2 70 16:59 20.12.2019
6137 Clouds -22 1015 76 10000 2 70 16:38 20.12.2019
6138 Clouds -22 1015 76 10000 2 70 16:20 20.12.2019
6139 Clouds -22 1015 83 9000 2 70 15:56 20.12.2019
6140 Clouds -22 1015 83 10000 2 70 15:38 20.12.2019
6141 Clouds -22 1015 83 10000 2 70 15:38 20.12.2019
6142 Clouds -22 1015 83 10000 2 70 15:19 20.12.2019
6143 Clouds -20 1014 83 10000 2 100 14:43 20.12.2019
6144 Clouds -22 1014 83 10000 3 70 14:25 20.12.2019
6145 Clouds -22 1014 83 10000 2 60 13:59 20.12.2019
6146 Clouds -22 1014 83 10000 2 60 13:59 20.12.2019
6147 Clouds -22 1014 83 10000 2 70 13:40 20.12.2019
6148 Clouds -22 1014 83 10000 2 70 13:19 20.12.2019
6149 Clouds -21 1014 83 10000 2 70 12:57 20.12.2019
6150 Clouds -21 1014 83 10000 2 70 12:37 20.12.2019
6151 Clouds -21 1014 83 10000 2 70 12:18 20.12.2019
6152 Clouds -20 1014 83 9000 2 80 11:57 20.12.2019
6153 Clouds -21 1014 83 9000 2 70 11:39 20.12.2019
6154 Clouds -21 1014 83 9000 2 70 11:18 20.12.2019
6155 Clouds -20 1014 83 7000 2 100 10:56 20.12.2019
6156 Clouds -19 1013 84 9000 2 100 10:38 20.12.2019
6157 Clouds -19 1013 84 9000 2 100 10:20 20.12.2019
6158 Clouds -20 1013 83 9000 2 70 09:43 20.12.2019
6159 Clouds -19 1013 84 9000 1 0 09:21 20.12.2019
6160 Mist -19 1014 84 9000 2 110 08:58 20.12.2019
6161 Clouds -19 1013 91 8000 2 110 08:40 20.12.2019
6162 Clouds -19 1013 91 8000 2 110 08:21 20.12.2019
6163 Clouds -19 1013 84 9000 2 100 07:57 20.12.2019
6164 Clouds -19 1013 84 9000 2 100 07:57 20.12.2019
6165 Clouds -19 1013 84 6000 2 90 07:38 20.12.2019
6166 Clouds -19 1013 84 6000 2 90 07:18 20.12.2019
6167 Snow -19 1013 84 4100 2 100 06:46 20.12.2019
6168 Snow -19 1013 91 3800 2 110 06:28 20.12.2019
6169 Snow -18 1013 84 3300 1 0 05:48 20.12.2019
6170 Snow -18 1013 84 3300 2 90 05:18 20.12.2019
6171 Mist -17 1012 91 5000 2 140 03:50 20.12.2019
6172 Clouds -17 1012 91 6000 2 160 03:20 20.12.2019
6173 Clouds -18 1012 84 7000 1 0 02:20 20.12.2019
6174 Mist -17 1011 84 4400 2 160 01:36 20.12.2019
6175 Clouds -18 1011 91 7000 1 140 00:57 20.12.2019
6176 Clouds -18 1011 84 9000 1 0 00:35 20.12.2019
6177 Clouds -18 1011 84 6000 2 150 23:58 19.12.2019
6178 Clouds -19 1011 91 9000 2 120 23:40 19.12.2019
6179 Clouds -19 1011 91 9000 2 120 23:21 19.12.2019
6180 Clouds -19 1011 91 9000 2 120 23:21 19.12.2019
6181 Clouds -19 1011 91 7000 2 120 22:40 19.12.2019
6182 Clouds -19 1011 91 7000 2 120 22:22 19.12.2019
6183 Mist -18 1011 84 5000 2 140 21:59 19.12.2019
6184 Mist -18 1011 84 5000 2 140 21:59 19.12.2019
6185 Clouds -19 1011 84 8000 2 150 21:41 19.12.2019
6186 Clouds -19 1011 84 8000 2 150 21:19 19.12.2019
6187 Clouds -20 1011 91 10000 1 120 20:57 19.12.2019
6188 Clouds -20 1011 83 9000 1 100 20:38 19.12.2019
6189 Clouds -20 1011 83 9000 1 100 20:20 19.12.2019
6190 Clouds -20 1011 91 9000 2 110 19:58 19.12.2019
6191 Clouds -20 1011 91 7000 2 100 19:40 19.12.2019
6192 Clouds -20 1011 91 7000 2 100 19:19 19.12.2019
6193 Clouds -20 1011 91 7000 2 100 19:19 19.12.2019
6194 Clouds -20 1011 91 7000 2 100 19:19 19.12.2019
6195 Clouds -19 1011 84 7000 2 110 18:58 19.12.2019
6196 Mist -19 1011 84 5000 2 100 18:40 19.12.2019
6197 Mist -19 1011 84 5000 2 100 18:19 19.12.2019
6198 Clouds -19 1011 84 6000 2 110 17:56 19.12.2019
6199 Clouds -19 1011 91 6000 2 110 17:37 19.12.2019
6200 Clouds -19 1011 91 6000 2 110 17:18 19.12.2019
6201 Mist -19 1011 91 7000 2 100 16:56 19.12.2019
6202 Mist -18 1011 84 5000 2 110 16:37 19.12.2019
6203 Mist -18 1011 84 5000 2 110 16:19 19.12.2019
6204 Mist -18 1011 84 5000 2 120 15:56 19.12.2019
6205 Mist -18 1011 91 4100 2 110 15:37 19.12.2019
6206 Mist -18 1011 91 4100 2 110 15:19 19.12.2019
6207 Mist -18 1011 91 4100 2 110 15:19 19.12.2019
6208 Clouds -18 1012 84 9000 2 110 14:43 19.12.2019
6209 Clouds -18 1012 91 10000 2 110 14:20 19.12.2019
6210 Clouds -19 1011 84 10000 1 0 13:59 19.12.2019
6211 Clouds -19 1011 84 10000 2 70 13:38 19.12.2019
6212 Clouds -19 1011 84 10000 2 70 13:19 19.12.2019
6213 Clouds -19 1011 84 8000 2 70 12:57 19.12.2019
6214 Clouds -18 1012 84 10000 2 80 12:39 19.12.2019
6215 Clouds -18 1012 84 10000 2 80 12:19 19.12.2019
6216 Clouds -18 1012 84 10000 2 80 12:19 19.12.2019
6217 Clouds -18 1012 84 10000 2 90 11:58 19.12.2019
6218 Clouds -18 1012 91 10000 2 100 11:40 19.12.2019
6219 Clouds -18 1012 91 10000 2 100 11:18 19.12.2019
6220 Clouds -17 1012 91 10000 2 100 10:58 19.12.2019
6221 Clouds -17 1012 91 10000 2 100 10:38 19.12.2019
6222 Clouds -17 1012 91 10000 2 100 10:20 19.12.2019
6223 Clouds -17 1012 91 9000 2 100 09:54 19.12.2019
6224 Mist -16 1013 84 8000 1 0 09:36 19.12.2019
6225 Mist -16 1013 84 8000 1 0 09:18 19.12.2019
6226 Mist -16 1013 91 2500 2 100 08:41 19.12.2019
6227 Mist -16 1013 91 2500 2 100 08:19 19.12.2019
6228 Fog -16 1013 91 2200 1 110 07:58 19.12.2019
6229 Fog -16 1013 84 2100 2 110 07:38 19.12.2019
6230 Fog -16 1013 84 2100 2 110 07:20 19.12.2019
6231 Fog -16 1013 91 2300 2 120 06:50 19.12.2019
6232 Fog -16 1013 91 2300 2 120 06:50 19.12.2019
6233 Mist -16 1013 91 2700 2 120 06:29 19.12.2019
6234 Mist -16 1013 91 3200 2 110 05:55 19.12.2019
6235 Mist -16 1013 91 3800 2 110 05:36 19.12.2019
6236 Clouds -15 1014 92 7000 2 100 04:52 19.12.2019
6237 Snow -14 1014 92 1900 2 100 03:21 19.12.2019
6238 Mist -13 1014 92 2500 2 90 02:22 19.12.2019
6239 Mist -13 1015 100 3700 2 150 01:22 19.12.2019
6240 Mist -12 1015 92 4000 3 150 00:43 19.12.2019
6241 Mist -12 1015 92 4000 3 150 00:24 19.12.2019
6242 Mist -12 1015 92 4500 3 150 23:57 18.12.2019
6243 Clouds -12 1015 100 7000 3 150 23:38 18.12.2019
6244 Clouds -12 1015 100 7000 3 150 23:18 18.12.2019
6245 Clouds -12 1015 100 10000 3 140 22:55 18.12.2019
6246 Clouds -12 1015 100 10000 3 150 22:36 18.12.2019
6247 Clouds -12 1015 100 10000 3 150 22:18 18.12.2019
6248 Mist -11 1015 100 5000 3 150 21:56 18.12.2019
6249 Mist -11 1015 100 5000 3 150 21:56 18.12.2019
6250 Clouds -11 1016 92 10000 3 150 21:37 18.12.2019
6251 Clouds -11 1016 92 10000 3 150 21:19 18.12.2019
6252 Clouds -11 1016 100 10000 2 150 20:55 18.12.2019
6253 Clouds -11 1016 100 10000 3 150 20:37 18.12.2019
6254 Clouds -11 1016 100 10000 3 150 20:18 18.12.2019
6255 Clouds -10 1016 100 10000 3 150 19:55 18.12.2019
6256 Clouds -10 1016 100 10000 4 160 19:37 18.12.2019
6257 Clouds -10 1016 100 10000 4 160 19:18 18.12.2019
6258 Clouds -10 1016 100 10000 4 160 19:18 18.12.2019
6259 Clouds -8 1016 100 8000 3 160 18:43 18.12.2019
6260 Clouds -8 1016 100 8000 3 160 18:25 18.12.2019
6261 Clouds -8 1016 100 8000 3 160 18:25 18.12.2019
6262 Mist -8 1016 100 3600 3 150 17:57 18.12.2019
6263 Mist -8 1016 100 5000 2 140 17:38 18.12.2019
6264 Mist -8 1016 100 5000 2 140 17:19 18.12.2019
6265 Mist -8 1016 100 2200 2 110 16:54 18.12.2019
6266 Mist -8 1017 100 2800 2 100 16:36 18.12.2019
6267 Mist -8 1017 100 2800 2 100 16:18 18.12.2019
6268 Mist -9 1017 100 5000 2 100 15:55 18.12.2019
6269 Clouds -9 1017 100 10000 2 100 15:36 18.12.2019
6270 Clouds -9 1017 100 10000 2 100 15:18 18.12.2019
6271 Clouds -9 1017 100 10000 2 100 14:40 18.12.2019
6272 Clouds -9 1017 100 10000 2 160 14:20 18.12.2019
6273 Clouds -9 1017 100 10000 2 160 13:57 18.12.2019
6274 Clouds -9 1017 100 10000 3 110 13:37 18.12.2019
6275 Clouds -9 1017 100 10000 3 110 13:19 18.12.2019
6276 Clouds -9 1017 100 10000 1 0 12:57 18.12.2019
6277 Clouds -9 1017 100 10000 1 0 12:37 18.12.2019
6278 Clouds -9 1017 100 10000 1 0 12:19 18.12.2019
6279 Clouds -9 1017 100 10000 2 110 11:55 18.12.2019
6280 Clouds -9 1017 100 10000 2 110 11:37 18.12.2019
6281 Clouds -9 1017 100 10000 2 110 11:37 18.12.2019
6282 Clouds -9 1017 100 10000 2 110 11:18 18.12.2019
6283 Clouds -9 1018 100 10000 2 110 10:55 18.12.2019
6284 Clouds -10 1018 100 10000 2 80 10:37 18.12.2019
6285 Clouds -10 1018 100 10000 2 80 10:37 18.12.2019
6286 Clouds -10 1018 100 10000 2 80 10:18 18.12.2019
6287 Clouds -9 1018 100 10000 2 200 09:43 18.12.2019
6288 Clouds -10 1018 100 10000 1 0 09:18 18.12.2019
6289 Clouds -10 1018 100 10000 1 0 09:18 18.12.2019
6290 Clouds -8 1018 100 10000 2 190 08:40 18.12.2019
6291 Clouds -9 1018 100 10000 2 190 08:21 18.12.2019
6292 Clouds -9 1018 100 10000 2 180 07:43 18.12.2019
6293 Clouds -9 1018 100 10000 2 190 07:22 18.12.2019
6294 Clouds -9 1018 100 10000 2 190 06:55 18.12.2019
6295 Clouds -10 1018 100 10000 2 180 06:27 18.12.2019
6296 Clouds -10 1018 100 10000 2 190 05:47 18.12.2019
6297 Clouds -10 1018 100 10000 2 200 04:52 18.12.2019
6298 Clouds -14 1019 92 10000 1 0 02:55 18.12.2019
6299 Clouds -14 1019 92 10000 1 0 02:36 18.12.2019
6300 Clouds -14 1019 92 10000 1 0 02:18 18.12.2019
6301 Clouds -15 1019 92 10000 1 0 01:40 18.12.2019
6302 Clouds -14 1019 92 10000 2 180 01:21 18.12.2019
6303 Clouds -13 1019 92 10000 2 190 00:40 18.12.2019
6304 Clouds -13 1019 92 10000 2 190 00:22 18.12.2019
6305 Clouds -13 1019 100 10000 1 150 23:56 17.12.2019
6306 Clouds -13 1019 92 10000 1 0 23:37 17.12.2019
6307 Clouds -13 1019 92 10000 1 0 23:18 17.12.2019
6308 Clouds -13 1020 100 10000 1 170 22:55 17.12.2019
6309 Clouds -13 1020 100 10000 1 0 22:37 17.12.2019
6310 Clouds -13 1020 100 10000 1 0 22:18 17.12.2019
6311 Clouds -13 1020 100 10000 1 150 21:55 17.12.2019
6312 Clouds -13 1020 100 10000 1 150 21:55 17.12.2019
6313 Clouds -13 1020 100 10000 2 150 21:37 17.12.2019
6314 Clouds -13 1020 100 10000 2 150 21:18 17.12.2019
6315 Clouds -13 1020 100 10000 2 150 20:55 17.12.2019
6316 Clouds -13 1020 100 10000 2 150 20:37 17.12.2019
6317 Clear -13 1020 100 10000 2 150 20:18 17.12.2019
6318 Clear -13 1020 100 10000 2 150 19:41 17.12.2019
6319 Clear -13 1020 100 10000 2 150 19:41 17.12.2019
6320 Clear -13 1020 100 10000 2 160 19:20 17.12.2019
6321 Clear -12 1020 100 10000 3 190 18:58 17.12.2019
6322 Clear -11 1020 92 10000 3 190 18:40 17.12.2019
6323 Clear -11 1020 92 10000 3 190 18:21 17.12.2019
6324 Clear -11 1021 92 10000 3 190 17:58 17.12.2019
6325 Clear -11 1021 92 10000 3 190 17:40 17.12.2019
6326 Clear -11 1021 92 10000 3 190 17:19 17.12.2019
6327 Clear -11 1021 92 10000 3 180 16:56 17.12.2019
6328 Clear -12 1021 100 10000 2 170 16:37 17.12.2019
6329 Clear -12 1021 100 10000 2 170 16:19 17.12.2019
6330 Clear -12 1021 100 10000 2 150 15:55 17.12.2019
6331 Clear -12 1021 100 10000 2 150 15:37 17.12.2019
6332 Clear -12 1021 100 10000 2 150 15:18 17.12.2019
6333 Clear -12 1022 100 10000 2 150 14:55 17.12.2019
6334 Clear -11 1022 92 10000 3 160 14:36 17.12.2019
6335 Clouds -11 1022 92 10000 3 160 14:18 17.12.2019
6336 Clouds -11 1022 92 10000 2 160 13:55 17.12.2019
6337 Clouds -11 1022 100 10000 3 170 13:37 17.12.2019
6338 Clouds -11 1022 100 10000 3 170 13:18 17.12.2019
6339 Clouds -11 1022 92 10000 4 160 12:41 17.12.2019
6340 Clouds -11 1022 92 10000 4 160 12:19 17.12.2019
6341 Clouds -11 1022 92 10000 4 160 12:19 17.12.2019
6342 Clouds -12 1023 100 10000 3 150 11:59 17.12.2019
6343 Clouds -12 1022 100 10000 3 150 11:37 17.12.2019
6344 Clouds -12 1022 100 10000 3 150 11:19 17.12.2019
6345 Clouds -12 1022 100 10000 2 150 10:59 17.12.2019
6346 Clouds -11 1023 92 10000 2 150 10:41 17.12.2019
6347 Clouds -11 1023 92 10000 2 150 10:22 17.12.2019
6348 Clouds -11 1023 100 10000 2 150 09:59 17.12.2019
6349 Clouds -11 1023 100 10000 2 150 09:41 17.12.2019
6350 Clouds -11 1023 100 10000 2 150 09:41 17.12.2019
6351 Clouds -11 1023 100 10000 2 150 09:20 17.12.2019
6352 Clouds -11 1023 100 10000 3 150 08:56 17.12.2019
6353 Clouds -11 1023 100 10000 2 160 08:38 17.12.2019
6354 Clouds -11 1023 100 10000 2 160 08:19 17.12.2019
6355 Snow -11 1023 100 10000 3 180 07:46 17.12.2019
6356 Snow -11 1023 92 10000 3 190 07:26 17.12.2019
6357 Snow -12 1023 100 10000 3 200 06:56 17.12.2019
6358 Snow -12 1024 100 10000 3 200 06:35 17.12.2019
6359 Clouds -12 1024 100 10000 3 190 05:53 17.12.2019
6360 Clouds -12 1024 100 10000 3 190 05:34 17.12.2019
6361 Clouds -12 1024 100 10000 2 180 04:30 17.12.2019
6362 Clouds -12 1024 92 10000 3 190 02:34 17.12.2019
6363 Clouds -12 1024 92 10000 3 190 02:34 17.12.2019
6364 Clouds -13 1024 100 10000 3 190 01:55 17.12.2019
6365 Clouds -13 1025 100 10000 2 220 00:58 17.12.2019
6366 Clouds -12 1025 92 10000 3 210 00:37 17.12.2019
6367 Clouds -12 1025 92 10000 3 210 00:19 17.12.2019
6368 Clouds -12 1025 100 10000 2 210 23:41 16.12.2019
6369 Clouds -12 1025 100 10000 2 210 23:19 16.12.2019
6370 Clouds -12 1025 100 10000 2 210 22:56 16.12.2019
6371 Clouds -12 1025 100 10000 3 200 22:37 16.12.2019
6372 Clouds -12 1025 100 10000 3 200 22:19 16.12.2019
6373 Clouds -11 1025 92 10000 3 210 21:55 16.12.2019
6374 Clouds -11 1025 100 10000 3 220 21:37 16.12.2019
6375 Clouds -11 1025 100 10000 3 220 21:19 16.12.2019
6376 Clouds -11 1025 100 10000 2 220 20:57 16.12.2019
6377 Clouds -11 1025 100 10000 2 220 20:57 16.12.2019
6378 Clouds -11 1024 92 10000 3 220 20:37 16.12.2019
6379 Clouds -11 1024 92 10000 3 220 20:19 16.12.2019
6380 Clouds -11 1025 100 10000 3 230 19:55 16.12.2019
6381 Clouds -11 1025 100 10000 3 240 19:37 16.12.2019
6382 Clouds -11 1025 100 10000 3 240 19:18 16.12.2019
6383 Clouds -11 1025 100 10000 2 230 18:56 16.12.2019
6384 Clouds -11 1025 100 10000 2 230 18:37 16.12.2019
6385 Clouds -11 1025 100 10000 2 230 18:19 16.12.2019
6386 Clouds -11 1025 100 10000 2 230 18:19 16.12.2019
6387 Snow -11 1025 100 10000 3 240 17:57 16.12.2019
6388 Snow -11 1025 100 10000 2 240 17:37 16.12.2019
6389 Snow -11 1025 100 10000 2 240 17:19 16.12.2019
6390 Snow -10 1025 100 10000 2 250 16:55 16.12.2019
6391 Snow -10 1025 100 10000 2 250 16:37 16.12.2019
6392 Snow -10 1025 100 10000 2 250 16:18 16.12.2019
6393 Clouds -10 1025 100 8000 2 250 15:57 16.12.2019
6394 Clouds -10 1025 100 10000 2 250 15:37 16.12.2019
6395 Clouds -10 1025 100 10000 2 250 15:19 16.12.2019
6396 Clouds -9 1025 100 10000 2 240 14:54 16.12.2019
6397 Snow -9 1025 100 10000 2 240 14:36 16.12.2019
6398 Snow -9 1025 100 10000 2 240 14:18 16.12.2019
6399 Snow -9 1025 100 10000 2 240 14:18 16.12.2019
6400 Snow -9 1025 100 10000 2 240 13:55 16.12.2019
6401 Clouds -8 1025 100 10000 2 220 13:36 16.12.2019
6402 Clouds -8 1025 100 10000 2 220 13:18 16.12.2019
6403 Clouds -8 1025 100 10000 2 220 13:18 16.12.2019
6404 Clouds -8 1025 100 10000 2 220 12:54 16.12.2019
6405 Clouds -7 1025 100 10000 2 230 12:36 16.12.2019
6406 Clouds -7 1025 100 10000 2 230 12:18 16.12.2019
6407 Clouds -7 1025 100 10000 2 240 11:55 16.12.2019
6408 Clouds -7 1025 100 10000 3 240 11:37 16.12.2019
6409 Clouds -7 1025 100 10000 3 240 11:19 16.12.2019
6410 Clouds -6 1024 100 10000 3 240 10:40 16.12.2019
6411 Clouds -6 1024 100 10000 3 240 10:21 16.12.2019
6412 Snow -6 1024 100 10000 3 240 09:56 16.12.2019
6413 Snow -6 1024 100 9000 3 250 09:38 16.12.2019
6414 Snow -6 1024 100 9000 3 250 09:20 16.12.2019
6415 Clouds -6 1024 100 10000 3 240 08:40 16.12.2019
6416 Clouds -6 1024 100 10000 3 240 08:19 16.12.2019
6417 Clouds -6 1024 100 10000 3 240 08:19 16.12.2019
6418 Snow -6 1024 100 10000 3 250 07:52 16.12.2019
6419 Snow -6 1024 100 10000 3 250 07:31 16.12.2019
6420 Snow -6 1024 100 10000 3 250 06:52 16.12.2019
6421 Snow -6 1024 100 9000 2 240 06:27 16.12.2019
6422 Snow -6 1024 100 9000 3 250 05:59 16.12.2019
6423 Snow -6 1024 100 9000 3 250 05:40 16.12.2019
6424 Snow -6 1024 100 9000 3 250 05:22 16.12.2019
6425 Snow -7 1024 100 10000 3 250 03:28 16.12.2019
6426 Snow -7 1024 100 8000 4 250 01:46 16.12.2019
6427 Clouds -7 1024 100 10000 3 250 01:21 16.12.2019
6428 Clouds -7 1024 100 10000 3 250 00:39 16.12.2019
6429 Clouds -7 1024 100 10000 3 250 00:19 16.12.2019
6430 Clouds -7 1024 100 10000 3 240 23:44 15.12.2019
6431 Clouds -7 1024 100 10000 3 240 23:25 15.12.2019
6432 Clouds -7 1024 100 10000 2 240 22:57 15.12.2019
6433 Clouds -7 1024 100 10000 3 240 22:39 15.12.2019
6434 Clouds -7 1024 100 10000 3 240 22:19 15.12.2019
6435 Clouds -7 1024 100 10000 3 250 21:58 15.12.2019
6436 Clouds -7 1024 100 10000 3 250 21:39 15.12.2019
6437 Clouds -7 1024 100 10000 3 250 21:20 15.12.2019
6438 Clouds -7 1024 100 10000 3 240 20:58 15.12.2019
6439 Clouds -7 1024 100 10000 3 240 20:58 15.12.2019
6440 Snow -7 1024 100 9000 3 240 20:40 15.12.2019
6441 Snow -7 1024 100 9000 3 240 20:40 15.12.2019
6442 Snow -7 1024 100 9000 3 240 20:22 15.12.2019
6443 Snow -7 1024 100 10000 3 240 19:58 15.12.2019
6444 Snow -7 1024 100 10000 3 240 19:40 15.12.2019
6445 Snow -7 1024 100 10000 3 240 19:20 15.12.2019
6446 Snow -7 1024 100 9000 3 230 18:58 15.12.2019
6447 Snow -7 1024 100 10000 3 230 18:39 15.12.2019
6448 Snow -7 1024 100 10000 3 230 18:19 15.12.2019
6449 Snow -7 1024 100 8000 3 240 17:57 15.12.2019
6450 Snow -7 1024 100 10000 3 240 17:38 15.12.2019
6451 Snow -7 1024 100 10000 3 240 17:19 15.12.2019
6452 Snow -7 1024 100 10000 3 230 16:59 15.12.2019
6453 Snow -7 1024 100 9000 3 220 16:41 15.12.2019
6454 Snow -7 1024 100 9000 3 220 16:21 15.12.2019
6455 Snow -7 1025 100 9000 3 230 15:56 15.12.2019
6456 Snow -7 1025 100 9000 3 230 15:56 15.12.2019
6457 Snow -7 1025 100 10000 3 230 15:38 15.12.2019
6458 Snow -7 1025 100 10000 3 230 15:19 15.12.2019
6459 Snow -7 1025 100 10000 3 210 14:56 15.12.2019
6460 Snow -7 1025 100 10000 2 210 14:37 15.12.2019
6461 Snow -7 1025 100 10000 2 210 14:18 15.12.2019
6462 Clouds -7 1025 100 10000 2 210 13:58 15.12.2019
6463 Snow -6 1025 100 10000 2 210 13:37 15.12.2019
6464 Snow -6 1025 100 10000 2 210 13:19 15.12.2019
6465 Clouds -6 1025 100 10000 2 210 12:56 15.12.2019
6466 Snow -6 1025 100 10000 2 200 12:38 15.12.2019
6467 Snow -6 1025 100 10000 2 200 12:20 15.12.2019
6468 Snow -6 1025 100 6000 2 190 11:56 15.12.2019
6469 Snow -6 1025 100 10000 2 190 11:36 15.12.2019
6470 Snow -6 1025 100 10000 2 190 11:18 15.12.2019
6471 Snow -6 1025 100 7000 2 200 10:55 15.12.2019
6472 Snow -6 1025 100 3800 2 200 10:36 15.12.2019
6473 Snow -6 1025 100 3800 2 200 10:18 15.12.2019
6474 Clouds -6 1025 92 10000 2 200 09:40 15.12.2019
6475 Clouds -6 1025 92 10000 2 200 09:20 15.12.2019
6476 Clouds -7 1025 100 10000 2 200 08:58 15.12.2019
6477 Clouds -7 1025 100 10000 2 200 08:39 15.12.2019
6478 Clouds -7 1025 100 10000 2 200 08:20 15.12.2019
6479 Clouds -7 1025 100 10000 1 0 07:56 15.12.2019
6480 Clouds -7 1025 100 10000 2 210 07:34 15.12.2019
6481 Clouds -7 1025 100 10000 2 220 06:44 15.12.2019
6482 Clouds -7 1025 100 10000 2 220 06:19 15.12.2019
6483 Clouds -7 1026 100 10000 2 210 05:26 15.12.2019
6484 Clouds -7 1026 100 10000 2 210 04:47 15.12.2019
6485 Clouds -8 1026 100 10000 2 210 03:29 15.12.2019
6486 Clouds -8 1026 100 10000 2 220 02:34 15.12.2019
6487 Clouds -8 1026 100 6000 2 210 01:47 15.12.2019
6488 Mist -9 1026 100 4200 1 0 01:28 15.12.2019
6489 Mist -9 1025 100 1700 1 200 00:57 15.12.2019
6490 Fog -10 1026 100 1000 1 210 00:38 15.12.2019
6491 Fog -10 1026 100 1000 1 210 00:20 15.12.2019
6492 Mist -10 1025 100 1800 2 220 23:39 14.12.2019
6493 Mist -10 1025 100 1800 2 220 23:19 14.12.2019
6494 Mist -10 1025 100 1400 1 0 22:58 14.12.2019
6495 Clouds -11 1025 100 9000 1 0 22:40 14.12.2019
6496 Clouds -11 1025 100 9000 1 0 22:20 14.12.2019
6497 Clouds -11 1025 100 8000 1 0 21:56 14.12.2019
6498 Mist -11 1025 100 3300 1 220 21:37 14.12.2019
6499 Mist -11 1025 100 3300 1 220 21:18 14.12.2019
6500 Fog -11 1025 100 550 2.22 227 20:56 14.12.2019
6501 Fog -11 1025 100 3500 2.22 227 20:37 14.12.2019
6502 Fog -11 1025 100 3500 2.23 236 20:19 14.12.2019
6503 Fog -11 1025 100 3500 2.23 236 20:19 14.12.2019
6504 Mist -11 1025 92 1600 1 0 19:54 14.12.2019
6505 Mist -12 1025 100 2100 2.23 236 19:36 14.12.2019
6506 Mist -12 1025 100 2100 2.23 236 19:18 14.12.2019
6507 Mist -12 1025 100 3000 2.23 236 18:55 14.12.2019
6508 Mist -12 1025 92 4000 1 200 18:36 14.12.2019
6509 Mist -12 1025 92 4000 1 200 18:18 14.12.2019
6510 Mist -13 1024 92 2500 2.23 236 17:42 14.12.2019
6511 Mist -13 1024 92 2500 2.24 237 17:22 14.12.2019
6512 Mist -13 1024 92 6000 2.24 237 16:42 14.12.2019
6513 Mist -13 1024 92 4200 2.24 237 16:20 14.12.2019
6514 Clouds -14 1024 100 9000 1 0 15:57 14.12.2019
6515 Clouds -14 1023 92 10000 1 0 15:38 14.12.2019
6516 Clouds -14 1023 92 10000 1 0 15:20 14.12.2019
6517 Clouds -14 1023 92 10000 1 240 14:57 14.12.2019
6518 Clouds -14 1023 92 10000 1 250 14:38 14.12.2019
6519 Clouds -14 1023 92 10000 1 250 14:38 14.12.2019
6520 Clouds -14 1023 92 10000 1 250 14:19 14.12.2019
6521 Clouds -14 1023 92 10000 1 270 13:44 14.12.2019
6522 Fog -15 1023 92 9000 1 250 13:20 14.12.2019
6523 Clouds -15 1022 92 10000 1 0 12:58 14.12.2019
6524 Clouds -15 1022 92 10000 1 280 12:40 14.12.2019
6525 Clouds -15 1022 92 10000 1 280 12:40 14.12.2019
6526 Clouds -15 1022 92 10000 1 280 12:20 14.12.2019
6527 Clouds -15 1022 84 10000 1 250 11:58 14.12.2019
6528 Clouds -15 1021 84 10000 1 0 11:39 14.12.2019
6529 Clouds -15 1021 84 10000 1 0 11:19 14.12.2019
6530 Clouds -16 1021 91 10000 1 270 10:57 14.12.2019
6531 Clouds -16 1021 91 10000 1 280 10:39 14.12.2019
6532 Clouds -16 1021 91 10000 1 280 10:20 14.12.2019
6533 Clouds -16 1021 91 10000 1 280 09:55 14.12.2019
6534 Clouds -16 1020 84 10000 1 0 09:37 14.12.2019
6535 Clouds -16 1020 84 10000 1 0 09:18 14.12.2019
6536 Clouds -17 1020 84 10000 1 290 08:42 14.12.2019
6537 Clouds -17 1020 84 10000 1 290 08:42 14.12.2019
6538 Clouds -17 1020 84 10000 2 280 08:19 14.12.2019
6539 Clouds -18 1020 91 10000 2 280 07:44 14.12.2019
6540 Clouds -18 1019 91 10000 3 280 07:23 14.12.2019
6541 Clouds -17 1019 84 10000 2 250 06:56 14.12.2019
6542 Clouds -17 1018 91 10000 2 250 06:37 14.12.2019
6543 Clouds -17 1018 84 9000 2 270 05:57 14.12.2019
6544 Clouds -16 1017 91 10000 2 250 04:47 14.12.2019
6545 Clouds -16 1016 91 9000 2 270 02:31 14.12.2019
6546 Clouds -16 1016 91 9000 3 280 01:49 14.12.2019
6547 Clouds -16 1016 91 10000 3 280 01:31 14.12.2019
6548 Clouds -16 1016 91 10000 3 280 00:45 14.12.2019
6549 Clouds -15 1016 92 10000 4 250 00:27 14.12.2019
6550 Clouds -15 1015 92 10000 3 250 23:54 13.12.2019
6551 Clouds -15 1015 92 10000 3 250 23:36 13.12.2019
6552 Clouds -15 1015 92 10000 3 250 23:18 13.12.2019
6553 Snow -15 1014 92 10000 3 250 22:40 13.12.2019
6554 Snow -15 1014 92 10000 3 250 22:19 13.12.2019
6555 Snow -14 1014 92 8000 4 250 21:55 13.12.2019
6556 Snow -14 1014 92 6000 4 250 21:37 13.12.2019
6557 Snow -14 1014 92 6000 4 250 21:19 13.12.2019
6558 Clouds -13 1014 100 10000 3 250 20:40 13.12.2019
6559 Clouds -13 1014 100 10000 3 250 20:21 13.12.2019
6560 Clouds -13 1014 100 10000 3 250 19:58 13.12.2019
6561 Clouds -12 1014 92 10000 3 250 19:40 13.12.2019
6562 Clouds -12 1014 92 10000 3 250 19:21 13.12.2019
6563 Clouds -12 1013 92 10000 3 250 18:58 13.12.2019
6564 Snow -12 1014 92 10000 3 240 18:40 13.12.2019
6565 Snow -12 1014 92 10000 3 240 18:19 13.12.2019
6566 Snow -12 1014 92 10000 3 240 18:19 13.12.2019
6567 Snow -13 1013 100 10000 4 280 17:42 13.12.2019
6568 Snow -13 1013 100 10000 4 280 17:19 13.12.2019
6569 Snow -13 1013 100 10000 4 280 17:19 13.12.2019
6570 Snow -13 1013 92 10000 3 280 16:59 13.12.2019
6571 Snow -13 1013 92 9000 3 280 16:39 13.12.2019
6572 Snow -13 1013 92 9000 3 280 16:20 13.12.2019
6573 Snow -13 1013 92 10000 4 270 15:43 13.12.2019
6574 Snow -13 1013 92 10000 4 270 15:23 13.12.2019
6575 Snow -13 1012 92 9000 4 270 14:58 13.12.2019
6576 Snow -13 1012 100 8000 4 260 14:40 13.12.2019
6577 Snow -13 1012 100 8000 4 260 14:20 13.12.2019
6578 Clouds -12 1012 100 10000 4 250 13:56 13.12.2019
6579 Clouds -12 1012 100 10000 4 250 13:37 13.12.2019
6580 Clouds -12 1012 100 10000 4 250 13:19 13.12.2019
6581 Clouds -13 1011 100 10000 4 280 12:42 13.12.2019
6582 Clouds -13 1011 100 10000 4 280 12:20 13.12.2019
6583 Clouds -13 1011 100 10000 4 280 12:20 13.12.2019
6584 Clouds -12 1011 100 10000 4 280 11:57 13.12.2019
6585 Clouds -12 1011 100 10000 4 280 11:39 13.12.2019
6586 Clouds -12 1011 100 10000 4 280 11:19 13.12.2019
6587 Clouds -11 1011 100 10000 4 260 10:41 13.12.2019
6588 Clouds -11 1011 100 10000 4 260 10:22 13.12.2019
6589 Clouds -10 1010 100 10000 4 260 09:54 13.12.2019
6590 Clouds -10 1010 100 10000 4 270 09:36 13.12.2019
6591 Clouds -10 1010 100 10000 4 270 09:18 13.12.2019
6592 Clouds -10 1010 100 10000 4 270 09:18 13.12.2019
6593 Clouds -8 1010 100 10000 5 280 08:40 13.12.2019
6594 Clouds -8 1010 100 10000 5 280 08:22 13.12.2019
6595 Clouds -8 1010 100 10000 5 280 07:44 13.12.2019
6596 Clouds -8 1010 100 10000 5 280 07:20 13.12.2019
6597 Snow -7 1009 92 8000 5 280 06:50 13.12.2019
6598 Snow -7 1009 92 10000 5 280 06:28 13.12.2019
6599 Clouds -7 1008 92 10000 5 290 05:44 13.12.2019
6600 Clouds -7 1008 92 10000 5 290 05:24 13.12.2019
6601 Clouds -7 1008 100 10000 6 290 04:35 13.12.2019
6602 Clouds -6 1007 92 10000 5 290 03:30 13.12.2019
6603 Clouds -6 1006 92 10000 6 290 02:32 13.12.2019
6604 Clouds -6 1006 92 10000 6 290 02:32 13.12.2019
6605 Clouds -5 1006 92 10000 6 290 01:42 13.12.2019
6606 Clouds -5 1006 92 10000 5 280 00:53 13.12.2019
6607 Clouds -5 1006 100 10000 5 290 00:34 13.12.2019
6608 Clouds -5 1006 92 10000 5 290 23:57 12.12.2019
6609 Clouds -5 1006 85 10000 5 290 23:37 12.12.2019
6610 Clouds -5 1006 85 10000 5 290 23:19 12.12.2019
6611 Clouds -5 1005 85 10000 6 290 22:42 12.12.2019
6612 Clouds -5 1005 85 10000 6 290 22:23 12.12.2019
6613 Clouds -5 1005 85 10000 6 300 21:56 12.12.2019
6614 Clouds -5 1005 85 10000 6 300 21:56 12.12.2019
6615 Clouds -5 1004 85 10000 6 300 21:38 12.12.2019
6616 Clouds -5 1004 85 10000 6 300 21:20 12.12.2019
6617 Clouds -5 1004 85 10000 8 320 20:59 12.12.2019
6618 Snow -5 1003 92 10000 6 320 20:41 12.12.2019
6619 Snow -5 1003 92 10000 6 320 20:23 12.12.2019
6620 Snow -5 1003 92 10000 6 320 20:23 12.12.2019
6621 Snow -5 1003 92 2600 6 310 19:59 12.12.2019
6622 Snow -5 1002 92 8000 8 320 19:41 12.12.2019
6623 Snow -5 1002 92 8000 8 320 19:21 12.12.2019
6624 Clouds -5 1001 92 10000 7 310 18:57 12.12.2019
6625 Clouds -5 1001 92 10000 7 310 18:57 12.12.2019
6626 Clouds -5 1001 92 10000 7 310 18:57 12.12.2019
6627 Clouds -5 1001 100 10000 7 280 18:38 12.12.2019
6628 Clouds -5 1001 100 10000 7 280 18:20 12.12.2019
6629 Snow -5 1000 100 8000 6 260 17:57 12.12.2019
6630 Snow -5 1000 100 10000 6 270 17:38 12.12.2019
6631 Snow -5 1000 100 10000 6 270 17:20 12.12.2019
6632 Snow -6 1000 100 10000 7 260 16:56 12.12.2019
6633 Snow -6 1000 100 10000 6 250 16:37 12.12.2019
6634 Snow -6 1000 100 10000 6 250 16:19 12.12.2019
6635 Snow -6 1000 100 2400 6 250 15:54 12.12.2019
6636 Snow -6 1000 100 3300 6 250 15:36 12.12.2019
6637 Snow -6 1000 100 3300 6 250 15:18 12.12.2019
6638 Clouds -5 1000 100 8000 6 250 14:38 12.12.2019
6639 Clouds -5 1000 100 8000 6 250 14:38 12.12.2019
6640 Clouds -5 1000 100 8000 6 250 14:20 12.12.2019
6641 Clouds -5 1000 100 10000 6 240 13:57 12.12.2019
6642 Clouds -5 1000 92 10000 7 250 13:39 12.12.2019
6643 Clouds -5 1000 92 10000 7 250 13:21 12.12.2019
6644 Clouds -5 1000 92 10000 6 250 12:57 12.12.2019
6645 Clouds -5 1000 92 10000 6 250 12:39 12.12.2019
6646 Clouds -5 1000 92 10000 6 250 12:20 12.12.2019
6647 Clouds -5 1000 92 10000 5 260 11:55 12.12.2019
6648 Clouds -5 1000 92 10000 7 280 11:37 12.12.2019
6649 Clouds -5 1000 92 10000 7 280 11:19 12.12.2019
6650 Clouds -5 1000 100 10000 9 280 10:54 12.12.2019
6651 Clouds -4 999 92 10000 8 280 10:36 12.12.2019
6652 Clouds -4 999 92 10000 8 280 10:18 12.12.2019
6653 Clouds -4 999 92 10000 8 280 10:18 12.12.2019
6654 Snow -2 999 100 2700 6 260 09:41 12.12.2019
6655 Snow -2 999 100 2700 6 260 09:23 12.12.2019
6656 Snow -2 999 100 1400 4 250 08:56 12.12.2019
6657 Snow -2 999 100 1700 4 240 08:38 12.12.2019
6658 Snow -2 999 100 1700 4 240 08:38 12.12.2019
6659 Snow -2 999 100 1700 4 240 08:19 12.12.2019
6660 Snow -2 999 100 2500 4 230 07:42 12.12.2019
6661 Snow -3 999 100 4100 3 230 07:24 12.12.2019
6662 Snow -3 999 100 2300 3 220 06:48 12.12.2019
6663 Snow -3 999 100 2300 3 220 06:48 12.12.2019
6664 Snow -3 999 100 2600 3 220 06:30 12.12.2019
6665 Snow -3 999 100 2200 4 220 05:36 12.12.2019
6666 Snow -3 999 100 3600 4 210 04:51 12.12.2019
6667 Snow -3 999 100 3600 4 210 04:51 12.12.2019
6668 Snow -3 999 100 6000 4 210 03:20 12.12.2019
6669 Snow -3 1000 100 3600 4 210 02:37 12.12.2019
6670 Snow -3 1000 100 3600 4 210 02:19 12.12.2019
6671 Snow -3 1000 100 2200 4 210 01:37 12.12.2019
6672 Snow -3 1000 100 2200 4 210 01:18 12.12.2019
6673 Snow -3 1001 100 1800 4 200 00:40 12.12.2019
6674 Snow -3 1001 100 1800 4 200 00:19 12.12.2019
6675 Snow -2 1001 100 1600 4 200 23:44 11.12.2019
6676 Snow -2 1001 100 1600 4 200 23:20 11.12.2019
6677 Snow -2 1001 100 2100 4 200 22:57 11.12.2019
6678 Snow -2 1002 100 2900 4 200 22:38 11.12.2019
6679 Snow -2 1002 100 2900 4 200 22:19 11.12.2019
6680 Snow -2 1002 100 2400 4 200 21:57 11.12.2019
6681 Snow -2 1002 100 3500 4 200 21:37 11.12.2019
6682 Snow -2 1002 100 3500 4 200 21:19 11.12.2019
6683 Snow -2 1002 100 1600 4 200 20:56 11.12.2019
6684 Snow -2 1003 100 1300 4 200 20:37 11.12.2019
6685 Snow -2 1003 100 1300 4 200 20:37 11.12.2019
6686 Snow -2 1003 100 1300 4 200 20:19 11.12.2019
6687 Snow -2 1003 100 1500 4 200 19:57 11.12.2019
6688 Snow -2 1003 100 900 4 200 19:38 11.12.2019
6689 Snow -2 1003 100 900 4 200 19:18 11.12.2019
6690 Snow -2 1004 100 2100 6 210 18:40 11.12.2019
6691 Snow -2 1004 100 2100 6 210 18:21 11.12.2019
6692 Clouds -2 1004 100 10000 4 200 17:57 11.12.2019
6693 Clouds -2 1004 100 10000 5 200 17:38 11.12.2019
6694 Clouds -2 1004 100 10000 5 200 17:18 11.12.2019
6695 Clouds -2 1005 100 10000 5 200 16:57 11.12.2019
6696 Clouds -2 1005 100 10000 4 200 16:38 11.12.2019
6697 Clouds -2 1005 100 10000 4 200 16:20 11.12.2019
6698 Clouds -2 1005 100 10000 4 200 15:58 11.12.2019
6699 Clouds -3 1006 100 10000 5 210 15:39 11.12.2019
6700 Clouds -3 1006 100 10000 5 210 15:20 11.12.2019
6701 Clouds -3 1006 100 10000 5 220 14:56 11.12.2019
6702 Clouds -3 1006 100 10000 4 210 14:37 11.12.2019
6703 Clouds -3 1006 100 10000 4 210 14:37 11.12.2019
6704 Clouds -3 1006 100 10000 4 210 14:37 11.12.2019
6705 Clouds -3 1006 100 10000 4 210 14:19 11.12.2019
6706 Clouds -3 1006 100 10000 5 210 13:54 11.12.2019
6707 Clouds -3 1007 100 10000 4 210 13:36 11.12.2019
6708 Clouds -3 1007 100 10000 4 210 13:18 11.12.2019
6709 Clouds -3 1007 100 10000 5 220 12:54 11.12.2019
6710 Clouds -3 1007 100 10000 5 230 12:36 11.12.2019
6711 Clouds -3 1007 100 10000 5 230 12:36 11.12.2019
6712 Clouds -3 1007 100 10000 5 230 12:18 11.12.2019
6713 Clouds -3 1007 100 10000 4 230 11:54 11.12.2019
6714 Clouds -2 1007 100 10000 5 230 11:36 11.12.2019
6715 Clouds -2 1007 100 10000 5 230 11:18 11.12.2019
6716 Clouds -1 1006 92 10000 5 240 10:40 11.12.2019
6717 Clouds -1 1006 92 10000 5 240 10:22 11.12.2019
6718 Clouds -1 1006 92 10000 5 240 09:58 11.12.2019
6719 Clouds -1 1006 92 10000 6 240 09:38 11.12.2019
6720 Clouds -1 1006 92 10000 6 240 09:19 11.12.2019
6721 Clouds -1 1006 92 10000 7 250 08:56 11.12.2019
6722 Clouds -1 1006 92 10000 7 250 08:37 11.12.2019
6723 Clouds -1 1006 92 10000 7 250 08:18 11.12.2019
6724 Clouds 0 1006 90 10000 6 250 07:43 11.12.2019
6725 Clouds 0 1006 90 10000 6 250 07:24 11.12.2019
6726 Clouds 0 1006 90 10000 6 250 07:24 11.12.2019
6727 Clouds 0 1006 90 10000 7 250 06:46 11.12.2019
6728 Clouds 0 1005 90 10000 6 250 06:25 11.12.2019
6729 Clouds 1 1005 86 10000 7 250 05:56 11.12.2019
6730 Clouds 1 1005 86 10000 7 250 05:35 11.12.2019
6731 Clouds 1 1005 86 10000 9 250 04:51 11.12.2019
6732 Clouds 1 1004 92 10000 6 240 03:29 11.12.2019
6733 Clouds 0 1004 92 10000 6 240 02:35 11.12.2019
6734 Clouds 0 1004 92 10000 6 240 01:22 11.12.2019
6735 Clouds 0 1004 92 10000 6 240 00:43 11.12.2019
6736 Clouds 0 1004 92 10000 6 240 00:43 11.12.2019
6737 Clouds 0 1003 92 10000 6 240 00:19 11.12.2019
6738 Clouds 0 1003 92 10000 6 240 23:45 10.12.2019
6739 Clouds 0 1003 92 10000 6 240 23:26 10.12.2019
6740 Clouds 0 1003 91 10000 6 250 22:57 10.12.2019
6741 Clouds 0 1003 91 10000 6 250 22:39 10.12.2019
6742 Clouds 0 1003 91 10000 6 250 22:20 10.12.2019
6743 Clouds 0 1003 91 10000 6 250 21:54 10.12.2019
6744 Clouds 0 1003 91 10000 6 250 21:36 10.12.2019
6745 Clouds 0 1003 91 10000 6 250 21:18 10.12.2019
6746 Clouds 0 1003 91 10000 6 250 20:55 10.12.2019
6747 Clouds 0 1003 91 10000 6 240 20:36 10.12.2019
6748 Clouds 0 1003 95 10000 6 240 20:18 10.12.2019
6749 Clouds 0 1003 95 10000 6 240 20:18 10.12.2019
6750 Clouds 0 1003 95 10000 6 240 19:44 10.12.2019
6751 Clouds -1 1003 100 10000 5 240 19:25 10.12.2019
6752 Clouds -1 1003 100 10000 6 250 18:59 10.12.2019
6753 Clouds -1 1003 100 10000 6 240 18:39 10.12.2019
6754 Clouds -1 1003 100 10000 6 240 18:19 10.12.2019
6755 Snow -1 1003 100 6000 6 240 17:55